<?xml version='1.0' encoding='UTF-8'?><gpx version="1.1" creator="JPX - https://github.com/jenetics/jpx" xmlns="http://www.topografix.com/GPX/1/1"><trk><trkseg><trkpt lat="46.45782024609195" lon="12.422172754990067"><ele>714.0</ele><time>2026-04-19T15:27:14.998Z</time></trkpt><trkpt lat="46.4578672991688" lon="12.422297744353498"><ele>714.0</ele><time>2026-04-19T15:27:16.998Z</time></trkpt><trkpt lat="46.45792083566116" lon="12.422424942742936"><ele>714.0</ele><time>2026-04-19T15:27:18.998Z</time></trkpt><trkpt lat="46.45792368263798" lon="12.42253477644262"><ele>714.0</ele><time>2026-04-19T15:27:22Z</time></trkpt><trkpt lat="46.457862814552" lon="12.422497363910312"><ele>714.0</ele><time>2026-04-19T15:27:25Z</time></trkpt><trkpt lat="46.457784971834215" lon="12.422379800813742"><ele>714.0</ele><time>2026-04-19T15:27:27Z</time></trkpt><trkpt lat="46.45770844809108" lon="12.422297256466054"><ele>714.0</ele><time>2026-04-19T15:27:28Z</time></trkpt><trkpt lat="46.457612194987256" lon="12.422210643979552"><ele>714.0</ele><time>2026-04-19T15:27:29Z</time></trkpt><trkpt lat="46.457514348211326" lon="12.422122575631224"><ele>714.0</ele><time>2026-04-19T15:27:30Z</time></trkpt><trkpt lat="46.45743616249562" lon="12.42203694243444"><ele>714.0</ele><time>2026-04-19T15:27:31Z</time></trkpt><trkpt lat="46.45736467739688" lon="12.421932191670933"><ele>715.6</ele><time>2026-04-19T15:27:32Z</time></trkpt><trkpt lat="46.457316154148366" lon="12.421826367765524"><ele>717.2</ele><time>2026-04-19T15:27:33Z</time></trkpt><trkpt lat="46.45726045195591" lon="12.42171826420376"><ele>718.8000000000001</ele><time>2026-04-19T15:27:34Z</time></trkpt><trkpt lat="46.457212785535425" lon="12.421598059455297"><ele>720.4000000000001</ele><time>2026-04-19T15:27:35Z</time></trkpt><trkpt lat="46.457167056886135" lon="12.42147606411092"><ele>722.0</ele><time>2026-04-19T15:27:36Z</time></trkpt><trkpt lat="46.457110123393385" lon="12.421365557735035"><ele>717.6</ele><time>2026-04-19T15:27:37Z</time></trkpt><trkpt lat="46.45704604948581" lon="12.421269968125461"><ele>713.2</ele><time>2026-04-19T15:27:37.999Z</time></trkpt><trkpt lat="46.456976879887854" lon="12.421195236039793"><ele>708.8</ele><time>2026-04-19T15:27:38.999Z</time></trkpt><trkpt lat="46.45691437645221" lon="12.421094048879981"><ele>704.4</ele><time>2026-04-19T15:27:39.999Z</time></trkpt><trkpt lat="46.45684296730598" lon="12.421000274876025"><ele>700.0</ele><time>2026-04-19T15:27:40.999Z</time></trkpt><trkpt lat="46.45676659755485" lon="12.420908610127505"><ele>700.0</ele><time>2026-04-19T15:27:41.999Z</time></trkpt><trkpt lat="46.456692638940694" lon="12.420810551460683"><ele>700.0</ele><time>2026-04-19T15:27:42.999Z</time></trkpt><trkpt lat="46.45662278863844" lon="12.420712844386173"><ele>700.0</ele><time>2026-04-19T15:27:43.999Z</time></trkpt><trkpt lat="46.45656205466322" lon="12.420620648547459"><ele>700.0</ele><time>2026-04-19T15:27:44.999Z</time></trkpt><trkpt lat="46.45650944273947" lon="12.42054487411851"><ele>700.0</ele><time>2026-04-19T15:27:45.999Z</time></trkpt><trkpt lat="46.456466711353684" lon="12.42047665217681"><ele>700.0</ele><time>2026-04-19T15:27:46.999Z</time></trkpt><trkpt lat="46.45641866842294" lon="12.420341788999888"><ele>694.4</ele><time>2026-04-19T15:27:48.999Z</time></trkpt><trkpt lat="46.45640323360613" lon="12.420160177315603"><ele>688.8</ele><time>2026-04-19T15:27:50.999Z</time></trkpt><trkpt lat="46.45642125715022" lon="12.42004397492358"><ele>683.2</ele><time>2026-04-19T15:27:51.999Z</time></trkpt><trkpt lat="46.4564488151261" lon="12.419914937251365"><ele>677.6</ele><time>2026-04-19T15:27:52.999Z</time></trkpt><trkpt lat="46.456474729178595" lon="12.41978637880121"><ele>672.0</ele><time>2026-04-19T15:27:53.999Z</time></trkpt><trkpt lat="46.45650051387217" lon="12.419650821715928"><ele>672.8</ele><time>2026-04-19T15:27:54.999Z</time></trkpt><trkpt lat="46.45652584018754" lon="12.419507453169706"><ele>673.6</ele><time>2026-04-19T15:27:55.999Z</time></trkpt><trkpt lat="46.456553883338266" lon="12.419360142106674"><ele>674.4</ele><time>2026-04-19T15:27:56.999Z</time></trkpt><trkpt lat="46.45658177762451" lon="12.419215392044414"><ele>675.1999999999999</ele><time>2026-04-19T15:27:57.999Z</time></trkpt><trkpt lat="46.456611790372904" lon="12.419073346724575"><ele>676.0</ele><time>2026-04-19T15:27:58.999Z</time></trkpt><trkpt lat="46.45663992044054" lon="12.418930531942113"><ele>680.5999999999999</ele><time>2026-04-19T15:27:59.999Z</time></trkpt><trkpt lat="46.45666813748768" lon="12.418785506973064"><ele>685.2</ele><time>2026-04-19T15:28:00.999Z</time></trkpt><trkpt lat="46.456699964385024" lon="12.418638285726646"><ele>689.8</ele><time>2026-04-19T15:28:01.999Z</time></trkpt><trkpt lat="46.45673241052791" lon="12.418489483537668"><ele>694.4000000000001</ele><time>2026-04-19T15:28:02.999Z</time></trkpt><trkpt lat="46.456761939558554" lon="12.418343613330762"><ele>699.0</ele><time>2026-04-19T15:28:03.999Z</time></trkpt><trkpt lat="46.45678080693316" lon="12.418199769676736"><ele>699.0</ele><time>2026-04-19T15:28:04.999Z</time></trkpt><trkpt lat="46.4567830260783" lon="12.418060660906747"><ele>699.0</ele><time>2026-04-19T15:28:05.999Z</time></trkpt><trkpt lat="46.45676561518429" lon="12.417919083349842"><ele>699.0</ele><time>2026-04-19T15:28:06.999Z</time></trkpt><trkpt lat="46.4567416944315" lon="12.41777115629829"><ele>699.0</ele><time>2026-04-19T15:28:07.999Z</time></trkpt><trkpt lat="46.456683271932086" lon="12.417633988752023"><ele>699.0</ele><time>2026-04-19T15:28:08.999Z</time></trkpt><trkpt lat="46.456601947804295" lon="12.41752860634133"><ele>699.4000000000001</ele><time>2026-04-19T15:28:09.999Z</time></trkpt><trkpt lat="46.45653106343067" lon="12.417421719283924"><ele>699.8</ele><time>2026-04-19T15:28:10.999Z</time></trkpt><trkpt lat="46.456460586758695" lon="12.417299734152753"><ele>700.2</ele><time>2026-04-19T15:28:11.999Z</time></trkpt><trkpt lat="46.45638260509369" lon="12.41719223075069"><ele>700.5999999999999</ele><time>2026-04-19T15:28:12.999Z</time></trkpt><trkpt lat="46.45629929415312" lon="12.417077380492785"><ele>701.0</ele><time>2026-04-19T15:28:13.999Z</time></trkpt><trkpt lat="46.4562131398642" lon="12.41695861047833"><ele>701.0</ele><time>2026-04-19T15:28:14.999Z</time></trkpt><trkpt lat="46.45612580399993" lon="12.416838211648738"><ele>701.0</ele><time>2026-04-19T15:28:15.999Z</time></trkpt><trkpt lat="46.456034675111624" lon="12.416712583866587"><ele>701.0</ele><time>2026-04-19T15:28:16.999Z</time></trkpt><trkpt lat="46.45593930307833" lon="12.416586366474128"><ele>701.0</ele><time>2026-04-19T15:28:17.999Z</time></trkpt><trkpt lat="46.45583198174652" lon="12.416484033147096"><ele>701.0</ele><time>2026-04-19T15:28:18.999Z</time></trkpt><trkpt lat="46.45574186951691" lon="12.416345789943092"><ele>701.0</ele><time>2026-04-19T15:28:19.999Z</time></trkpt><trkpt lat="46.45563990521751" lon="12.416223596879762"><ele>701.0</ele><time>2026-04-19T15:28:20.999Z</time></trkpt><trkpt lat="46.455537255219944" lon="12.416100582087672"><ele>701.0</ele><time>2026-04-19T15:28:21.999Z</time></trkpt><trkpt lat="46.45542421016171" lon="12.415996975652495"><ele>699.5</ele><time>2026-04-19T15:28:22.999Z</time></trkpt><trkpt lat="46.45531684471323" lon="12.415875550342847"><ele>698.0</ele><time>2026-04-19T15:28:23.999Z</time></trkpt><trkpt lat="46.45521187278707" lon="12.415751889372181"><ele>696.5</ele><time>2026-04-19T15:28:24.999Z</time></trkpt><trkpt lat="46.45510962050783" lon="12.415621879776909"><ele>695.0</ele><time>2026-04-19T15:28:25.999Z</time></trkpt><trkpt lat="46.455003633988774" lon="12.415489374021613"><ele>691.25</ele><time>2026-04-19T15:28:26.999Z</time></trkpt><trkpt lat="46.4549025570131" lon="12.415366023008401"><ele>687.5</ele><time>2026-04-19T15:28:27.999Z</time></trkpt><trkpt lat="46.45479945649041" lon="12.415244204775489"><ele>683.75</ele><time>2026-04-19T15:28:28.999Z</time></trkpt><trkpt lat="46.45470292586751" lon="12.41511624306804"><ele>680.0</ele><time>2026-04-19T15:28:29.999Z</time></trkpt><trkpt lat="46.45461144253845" lon="12.41498136815114"><ele>680.0</ele><time>2026-04-19T15:28:30.999Z</time></trkpt><trkpt lat="46.454536047798165" lon="12.41482359112154"><ele>680.0</ele><time>2026-04-19T15:28:31.999Z</time></trkpt><trkpt lat="46.454491746548285" lon="12.414644185276204"><ele>680.0</ele><time>2026-04-19T15:28:32.999Z</time></trkpt><trkpt lat="46.45443129817924" lon="12.414467304432518"><ele>680.0</ele><time>2026-04-19T15:28:33.999Z</time></trkpt><trkpt lat="46.45437611579335" lon="12.414282866023674"><ele>682.0</ele><time>2026-04-19T15:28:34.999Z</time></trkpt><trkpt lat="46.454301528176686" lon="12.414110879307659"><ele>684.0</ele><time>2026-04-19T15:28:35.999Z</time></trkpt><trkpt lat="46.45420988189204" lon="12.413949829672648"><ele>686.0</ele><time>2026-04-19T15:28:36.999Z</time></trkpt><trkpt lat="46.45411690333637" lon="12.413799685817022"><ele>688.0</ele><time>2026-04-19T15:28:37.999Z</time></trkpt><trkpt lat="46.45403444231707" lon="12.4136448145915"><ele>692.6666666666667</ele><time>2026-04-19T15:28:38.999Z</time></trkpt><trkpt lat="46.45392134986248" lon="12.413297626897268"><ele>697.3333333333334</ele><time>2026-04-19T15:28:40.999Z</time></trkpt><trkpt lat="46.453877929814574" lon="12.413110338635285"><ele>702.0</ele><time>2026-04-19T15:28:41.999Z</time></trkpt><trkpt lat="46.453827499478535" lon="12.412942101641725"><ele>697.25</ele><time>2026-04-19T15:28:42.998Z</time></trkpt><trkpt lat="46.45374533223529" lon="12.412789836786853"><ele>692.5</ele><time>2026-04-19T15:28:43.998Z</time></trkpt><trkpt lat="46.453649844115276" lon="12.412651801803289"><ele>687.75</ele><time>2026-04-19T15:28:44.998Z</time></trkpt><trkpt lat="46.453575788504004" lon="12.412493714071752"><ele>683.0</ele><time>2026-04-19T15:28:45.998Z</time></trkpt><trkpt lat="46.45350292319348" lon="12.412337411378797"><ele>683.0</ele><time>2026-04-19T15:28:46.998Z</time></trkpt><trkpt lat="46.45342267659149" lon="12.41218825666779"><ele>683.0</ele><time>2026-04-19T15:28:47.998Z</time></trkpt><trkpt lat="46.45336002409661" lon="12.412040467058182"><ele>683.0</ele><time>2026-04-19T15:28:48.998Z</time></trkpt><trkpt lat="46.453302883981095" lon="12.411913571279245"><ele>683.0</ele><time>2026-04-19T15:28:49.998Z</time></trkpt><trkpt lat="46.453245923596775" lon="12.41179635781357"><ele>683.5999999999999</ele><time>2026-04-19T15:28:50.998Z</time></trkpt><trkpt lat="46.45318704002557" lon="12.411681339122437"><ele>684.1999999999999</ele><time>2026-04-19T15:28:51.998Z</time></trkpt><trkpt lat="46.453158706060314" lon="12.411543538927319"><ele>684.8</ele><time>2026-04-19T15:28:52.998Z</time></trkpt><trkpt lat="46.45315204499272" lon="12.41140653887665"><ele>685.4</ele><time>2026-04-19T15:28:53.998Z</time></trkpt><trkpt lat="46.453157257663115" lon="12.41126377692191"><ele>686.0</ele><time>2026-04-19T15:28:54.998Z</time></trkpt><trkpt lat="46.45320481447314" lon="12.411146791816474"><ele>687.1999999999999</ele><time>2026-04-19T15:28:55.998Z</time></trkpt><trkpt lat="46.453293887689576" lon="12.411100689909587"><ele>688.4</ele><time>2026-04-19T15:28:56.998Z</time></trkpt><trkpt lat="46.45337801450442" lon="12.411000577490707"><ele>689.6</ele><time>2026-04-19T15:28:57.998Z</time></trkpt><trkpt lat="46.453471569108416" lon="12.410904325822276"><ele>690.8</ele><time>2026-04-19T15:28:58.998Z</time></trkpt><trkpt lat="46.45354684028975" lon="12.410763592590577"><ele>692.0</ele><time>2026-04-19T15:28:59.998Z</time></trkpt><trkpt lat="46.4536143600928" lon="12.410599944986405"><ele>691.0</ele><time>2026-04-19T15:29:00.998Z</time></trkpt><trkpt lat="46.45370214248979" lon="12.410467723889575"><ele>690.0</ele><time>2026-04-19T15:29:01.998Z</time></trkpt><trkpt lat="46.45377955006512" lon="12.410324194855088"><ele>689.0</ele><time>2026-04-19T15:29:02.998Z</time></trkpt><trkpt lat="46.453866110777284" lon="12.410193279384886"><ele>688.0</ele><time>2026-04-19T15:29:03.998Z</time></trkpt><trkpt lat="46.45394644197244" lon="12.410069722496994"><ele>691.0</ele><time>2026-04-19T15:29:04.998Z</time></trkpt><trkpt lat="46.454017806891756" lon="12.409954406478516"><ele>694.0</ele><time>2026-04-19T15:29:05.998Z</time></trkpt><trkpt lat="46.45408348616903" lon="12.409859372717898"><ele>697.0</ele><time>2026-04-19T15:29:06.998Z</time></trkpt><trkpt lat="46.45413981811699" lon="12.409803843726714"><ele>700.0</ele><time>2026-04-19T15:29:07.998Z</time></trkpt><trkpt lat="46.45420461646249" lon="12.409764437608835"><ele>703.0</ele><time>2026-04-19T15:29:09.998Z</time></trkpt><trkpt lat="46.45425935363037" lon="12.409845036871479"><ele>706.0</ele><time>2026-04-19T15:29:10.998Z</time></trkpt><trkpt lat="46.45436476267471" lon="12.409969448632625"><ele>706.0</ele><time>2026-04-19T15:29:12.998Z</time></trkpt><trkpt lat="46.454428976416644" lon="12.41004578525011"><ele>706.0</ele><time>2026-04-19T15:29:13.998Z</time></trkpt><trkpt lat="46.45450407796593" lon="12.410119210265535"><ele>706.0</ele><time>2026-04-19T15:29:14.998Z</time></trkpt><trkpt lat="46.4545731314156" lon="12.410210730199053"><ele>706.0</ele><time>2026-04-19T15:29:15.998Z</time></trkpt><trkpt lat="46.45465020580821" lon="12.41030097771191"><ele>706.0</ele><time>2026-04-19T15:29:16.998Z</time></trkpt><trkpt lat="46.45472354159838" lon="12.410389922090117"><ele>707.0</ele><time>2026-04-19T15:29:17.998Z</time></trkpt><trkpt lat="46.4547818441202" lon="12.410452723477851"><ele>708.0</ele><time>2026-04-19T15:29:18.998Z</time></trkpt><trkpt lat="46.45483916696767" lon="12.410543948909739"><ele>709.0</ele><time>2026-04-19T15:29:20.998Z</time></trkpt><trkpt lat="46.45495375646148" lon="12.410437396243129"><ele>710.0</ele><time>2026-04-19T15:29:21.998Z</time></trkpt><trkpt lat="46.45504452272654" lon="12.41040379383009"><ele>711.0</ele><time>2026-04-19T15:29:22.998Z</time></trkpt><trkpt lat="46.455143989919684" lon="12.410378020289757"><ele>711.0</ele><time>2026-04-19T15:29:23.998Z</time></trkpt><trkpt lat="46.455244066443946" lon="12.410330490636868"><ele>711.0</ele><time>2026-04-19T15:29:24.998Z</time></trkpt><trkpt lat="46.45534975055933" lon="12.410331899546552"><ele>711.0</ele><time>2026-04-19T15:29:25.998Z</time></trkpt><trkpt lat="46.45545990457648" lon="12.410336215632364"><ele>711.0</ele><time>2026-04-19T15:29:26.999Z</time></trkpt><trkpt lat="46.455575490518434" lon="12.410326140450044"><ele>711.0</ele><time>2026-04-19T15:29:27.999Z</time></trkpt><trkpt lat="46.455687002548466" lon="12.410330397286248"><ele>713.0</ele><time>2026-04-19T15:29:28.999Z</time></trkpt><trkpt lat="46.45579714621354" lon="12.410346699580648"><ele>715.0</ele><time>2026-04-19T15:29:29.999Z</time></trkpt><trkpt lat="46.45590202856056" lon="12.410394835636065"><ele>717.0</ele><time>2026-04-19T15:29:30.999Z</time></trkpt><trkpt lat="46.45600079344542" lon="12.410469212379283"><ele>719.0</ele><time>2026-04-19T15:29:31.999Z</time></trkpt><trkpt lat="46.45607625427284" lon="12.41058538489739"><ele>721.0</ele><time>2026-04-19T15:29:32.999Z</time></trkpt><trkpt lat="46.45615323706338" lon="12.410696355378416"><ele>721.0</ele><time>2026-04-19T15:29:33.999Z</time></trkpt><trkpt lat="46.45624129576628" lon="12.410793983415635"><ele>721.0</ele><time>2026-04-19T15:29:34.999Z</time></trkpt><trkpt lat="46.45631093610602" lon="12.41092164395487"><ele>721.0</ele><time>2026-04-19T15:29:35.999Z</time></trkpt><trkpt lat="46.4563990996997" lon="12.411031224808042"><ele>721.0</ele><time>2026-04-19T15:29:36.999Z</time></trkpt><trkpt lat="46.45650334910833" lon="12.411114880420453"><ele>724.25</ele><time>2026-04-19T15:29:37.999Z</time></trkpt><trkpt lat="46.45659606554867" lon="12.411225274876104"><ele>727.5</ele><time>2026-04-19T15:29:38.999Z</time></trkpt><trkpt lat="46.456710965551274" lon="12.411286251909198"><ele>730.75</ele><time>2026-04-19T15:29:39.999Z</time></trkpt><trkpt lat="46.45681539760396" lon="12.411363992930287"><ele>734.0</ele><time>2026-04-19T15:29:40.999Z</time></trkpt><trkpt lat="46.45692092166533" lon="12.411437364563186"><ele>734.0</ele><time>2026-04-19T15:29:41.999Z</time></trkpt><trkpt lat="46.45701487405573" lon="12.41151572841121"><ele>734.0</ele><time>2026-04-19T15:29:42.999Z</time></trkpt><trkpt lat="46.45709362837886" lon="12.411596429679419"><ele>734.0</ele><time>2026-04-19T15:29:43.999Z</time></trkpt><trkpt lat="46.45714654264809" lon="12.411714582254282"><ele>734.0</ele><time>2026-04-19T15:29:44.999Z</time></trkpt><trkpt lat="46.457220202726795" lon="12.411816490781606"><ele>734.0</ele><time>2026-04-19T15:29:45.999Z</time></trkpt><trkpt lat="46.4572909422883" lon="12.411928059665513"><ele>735.5</ele><time>2026-04-19T15:29:46.999Z</time></trkpt><trkpt lat="46.45738451411268" lon="12.412025903885286"><ele>737.0</ele><time>2026-04-19T15:29:47.999Z</time></trkpt><trkpt lat="46.457481280097255" lon="12.412122589076152"><ele>738.5</ele><time>2026-04-19T15:29:48.999Z</time></trkpt><trkpt lat="46.45757957277619" lon="12.412221169999162"><ele>740.0</ele><time>2026-04-19T15:29:49.999Z</time></trkpt><trkpt lat="46.457683460653115" lon="12.412309769544988"><ele>740.5</ele><time>2026-04-19T15:29:50.999Z</time></trkpt><trkpt lat="46.45779285912404" lon="12.412389643297155"><ele>741.0</ele><time>2026-04-19T15:29:51.999Z</time></trkpt><trkpt lat="46.45790624872858" lon="12.412459902857782"><ele>741.5</ele><time>2026-04-19T15:29:52.999Z</time></trkpt><trkpt lat="46.458023202290455" lon="12.412513446044962"><ele>742.0</ele><time>2026-04-19T15:29:53.999Z</time></trkpt><trkpt lat="46.45814135852092" lon="12.412564977773528"><ele>744.25</ele><time>2026-04-19T15:29:54.999Z</time></trkpt><trkpt lat="46.45825665435733" lon="12.412623203146023"><ele>746.5</ele><time>2026-04-19T15:29:55.999Z</time></trkpt><trkpt lat="46.45837180785312" lon="12.412682405232133"><ele>748.75</ele><time>2026-04-19T15:29:56.999Z</time></trkpt><trkpt lat="46.45848516330098" lon="12.412737576951947"><ele>751.0</ele><time>2026-04-19T15:29:57.999Z</time></trkpt><trkpt lat="46.458591615779326" lon="12.412815606958297"><ele>751.0</ele><time>2026-04-19T15:29:58.999Z</time></trkpt><trkpt lat="46.458703542464995" lon="12.412858564768428"><ele>751.0</ele><time>2026-04-19T15:29:59.999Z</time></trkpt><trkpt lat="46.45882058697499" lon="12.412866393282783"><ele>751.0</ele><time>2026-04-19T15:30:00.999Z</time></trkpt><trkpt lat="46.458925103465035" lon="12.41282522026277"><ele>751.0</ele><time>2026-04-19T15:30:01.999Z</time></trkpt><trkpt lat="46.45901465089679" lon="12.41281290504954"><ele>751.0</ele><time>2026-04-19T15:30:02.999Z</time></trkpt><trkpt lat="46.459081899702106" lon="12.412806828179514"><ele>754.0</ele><time>2026-04-19T15:30:03.999Z</time></trkpt><trkpt lat="46.45917417299815" lon="12.412825782920034"><ele>757.0</ele><time>2026-04-19T15:30:05.999Z</time></trkpt><trkpt lat="46.45921795428538" lon="12.413019131134282"><ele>760.0</ele><time>2026-04-19T15:30:09.999Z</time></trkpt><trkpt lat="46.45920548399335" lon="12.41314013215086"><ele>763.0</ele><time>2026-04-19T15:30:10.999Z</time></trkpt><trkpt lat="46.459211357558225" lon="12.413278984297028"><ele>766.0</ele><time>2026-04-19T15:30:11.999Z</time></trkpt><trkpt lat="46.45922806154959" lon="12.413439767949896"><ele>766.0</ele><time>2026-04-19T15:30:12.999Z</time></trkpt><trkpt lat="46.45926605356341" lon="12.41361526326632"><ele>766.0</ele><time>2026-04-19T15:30:13.999Z</time></trkpt><trkpt lat="46.45932184601851" lon="12.413794519327592"><ele>766.0</ele><time>2026-04-19T15:30:14.999Z</time></trkpt><trkpt lat="46.459390289149596" lon="12.413971697059635"><ele>766.0</ele><time>2026-04-19T15:30:15.999Z</time></trkpt><trkpt lat="46.45946290825478" lon="12.414162406110044"><ele>766.3333333333334</ele><time>2026-04-19T15:30:16.999Z</time></trkpt><trkpt lat="46.45953225755261" lon="12.414355524476802"><ele>766.6666666666666</ele><time>2026-04-19T15:30:17.999Z</time></trkpt><trkpt lat="46.45960315710085" lon="12.414551054765704"><ele>767.0</ele><time>2026-04-19T15:30:18.999Z</time></trkpt><trkpt lat="46.45967379988003" lon="12.414754295504784"><ele>769.0</ele><time>2026-04-19T15:30:19.999Z</time></trkpt><trkpt lat="46.45974453351543" lon="12.41495846307617"><ele>771.0</ele><time>2026-04-19T15:30:20.999Z</time></trkpt><trkpt lat="46.45981722303337" lon="12.415163472293058"><ele>773.0</ele><time>2026-04-19T15:30:21.999Z</time></trkpt><trkpt lat="46.45988835144254" lon="12.4153660149286"><ele>773.3333333333334</ele><time>2026-04-19T15:30:22.999Z</time></trkpt><trkpt lat="46.45996097748273" lon="12.415567529690136"><ele>773.6666666666667</ele><time>2026-04-19T15:30:23.999Z</time></trkpt><trkpt lat="46.46002802547188" lon="12.415765446430319"><ele>774.0</ele><time>2026-04-19T15:30:24.999Z</time></trkpt><trkpt lat="46.4600988901381" lon="12.415957355806613"><ele>774.0</ele><time>2026-04-19T15:30:25.999Z</time></trkpt><trkpt lat="46.46018646095419" lon="12.41613590743263"><ele>774.0</ele><time>2026-04-19T15:30:26.999Z</time></trkpt><trkpt lat="46.46028965909298" lon="12.416301559106147"><ele>774.0</ele><time>2026-04-19T15:30:27.999Z</time></trkpt><trkpt lat="46.46040504119169" lon="12.416453630548068"><ele>775.3333333333333</ele><time>2026-04-19T15:30:28.999Z</time></trkpt><trkpt lat="46.460525815797745" lon="12.416597753120993"><ele>776.6666666666666</ele><time>2026-04-19T15:30:29.999Z</time></trkpt><trkpt lat="46.46064679122103" lon="12.416744019316058"><ele>778.0</ele><time>2026-04-19T15:30:30.999Z</time></trkpt><trkpt lat="46.460766477416655" lon="12.416894786695359"><ele>778.0</ele><time>2026-04-19T15:30:31.999Z</time></trkpt><trkpt lat="46.46087999355668" lon="12.41704720033009"><ele>778.0</ele><time>2026-04-19T15:30:32.999Z</time></trkpt><trkpt lat="46.460990707015874" lon="12.417195725750203"><ele>778.0</ele><time>2026-04-19T15:30:33.999Z</time></trkpt><trkpt lat="46.46109994181389" lon="12.417341483608874"><ele>777.25</ele><time>2026-04-19T15:30:34.999Z</time></trkpt><trkpt lat="46.46120207625971" lon="12.417494534943406"><ele>776.5</ele><time>2026-04-19T15:30:35.999Z</time></trkpt><trkpt lat="46.4612960338975" lon="12.417654508633095"><ele>775.75</ele><time>2026-04-19T15:30:36.999Z</time></trkpt><trkpt lat="46.46137491465663" lon="12.417833033922406"><ele>775.0</ele><time>2026-04-19T15:30:37.999Z</time></trkpt><trkpt lat="46.46144349670565" lon="12.418024645185621"><ele>774.0</ele><time>2026-04-19T15:30:38.999Z</time></trkpt><trkpt lat="46.46150786836256" lon="12.418225341274535"><ele>773.0</ele><time>2026-04-19T15:30:39.999Z</time></trkpt><trkpt lat="46.46157200326312" lon="12.418427864530825"><ele>772.0</ele><time>2026-04-19T15:30:40.999Z</time></trkpt><trkpt lat="46.46164526535727" lon="12.418624013857036"><ele>772.0</ele><time>2026-04-19T15:30:41.999Z</time></trkpt><trkpt lat="46.46173116158981" lon="12.418813612463753"><ele>772.0</ele><time>2026-04-19T15:30:42.999Z</time></trkpt><trkpt lat="46.46182380287676" lon="12.418998153327001"><ele>772.0</ele><time>2026-04-19T15:30:43.999Z</time></trkpt><trkpt lat="46.46191356334058" lon="12.41919215445093"><ele>771.3333333333333</ele><time>2026-04-19T15:30:44.998Z</time></trkpt><trkpt lat="46.461994299547044" lon="12.41939550970332"><ele>770.6666666666667</ele><time>2026-04-19T15:30:45.998Z</time></trkpt><trkpt lat="46.462065251973414" lon="12.419609034496824"><ele>770.0</ele><time>2026-04-19T15:30:46.998Z</time></trkpt><trkpt lat="46.46213979011895" lon="12.419817259749621"><ele>772.6666666666667</ele><time>2026-04-19T15:30:47.998Z</time></trkpt><trkpt lat="46.4622287402156" lon="12.420015614013337"><ele>775.3333333333333</ele><time>2026-04-19T15:30:48.998Z</time></trkpt><trkpt lat="46.462330572221795" lon="12.42019738315593"><ele>778.0</ele><time>2026-04-19T15:30:49.998Z</time></trkpt><trkpt lat="46.46244177854211" lon="12.420349189378427"><ele>777.25</ele><time>2026-04-19T15:30:50.998Z</time></trkpt><trkpt lat="46.4625637366986" lon="12.420487220228226"><ele>776.5</ele><time>2026-04-19T15:30:51.998Z</time></trkpt><trkpt lat="46.46268272065691" lon="12.420623030219392"><ele>775.75</ele><time>2026-04-19T15:30:52.998Z</time></trkpt><trkpt lat="46.46279011213421" lon="12.420746801815545"><ele>775.0</ele><time>2026-04-19T15:30:53.998Z</time></trkpt><trkpt lat="46.462894922622475" lon="12.420865404998011"><ele>776.0</ele><time>2026-04-19T15:30:54.998Z</time></trkpt><trkpt lat="46.46298473689254" lon="12.420977565210167"><ele>777.0</ele><time>2026-04-19T15:30:55.998Z</time></trkpt><trkpt lat="46.46305318962324" lon="12.421100074517128"><ele>778.0</ele><time>2026-04-19T15:30:56.998Z</time></trkpt><trkpt lat="46.463099042852456" lon="12.42122578168154"><ele>779.0</ele><time>2026-04-19T15:30:57.998Z</time></trkpt><trkpt lat="46.46315285146656" lon="12.42133317132909"><ele>780.0</ele><time>2026-04-19T15:30:58.998Z</time></trkpt><trkpt lat="46.463236299190605" lon="12.421415643955038"><ele>780.0</ele><time>2026-04-19T15:30:59.998Z</time></trkpt><trkpt lat="46.46334084115448" lon="12.421480434047947"><ele>780.0</ele><time>2026-04-19T15:31:00.998Z</time></trkpt><trkpt lat="46.463454307787714" lon="12.421553932130163"><ele>780.0</ele><time>2026-04-19T15:31:01.998Z</time></trkpt><trkpt lat="46.46355615226913" lon="12.421664505279459"><ele>780.0</ele><time>2026-04-19T15:31:02.998Z</time></trkpt><trkpt lat="46.46364727620221" lon="12.421817935834463"><ele>780.0</ele><time>2026-04-19T15:31:03.998Z</time></trkpt><trkpt lat="46.4637315591307" lon="12.421988778326844"><ele>780.0</ele><time>2026-04-19T15:31:04.998Z</time></trkpt><trkpt lat="46.4638131373827" lon="12.422179898865073"><ele>780.0</ele><time>2026-04-19T15:31:05.998Z</time></trkpt><trkpt lat="46.46389414560993" lon="12.422377077868498"><ele>785.3333333333333</ele><time>2026-04-19T15:31:06.998Z</time></trkpt><trkpt lat="46.463979697121715" lon="12.422572930867457"><ele>790.6666666666666</ele><time>2026-04-19T15:31:07.998Z</time></trkpt><trkpt lat="46.46407835505797" lon="12.422764120659458"><ele>796.0</ele><time>2026-04-19T15:31:08.998Z</time></trkpt><trkpt lat="46.46418620930623" lon="12.422954364878144"><ele>791.6666666666666</ele><time>2026-04-19T15:31:09.998Z</time></trkpt><trkpt lat="46.464296046957706" lon="12.423142224525291"><ele>787.3333333333333</ele><time>2026-04-19T15:31:10.998Z</time></trkpt><trkpt lat="46.464412674432516" lon="12.42331499166289"><ele>783.0</ele><time>2026-04-19T15:31:11.998Z</time></trkpt><trkpt lat="46.46454484442087" lon="12.423457740094612"><ele>785.0</ele><time>2026-04-19T15:31:12.998Z</time></trkpt><trkpt lat="46.46468498341016" lon="12.423583187822064"><ele>787.0</ele><time>2026-04-19T15:31:13.998Z</time></trkpt><trkpt lat="46.46483081668434" lon="12.42371462387234"><ele>789.0</ele><time>2026-04-19T15:31:14.998Z</time></trkpt><trkpt lat="46.4649787874622" lon="12.423849288202826"><ele>789.0</ele><time>2026-04-19T15:31:15.998Z</time></trkpt><trkpt lat="46.46512428305881" lon="12.423989204376957"><ele>789.0</ele><time>2026-04-19T15:31:16.998Z</time></trkpt><trkpt lat="46.465261986272125" lon="12.42413900646704"><ele>789.0</ele><time>2026-04-19T15:31:17.998Z</time></trkpt><trkpt lat="46.46539355040369" lon="12.424304026619325"><ele>791.6666666666667</ele><time>2026-04-19T15:31:18.998Z</time></trkpt><trkpt lat="46.46551852723887" lon="12.424482531908708"><ele>794.3333333333334</ele><time>2026-04-19T15:31:19.998Z</time></trkpt><trkpt lat="46.465638206562396" lon="12.424666465058749"><ele>797.0</ele><time>2026-04-19T15:31:20.998Z</time></trkpt><trkpt lat="46.46574866838672" lon="12.424865250967194"><ele>797.0</ele><time>2026-04-19T15:31:21.998Z</time></trkpt><trkpt lat="46.46585899058415" lon="12.425064789070833"><ele>797.0</ele><time>2026-04-19T15:31:22.998Z</time></trkpt><trkpt lat="46.46597561302481" lon="12.425263354254598"><ele>797.0</ele><time>2026-04-19T15:31:23.998Z</time></trkpt><trkpt lat="46.466091674264526" lon="12.425464175776819"><ele>795.0</ele><time>2026-04-19T15:31:24.998Z</time></trkpt><trkpt lat="46.46620438325329" lon="12.425668071890671"><ele>793.0</ele><time>2026-04-19T15:31:25.998Z</time></trkpt><trkpt lat="46.4663138766575" lon="12.425873711696248"><ele>791.0</ele><time>2026-04-19T15:31:26.998Z</time></trkpt><trkpt lat="46.46642169105544" lon="12.426081299593436"><ele>795.3333333333334</ele><time>2026-04-19T15:31:27.998Z</time></trkpt><trkpt lat="46.46652904288485" lon="12.42628660790109"><ele>799.6666666666667</ele><time>2026-04-19T15:31:28.998Z</time></trkpt><trkpt lat="46.466635627101795" lon="12.426490104787096"><ele>804.0</ele><time>2026-04-19T15:31:29.998Z</time></trkpt><trkpt lat="46.46674709225672" lon="12.426685454040346"><ele>804.0</ele><time>2026-04-19T15:31:30.998Z</time></trkpt><trkpt lat="46.46686996290333" lon="12.42686290443874"><ele>804.0</ele><time>2026-04-19T15:31:31.998Z</time></trkpt><trkpt lat="46.46700348543909" lon="12.42702780319031"><ele>804.0</ele><time>2026-04-19T15:31:32.999Z</time></trkpt><trkpt lat="46.4671371048361" lon="12.427193200356012"><ele>806.3333333333333</ele><time>2026-04-19T15:31:33.999Z</time></trkpt><trkpt lat="46.46726705922127" lon="12.427365446063385"><ele>808.6666666666666</ele><time>2026-04-19T15:31:34.999Z</time></trkpt><trkpt lat="46.46739119746262" lon="12.427546806719878"><ele>811.0</ele><time>2026-04-19T15:31:35.999Z</time></trkpt><trkpt lat="46.46750822590351" lon="12.427736460000164"><ele>811.0</ele><time>2026-04-19T15:31:36.999Z</time></trkpt><trkpt lat="46.46761992311425" lon="12.427938512117306"><ele>811.0</ele><time>2026-04-19T15:31:37.999Z</time></trkpt><trkpt lat="46.46773392323729" lon="12.4281409677731"><ele>811.0</ele><time>2026-04-19T15:31:38.999Z</time></trkpt><trkpt lat="46.46784698348394" lon="12.428344191325653"><ele>811.3333333333333</ele><time>2026-04-19T15:31:39.999Z</time></trkpt><trkpt lat="46.46796061797328" lon="12.42854999723219"><ele>811.6666666666667</ele><time>2026-04-19T15:31:40.999Z</time></trkpt><trkpt lat="46.46807575001092" lon="12.428755923272721"><ele>812.0</ele><time>2026-04-19T15:31:41.999Z</time></trkpt><trkpt lat="46.46818972580221" lon="12.428963607546393"><ele>812.0</ele><time>2026-04-19T15:31:42.999Z</time></trkpt><trkpt lat="46.46829942957892" lon="12.429167267622955"><ele>812.0</ele><time>2026-04-19T15:31:43.999Z</time></trkpt><trkpt lat="46.46840699080771" lon="12.429362644529187"><ele>812.0</ele><time>2026-04-19T15:31:44.999Z</time></trkpt><trkpt lat="46.468511311936474" lon="12.42955104708873"><ele>812.6666666666667</ele><time>2026-04-19T15:31:45.999Z</time></trkpt><trkpt lat="46.46861249125868" lon="12.42973033603783"><ele>813.3333333333333</ele><time>2026-04-19T15:31:46.999Z</time></trkpt><trkpt lat="46.46871750658774" lon="12.42990990332366"><ele>814.0</ele><time>2026-04-19T15:31:47.999Z</time></trkpt><trkpt lat="46.468827244888054" lon="12.43009236472835"><ele>814.0</ele><time>2026-04-19T15:31:48.999Z</time></trkpt><trkpt lat="46.46895181390867" lon="12.430263352181564"><ele>814.0</ele><time>2026-04-19T15:31:49.999Z</time></trkpt><trkpt lat="46.46909118143479" lon="12.430417823439091"><ele>814.0</ele><time>2026-04-19T15:31:50.999Z</time></trkpt><trkpt lat="46.46924166011982" lon="12.4305644068483"><ele>814.0</ele><time>2026-04-19T15:31:51.999Z</time></trkpt><trkpt lat="46.46939074905119" lon="12.430724642724035"><ele>814.0</ele><time>2026-04-19T15:31:52.999Z</time></trkpt><trkpt lat="46.469537061372726" lon="12.430892446402808"><ele>814.0</ele><time>2026-04-19T15:31:53.999Z</time></trkpt><trkpt lat="46.469679301827036" lon="12.431069671529624"><ele>814.0</ele><time>2026-04-19T15:31:54.999Z</time></trkpt><trkpt lat="46.46981447559694" lon="12.43125346239806"><ele>814.0</ele><time>2026-04-19T15:31:55.999Z</time></trkpt><trkpt lat="46.46994560099097" lon="12.43143615204455"><ele>814.0</ele><time>2026-04-19T15:31:56.999Z</time></trkpt><trkpt lat="46.47007312094306" lon="12.431608249743608"><ele>812.0</ele><time>2026-04-19T15:31:57.999Z</time></trkpt><trkpt lat="46.470197830049315" lon="12.43176455711876"><ele>810.0</ele><time>2026-04-19T15:31:58.999Z</time></trkpt><trkpt lat="46.47032086383625" lon="12.431910474575176"><ele>808.0</ele><time>2026-04-19T15:31:59.999Z</time></trkpt><trkpt lat="46.47044633599339" lon="12.432038332428345"><ele>808.0</ele><time>2026-04-19T15:32:00.999Z</time></trkpt><trkpt lat="46.4705882866185" lon="12.432139262406682"><ele>808.0</ele><time>2026-04-19T15:32:01.999Z</time></trkpt><trkpt lat="46.47074850197575" lon="12.43220866649199"><ele>808.0</ele><time>2026-04-19T15:32:02.999Z</time></trkpt><trkpt lat="46.470919542243884" lon="12.43224411366466"><ele>804.6666666666666</ele><time>2026-04-19T15:32:03.999Z</time></trkpt><trkpt lat="46.471097134614475" lon="12.432253699195922"><ele>801.3333333333333</ele><time>2026-04-19T15:32:04.999Z</time></trkpt><trkpt lat="46.47128160464451" lon="12.432247370322278"><ele>798.0</ele><time>2026-04-19T15:32:05.999Z</time></trkpt><trkpt lat="46.47146857747237" lon="12.43223564658713"><ele>798.6666666666667</ele><time>2026-04-19T15:32:06.999Z</time></trkpt><trkpt lat="46.47165433196871" lon="12.432204152085095"><ele>799.3333333333334</ele><time>2026-04-19T15:32:07.999Z</time></trkpt><trkpt lat="46.471831483838315" lon="12.432149603451112"><ele>800.0</ele><time>2026-04-19T15:32:08.999Z</time></trkpt><trkpt lat="46.471998020732684" lon="12.432091072184894"><ele>797.0</ele><time>2026-04-19T15:32:09.999Z</time></trkpt><trkpt lat="46.4721589119753" lon="12.432046008185294"><ele>794.0</ele><time>2026-04-19T15:32:10.999Z</time></trkpt><trkpt lat="46.472313011733974" lon="12.432008499769918"><ele>791.0</ele><time>2026-04-19T15:32:11.999Z</time></trkpt><trkpt lat="46.47246454721613" lon="12.431990883529076"><ele>791.0</ele><time>2026-04-19T15:32:12.999Z</time></trkpt><trkpt lat="46.47261611156957" lon="12.432011001464426"><ele>791.0</ele><time>2026-04-19T15:32:13.999Z</time></trkpt><trkpt lat="46.472763008745225" lon="12.432074584337824"><ele>791.0</ele><time>2026-04-19T15:32:14.999Z</time></trkpt><trkpt lat="46.47289517091945" lon="12.432184021597774"><ele>791.3333333333334</ele><time>2026-04-19T15:32:15.999Z</time></trkpt><trkpt lat="46.47301750893927" lon="12.432328301512504"><ele>791.6666666666667</ele><time>2026-04-19T15:32:16.999Z</time></trkpt><trkpt lat="46.47312778299359" lon="12.432500327249908"><ele>792.0</ele><time>2026-04-19T15:32:17.999Z</time></trkpt><trkpt lat="46.473233982680085" lon="12.43268499744231"><ele>792.0</ele><time>2026-04-19T15:32:18.999Z</time></trkpt><trkpt lat="46.47334131251344" lon="12.432875143027301"><ele>792.0</ele><time>2026-04-19T15:32:19.999Z</time></trkpt><trkpt lat="46.473453344186375" lon="12.433058693317271"><ele>792.0</ele><time>2026-04-19T15:32:20.999Z</time></trkpt><trkpt lat="46.4735729566473" lon="12.433239822486119"><ele>789.6666666666667</ele><time>2026-04-19T15:32:21.999Z</time></trkpt><trkpt lat="46.47369779696692" lon="12.433418271227122"><ele>787.3333333333334</ele><time>2026-04-19T15:32:22.999Z</time></trkpt><trkpt lat="46.473832465418845" lon="12.433575476244988"><ele>785.0</ele><time>2026-04-19T15:32:23.999Z</time></trkpt><trkpt lat="46.4739781314976" lon="12.433713511280073"><ele>786.0</ele><time>2026-04-19T15:32:24.999Z</time></trkpt><trkpt lat="46.474127749981136" lon="12.433842916727363"><ele>787.0</ele><time>2026-04-19T15:32:25.999Z</time></trkpt><trkpt lat="46.47427352394227" lon="12.43397697437652"><ele>788.0</ele><time>2026-04-19T15:32:26.999Z</time></trkpt><trkpt lat="46.474416695502484" lon="12.434112559581106"><ele>788.0</ele><time>2026-04-19T15:32:27.999Z</time></trkpt><trkpt lat="46.474557701220164" lon="12.43425255730685"><ele>788.0</ele><time>2026-04-19T15:32:28.999Z</time></trkpt><trkpt lat="46.47469377878768" lon="12.434397370560871"><ele>788.0</ele><time>2026-04-19T15:32:29.999Z</time></trkpt><trkpt lat="46.47482132987343" lon="12.434559113056105"><ele>789.0</ele><time>2026-04-19T15:32:30.999Z</time></trkpt><trkpt lat="46.474938217711" lon="12.434738576506644"><ele>790.0</ele><time>2026-04-19T15:32:31.999Z</time></trkpt><trkpt lat="46.475044075387146" lon="12.434931431354286"><ele>791.0</ele><time>2026-04-19T15:32:32.999Z</time></trkpt><trkpt lat="46.47515774673366" lon="12.435134715800457"><ele>791.0</ele><time>2026-04-19T15:32:33.999Z</time></trkpt><trkpt lat="46.47527756544346" lon="12.435347041131097"><ele>791.0</ele><time>2026-04-19T15:32:34.999Z</time></trkpt><trkpt lat="46.47539790683973" lon="12.435569718540428"><ele>791.0</ele><time>2026-04-19T15:32:35.999Z</time></trkpt><trkpt lat="46.47545594925983" lon="12.435685481801745"><ele>792.6666666666667</ele><time>2026-04-19T15:32:36.999Z</time></trkpt><trkpt lat="46.47555202617655" lon="12.435862269828258"><ele>794.3333333333333</ele><time>2026-04-19T15:32:37.999Z</time></trkpt><trkpt lat="46.47564013949962" lon="12.436035442186224"><ele>796.0</ele><time>2026-04-19T15:32:38.999Z</time></trkpt><trkpt lat="46.47574927325717" lon="12.436189083628598"><ele>795.0</ele><time>2026-04-19T15:32:39.999Z</time></trkpt><trkpt lat="46.47587602669551" lon="12.436332721349709"><ele>794.0</ele><time>2026-04-19T15:32:40.999Z</time></trkpt><trkpt lat="46.47601211570848" lon="12.436470188468236"><ele>793.0</ele><time>2026-04-19T15:32:41.999Z</time></trkpt><trkpt lat="46.47614823363362" lon="12.436599373800053"><ele>793.0</ele><time>2026-04-19T15:32:42.999Z</time></trkpt><trkpt lat="46.476272108345015" lon="12.43672575948168"><ele>793.0</ele><time>2026-04-19T15:32:43.999Z</time></trkpt><trkpt lat="46.47638517308582" lon="12.436848016650519"><ele>793.0</ele><time>2026-04-19T15:32:44.999Z</time></trkpt><trkpt lat="46.47649218973029" lon="12.436965803545004"><ele>793.0</ele><time>2026-04-19T15:32:45.999Z</time></trkpt><trkpt lat="46.47660838032925" lon="12.437067290851527"><ele>792.3333333333333</ele><time>2026-04-19T15:32:46.999Z</time></trkpt><trkpt lat="46.476708263965875" lon="12.43723273317514"><ele>791.6666666666667</ele><time>2026-04-19T15:32:47.999Z</time></trkpt><trkpt lat="46.476818172409345" lon="12.437392917483988"><ele>791.0</ele><time>2026-04-19T15:32:48.999Z</time></trkpt><trkpt lat="46.47691711539309" lon="12.437558498678282"><ele>791.0</ele><time>2026-04-19T15:32:49.999Z</time></trkpt><trkpt lat="46.477009643637864" lon="12.437728898946192"><ele>791.0</ele><time>2026-04-19T15:32:50.999Z</time></trkpt><trkpt lat="46.47709922669846" lon="12.437885798929882"><ele>791.0</ele><time>2026-04-19T15:32:51.999Z</time></trkpt><trkpt lat="46.477197156449215" lon="12.43803560646088"><ele>791.0</ele><time>2026-04-19T15:32:52.999Z</time></trkpt><trkpt lat="46.47730805464956" lon="12.438149208511025"><ele>789.0</ele><time>2026-04-19T15:32:53.999Z</time></trkpt><trkpt lat="46.47744141591783" lon="12.438225535023385"><ele>787.0</ele><time>2026-04-19T15:32:54.999Z</time></trkpt><trkpt lat="46.47757737728243" lon="12.43829141770051"><ele>785.0</ele><time>2026-04-19T15:32:55.999Z</time></trkpt><trkpt lat="46.477700666633396" lon="12.438340773428767"><ele>783.0</ele><time>2026-04-19T15:32:56.999Z</time></trkpt><trkpt lat="46.477813264510694" lon="12.438394020242212"><ele>783.0</ele><time>2026-04-19T15:32:57.999Z</time></trkpt><trkpt lat="46.4779115837376" lon="12.43843863767244"><ele>783.0</ele><time>2026-04-19T15:32:58.999Z</time></trkpt><trkpt lat="46.47798772623661" lon="12.43847190683587"><ele>783.0</ele><time>2026-04-19T15:32:59.999Z</time></trkpt><trkpt lat="46.4780640915958" lon="12.438530227108645"><ele>783.0</ele><time>2026-04-19T15:33:00.999Z</time></trkpt><trkpt lat="46.478142109666045" lon="12.438621345463538"><ele>783.0</ele><time>2026-04-19T15:33:01.999Z</time></trkpt><trkpt lat="46.478206726966384" lon="12.438792213128293"><ele>782.0</ele><time>2026-04-19T15:33:02.999Z</time></trkpt><trkpt lat="46.478310932672244" lon="12.43893913709692"><ele>781.0</ele><time>2026-04-19T15:33:03.999Z</time></trkpt><trkpt lat="46.4784050704173" lon="12.439108540137605"><ele>780.0</ele><time>2026-04-19T15:33:04.999Z</time></trkpt><trkpt lat="46.47850484829794" lon="12.439264695900698"><ele>779.0</ele><time>2026-04-19T15:33:05.999Z</time></trkpt><trkpt lat="46.47861746286829" lon="12.439394419285183"><ele>779.0</ele><time>2026-04-19T15:33:06.999Z</time></trkpt><trkpt lat="46.478751751437166" lon="12.439495568887045"><ele>779.0</ele><time>2026-04-19T15:33:07.999Z</time></trkpt><trkpt lat="46.47889858078877" lon="12.439577072377267"><ele>779.0</ele><time>2026-04-19T15:33:08.999Z</time></trkpt><trkpt lat="46.4790534392586" lon="12.439651077307161"><ele>776.0</ele><time>2026-04-19T15:33:09.999Z</time></trkpt><trkpt lat="46.479212236513796" lon="12.439721717743085"><ele>773.0</ele><time>2026-04-19T15:33:10.999Z</time></trkpt><trkpt lat="46.479376203343435" lon="12.43978988052144"><ele>770.0</ele><time>2026-04-19T15:33:11.999Z</time></trkpt><trkpt lat="46.47954393379748" lon="12.439852713235291"><ele>769.6666666666667</ele><time>2026-04-19T15:33:12.999Z</time></trkpt><trkpt lat="46.479712826210495" lon="12.439914483023745"><ele>769.3333333333333</ele><time>2026-04-19T15:33:13.999Z</time></trkpt><trkpt lat="46.47988351016504" lon="12.439976987094338"><ele>769.0</ele><time>2026-04-19T15:33:14.999Z</time></trkpt><trkpt lat="46.48005432480681" lon="12.44004060833159"><ele>769.0</ele><time>2026-04-19T15:33:15.999Z</time></trkpt><trkpt lat="46.48022570601642" lon="12.440107944949418"><ele>769.0</ele><time>2026-04-19T15:33:16.999Z</time></trkpt><trkpt lat="46.480397696051725" lon="12.440167258839534"><ele>769.0</ele><time>2026-04-19T15:33:17.999Z</time></trkpt><trkpt lat="46.48056816434519" lon="12.44022445929281"><ele>773.6666666666666</ele><time>2026-04-19T15:33:18.999Z</time></trkpt><trkpt lat="46.48073769803397" lon="12.440279078500179"><ele>778.3333333333333</ele><time>2026-04-19T15:33:19.999Z</time></trkpt><trkpt lat="46.480908053035726" lon="12.440333433662246"><ele>783.0</ele><time>2026-04-19T15:33:20.999Z</time></trkpt><trkpt lat="46.48107618689159" lon="12.440387175743192"><ele>783.0</ele><time>2026-04-19T15:33:21.999Z</time></trkpt><trkpt lat="46.48123953778011" lon="12.44044610919153"><ele>783.0</ele><time>2026-04-19T15:33:22.999Z</time></trkpt><trkpt lat="46.48139462987238" lon="12.440516514090211"><ele>783.0</ele><time>2026-04-19T15:33:23.999Z</time></trkpt><trkpt lat="46.48152785031741" lon="12.440636198677845"><ele>777.75</ele><time>2026-04-19T15:33:24.999Z</time></trkpt><trkpt lat="46.481659238089605" lon="12.44074544907298"><ele>772.5</ele><time>2026-04-19T15:33:25.999Z</time></trkpt><trkpt lat="46.481773468076966" lon="12.440873826240574"><ele>767.25</ele><time>2026-04-19T15:33:26.999Z</time></trkpt><trkpt lat="46.48187991167042" lon="12.440995568767105"><ele>762.0</ele><time>2026-04-19T15:33:27.999Z</time></trkpt><trkpt lat="46.48198329880957" lon="12.441093491629003"><ele>762.0</ele><time>2026-04-19T15:33:28.999Z</time></trkpt><trkpt lat="46.482091999462405" lon="12.441166823040362"><ele>762.0</ele><time>2026-04-19T15:33:29.999Z</time></trkpt><trkpt lat="46.48221616405774" lon="12.441197916837751"><ele>762.0</ele><time>2026-04-19T15:33:30.999Z</time></trkpt><trkpt lat="46.48233823567831" lon="12.44117869592647"><ele>762.0</ele><time>2026-04-19T15:33:31.999Z</time></trkpt><trkpt lat="46.482467314128115" lon="12.441122173269699"><ele>766.6666666666667</ele><time>2026-04-19T15:33:32.999Z</time></trkpt><trkpt lat="46.482602596272365" lon="12.441041454162463"><ele>771.3333333333334</ele><time>2026-04-19T15:33:33.999Z</time></trkpt><trkpt lat="46.482751835031316" lon="12.440979718911603"><ele>776.0</ele><time>2026-04-19T15:33:34.999Z</time></trkpt><trkpt lat="46.482901491027455" lon="12.440930146782218"><ele>773.25</ele><time>2026-04-19T15:33:35.999Z</time></trkpt><trkpt lat="46.48305130201588" lon="12.440891946756091"><ele>770.5</ele><time>2026-04-19T15:33:36.999Z</time></trkpt><trkpt lat="46.48319597607891" lon="12.440862151789458"><ele>767.75</ele><time>2026-04-19T15:33:38Z</time></trkpt><trkpt lat="46.483338563417284" lon="12.44083054856019"><ele>765.0</ele><time>2026-04-19T15:33:39Z</time></trkpt><trkpt lat="46.48348448469389" lon="12.440800647769432"><ele>765.0</ele><time>2026-04-19T15:33:40Z</time></trkpt><trkpt lat="46.48362259672412" lon="12.440760458977495"><ele>765.0</ele><time>2026-04-19T15:33:41Z</time></trkpt><trkpt lat="46.48375211909037" lon="12.440714474221556"><ele>765.0</ele><time>2026-04-19T15:33:42Z</time></trkpt><trkpt lat="46.483876506949514" lon="12.440671426444984"><ele>765.0</ele><time>2026-04-19T15:33:43Z</time></trkpt><trkpt lat="46.48399167256718" lon="12.440649921922745"><ele>762.0</ele><time>2026-04-19T15:33:44Z</time></trkpt><trkpt lat="46.484102224981115" lon="12.44066363718649"><ele>759.0</ele><time>2026-04-19T15:33:45Z</time></trkpt><trkpt lat="46.48420196066987" lon="12.440708397069264"><ele>756.0</ele><time>2026-04-19T15:33:46Z</time></trkpt><trkpt lat="46.48428592023215" lon="12.4407657881388"><ele>753.0</ele><time>2026-04-19T15:33:47Z</time></trkpt><trkpt lat="46.48436101961217" lon="12.440836786029257"><ele>750.0</ele><time>2026-04-19T15:33:48Z</time></trkpt><trkpt lat="46.48442194223627" lon="12.440928522872317"><ele>750.0</ele><time>2026-04-19T15:33:49Z</time></trkpt><trkpt lat="46.4844849456087" lon="12.441027553117534"><ele>750.0</ele><time>2026-04-19T15:33:50Z</time></trkpt><trkpt lat="46.48454483301197" lon="12.44114428911649"><ele>750.0</ele><time>2026-04-19T15:33:51Z</time></trkpt><trkpt lat="46.48457470088741" lon="12.441282831194274"><ele>750.0</ele><time>2026-04-19T15:33:52Z</time></trkpt><trkpt lat="46.48460200279703" lon="12.441387053942595"><ele>750.0</ele><time>2026-04-19T15:33:53Z</time></trkpt><trkpt lat="46.484618580342605" lon="12.441476486494633"><ele>750.0</ele><time>2026-04-19T15:33:54Z</time></trkpt><trkpt lat="46.48464189932638" lon="12.441609046218305"><ele>752.6</ele><time>2026-04-19T15:33:56Z</time></trkpt><trkpt lat="46.48479902101444" lon="12.441608780855853"><ele>755.2</ele><time>2026-04-19T15:33:57Z</time></trkpt><trkpt lat="46.48487000339643" lon="12.441656148850008"><ele>757.8</ele><time>2026-04-19T15:33:58Z</time></trkpt><trkpt lat="46.484908261168734" lon="12.441758245356116"><ele>760.4</ele><time>2026-04-19T15:33:59Z</time></trkpt><trkpt lat="46.48493608857543" lon="12.441856580633873"><ele>763.0</ele><time>2026-04-19T15:34:00Z</time></trkpt><trkpt lat="46.484999314821344" lon="12.441954675677485"><ele>763.0</ele><time>2026-04-19T15:34:02Z</time></trkpt><trkpt lat="46.48500190877917" lon="12.442051219962517"><ele>763.0</ele><time>2026-04-19T15:34:04Z</time></trkpt><trkpt lat="46.48495146840638" lon="12.442150981700424"><ele>763.0</ele><time>2026-04-19T15:34:06Z</time></trkpt><trkpt lat="46.48491557368524" lon="12.442246465934673"><ele>763.0</ele><time>2026-04-19T15:34:07Z</time></trkpt><trkpt lat="46.484876458368205" lon="12.442344544628543"><ele>763.0</ele><time>2026-04-19T15:34:08Z</time></trkpt><trkpt lat="46.484850667743615" lon="12.442465099748008"><ele>763.0</ele><time>2026-04-19T15:34:09Z</time></trkpt><trkpt lat="46.48481669203972" lon="12.442574508029107"><ele>763.0</ele><time>2026-04-19T15:34:10Z</time></trkpt><trkpt lat="46.484794866411" lon="12.442683893082394"><ele>763.0</ele><time>2026-04-19T15:34:11Z</time></trkpt><trkpt lat="46.484772698314565" lon="12.442778747137305"><ele>763.0</ele><time>2026-04-19T15:34:12Z</time></trkpt><trkpt lat="46.48473654028953" lon="12.442869101335422"><ele>763.0</ele><time>2026-04-19T15:34:13Z</time></trkpt><trkpt lat="46.48470633664133" lon="12.442962513007664"><ele>763.0</ele><time>2026-04-19T15:34:14Z</time></trkpt><trkpt lat="46.48466706370476" lon="12.443047288562685"><ele>763.0</ele><time>2026-04-19T15:34:15Z</time></trkpt><trkpt lat="46.48465192591167" lon="12.443139261185268"><ele>763.0</ele><time>2026-04-19T15:34:16Z</time></trkpt><trkpt lat="46.48467735436749" lon="12.443315803633093"><ele>763.0</ele><time>2026-04-19T15:34:18Z</time></trkpt><trkpt lat="46.484680356405484" lon="12.443485762965224"><ele>763.0</ele><time>2026-04-19T15:34:20Z</time></trkpt><trkpt lat="46.484658049604946" lon="12.44358721934677"><ele>763.0</ele><time>2026-04-19T15:34:21Z</time></trkpt><trkpt lat="46.48463576226775" lon="12.443687549159531"><ele>763.0</ele><time>2026-04-19T15:34:22Z</time></trkpt><trkpt lat="46.48462409238339" lon="12.443786565595966"><ele>763.0</ele><time>2026-04-19T15:34:23Z</time></trkpt><trkpt lat="46.48463273908911" lon="12.443896576158176"><ele>763.0</ele><time>2026-04-19T15:34:24Z</time></trkpt><trkpt lat="46.48461339280491" lon="12.44401455606092"><ele>763.0</ele><time>2026-04-19T15:34:25Z</time></trkpt><trkpt lat="46.48467280483925" lon="12.444130452641364"><ele>763.0</ele><time>2026-04-19T15:34:26Z</time></trkpt><trkpt lat="46.48470342105437" lon="12.444247696541739"><ele>763.0</ele><time>2026-04-19T15:34:27Z</time></trkpt><trkpt lat="46.48473724104841" lon="12.444359243248483"><ele>763.0</ele><time>2026-04-19T15:34:28Z</time></trkpt><trkpt lat="46.4847843705738" lon="12.444453781905086"><ele>763.0</ele><time>2026-04-19T15:34:29Z</time></trkpt><trkpt lat="46.484866831129494" lon="12.444522617091767"><ele>763.0</ele><time>2026-04-19T15:34:30Z</time></trkpt><trkpt lat="46.48495548058227" lon="12.444593745560525"><ele>762.0</ele><time>2026-04-19T15:34:31Z</time></trkpt><trkpt lat="46.485044980612265" lon="12.444657594626534"><ele>761.0</ele><time>2026-04-19T15:34:32Z</time></trkpt><trkpt lat="46.48513073088145" lon="12.44473766704934"><ele>760.0</ele><time>2026-04-19T15:34:33Z</time></trkpt><trkpt lat="46.48521740501822" lon="12.444812657930273"><ele>759.0</ele><time>2026-04-19T15:34:34Z</time></trkpt><trkpt lat="46.48530886160353" lon="12.444881665845479"><ele>758.0</ele><time>2026-04-19T15:34:35Z</time></trkpt><trkpt lat="46.48540502418982" lon="12.44495200417159"><ele>759.8</ele><time>2026-04-19T15:34:36Z</time></trkpt><trkpt lat="46.48549933356999" lon="12.445028147582827"><ele>761.5999999999999</ele><time>2026-04-19T15:34:37Z</time></trkpt><trkpt lat="46.48558727391108" lon="12.44511459843449"><ele>763.4000000000001</ele><time>2026-04-19T15:34:38Z</time></trkpt><trkpt lat="46.485673335354335" lon="12.445220685844026"><ele>765.2</ele><time>2026-04-19T15:34:39Z</time></trkpt><trkpt lat="46.48576282649914" lon="12.445321633752156"><ele>767.0</ele><time>2026-04-19T15:34:40Z</time></trkpt><trkpt lat="46.485844177410904" lon="12.445428934033865"><ele>768.5</ele><time>2026-04-19T15:34:41Z</time></trkpt><trkpt lat="46.48594050957046" lon="12.44551685004842"><ele>770.0</ele><time>2026-04-19T15:34:42Z</time></trkpt><trkpt lat="46.486045439227986" lon="12.445579468769257"><ele>771.5</ele><time>2026-04-19T15:34:43Z</time></trkpt><trkpt lat="46.486143542995414" lon="12.44566420086069"><ele>773.0</ele><time>2026-04-19T15:34:44Z</time></trkpt><trkpt lat="46.48635061311388" lon="12.445837773830183"><ele>773.0</ele><time>2026-04-19T15:34:46Z</time></trkpt><trkpt lat="46.486456203395655" lon="12.445924239018844"><ele>773.0</ele><time>2026-04-19T15:34:47Z</time></trkpt><trkpt lat="46.48656572400146" lon="12.446003428247208"><ele>773.0</ele><time>2026-04-19T15:34:48Z</time></trkpt><trkpt lat="46.486681069319275" lon="12.446076009492224"><ele>773.0</ele><time>2026-04-19T15:34:49Z</time></trkpt><trkpt lat="46.48679588401716" lon="12.446148037028852"><ele>773.0</ele><time>2026-04-19T15:34:50Z</time></trkpt><trkpt lat="46.48691046090315" lon="12.446219579553677"><ele>773.0</ele><time>2026-04-19T15:34:51Z</time></trkpt><trkpt lat="46.48701912115927" lon="12.446294502263815"><ele>773.0</ele><time>2026-04-19T15:34:52Z</time></trkpt><trkpt lat="46.48712673788543" lon="12.446368865005306"><ele>773.0</ele><time>2026-04-19T15:34:53Z</time></trkpt><trkpt lat="46.48722906844424" lon="12.4464452205285"><ele>773.2</ele><time>2026-04-19T15:34:53.999Z</time></trkpt><trkpt lat="46.48731991298872" lon="12.446536526607122"><ele>773.4</ele><time>2026-04-19T15:34:54.999Z</time></trkpt><trkpt lat="46.487400531391096" lon="12.446632975684269"><ele>773.6</ele><time>2026-04-19T15:34:55.999Z</time></trkpt><trkpt lat="46.48747123251553" lon="12.446727883729642"><ele>773.8000000000001</ele><time>2026-04-19T15:34:56.999Z</time></trkpt><trkpt lat="46.48754484829914" lon="12.446814826746277"><ele>774.0</ele><time>2026-04-19T15:34:57.999Z</time></trkpt><trkpt lat="46.48763558729616" lon="12.446859452004853"><ele>774.0</ele><time>2026-04-19T15:34:58.999Z</time></trkpt><trkpt lat="46.48774504626932" lon="12.446837424673138"><ele>774.0</ele><time>2026-04-19T15:34:59.999Z</time></trkpt><trkpt lat="46.487850463738575" lon="12.446824442355988"><ele>774.0</ele><time>2026-04-19T15:35:00.999Z</time></trkpt><trkpt lat="46.48795989814035" lon="12.446800433167857"><ele>774.0</ele><time>2026-04-19T15:35:01.999Z</time></trkpt><trkpt lat="46.48807656154404" lon="12.446807241653143"><ele>774.0</ele><time>2026-04-19T15:35:02.999Z</time></trkpt><trkpt lat="46.488193861051535" lon="12.446804239919214"><ele>774.75</ele><time>2026-04-19T15:35:03.999Z</time></trkpt><trkpt lat="46.488310004046596" lon="12.446814231471993"><ele>775.5</ele><time>2026-04-19T15:35:04.999Z</time></trkpt><trkpt lat="46.48842668088827" lon="12.446808705165132"><ele>776.25</ele><time>2026-04-19T15:35:05.999Z</time></trkpt><trkpt lat="46.48853786651477" lon="12.446830707476604"><ele>777.0</ele><time>2026-04-19T15:35:06.999Z</time></trkpt><trkpt lat="46.48865046263446" lon="12.44685611958292"><ele>777.5</ele><time>2026-04-19T15:35:07.999Z</time></trkpt><trkpt lat="46.48876087122181" lon="12.446881518634866"><ele>778.0</ele><time>2026-04-19T15:35:08.999Z</time></trkpt><trkpt lat="46.48884524681345" lon="12.446891369127776"><ele>778.5</ele><time>2026-04-19T15:35:09.999Z</time></trkpt><trkpt lat="46.488911715182596" lon="12.446897036315317"><ele>779.0</ele><time>2026-04-19T15:35:10.999Z</time></trkpt><trkpt lat="46.48897546708802" lon="12.446844412039487"><ele>779.5</ele><time>2026-04-19T15:35:11.999Z</time></trkpt><trkpt lat="46.48901869083616" lon="12.446749120183355"><ele>780.0</ele><time>2026-04-19T15:35:12.999Z</time></trkpt><trkpt lat="46.48901998752261" lon="12.446619263581237"><ele>780.0</ele><time>2026-04-19T15:35:13.999Z</time></trkpt><trkpt lat="46.489031337405" lon="12.44650069513127"><ele>780.0</ele><time>2026-04-19T15:35:14.999Z</time></trkpt><trkpt lat="46.489057227439375" lon="12.446379028753121"><ele>780.0</ele><time>2026-04-19T15:35:15.999Z</time></trkpt><trkpt lat="46.4890860893587" lon="12.446269802238257"><ele>780.0</ele><time>2026-04-19T15:35:16.999Z</time></trkpt><trkpt lat="46.48911293513212" lon="12.446178759466374"><ele>780.0</ele><time>2026-04-19T15:35:17.999Z</time></trkpt><trkpt lat="46.489180485066164" lon="12.446103914818867"><ele>780.0</ele><time>2026-04-19T15:35:19.999Z</time></trkpt><trkpt lat="46.48925137601269" lon="12.44612248685499"><ele>780.0</ele><time>2026-04-19T15:35:21.999Z</time></trkpt><trkpt lat="46.48923915992225" lon="12.44625458594616"><ele>780.0</ele><time>2026-04-19T15:35:22.999Z</time></trkpt><trkpt lat="46.48927406237627" lon="12.446382851883621"><ele>780.0</ele><time>2026-04-19T15:35:24.999Z</time></trkpt><trkpt lat="46.48932937074333" lon="12.44650291442506"><ele>780.0</ele><time>2026-04-19T15:35:26.999Z</time></trkpt><trkpt lat="46.489369418718304" lon="12.446609322729866"><ele>780.0</ele><time>2026-04-19T15:35:28.999Z</time></trkpt><trkpt lat="46.489411192906346" lon="12.446708790843712"><ele>780.0</ele><time>2026-04-19T15:35:30.999Z</time></trkpt><trkpt lat="46.48943996619101" lon="12.446790221040464"><ele>780.0</ele><time>2026-04-19T15:35:32.999Z</time></trkpt><trkpt lat="46.489409089766156" lon="12.446693149533283"><ele>780.0</ele><time>2026-04-19T15:35:44Z</time></trkpt><trkpt lat="46.48935979592607" lon="12.446523700067143"><ele>780.0</ele><time>2026-04-19T15:35:45Z</time></trkpt><trkpt lat="46.48930433677349" lon="12.446396447332484"><ele>780.0</ele><time>2026-04-19T15:35:46Z</time></trkpt><trkpt lat="46.48925617425182" lon="12.446282881123325"><ele>780.0</ele><time>2026-04-19T15:35:47Z</time></trkpt><trkpt lat="46.48921916784712" lon="12.446207705655281"><ele>780.0</ele><time>2026-04-19T15:35:48Z</time></trkpt><trkpt lat="46.48923764533153" lon="12.446082816123285"><ele>780.0</ele><time>2026-04-19T15:35:51Z</time></trkpt><trkpt lat="46.48935486434233" lon="12.446137873712212"><ele>780.0</ele><time>2026-04-19T15:35:53Z</time></trkpt><trkpt lat="46.489415439388985" lon="12.446241635171175"><ele>780.0</ele><time>2026-04-19T15:35:54Z</time></trkpt><trkpt lat="46.48946574915295" lon="12.446330057157928"><ele>780.0</ele><time>2026-04-19T15:35:55Z</time></trkpt><trkpt lat="46.48951350261612" lon="12.446416219372098"><ele>784.4</ele><time>2026-04-19T15:35:56Z</time></trkpt><trkpt lat="46.489594793636954" lon="12.446523722137668"><ele>788.8</ele><time>2026-04-19T15:35:58Z</time></trkpt><trkpt lat="46.48964542596077" lon="12.446596479894"><ele>793.2</ele><time>2026-04-19T15:35:59Z</time></trkpt><trkpt lat="46.48970783626772" lon="12.446687257485234"><ele>797.6</ele><time>2026-04-19T15:36:00Z</time></trkpt><trkpt lat="46.48977475499144" lon="12.446778702691212"><ele>802.0</ele><time>2026-04-19T15:36:01Z</time></trkpt><trkpt lat="46.48984482981373" lon="12.446879697259872"><ele>802.0</ele><time>2026-04-19T15:36:02Z</time></trkpt><trkpt lat="46.48990913860426" lon="12.446996332855207"><ele>802.0</ele><time>2026-04-19T15:36:03Z</time></trkpt><trkpt lat="46.489963681249776" lon="12.447125051391572"><ele>802.0</ele><time>2026-04-19T15:36:04Z</time></trkpt><trkpt lat="46.49000394298657" lon="12.44725976002719"><ele>802.0</ele><time>2026-04-19T15:36:05Z</time></trkpt><trkpt lat="46.490037825428104" lon="12.447397940406072"><ele>802.0</ele><time>2026-04-19T15:36:06Z</time></trkpt><trkpt lat="46.49008222885784" lon="12.447531704841918"><ele>799.8</ele><time>2026-04-19T15:36:07Z</time></trkpt><trkpt lat="46.49014366603073" lon="12.447655735741499"><ele>797.6</ele><time>2026-04-19T15:36:08Z</time></trkpt><trkpt lat="46.49020607665513" lon="12.447767671301152"><ele>795.4</ele><time>2026-04-19T15:36:09Z</time></trkpt><trkpt lat="46.49026503865319" lon="12.447879250395486"><ele>793.1999999999999</ele><time>2026-04-19T15:36:10Z</time></trkpt><trkpt lat="46.49032307292358" lon="12.44797740549057"><ele>791.0</ele><time>2026-04-19T15:36:11Z</time></trkpt><trkpt lat="46.49039832604939" lon="12.448060853815134"><ele>795.0</ele><time>2026-04-19T15:36:12Z</time></trkpt><trkpt lat="46.49048407093141" lon="12.448132576939605"><ele>799.0</ele><time>2026-04-19T15:36:13Z</time></trkpt><trkpt lat="46.490558796938004" lon="12.448235173742887"><ele>803.0</ele><time>2026-04-19T15:36:14Z</time></trkpt><trkpt lat="46.49063678573357" lon="12.448323460729108"><ele>807.0</ele><time>2026-04-19T15:36:15Z</time></trkpt><trkpt lat="46.490709686209385" lon="12.44840868571804"><ele>811.0</ele><time>2026-04-19T15:36:16Z</time></trkpt><trkpt lat="46.49076588162355" lon="12.448514628004398"><ele>811.0</ele><time>2026-04-19T15:36:17Z</time></trkpt><trkpt lat="46.49083452508414" lon="12.44860648882225"><ele>811.0</ele><time>2026-04-19T15:36:18Z</time></trkpt><trkpt lat="46.490917529064646" lon="12.448691369931453"><ele>811.0</ele><time>2026-04-19T15:36:19Z</time></trkpt><trkpt lat="46.49100614574241" lon="12.448780365231848"><ele>811.0</ele><time>2026-04-19T15:36:20Z</time></trkpt><trkpt lat="46.49109596244799" lon="12.448873033718865"><ele>811.0</ele><time>2026-04-19T15:36:21Z</time></trkpt><trkpt lat="46.49118124500584" lon="12.4489744301298"><ele>812.4</ele><time>2026-04-19T15:36:22Z</time></trkpt><trkpt lat="46.49125514582334" lon="12.4490768723549"><ele>813.8</ele><time>2026-04-19T15:36:23Z</time></trkpt><trkpt lat="46.49131131483928" lon="12.449171362166737"><ele>815.1999999999999</ele><time>2026-04-19T15:36:24Z</time></trkpt><trkpt lat="46.49136904033753" lon="12.449289107257753"><ele>816.5999999999999</ele><time>2026-04-19T15:36:26Z</time></trkpt><trkpt lat="46.49143543680309" lon="12.449246772153344"><ele>818.0</ele><time>2026-04-19T15:36:28Z</time></trkpt><trkpt lat="46.4914081712224" lon="12.449077699039618"><ele>818.0000000000001</ele><time>2026-04-19T15:36:30Z</time></trkpt><trkpt lat="46.491351220477014" lon="12.448985474718528"><ele>818.0</ele><time>2026-04-19T15:36:31Z</time></trkpt><trkpt lat="46.491292646919405" lon="12.44890552021054"><ele>818.0</ele><time>2026-04-19T15:36:32Z</time></trkpt><trkpt lat="46.491228542016" lon="12.448818556107012"><ele>818.0</ele><time>2026-04-19T15:36:33Z</time></trkpt><trkpt lat="46.491162577901285" lon="12.44872800173191"><ele>818.0000000000001</ele><time>2026-04-19T15:36:34Z</time></trkpt><trkpt lat="46.491087413367694" lon="12.448647057547188"><ele>818.0</ele><time>2026-04-19T15:36:35Z</time></trkpt><trkpt lat="46.49102215513627" lon="12.448551139536846"><ele>816.5999999999999</ele><time>2026-04-19T15:36:36Z</time></trkpt><trkpt lat="46.49097088709265" lon="12.448438534015377"><ele>815.1999999999999</ele><time>2026-04-19T15:36:37Z</time></trkpt><trkpt lat="46.490912980142575" lon="12.448323943096188"><ele>813.8</ele><time>2026-04-19T15:36:38Z</time></trkpt><trkpt lat="46.49085453256329" lon="12.448204336420433"><ele>812.4</ele><time>2026-04-19T15:36:39Z</time></trkpt><trkpt lat="46.49080214175294" lon="12.448068609423443"><ele>811.0</ele><time>2026-04-19T15:36:40Z</time></trkpt><trkpt lat="46.4907425990917" lon="12.447913645226729"><ele>814.5999999999999</ele><time>2026-04-19T15:36:41Z</time></trkpt><trkpt lat="46.49067177711313" lon="12.447767943450058"><ele>818.2</ele><time>2026-04-19T15:36:42Z</time></trkpt><trkpt lat="46.490606770105956" lon="12.447620408175238"><ele>821.8</ele><time>2026-04-19T15:36:43Z</time></trkpt><trkpt lat="46.490551955611764" lon="12.447487070272874"><ele>825.4000000000001</ele><time>2026-04-19T15:36:44Z</time></trkpt><trkpt lat="46.49050893366156" lon="12.447379055304047"><ele>829.0</ele><time>2026-04-19T15:36:45Z</time></trkpt><trkpt lat="46.490474571171845" lon="12.447282743743697"><ele>829.0</ele><time>2026-04-19T15:36:46Z</time></trkpt><trkpt lat="46.490462223082474" lon="12.447164602967842"><ele>829.0</ele><time>2026-04-19T15:36:47Z</time></trkpt><trkpt lat="46.490467765719444" lon="12.447009067731113"><ele>829.0</ele><time>2026-04-19T15:36:48Z</time></trkpt><trkpt lat="46.49046037437126" lon="12.4468415643096"><ele>829.0</ele><time>2026-04-19T15:36:49Z</time></trkpt><trkpt lat="46.49044668624043" lon="12.44666899105965"><ele>829.0</ele><time>2026-04-19T15:36:50Z</time></trkpt><trkpt lat="46.49043288159585" lon="12.44651777268652"><ele>825.5</ele><time>2026-04-19T15:36:51Z</time></trkpt><trkpt lat="46.49041551559127" lon="12.446363612533506"><ele>822.0</ele><time>2026-04-19T15:36:52Z</time></trkpt><trkpt lat="46.49038273489577" lon="12.44620409597938"><ele>818.5</ele><time>2026-04-19T15:36:53Z</time></trkpt><trkpt lat="46.49033346567324" lon="12.44605026221423"><ele>815.0</ele><time>2026-04-19T15:36:54Z</time></trkpt><trkpt lat="46.49028249599536" lon="12.445903376410474"><ele>815.0</ele><time>2026-04-19T15:36:55Z</time></trkpt><trkpt lat="46.49023261539364" lon="12.445759629423062"><ele>815.0</ele><time>2026-04-19T15:36:56Z</time></trkpt><trkpt lat="46.49018428805683" lon="12.445620358199372"><ele>815.0</ele><time>2026-04-19T15:36:57Z</time></trkpt><trkpt lat="46.490136904434415" lon="12.44548380685737"><ele>815.0</ele><time>2026-04-19T15:36:58Z</time></trkpt><trkpt lat="46.4900952372686" lon="12.44534777740718"><ele>815.0</ele><time>2026-04-19T15:36:58.999Z</time></trkpt><trkpt lat="46.490056067555365" lon="12.44520785253356"><ele>819.0</ele><time>2026-04-19T15:36:59.999Z</time></trkpt><trkpt lat="46.49005044853776" lon="12.445049388743088"><ele>823.0</ele><time>2026-04-19T15:37:00.999Z</time></trkpt><trkpt lat="46.490037045527515" lon="12.444889261341062"><ele>827.0</ele><time>2026-04-19T15:37:01.999Z</time></trkpt><trkpt lat="46.49001582295553" lon="12.444730577375028"><ele>831.0</ele><time>2026-04-19T15:37:02.999Z</time></trkpt><trkpt lat="46.48997832270845" lon="12.444578286086236"><ele>835.0</ele><time>2026-04-19T15:37:03.999Z</time></trkpt><trkpt lat="46.48992731943004" lon="12.44443229368731"><ele>839.4</ele><time>2026-04-19T15:37:04.999Z</time></trkpt><trkpt lat="46.489876987160194" lon="12.444289265651333"><ele>843.8</ele><time>2026-04-19T15:37:05.999Z</time></trkpt><trkpt lat="46.48981711869629" lon="12.444154235138358"><ele>848.2</ele><time>2026-04-19T15:37:06.999Z</time></trkpt><trkpt lat="46.489753314102686" lon="12.444025464549362"><ele>852.6</ele><time>2026-04-19T15:37:07.999Z</time></trkpt><trkpt lat="46.48968757420268" lon="12.443900941234048"><ele>857.0</ele><time>2026-04-19T15:37:08.999Z</time></trkpt><trkpt lat="46.48962618422243" lon="12.443771281218844"><ele>853.0</ele><time>2026-04-19T15:37:09.999Z</time></trkpt><trkpt lat="46.48954508562392" lon="12.44367059165341"><ele>849.0</ele><time>2026-04-19T15:37:10.999Z</time></trkpt><trkpt lat="46.48946701197692" lon="12.443556866683092"><ele>845.0</ele><time>2026-04-19T15:37:11.999Z</time></trkpt><trkpt lat="46.489373462272866" lon="12.443465400279916"><ele>841.0</ele><time>2026-04-19T15:37:12.999Z</time></trkpt><trkpt lat="46.489287458055195" lon="12.44336092625782"><ele>837.0</ele><time>2026-04-19T15:37:13.999Z</time></trkpt><trkpt lat="46.48921904381551" lon="12.44322689716271"><ele>837.0</ele><time>2026-04-19T15:37:14.999Z</time></trkpt><trkpt lat="46.48914875921653" lon="12.443083577036186"><ele>837.0</ele><time>2026-04-19T15:37:15.999Z</time></trkpt><trkpt lat="46.48910668537043" lon="12.442918816290089"><ele>837.0</ele><time>2026-04-19T15:37:16.999Z</time></trkpt><trkpt lat="46.48906442791553" lon="12.442766336690257"><ele>837.0</ele><time>2026-04-19T15:37:17.999Z</time></trkpt><trkpt lat="46.489017504652466" lon="12.442625761464488"><ele>835.4000000000001</ele><time>2026-04-19T15:37:18.999Z</time></trkpt><trkpt lat="46.48895273590965" lon="12.442506515233463"><ele>833.8000000000001</ele><time>2026-04-19T15:37:19.999Z</time></trkpt><trkpt lat="46.48886502419013" lon="12.442414254190453"><ele>832.2</ele><time>2026-04-19T15:37:20.999Z</time></trkpt><trkpt lat="46.48876779228967" lon="12.442348524416833"><ele>830.6</ele><time>2026-04-19T15:37:21.999Z</time></trkpt><trkpt lat="46.488693430207434" lon="12.442255278195006"><ele>829.0</ele><time>2026-04-19T15:37:22.999Z</time></trkpt><trkpt lat="46.488612359363394" lon="12.442177759573367"><ele>832.4000000000001</ele><time>2026-04-19T15:37:23.999Z</time></trkpt><trkpt lat="46.48855298902671" lon="12.442052643302311"><ele>835.8</ele><time>2026-04-19T15:37:24.999Z</time></trkpt><trkpt lat="46.48849953622833" lon="12.441915117720361"><ele>839.2</ele><time>2026-04-19T15:37:25.999Z</time></trkpt><trkpt lat="46.48845649977822" lon="12.441764564365542"><ele>842.5999999999999</ele><time>2026-04-19T15:37:26.999Z</time></trkpt><trkpt lat="46.48840776384715" lon="12.441620163870581"><ele>846.0</ele><time>2026-04-19T15:37:27.999Z</time></trkpt><trkpt lat="46.488357653606585" lon="12.441482055615399"><ele>846.0</ele><time>2026-04-19T15:37:28.999Z</time></trkpt><trkpt lat="46.488276692267995" lon="12.441393051778347"><ele>846.0</ele><time>2026-04-19T15:37:29.999Z</time></trkpt><trkpt lat="46.48821607325734" lon="12.441305284509063"><ele>846.0</ele><time>2026-04-19T15:37:30.999Z</time></trkpt><trkpt lat="46.48816347444014" lon="12.441223125239176"><ele>846.0</ele><time>2026-04-19T15:37:31.999Z</time></trkpt><trkpt lat="46.48812730765256" lon="12.441125596495525"><ele>846.0</ele><time>2026-04-19T15:37:32.999Z</time></trkpt><trkpt lat="46.48811652038362" lon="12.441008645418291"><ele>846.0</ele><time>2026-04-19T15:37:33.999Z</time></trkpt><trkpt lat="46.48812724806641" lon="12.440873085924233"><ele>846.8</ele><time>2026-04-19T15:37:34.999Z</time></trkpt><trkpt lat="46.48815347423718" lon="12.440733678284927"><ele>847.5999999999999</ele><time>2026-04-19T15:37:35.999Z</time></trkpt><trkpt lat="46.48819486892712" lon="12.440599349514299"><ele>848.4</ele><time>2026-04-19T15:37:36.999Z</time></trkpt><trkpt lat="46.48824753375246" lon="12.440470537589457"><ele>849.2</ele><time>2026-04-19T15:37:37.999Z</time></trkpt><trkpt lat="46.488294309696656" lon="12.440346257457971"><ele>850.0</ele><time>2026-04-19T15:37:38.999Z</time></trkpt><trkpt lat="46.48833574231468" lon="12.440230646581114"><ele>848.2</ele><time>2026-04-19T15:37:39.999Z</time></trkpt><trkpt lat="46.488377195061325" lon="12.440122103509111"><ele>846.4</ele><time>2026-04-19T15:37:40.999Z</time></trkpt><trkpt lat="46.48843524122912" lon="12.440034637729799"><ele>844.5999999999999</ele><time>2026-04-19T15:37:41.999Z</time></trkpt><trkpt lat="46.48851197543985" lon="12.439964652684846"><ele>842.8</ele><time>2026-04-19T15:37:42.999Z</time></trkpt><trkpt lat="46.48859542152801" lon="12.439891771262053"><ele>841.0</ele><time>2026-04-19T15:37:43.999Z</time></trkpt><trkpt lat="46.48867492273662" lon="12.439801346169409"><ele>841.0</ele><time>2026-04-19T15:37:44.999Z</time></trkpt><trkpt lat="46.48874895660939" lon="12.439696484131852"><ele>841.0</ele><time>2026-04-19T15:37:45.999Z</time></trkpt><trkpt lat="46.48881284169484" lon="12.43957370670468"><ele>841.0</ele><time>2026-04-19T15:37:46.999Z</time></trkpt><trkpt lat="46.488880163345335" lon="12.439444991278714"><ele>841.0</ele><time>2026-04-19T15:37:47.999Z</time></trkpt><trkpt lat="46.488953291627446" lon="12.439315353547258"><ele>841.0</ele><time>2026-04-19T15:37:49Z</time></trkpt><trkpt lat="46.48902181649596" lon="12.4391779500258"><ele>844.0</ele><time>2026-04-19T15:37:50Z</time></trkpt><trkpt lat="46.489076744994975" lon="12.439036538805679"><ele>847.0</ele><time>2026-04-19T15:37:51Z</time></trkpt><trkpt lat="46.489120359113116" lon="12.43889300224072"><ele>849.9999999999999</ele><time>2026-04-19T15:37:52Z</time></trkpt><trkpt lat="46.489160777650504" lon="12.438755823214173"><ele>853.0</ele><time>2026-04-19T15:37:53Z</time></trkpt><trkpt lat="46.489206988461056" lon="12.438645718498822"><ele>856.0</ele><time>2026-04-19T15:37:54Z</time></trkpt><trkpt lat="46.48925856915951" lon="12.438560578755133"><ele>855.9999999999999</ele><time>2026-04-19T15:37:55Z</time></trkpt><trkpt lat="46.489318078715016" lon="12.438496450559644"><ele>856.0</ele><time>2026-04-19T15:37:56Z</time></trkpt><trkpt lat="46.48939123077905" lon="12.438447289381328"><ele>856.0</ele><time>2026-04-19T15:37:57Z</time></trkpt><trkpt lat="46.489472189812965" lon="12.43841926035441"><ele>856.0</ele><time>2026-04-19T15:37:58Z</time></trkpt><trkpt lat="46.48956327174253" lon="12.438394958778467"><ele>855.9999999999999</ele><time>2026-04-19T15:37:59Z</time></trkpt><trkpt lat="46.4896543010571" lon="12.438363369249092"><ele>856.0</ele><time>2026-04-19T15:38:00Z</time></trkpt><trkpt lat="46.489731018573885" lon="12.4383258335653"><ele>861.5999999999999</ele><time>2026-04-19T15:38:01Z</time></trkpt><trkpt lat="46.48979770865346" lon="12.438278280669797"><ele>867.1999999999999</ele><time>2026-04-19T15:38:02Z</time></trkpt><trkpt lat="46.48984791483681" lon="12.438218154260996"><ele>872.8000000000001</ele><time>2026-04-19T15:38:03Z</time></trkpt><trkpt lat="46.489912285117335" lon="12.43805867653996"><ele>878.4000000000001</ele><time>2026-04-19T15:38:05Z</time></trkpt><trkpt lat="46.489885672789235" lon="12.437881810403095"><ele>884.0</ele><time>2026-04-19T15:38:07Z</time></trkpt><trkpt lat="46.489834538050445" lon="12.43779558235272"><ele>884.0</ele><time>2026-04-19T15:38:08Z</time></trkpt><trkpt lat="46.48977499111303" lon="12.437705536275171"><ele>884.0000000000001</ele><time>2026-04-19T15:38:09Z</time></trkpt><trkpt lat="46.489720275071114" lon="12.437599432895404"><ele>884.0000000000001</ele><time>2026-04-19T15:38:10Z</time></trkpt><trkpt lat="46.48968457525242" lon="12.437466137185917"><ele>884.0</ele><time>2026-04-19T15:38:11Z</time></trkpt><trkpt lat="46.48964545758985" lon="12.437332996104486"><ele>884.0</ele><time>2026-04-19T15:38:12Z</time></trkpt><trkpt lat="46.48960894148518" lon="12.437202737433331"><ele>885.8000000000001</ele><time>2026-04-19T15:38:13Z</time></trkpt><trkpt lat="46.48959280294624" lon="12.437062471913087"><ele>887.6000000000001</ele><time>2026-04-19T15:38:14Z</time></trkpt><trkpt lat="46.489579616427356" lon="12.43690922578588"><ele>889.4</ele><time>2026-04-19T15:38:15Z</time></trkpt><trkpt lat="46.48956887940712" lon="12.436763193693151"><ele>891.2</ele><time>2026-04-19T15:38:16Z</time></trkpt><trkpt lat="46.48956766127395" lon="12.436644929506544"><ele>893.0</ele><time>2026-04-19T15:38:17Z</time></trkpt><trkpt lat="46.4895929871477" lon="12.436537870445427"><ele>893.0</ele><time>2026-04-19T15:38:18Z</time></trkpt><trkpt lat="46.48963462701436" lon="12.436422959183732"><ele>893.0</ele><time>2026-04-19T15:38:19Z</time></trkpt><trkpt lat="46.48967454724958" lon="12.436306345395149"><ele>893.0</ele><time>2026-04-19T15:38:20Z</time></trkpt><trkpt lat="46.489662065177995" lon="12.436158166846988"><ele>893.0</ele><time>2026-04-19T15:38:21Z</time></trkpt><trkpt lat="46.48964288376293" lon="12.436014450301645"><ele>893.0</ele><time>2026-04-19T15:38:22Z</time></trkpt><trkpt lat="46.4896036344015" lon="12.435885996009738"><ele>894.6666666666667</ele><time>2026-04-19T15:38:23Z</time></trkpt><trkpt lat="46.4895521442206" lon="12.435779565094734"><ele>896.3333333333334</ele><time>2026-04-19T15:38:24Z</time></trkpt><trkpt lat="46.48951753166424" lon="12.435670176320556"><ele>898.0</ele><time>2026-04-19T15:38:25Z</time></trkpt><trkpt lat="46.489513368190565" lon="12.435544160399019"><ele>899.6666666666667</ele><time>2026-04-19T15:38:26Z</time></trkpt><trkpt lat="46.489532068638674" lon="12.435416523573535"><ele>901.3333333333334</ele><time>2026-04-19T15:38:27Z</time></trkpt><trkpt lat="46.48958465290648" lon="12.435296943532574"><ele>903.0</ele><time>2026-04-19T15:38:28Z</time></trkpt><trkpt lat="46.489614474640405" lon="12.435160097399727"><ele>903.0</ele><time>2026-04-19T15:38:29Z</time></trkpt><trkpt lat="46.489639469036526" lon="12.435016758012543"><ele>903.0</ele><time>2026-04-19T15:38:30Z</time></trkpt><trkpt lat="46.48964704026883" lon="12.434870244409725"><ele>903.0</ele><time>2026-04-19T15:38:31Z</time></trkpt><trkpt lat="46.489634201601156" lon="12.434732683957701"><ele>903.0</ele><time>2026-04-19T15:38:32Z</time></trkpt><trkpt lat="46.48962363320825" lon="12.434608116908205"><ele>903.0</ele><time>2026-04-19T15:38:33Z</time></trkpt><trkpt lat="46.48963078903505" lon="12.434501280815496"><ele>900.6666666666666</ele><time>2026-04-19T15:38:34Z</time></trkpt><trkpt lat="46.48963488943752" lon="12.434386429903464"><ele>898.3333333333333</ele><time>2026-04-19T15:38:35Z</time></trkpt><trkpt lat="46.48967977569876" lon="12.434299143574695"><ele>896.0</ele><time>2026-04-19T15:38:36Z</time></trkpt><trkpt lat="46.489743720466" lon="12.434246249321529"><ele>893.6666666666666</ele><time>2026-04-19T15:38:37Z</time></trkpt><trkpt lat="46.489816207384585" lon="12.434219974803835"><ele>891.3333333333333</ele><time>2026-04-19T15:38:38Z</time></trkpt><trkpt lat="46.48989466632859" lon="12.434199840553193"><ele>889.0</ele><time>2026-04-19T15:38:39Z</time></trkpt><trkpt lat="46.48996987183825" lon="12.434163929242946"><ele>888.9999999999999</ele><time>2026-04-19T15:38:40Z</time></trkpt><trkpt lat="46.49005273287887" lon="12.434154707579877"><ele>889.0</ele><time>2026-04-19T15:38:41Z</time></trkpt><trkpt lat="46.490126896588286" lon="12.43412259807639"><ele>889.0</ele><time>2026-04-19T15:38:42Z</time></trkpt><trkpt lat="46.49019288094699" lon="12.434065253582254"><ele>889.0</ele><time>2026-04-19T15:38:43Z</time></trkpt><trkpt lat="46.49026170159286" lon="12.434021798620446"><ele>888.9999999999999</ele><time>2026-04-19T15:38:44Z</time></trkpt><trkpt lat="46.49031881005457" lon="12.433956756050769"><ele>889.0</ele><time>2026-04-19T15:38:45Z</time></trkpt><trkpt lat="46.49037205807816" lon="12.43389465654353"><ele>889.6666666666666</ele><time>2026-04-19T15:38:46Z</time></trkpt><trkpt lat="46.49036959610221" lon="12.433775540198488"><ele>890.3333333333333</ele><time>2026-04-19T15:38:47Z</time></trkpt><trkpt lat="46.49035782079779" lon="12.43366895890739"><ele>891.0</ele><time>2026-04-19T15:38:48Z</time></trkpt><trkpt lat="46.490364207406884" lon="12.433549957567116"><ele>891.6666666666667</ele><time>2026-04-19T15:38:49Z</time></trkpt><trkpt lat="46.49033469882033" lon="12.433433517110576"><ele>892.3333333333334</ele><time>2026-04-19T15:38:50Z</time></trkpt><trkpt lat="46.49028567258457" lon="12.433325209463122"><ele>893.0</ele><time>2026-04-19T15:38:51Z</time></trkpt><trkpt lat="46.49021710474782" lon="12.433251918987489"><ele>893.0000000000001</ele><time>2026-04-19T15:38:52Z</time></trkpt><trkpt lat="46.49015317825136" lon="12.433172946920314"><ele>893.0</ele><time>2026-04-19T15:38:53Z</time></trkpt><trkpt lat="46.4900885582701" lon="12.433097233762648"><ele>893.0</ele><time>2026-04-19T15:38:54Z</time></trkpt><trkpt lat="46.49002008539311" lon="12.433027077190086"><ele>893.0</ele><time>2026-04-19T15:38:55Z</time></trkpt><trkpt lat="46.48995627376316" lon="12.432960886645139"><ele>893.0000000000001</ele><time>2026-04-19T15:38:56Z</time></trkpt><trkpt lat="46.48989905916107" lon="12.432900527189098"><ele>893.0</ele><time>2026-04-19T15:38:57Z</time></trkpt><trkpt lat="46.4898515140814" lon="12.43283023881312"><ele>895.2</ele><time>2026-04-19T15:38:58Z</time></trkpt><trkpt lat="46.48980208884856" lon="12.432723270387816"><ele>897.4</ele><time>2026-04-19T15:39:00Z</time></trkpt><trkpt lat="46.48984553100323" lon="12.432635457506096"><ele>899.6000000000001</ele><time>2026-04-19T15:39:20.999Z</time></trkpt><trkpt lat="46.489930928291685" lon="12.43262206349416"><ele>901.8000000000001</ele><time>2026-04-19T15:39:24.999Z</time></trkpt><trkpt lat="46.49005324633025" lon="12.432682686061245"><ele>904.0</ele><time>2026-04-19T15:39:26.999Z</time></trkpt><trkpt lat="46.49012884094464" lon="12.432725281940526"><ele>904.0</ele><time>2026-04-19T15:39:27.999Z</time></trkpt><trkpt lat="46.49021346401394" lon="12.432742790615034"><ele>904.0000000000001</ele><time>2026-04-19T15:39:28.999Z</time></trkpt><trkpt lat="46.490305777646995" lon="12.432742684484301"><ele>904.0000000000001</ele><time>2026-04-19T15:39:29.999Z</time></trkpt><trkpt lat="46.490406579675366" lon="12.432730991676086"><ele>904.0</ele><time>2026-04-19T15:39:30.999Z</time></trkpt><trkpt lat="46.4905110602037" lon="12.432722683593775"><ele>904.0</ele><time>2026-04-19T15:39:31.999Z</time></trkpt><trkpt lat="46.490605368332844" lon="12.43271225665837"><ele>905.3333333333333</ele><time>2026-04-19T15:39:32.999Z</time></trkpt><trkpt lat="46.490683743697225" lon="12.43268944086637"><ele>906.6666666666666</ele><time>2026-04-19T15:39:33.999Z</time></trkpt><trkpt lat="46.49076444301757" lon="12.432652821774692"><ele>908.0</ele><time>2026-04-19T15:39:34.999Z</time></trkpt><trkpt lat="46.49083188987393" lon="12.432602250179325"><ele>909.3333333333333</ele><time>2026-04-19T15:39:35.999Z</time></trkpt><trkpt lat="46.49089868616702" lon="12.4325289395268"><ele>910.6666666666666</ele><time>2026-04-19T15:39:36.999Z</time></trkpt><trkpt lat="46.4909700437991" lon="12.43248149300914"><ele>912.0</ele><time>2026-04-19T15:39:37.999Z</time></trkpt><trkpt lat="46.491037218176935" lon="12.432421595165035"><ele>912.0</ele><time>2026-04-19T15:39:38.999Z</time></trkpt><trkpt lat="46.49110120027065" lon="12.43236045099659"><ele>912.0</ele><time>2026-04-19T15:39:39.999Z</time></trkpt><trkpt lat="46.49116002168124" lon="12.43228623943899"><ele>912.0</ele><time>2026-04-19T15:39:40.999Z</time></trkpt><trkpt lat="46.49119170758816" lon="12.43220684549511"><ele>912.0</ele><time>2026-04-19T15:39:41.999Z</time></trkpt><trkpt lat="46.49124553921031" lon="12.432099519119806"><ele>912.0</ele><time>2026-04-19T15:39:43.999Z</time></trkpt><trkpt lat="46.491160126500276" lon="12.431982194594472"><ele>912.0</ele><time>2026-04-19T15:39:45.999Z</time></trkpt><trkpt lat="46.49110055093153" lon="12.432025876868433"><ele>916.0</ele><time>2026-04-19T15:39:46.999Z</time></trkpt><trkpt lat="46.49102511031215" lon="12.432018460355057"><ele>920.0</ele><time>2026-04-19T15:39:51.999Z</time></trkpt><trkpt lat="46.490984118960846" lon="12.431924911753343"><ele>924.0</ele><time>2026-04-19T15:40:17Z</time></trkpt><trkpt lat="46.49128239219076" lon="12.431987418162716"><ele>923.0</ele><time>2026-04-19T15:41:07Z</time></trkpt><trkpt lat="46.49128716578755" lon="12.432107117616013"><ele>922.0</ele><time>2026-04-19T15:41:10Z</time></trkpt><trkpt lat="46.491516906451935" lon="12.431844075122385"><ele>921.0</ele><time>2026-04-19T15:41:11Z</time></trkpt><trkpt lat="46.49152459166931" lon="12.432144684334695"><ele>921.0</ele><time>2026-04-19T15:41:12Z</time></trkpt><trkpt lat="46.49155860759084" lon="12.432270290614893"><ele>920.9999999999999</ele><time>2026-04-19T15:41:13Z</time></trkpt><trkpt lat="46.49160133274275" lon="12.432379906901247"><ele>920.9999999999999</ele><time>2026-04-19T15:41:14Z</time></trkpt><trkpt lat="46.49168495826981" lon="12.432496000888438"><ele>921.0</ele><time>2026-04-19T15:41:16Z</time></trkpt><trkpt lat="46.49179231095731" lon="12.432550593127178"><ele>921.0</ele><time>2026-04-19T15:41:17.999Z</time></trkpt><trkpt lat="46.49184954307363" lon="12.432503237912632"><ele>921.0</ele><time>2026-04-19T15:41:18.999Z</time></trkpt><trkpt lat="46.4918953975532" lon="12.432434667120544"><ele>921.0</ele><time>2026-04-19T15:41:19.999Z</time></trkpt><trkpt lat="46.49193336118749" lon="12.432353676928468"><ele>921.0</ele><time>2026-04-19T15:41:20.999Z</time></trkpt><trkpt lat="46.49195922735748" lon="12.432264577307537"><ele>921.0</ele><time>2026-04-19T15:41:21.999Z</time></trkpt><trkpt lat="46.49200454044123" lon="12.432180406731627"><ele>921.0</ele><time>2026-04-19T15:41:22.999Z</time></trkpt><trkpt lat="46.492061837258454" lon="12.432078395742886"><ele>921.0</ele><time>2026-04-19T15:41:23.999Z</time></trkpt><trkpt lat="46.49212599831699" lon="12.431971110148996"><ele>927.1999999999999</ele><time>2026-04-19T15:41:24.999Z</time></trkpt><trkpt lat="46.492205150612754" lon="12.431870898220994"><ele>933.3999999999999</ele><time>2026-04-19T15:41:25.999Z</time></trkpt><trkpt lat="46.49229302414559" lon="12.431786218828558"><ele>939.6</ele><time>2026-04-19T15:41:26.999Z</time></trkpt><trkpt lat="46.492384212114395" lon="12.431696571710873"><ele>945.8</ele><time>2026-04-19T15:41:27.999Z</time></trkpt><trkpt lat="46.492470919062974" lon="12.431632514678451"><ele>952.0</ele><time>2026-04-19T15:41:28.999Z</time></trkpt><trkpt lat="46.49253648336216" lon="12.431587992091568"><ele>952.0</ele><time>2026-04-19T15:41:29.999Z</time></trkpt><trkpt lat="46.492604606934336" lon="12.431582726958226"><ele>952.0</ele><time>2026-04-19T15:41:30.999Z</time></trkpt><trkpt lat="46.492675836020155" lon="12.431601315252545"><ele>952.0</ele><time>2026-04-19T15:41:31.999Z</time></trkpt><trkpt lat="46.492756012212666" lon="12.431509275020677"><ele>952.0</ele><time>2026-04-19T15:41:32.999Z</time></trkpt><trkpt lat="46.492794072343315" lon="12.431358607563618"><ele>952.0</ele><time>2026-04-19T15:41:33.999Z</time></trkpt><trkpt lat="46.49281602268682" lon="12.431191307441326"><ele>956.8</ele><time>2026-04-19T15:41:34.999Z</time></trkpt><trkpt lat="46.492826767483194" lon="12.431009783196538"><ele>961.6</ele><time>2026-04-19T15:41:36.999Z</time></trkpt><trkpt lat="46.492818646757335" lon="12.430879457514779"><ele>966.3999999999999</ele><time>2026-04-19T15:41:37.999Z</time></trkpt><trkpt lat="46.49285860004627" lon="12.430793733171027"><ele>971.1999999999999</ele><time>2026-04-19T15:41:39.999Z</time></trkpt><trkpt lat="46.49291689862972" lon="12.430889014025418"><ele>976.0</ele><time>2026-04-19T15:41:41.999Z</time></trkpt><trkpt lat="46.492931773230794" lon="12.431065409956885"><ele>975.1999999999999</ele><time>2026-04-19T15:41:43.999Z</time></trkpt><trkpt lat="46.49294023754679" lon="12.431199069662606"><ele>974.3999999999999</ele><time>2026-04-19T15:41:44.999Z</time></trkpt><trkpt lat="46.492934603504686" lon="12.431367009240187"><ele>973.6</ele><time>2026-04-19T15:41:45.999Z</time></trkpt><trkpt lat="46.49297864739983" lon="12.431547890672338"><ele>972.8</ele><time>2026-04-19T15:41:46.999Z</time></trkpt><trkpt lat="46.492990554815606" lon="12.431695117624887"><ele>972.0</ele><time>2026-04-19T15:41:47.999Z</time></trkpt><trkpt lat="46.493010021053465" lon="12.431808144485672"><ele>972.0</ele><time>2026-04-19T15:41:48.999Z</time></trkpt><trkpt lat="46.49298108947153" lon="12.431900959464187"><ele>972.0</ele><time>2026-04-19T15:41:49.999Z</time></trkpt><trkpt lat="46.49291404034861" lon="12.43197064403977"><ele>972.0</ele><time>2026-04-19T15:41:50.999Z</time></trkpt><trkpt lat="46.49285760084189" lon="12.432067827502074"><ele>972.0</ele><time>2026-04-19T15:41:51.999Z</time></trkpt><trkpt lat="46.49279051423814" lon="12.432172506784067"><ele>972.0</ele><time>2026-04-19T15:41:52.999Z</time></trkpt><trkpt lat="46.49272210884318" lon="12.432264466902824"><ele>972.0</ele><time>2026-04-19T15:41:53.999Z</time></trkpt><trkpt lat="46.49264760444758" lon="12.432336082697061"><ele>968.2</ele><time>2026-04-19T15:41:54.999Z</time></trkpt><trkpt lat="46.49258702006479" lon="12.432415014553346"><ele>964.4000000000001</ele><time>2026-04-19T15:41:55.999Z</time></trkpt><trkpt lat="46.49254459381523" lon="12.432565526018237"><ele>960.5999999999999</ele><time>2026-04-19T15:41:57.999Z</time></trkpt><trkpt lat="46.49252780544235" lon="12.432668534740126"><ele>956.8</ele><time>2026-04-19T15:41:58.999Z</time></trkpt><trkpt lat="46.49253828379916" lon="12.432801554425641"><ele>953.0</ele><time>2026-04-19T15:41:59.999Z</time></trkpt><trkpt lat="46.492545339232855" lon="12.432976755989392"><ele>953.0000000000001</ele><time>2026-04-19T15:42:01.001Z</time></trkpt><trkpt lat="46.49255745962712" lon="12.43313436494052"><ele>953.0</ele><time>2026-04-19T15:42:02.001Z</time></trkpt><trkpt lat="46.49258158622141" lon="12.433254244685264"><ele>953.0</ele><time>2026-04-19T15:42:03.001Z</time></trkpt><trkpt lat="46.492620266855205" lon="12.433350194319901"><ele>953.0</ele><time>2026-04-19T15:42:04.001Z</time></trkpt><trkpt lat="46.49267011935945" lon="12.433422801519223"><ele>953.0000000000001</ele><time>2026-04-19T15:42:05.001Z</time></trkpt><trkpt lat="46.49276030753408" lon="12.43340910298784"><ele>953.0</ele><time>2026-04-19T15:42:07.001Z</time></trkpt><trkpt lat="46.492794033542246" lon="12.433305507314332"><ele>953.0</ele><time>2026-04-19T15:42:08.001Z</time></trkpt><trkpt lat="46.49274199847264" lon="12.43319907468609"><ele>953.0</ele><time>2026-04-19T15:42:09.001Z</time></trkpt><trkpt lat="46.49266809775383" lon="12.433125374038145"><ele>953.0</ele><time>2026-04-19T15:42:10.001Z</time></trkpt><trkpt lat="46.492620545137235" lon="12.4330170759683"><ele>953.0</ele><time>2026-04-19T15:42:11.001Z</time></trkpt><trkpt lat="46.492632968824" lon="12.432877199658625"><ele>953.0</ele><time>2026-04-19T15:42:12.001Z</time></trkpt><trkpt lat="46.49264631874516" lon="12.432740215169959"><ele>951.5999999999999</ele><time>2026-04-19T15:42:13.001Z</time></trkpt><trkpt lat="46.492646912152125" lon="12.432620834123616"><ele>950.1999999999999</ele><time>2026-04-19T15:42:14.001Z</time></trkpt><trkpt lat="46.49272573888716" lon="12.43250748373077"><ele>948.8</ele><time>2026-04-19T15:42:16.001Z</time></trkpt><trkpt lat="46.49280579933588" lon="12.432484036532745"><ele>947.4</ele><time>2026-04-19T15:42:17Z</time></trkpt><trkpt lat="46.492912452852934" lon="12.432487550376052"><ele>946.0</ele><time>2026-04-19T15:42:18Z</time></trkpt><trkpt lat="46.492993839932716" lon="12.432434584245518"><ele>951.1999999999999</ele><time>2026-04-19T15:42:19Z</time></trkpt><trkpt lat="46.493069394618836" lon="12.432364416286017"><ele>956.3999999999999</ele><time>2026-04-19T15:42:20Z</time></trkpt><trkpt lat="46.49314970912933" lon="12.432251421178316"><ele>961.6</ele><time>2026-04-19T15:42:21Z</time></trkpt><trkpt lat="46.4932589046463" lon="12.432165659131755"><ele>966.8</ele><time>2026-04-19T15:42:22Z</time></trkpt><trkpt lat="46.49333000085784" lon="12.432065769991794"><ele>972.0</ele><time>2026-04-19T15:42:23Z</time></trkpt><trkpt lat="46.49338896174894" lon="12.432012263933125"><ele>972.0</ele><time>2026-04-19T15:42:24Z</time></trkpt><trkpt lat="46.49345702117021" lon="12.431860728612122"><ele>972.0</ele><time>2026-04-19T15:42:26Z</time></trkpt><trkpt lat="46.49346835243416" lon="12.431745609105933"><ele>972.0</ele><time>2026-04-19T15:42:27Z</time></trkpt><trkpt lat="46.49340106020572" lon="12.431602267062889"><ele>972.0</ele><time>2026-04-19T15:42:28Z</time></trkpt><trkpt lat="46.49335369120407" lon="12.431456794075055"><ele>972.0</ele><time>2026-04-19T15:42:29Z</time></trkpt><trkpt lat="46.49330265583732" lon="12.431300355692812"><ele>974.2</ele><time>2026-04-19T15:42:30Z</time></trkpt><trkpt lat="46.49326833684775" lon="12.431180222072499"><ele>976.4000000000001</ele><time>2026-04-19T15:42:31Z</time></trkpt><trkpt lat="46.493250855688956" lon="12.431063106753696"><ele>978.5999999999999</ele><time>2026-04-19T15:42:32Z</time></trkpt><trkpt lat="46.4932548548202" lon="12.43096042107545"><ele>980.8</ele><time>2026-04-19T15:42:33Z</time></trkpt><trkpt lat="46.49326708892472" lon="12.430824429731498"><ele>983.0</ele><time>2026-04-19T15:42:34Z</time></trkpt><trkpt lat="46.49329561552882" lon="12.43066265281891"><ele>983.0000000000001</ele><time>2026-04-19T15:42:35Z</time></trkpt><trkpt lat="46.493316043314564" lon="12.430514909600323"><ele>983.0</ele><time>2026-04-19T15:42:36Z</time></trkpt><trkpt lat="46.493340903625935" lon="12.430405768032099"><ele>983.0</ele><time>2026-04-19T15:42:37Z</time></trkpt><trkpt lat="46.4934094334133" lon="12.430343259733432"><ele>983.0</ele><time>2026-04-19T15:42:38Z</time></trkpt><trkpt lat="46.49347479983475" lon="12.430280421727916"><ele>983.0000000000001</ele><time>2026-04-19T15:42:39Z</time></trkpt><trkpt lat="46.493558607584326" lon="12.430199462982118"><ele>983.0</ele><time>2026-04-19T15:42:40Z</time></trkpt><trkpt lat="46.49365015811547" lon="12.430122605423296"><ele>983.3333333333334</ele><time>2026-04-19T15:42:41Z</time></trkpt><trkpt lat="46.49373113345039" lon="12.430080485147059"><ele>983.6666666666667</ele><time>2026-04-19T15:42:42Z</time></trkpt><trkpt lat="46.493796774292235" lon="12.430124420301198"><ele>984.0</ele><time>2026-04-19T15:42:43Z</time></trkpt><trkpt lat="46.49388635383072" lon="12.430141456464934"><ele>984.3333333333333</ele><time>2026-04-19T15:42:44Z</time></trkpt><trkpt lat="46.493978621742215" lon="12.430120267616466"><ele>984.6666666666666</ele><time>2026-04-19T15:42:45Z</time></trkpt><trkpt lat="46.49406909550361" lon="12.430087890592173"><ele>985.0</ele><time>2026-04-19T15:42:46Z</time></trkpt><trkpt lat="46.49414243049716" lon="12.430060357281977"><ele>989.0</ele><time>2026-04-19T15:42:47Z</time></trkpt><trkpt lat="46.494253080929866" lon="12.430131174650098"><ele>993.0</ele><time>2026-04-19T15:42:49Z</time></trkpt><trkpt lat="46.494283980351106" lon="12.43024221196116"><ele>997.0</ele><time>2026-04-19T15:42:50Z</time></trkpt><trkpt lat="46.49433552515341" lon="12.430306393877396"><ele>1001.0</ele><time>2026-04-19T15:42:51Z</time></trkpt><trkpt lat="46.49441649389281" lon="12.430334792878622"><ele>1005.0</ele><time>2026-04-19T15:42:53Z</time></trkpt><trkpt lat="46.49446276009199" lon="12.430183210777944"><ele>1005.0</ele><time>2026-04-19T15:42:55Z</time></trkpt><trkpt lat="46.494443786281124" lon="12.430000330300311"><ele>1005.0</ele><time>2026-04-19T15:42:57Z</time></trkpt><trkpt lat="46.49441606557487" lon="12.429867761482967"><ele>1005.0</ele><time>2026-04-19T15:42:58Z</time></trkpt><trkpt lat="46.494402696331065" lon="12.429726226085538"><ele>1005.0</ele><time>2026-04-19T15:42:59Z</time></trkpt><trkpt lat="46.49435852181366" lon="12.42960658171291"><ele>1005.0</ele><time>2026-04-19T15:43:00Z</time></trkpt><trkpt lat="46.49429977980612" lon="12.429524268753728"><ele>1008.4</ele><time>2026-04-19T15:43:01Z</time></trkpt><trkpt lat="46.49422676306692" lon="12.429467561515862"><ele>1011.8</ele><time>2026-04-19T15:43:02Z</time></trkpt><trkpt lat="46.49413979805924" lon="12.429491642794387"><ele>1015.2</ele><time>2026-04-19T15:43:03Z</time></trkpt><trkpt lat="46.49404545278605" lon="12.429499208578557"><ele>1018.6</ele><time>2026-04-19T15:43:04Z</time></trkpt><trkpt lat="46.49394894247611" lon="12.429524254357663"><ele>1022.0</ele><time>2026-04-19T15:43:06Z</time></trkpt><trkpt lat="46.49384889982044" lon="12.42938161113773"><ele>1022.0</ele><time>2026-04-19T15:43:08Z</time></trkpt><trkpt lat="46.49377733211731" lon="12.429270595209907"><ele>1022.0</ele><time>2026-04-19T15:43:09Z</time></trkpt><trkpt lat="46.49367988770741" lon="12.429145540152165"><ele>1022.0</ele><time>2026-04-19T15:43:10Z</time></trkpt><trkpt lat="46.493568487418734" lon="12.429036466218108"><ele>1022.0</ele><time>2026-04-19T15:43:11Z</time></trkpt><trkpt lat="46.49345720397254" lon="12.42895892093147"><ele>1019.3333333333334</ele><time>2026-04-19T15:43:12Z</time></trkpt><trkpt lat="46.493358230443114" lon="12.428915399738026"><ele>1016.6666666666667</ele><time>2026-04-19T15:43:13Z</time></trkpt><trkpt lat="46.49326808382071" lon="12.42890421597093"><ele>1014.0</ele><time>2026-04-19T15:43:14Z</time></trkpt><trkpt lat="46.49319607314708" lon="12.428883683814457"><ele>1011.3333333333333</ele><time>2026-04-19T15:43:15Z</time></trkpt><trkpt lat="46.49311718659022" lon="12.428860799135352"><ele>1008.6666666666666</ele><time>2026-04-19T15:43:17Z</time></trkpt><trkpt lat="46.493172374450275" lon="12.42875685017652"><ele>1006.0</ele><time>2026-04-19T15:43:19Z</time></trkpt><trkpt lat="46.49330505795478" lon="12.428748985839775"><ele>1006.0</ele><time>2026-04-19T15:43:21Z</time></trkpt><trkpt lat="46.49340509052546" lon="12.428735225081965"><ele>1005.9999999999999</ele><time>2026-04-19T15:43:21.999Z</time></trkpt><trkpt lat="46.49351190484255" lon="12.428704193109237"><ele>1005.9999999999999</ele><time>2026-04-19T15:43:22.999Z</time></trkpt><trkpt lat="46.493611363225256" lon="12.428658892739628"><ele>1006.0</ele><time>2026-04-19T15:43:23.999Z</time></trkpt><trkpt lat="46.49369159140819" lon="12.428588858776529"><ele>1006.0</ele><time>2026-04-19T15:43:24.999Z</time></trkpt><trkpt lat="46.49376217576019" lon="12.428492755241827"><ele>1010.4</ele><time>2026-04-19T15:43:25.999Z</time></trkpt><trkpt lat="46.49382785820391" lon="12.428370098267678"><ele>1014.8</ele><time>2026-04-19T15:43:26.999Z</time></trkpt><trkpt lat="46.493904233017375" lon="12.428253507100962"><ele>1019.1999999999999</ele><time>2026-04-19T15:43:27.999Z</time></trkpt><trkpt lat="46.493984949826434" lon="12.428135717383704"><ele>1023.5999999999999</ele><time>2026-04-19T15:43:28.999Z</time></trkpt><trkpt lat="46.49406766443787" lon="12.428014927545165"><ele>1028.0</ele><time>2026-04-19T15:43:29.999Z</time></trkpt><trkpt lat="46.494122732268664" lon="12.42790755194"><ele>1028.0</ele><time>2026-04-19T15:43:30.999Z</time></trkpt><trkpt lat="46.49416892927672" lon="12.427841250245377"><ele>1028.0</ele><time>2026-04-19T15:43:31.999Z</time></trkpt><trkpt lat="46.49422775765549" lon="12.427799588892139"><ele>1028.0</ele><time>2026-04-19T15:43:33.999Z</time></trkpt><trkpt lat="46.49426427397103" lon="12.427930152682137"><ele>1028.0</ele><time>2026-04-19T15:43:35.999Z</time></trkpt><trkpt lat="46.494172294519494" lon="12.428048467513495"><ele>1028.0</ele><time>2026-04-19T15:43:37.999Z</time></trkpt><trkpt lat="46.49408755733812" lon="12.428166216105758"><ele>1028.4</ele><time>2026-04-19T15:43:38.999Z</time></trkpt><trkpt lat="46.49400791526351" lon="12.428285242942568"><ele>1028.8</ele><time>2026-04-19T15:43:39.999Z</time></trkpt><trkpt lat="46.4939333780154" lon="12.428412641772383"><ele>1029.2</ele><time>2026-04-19T15:43:40.999Z</time></trkpt><trkpt lat="46.493889140651696" lon="12.428536737264482"><ele>1029.6</ele><time>2026-04-19T15:43:41.999Z</time></trkpt><trkpt lat="46.49383404589949" lon="12.428599992452616"><ele>1030.0</ele><time>2026-04-19T15:43:42.999Z</time></trkpt><trkpt lat="46.493805649748985" lon="12.428700498618413"><ele>1030.0</ele><time>2026-04-19T15:43:44.999Z</time></trkpt><trkpt lat="46.493863832852476" lon="12.42879651347789"><ele>1030.0</ele><time>2026-04-19T15:43:46.999Z</time></trkpt><trkpt lat="46.49392658057712" lon="12.4287597404166"><ele>1030.0</ele><time>2026-04-19T15:43:47.999Z</time></trkpt><trkpt lat="46.49396330311417" lon="12.428564612700512"><ele>1030.0</ele><time>2026-04-19T15:43:49.999Z</time></trkpt><trkpt lat="46.494025701767676" lon="12.428464409469163"><ele>1030.0</ele><time>2026-04-19T15:43:50.999Z</time></trkpt><trkpt lat="46.494093021807636" lon="12.42835871762872"><ele>1030.0</ele><time>2026-04-19T15:43:51.999Z</time></trkpt><trkpt lat="46.494179394426844" lon="12.42826231422048"><ele>1030.0</ele><time>2026-04-19T15:43:52.999Z</time></trkpt><trkpt lat="46.494272615279826" lon="12.42814104325087"><ele>1030.0</ele><time>2026-04-19T15:43:53.999Z</time></trkpt><trkpt lat="46.49438655878051" lon="12.428020796491069"><ele>1030.0</ele><time>2026-04-19T15:43:54.999Z</time></trkpt><trkpt lat="46.494501006038305" lon="12.427922478443653"><ele>1029.6</ele><time>2026-04-19T15:43:55.999Z</time></trkpt><trkpt lat="46.49458093017715" lon="12.427806911399115"><ele>1029.2</ele><time>2026-04-19T15:43:56.999Z</time></trkpt><trkpt lat="46.49464411108977" lon="12.427689598400333"><ele>1028.8</ele><time>2026-04-19T15:43:57.999Z</time></trkpt><trkpt lat="46.49470223311753" lon="12.427573697526329"><ele>1028.4</ele><time>2026-04-19T15:43:58.999Z</time></trkpt><trkpt lat="46.49475800990777" lon="12.427463992587075"><ele>1028.0</ele><time>2026-04-19T15:43:59.999Z</time></trkpt><trkpt lat="46.494824769087835" lon="12.427389634683278"><ele>1032.2</ele><time>2026-04-19T15:44:00.999Z</time></trkpt><trkpt lat="46.494877986062995" lon="12.427266336842484"><ele>1036.4</ele><time>2026-04-19T15:44:01.999Z</time></trkpt><trkpt lat="46.494899053460855" lon="12.427124255834407"><ele>1040.6000000000001</ele><time>2026-04-19T15:44:02.999Z</time></trkpt><trkpt lat="46.49492354272965" lon="12.42703007573774"><ele>1044.8</ele><time>2026-04-19T15:44:03.999Z</time></trkpt><trkpt lat="46.49500885935059" lon="12.42707487947045"><ele>1049.0</ele><time>2026-04-19T15:44:07.001Z</time></trkpt><trkpt lat="46.4949662219401" lon="12.4272768300002"><ele>1050.0</ele><time>2026-04-19T15:44:09Z</time></trkpt><trkpt lat="46.49490648044887" lon="12.427390121902818"><ele>1051.0</ele><time>2026-04-19T15:44:10.001Z</time></trkpt><trkpt lat="46.49483529238538" lon="12.427514643375053"><ele>1052.0</ele><time>2026-04-19T15:44:11.001Z</time></trkpt><trkpt lat="46.49474415072792" lon="12.427657182880475"><ele>1053.0</ele><time>2026-04-19T15:44:12.001Z</time></trkpt><trkpt lat="46.49466116102411" lon="12.427843010085079"><ele>1054.0</ele><time>2026-04-19T15:44:13.001Z</time></trkpt><trkpt lat="46.49459592152192" lon="12.428018222961239"><ele>1055.0</ele><time>2026-04-19T15:44:14.001Z</time></trkpt><trkpt lat="46.49451172195211" lon="12.42815535958256"><ele>1056.0</ele><time>2026-04-19T15:44:15.001Z</time></trkpt><trkpt lat="46.49443925035729" lon="12.428270473287693"><ele>1057.0</ele><time>2026-04-19T15:44:16.001Z</time></trkpt><trkpt lat="46.4943860241364" lon="12.428407679147895"><ele>1057.0</ele><time>2026-04-19T15:44:18.001Z</time></trkpt><trkpt lat="46.49445684509671" lon="12.428540832869539"><ele>1057.0</ele><time>2026-04-19T15:44:21Z</time></trkpt><trkpt lat="46.49450671620129" lon="12.428430384774286"><ele>1057.0</ele><time>2026-04-19T15:44:22Z</time></trkpt><trkpt lat="46.49462382485937" lon="12.428286315006801"><ele>1057.0</ele><time>2026-04-19T15:44:24Z</time></trkpt><trkpt lat="46.494694923619136" lon="12.428171845364668"><ele>1057.0</ele><time>2026-04-19T15:44:25Z</time></trkpt><trkpt lat="46.494763959195424" lon="12.428026142580668"><ele>1057.0</ele><time>2026-04-19T15:44:26Z</time></trkpt><trkpt lat="46.494840647661334" lon="12.427895386927256"><ele>1057.0</ele><time>2026-04-19T15:44:27Z</time></trkpt><trkpt lat="46.49491281330362" lon="12.427756589870196"><ele>1057.0</ele><time>2026-04-19T15:44:28Z</time></trkpt><trkpt lat="46.494991107450964" lon="12.427629447550041"><ele>1056.0</ele><time>2026-04-19T15:44:29Z</time></trkpt><trkpt lat="46.495093381925116" lon="12.427544237293741"><ele>1055.0</ele><time>2026-04-19T15:44:30Z</time></trkpt><trkpt lat="46.495176430984614" lon="12.427426973997784"><ele>1054.0</ele><time>2026-04-19T15:44:31Z</time></trkpt><trkpt lat="46.4952507265958" lon="12.427306124074072"><ele>1053.0</ele><time>2026-04-19T15:44:32Z</time></trkpt><trkpt lat="46.49531580937686" lon="12.427153622097903"><ele>1052.2</ele><time>2026-04-19T15:44:33Z</time></trkpt><trkpt lat="46.495366479667744" lon="12.427007485594967"><ele>1051.4</ele><time>2026-04-19T15:44:34Z</time></trkpt><trkpt lat="46.49541370979058" lon="12.426900060937228"><ele>1050.6000000000001</ele><time>2026-04-19T15:44:35Z</time></trkpt><trkpt lat="46.495475133414914" lon="12.426805994521752"><ele>1049.8</ele><time>2026-04-19T15:44:36Z</time></trkpt><trkpt lat="46.4955442223993" lon="12.426689275297752"><ele>1049.0</ele><time>2026-04-19T15:44:37Z</time></trkpt><trkpt lat="46.495591269679494" lon="12.426519595195666"><ele>1057.5</ele><time>2026-04-19T15:44:38Z</time></trkpt><trkpt lat="46.495654244234316" lon="12.426334262578347"><ele>1066.0</ele><time>2026-04-19T15:44:39Z</time></trkpt><trkpt lat="46.49571333409299" lon="12.426155658999415"><ele>1074.5</ele><time>2026-04-19T15:44:40Z</time></trkpt><trkpt lat="46.49576701585471" lon="12.426037177934829"><ele>1083.0</ele><time>2026-04-19T15:44:41Z</time></trkpt><trkpt lat="46.49578404866306" lon="12.425917244390753"><ele>1083.0</ele><time>2026-04-19T15:44:42Z</time></trkpt><trkpt lat="46.495741789876185" lon="12.425774961350058"><ele>1083.0</ele><time>2026-04-19T15:44:43Z</time></trkpt><trkpt lat="46.49573489224698" lon="12.425630587425673"><ele>1083.0</ele><time>2026-04-19T15:44:44Z</time></trkpt><trkpt lat="46.49570122570979" lon="12.425512811034794"><ele>1083.0</ele><time>2026-04-19T15:44:45Z</time></trkpt><trkpt lat="46.49569925406929" lon="12.425417857505682"><ele>1083.0</ele><time>2026-04-19T15:44:47Z</time></trkpt><trkpt lat="46.495780587228" lon="12.4254511863066"><ele>1083.0</ele><time>2026-04-19T15:44:49Z</time></trkpt><trkpt lat="46.49581717435893" lon="12.425545064249206"><ele>1083.0</ele><time>2026-04-19T15:44:50Z</time></trkpt><trkpt lat="46.495830868880105" lon="12.42567831723828"><ele>1083.0</ele><time>2026-04-19T15:44:51Z</time></trkpt><trkpt lat="46.49586009119509" lon="12.425820359682728"><ele>1083.0</ele><time>2026-04-19T15:44:52Z</time></trkpt><trkpt lat="46.49589498973847" lon="12.425967276373719"><ele>1083.0</ele><time>2026-04-19T15:44:53Z</time></trkpt><trkpt lat="46.495910054436685" lon="12.426104008405757"><ele>1083.0</ele><time>2026-04-19T15:44:54Z</time></trkpt><trkpt lat="46.495875358350695" lon="12.426243823082563"><ele>1084.25</ele><time>2026-04-19T15:44:55Z</time></trkpt><trkpt lat="46.49583469896635" lon="12.42641549504818"><ele>1085.5</ele><time>2026-04-19T15:44:56Z</time></trkpt><trkpt lat="46.4958281581382" lon="12.426599996101052"><ele>1086.75</ele><time>2026-04-19T15:44:57Z</time></trkpt><trkpt lat="46.49576723495962" lon="12.426722148626249"><ele>1088.0</ele><time>2026-04-19T15:44:58Z</time></trkpt><trkpt lat="46.49571311482229" lon="12.426839099340441"><ele>1088.0</ele><time>2026-04-19T15:44:59Z</time></trkpt><trkpt lat="46.495646771128364" lon="12.42693444057842"><ele>1088.0</ele><time>2026-04-19T15:45:00Z</time></trkpt><trkpt lat="46.495602991420384" lon="12.427039570169555"><ele>1088.0</ele><time>2026-04-19T15:45:01Z</time></trkpt><trkpt lat="46.495566622574465" lon="12.42712593699557"><ele>1088.0</ele><time>2026-04-19T15:45:02Z</time></trkpt><trkpt lat="46.49554227864513" lon="12.42722213199144"><ele>1088.0</ele><time>2026-04-19T15:45:03Z</time></trkpt><trkpt lat="46.49552808641181" lon="12.42732022468857"><ele>1088.0</ele><time>2026-04-19T15:45:04Z</time></trkpt><trkpt lat="46.495517631406365" lon="12.427417324108278"><ele>1089.5</ele><time>2026-04-19T15:45:05Z</time></trkpt><trkpt lat="46.49551839813185" lon="12.427513124130785"><ele>1091.0</ele><time>2026-04-19T15:45:07Z</time></trkpt><trkpt lat="46.49558413305765" lon="12.427569426256031"><ele>1092.5</ele><time>2026-04-19T15:45:08Z</time></trkpt><trkpt lat="46.495648196533516" lon="12.427566459445448"><ele>1094.0</ele><time>2026-04-19T15:45:10Z</time></trkpt><trkpt lat="46.49567001477879" lon="12.427439168377603"><ele>1095.5</ele><time>2026-04-19T15:45:12Z</time></trkpt><trkpt lat="46.495626046214284" lon="12.427368715450655"><ele>1097.0</ele><time>2026-04-19T15:45:13Z</time></trkpt><trkpt lat="46.49563144852787" lon="12.427227454356238"><ele>1095.5</ele><time>2026-04-19T15:45:15Z</time></trkpt><trkpt lat="46.49567874292747" lon="12.42713562185733"><ele>1094.0</ele><time>2026-04-19T15:45:17Z</time></trkpt><trkpt lat="46.495749636725584" lon="12.427051988608877"><ele>1092.5</ele><time>2026-04-19T15:45:19Z</time></trkpt><trkpt lat="46.49580960724144" lon="12.426996850864066"><ele>1091.0</ele><time>2026-04-19T15:45:20Z</time></trkpt><trkpt lat="46.49587862974612" lon="12.426917333514451"><ele>1089.5</ele><time>2026-04-19T15:45:21Z</time></trkpt><trkpt lat="46.495965136679224" lon="12.42680272725747"><ele>1088.0</ele><time>2026-04-19T15:45:22Z</time></trkpt><trkpt lat="46.496047955656785" lon="12.426673238647167"><ele>1088.0</ele><time>2026-04-19T15:45:23Z</time></trkpt><trkpt lat="46.49610388221752" lon="12.426527975330549"><ele>1088.0</ele><time>2026-04-19T15:45:24Z</time></trkpt><trkpt lat="46.49613269344293" lon="12.42635114742305"><ele>1088.0</ele><time>2026-04-19T15:45:25Z</time></trkpt><trkpt lat="46.49616596543044" lon="12.426153998363832"><ele>1088.0</ele><time>2026-04-19T15:45:26Z</time></trkpt><trkpt lat="46.49620757632381" lon="12.425929609738542"><ele>1087.0</ele><time>2026-04-19T15:45:27Z</time></trkpt><trkpt lat="46.49623242143245" lon="12.425748956442716"><ele>1086.0</ele><time>2026-04-19T15:45:27.999Z</time></trkpt><trkpt lat="46.49625760518553" lon="12.425604832319586"><ele>1085.0</ele><time>2026-04-19T15:45:28.999Z</time></trkpt><trkpt lat="46.49628121282847" lon="12.425484697222387"><ele>1084.0</ele><time>2026-04-19T15:45:29.999Z</time></trkpt><trkpt lat="46.49630369126288" lon="12.425382428253096"><ele>1083.0</ele><time>2026-04-19T15:45:30.999Z</time></trkpt><trkpt lat="46.4963337883346" lon="12.42518398148562"><ele>1092.2</ele><time>2026-04-19T15:45:32.999Z</time></trkpt><trkpt lat="46.496345973145765" lon="12.425033499061524"><ele>1101.4</ele><time>2026-04-19T15:45:33.999Z</time></trkpt><trkpt lat="46.49636478730818" lon="12.424882783186261"><ele>1110.6000000000001</ele><time>2026-04-19T15:45:34.999Z</time></trkpt><trkpt lat="46.496380964497156" lon="12.424738104065685"><ele>1119.8</ele><time>2026-04-19T15:45:35.999Z</time></trkpt><trkpt lat="46.496415070984135" lon="12.424629281406425"><ele>1129.0</ele><time>2026-04-19T15:45:36.999Z</time></trkpt><trkpt lat="46.496478102110686" lon="12.424574185000216"><ele>1129.0</ele><time>2026-04-19T15:45:37.999Z</time></trkpt><trkpt lat="46.49652625718689" lon="12.424496258041613"><ele>1129.0</ele><time>2026-04-19T15:45:38.999Z</time></trkpt><trkpt lat="46.496574036751326" lon="12.424416203395259"><ele>1129.0</ele><time>2026-04-19T15:45:39.999Z</time></trkpt><trkpt lat="46.49659285405153" lon="12.424297566347198"><ele>1129.0</ele><time>2026-04-19T15:45:40.999Z</time></trkpt><trkpt lat="46.49658578881975" lon="12.42418404151885"><ele>1129.0</ele><time>2026-04-19T15:45:41.999Z</time></trkpt><trkpt lat="46.496551225929274" lon="12.424079578424596"><ele>1129.0</ele><time>2026-04-19T15:45:42.999Z</time></trkpt><trkpt lat="46.496528985162364" lon="12.423980330395118"><ele>1129.0</ele><time>2026-04-19T15:45:43.999Z</time></trkpt><trkpt lat="46.496520037886334" lon="12.4238566416837"><ele>1129.0</ele><time>2026-04-19T15:45:45.999Z</time></trkpt><trkpt lat="46.496490982579786" lon="12.423716019021098"><ele>1129.0</ele><time>2026-04-19T15:45:47.999Z</time></trkpt><trkpt lat="46.49643896619187" lon="12.423590752695326"><ele>1129.0</ele><time>2026-04-19T15:45:49.999Z</time></trkpt><trkpt lat="46.49633978001043" lon="12.42351744396168"><ele>1129.0</ele><time>2026-04-19T15:45:51.999Z</time></trkpt><trkpt lat="46.496217939373686" lon="12.42351556483721"><ele>1130.5</ele><time>2026-04-19T15:45:53.999Z</time></trkpt><trkpt lat="46.49615487360944" lon="12.423504401347891"><ele>1132.0</ele><time>2026-04-19T15:45:54.999Z</time></trkpt><trkpt lat="46.49607341707824" lon="12.42346843390947"><ele>1133.5</ele><time>2026-04-19T15:45:56.999Z</time></trkpt><trkpt lat="46.49600894050731" lon="12.423460532052943"><ele>1135.0</ele><time>2026-04-19T15:45:57.999Z</time></trkpt><trkpt lat="46.495944805795" lon="12.423459924171395"><ele>1136.5</ele><time>2026-04-19T15:45:58.999Z</time></trkpt><trkpt lat="46.49582388697738" lon="12.4234437180024"><ele>1138.0</ele><time>2026-04-19T15:46:00.999Z</time></trkpt><trkpt lat="46.49571578463902" lon="12.423499610804742"><ele>1138.0</ele><time>2026-04-19T15:46:02.999Z</time></trkpt><trkpt lat="46.495625762138815" lon="12.423519604625886"><ele>1138.0</ele><time>2026-04-19T15:46:03.999Z</time></trkpt><trkpt lat="46.49554959884654" lon="12.423536520461116"><ele>1138.0</ele><time>2026-04-19T15:46:04.999Z</time></trkpt><trkpt lat="46.49546978238256" lon="12.423552718802906"><ele>1138.0</ele><time>2026-04-19T15:46:05.999Z</time></trkpt><trkpt lat="46.49538425945446" lon="12.42356113233117"><ele>1138.0</ele><time>2026-04-19T15:46:06.999Z</time></trkpt><trkpt lat="46.49528834037771" lon="12.42356280764724"><ele>1138.0</ele><time>2026-04-19T15:46:07.999Z</time></trkpt><trkpt lat="46.495172151819546" lon="12.423564421795836"><ele>1140.1666666666665</ele><time>2026-04-19T15:46:08.999Z</time></trkpt><trkpt lat="46.49506907264102" lon="12.42358054869056"><ele>1142.3333333333333</ele><time>2026-04-19T15:46:09.999Z</time></trkpt><trkpt lat="46.49497864889702" lon="12.423616196613535"><ele>1144.5</ele><time>2026-04-19T15:46:10.999Z</time></trkpt><trkpt lat="46.4948977121756" lon="12.423670471954647"><ele>1146.6666666666667</ele><time>2026-04-19T15:46:11.999Z</time></trkpt><trkpt lat="46.4948242609654" lon="12.423717551986798"><ele>1148.8333333333335</ele><time>2026-04-19T15:46:13.001Z</time></trkpt><trkpt lat="46.49474411463958" lon="12.423735807670985"><ele>1151.0</ele><time>2026-04-19T15:46:15.001Z</time></trkpt><trkpt lat="46.494651746001104" lon="12.42373317423287"><ele>1148.6</ele><time>2026-04-19T15:46:16.001Z</time></trkpt><trkpt lat="46.49452751792642" lon="12.423724374628375"><ele>1146.1999999999998</ele><time>2026-04-19T15:46:17.001Z</time></trkpt><trkpt lat="46.49443299757456" lon="12.423674056783451"><ele>1143.8000000000002</ele><time>2026-04-19T15:46:18Z</time></trkpt><trkpt lat="46.4943640531239" lon="12.423645050639923"><ele>1141.4</ele><time>2026-04-19T15:46:19Z</time></trkpt><trkpt lat="46.4943071161869" lon="12.423591614563064"><ele>1139.0</ele><time>2026-04-19T15:46:20Z</time></trkpt><trkpt lat="46.49423382599624" lon="12.423510376555772"><ele>1139.0</ele><time>2026-04-19T15:46:21Z</time></trkpt><trkpt lat="46.49416664410255" lon="12.42337667263545"><ele>1139.0</ele><time>2026-04-19T15:46:22Z</time></trkpt><trkpt lat="46.4940970148869" lon="12.423233967340558"><ele>1139.0</ele><time>2026-04-19T15:46:23Z</time></trkpt><trkpt lat="46.49402650630796" lon="12.423112628500679"><ele>1139.0</ele><time>2026-04-19T15:46:24Z</time></trkpt><trkpt lat="46.49395869487193" lon="12.423033002731541"><ele>1139.0</ele><time>2026-04-19T15:46:25Z</time></trkpt><trkpt lat="46.493892245664426" lon="12.422991105245618"><ele>1139.0</ele><time>2026-04-19T15:46:26Z</time></trkpt><trkpt lat="46.49380102185611" lon="12.422958474872543"><ele>1139.0</ele><time>2026-04-19T15:46:28Z</time></trkpt><trkpt lat="46.493837604075594" lon="12.422875678000768"><ele>1139.0</ele><time>2026-04-19T15:46:31Z</time></trkpt><trkpt lat="46.493927807721974" lon="12.422899229956528"><ele>1139.0</ele><time>2026-04-19T15:46:33Z</time></trkpt><trkpt lat="46.493992224138125" lon="12.422949775340008"><ele>1139.0</ele><time>2026-04-19T15:46:34Z</time></trkpt><trkpt lat="46.494081730575246" lon="12.423035109640217"><ele>1139.0</ele><time>2026-04-19T15:46:35Z</time></trkpt><trkpt lat="46.49417858233105" lon="12.423116120845702"><ele>1139.0</ele><time>2026-04-19T15:46:36Z</time></trkpt><trkpt lat="46.49426903311372" lon="12.423192194546722"><ele>1139.0</ele><time>2026-04-19T15:46:37Z</time></trkpt><trkpt lat="46.49433342336738" lon="12.423292761648765"><ele>1139.0</ele><time>2026-04-19T15:46:38Z</time></trkpt><trkpt lat="46.49440483067169" lon="12.42335201002056"><ele>1139.0</ele><time>2026-04-19T15:46:39Z</time></trkpt><trkpt lat="46.494490203385794" lon="12.423367261114011"><ele>1139.0</ele><time>2026-04-19T15:46:40Z</time></trkpt><trkpt lat="46.49458760883656" lon="12.423365027302246"><ele>1139.0</ele><time>2026-04-19T15:46:41Z</time></trkpt><trkpt lat="46.49466153713925" lon="12.423406745249967"><ele>1139.0</ele><time>2026-04-19T15:46:42Z</time></trkpt><trkpt lat="46.49473176998709" lon="12.423393767551095"><ele>1139.0</ele><time>2026-04-19T15:46:44Z</time></trkpt><trkpt lat="46.494754083930445" lon="12.42326306150813"><ele>1139.0</ele><time>2026-04-19T15:46:47Z</time></trkpt><trkpt lat="46.49461494639539" lon="12.423261972169755"><ele>1139.0</ele><time>2026-04-19T15:46:49Z</time></trkpt><trkpt lat="46.49451950971736" lon="12.423222746654986"><ele>1139.0</ele><time>2026-04-19T15:46:50Z</time></trkpt><trkpt lat="46.494431206271656" lon="12.423180979315363"><ele>1139.0</ele><time>2026-04-19T15:46:51Z</time></trkpt><trkpt lat="46.4943720840623" lon="12.423123884047687"><ele>1139.0</ele><time>2026-04-19T15:46:52Z</time></trkpt><trkpt lat="46.494315832949724" lon="12.423068207503244"><ele>1139.0</ele><time>2026-04-19T15:46:53Z</time></trkpt><trkpt lat="46.494248265335564" lon="12.4229950550897"><ele>1139.0</ele><time>2026-04-19T15:46:54Z</time></trkpt><trkpt lat="46.494162730230414" lon="12.422885975299867"><ele>1139.0</ele><time>2026-04-19T15:46:55Z</time></trkpt><trkpt lat="46.49411035635537" lon="12.422735490413148"><ele>1146.6000000000001</ele><time>2026-04-19T15:46:56Z</time></trkpt><trkpt lat="46.494029923113565" lon="12.422637942581902"><ele>1154.2</ele><time>2026-04-19T15:46:57Z</time></trkpt><trkpt lat="46.493965254170725" lon="12.422573051670545"><ele>1161.8000000000002</ele><time>2026-04-19T15:46:58Z</time></trkpt><trkpt lat="46.49387504707933" lon="12.42249815637149"><ele>1169.4</ele><time>2026-04-19T15:47:00Z</time></trkpt><trkpt lat="46.49398468859997" lon="12.422509075730146"><ele>1177.0</ele><time>2026-04-19T15:47:05Z</time></trkpt><trkpt lat="46.4940597197094" lon="12.422577884407266"><ele>1177.0</ele><time>2026-04-19T15:47:06Z</time></trkpt><trkpt lat="46.49412538940478" lon="12.42265736930628"><ele>1177.0</ele><time>2026-04-19T15:47:07Z</time></trkpt><trkpt lat="46.494185299929846" lon="12.422761877603495"><ele>1177.0</ele><time>2026-04-19T15:47:08Z</time></trkpt><trkpt lat="46.49424077126437" lon="12.422826089109355"><ele>1177.0</ele><time>2026-04-19T15:47:09Z</time></trkpt><trkpt lat="46.4943497297158" lon="12.422876917596264"><ele>1177.0</ele><time>2026-04-19T15:47:11Z</time></trkpt><trkpt lat="46.49447268820313" lon="12.422891349088628"><ele>1177.0</ele><time>2026-04-19T15:47:13Z</time></trkpt><trkpt lat="46.49457156944691" lon="12.4228663587595"><ele>1177.0</ele><time>2026-04-19T15:47:14Z</time></trkpt><trkpt lat="46.494656779682956" lon="12.422845325138105"><ele>1177.0</ele><time>2026-04-19T15:47:15Z</time></trkpt><trkpt lat="46.494730967134544" lon="12.422801957139708"><ele>1177.0</ele><time>2026-04-19T15:47:16Z</time></trkpt><trkpt lat="46.49479783209531" lon="12.42272404026741"><ele>1177.0</ele><time>2026-04-19T15:47:17Z</time></trkpt><trkpt lat="46.494883503592376" lon="12.422688348419479"><ele>1177.0</ele><time>2026-04-19T15:47:18Z</time></trkpt><trkpt lat="46.494969063623415" lon="12.422655056386304"><ele>1179.1666666666665</ele><time>2026-04-19T15:47:19Z</time></trkpt><trkpt lat="46.49505099149903" lon="12.422602096071582"><ele>1181.3333333333333</ele><time>2026-04-19T15:47:20Z</time></trkpt><trkpt lat="46.49511832405592" lon="12.422601063815852"><ele>1183.5</ele><time>2026-04-19T15:47:21Z</time></trkpt><trkpt lat="46.49521334241727" lon="12.42257846471386"><ele>1185.6666666666667</ele><time>2026-04-19T15:47:24Z</time></trkpt><trkpt lat="46.49519259532977" lon="12.42245860509305"><ele>1187.8333333333335</ele><time>2026-04-19T15:47:26Z</time></trkpt><trkpt lat="46.49509605829548" lon="12.422482778128359"><ele>1190.0</ele><time>2026-04-19T15:47:27Z</time></trkpt><trkpt lat="46.495017751647055" lon="12.422514688386647"><ele>1190.0</ele><time>2026-04-19T15:47:28Z</time></trkpt><trkpt lat="46.494913617329715" lon="12.422538681498411"><ele>1190.0</ele><time>2026-04-19T15:47:29Z</time></trkpt><trkpt lat="46.49480088060056" lon="12.422554478791122"><ele>1190.0</ele><time>2026-04-19T15:47:30Z</time></trkpt><trkpt lat="46.4946983854099" lon="12.42256490045889"><ele>1190.0</ele><time>2026-04-19T15:47:31Z</time></trkpt><trkpt lat="46.494619299945654" lon="12.42257013357947"><ele>1190.0</ele><time>2026-04-19T15:47:32Z</time></trkpt><trkpt lat="46.49454536619115" lon="12.422565179929153"><ele>1187.8333333333335</ele><time>2026-04-19T15:47:33Z</time></trkpt><trkpt lat="46.49445679787119" lon="12.422539520138073"><ele>1185.6666666666667</ele><time>2026-04-19T15:47:33.999Z</time></trkpt><trkpt lat="46.49437446968458" lon="12.422495967732898"><ele>1183.5</ele><time>2026-04-19T15:47:34.999Z</time></trkpt><trkpt lat="46.494314063387975" lon="12.422451084036013"><ele>1181.3333333333333</ele><time>2026-04-19T15:47:35.999Z</time></trkpt><trkpt lat="46.4942444132953" lon="12.422315674293866"><ele>1179.1666666666665</ele><time>2026-04-19T15:47:37.999Z</time></trkpt><trkpt lat="46.49419759394071" lon="12.422231806371395"><ele>1177.0</ele><time>2026-04-19T15:47:38.999Z</time></trkpt><trkpt lat="46.49414806514311" lon="12.42213903131237"><ele>1178.3333333333333</ele><time>2026-04-19T15:47:39.999Z</time></trkpt><trkpt lat="46.494085802391915" lon="12.422050768618266"><ele>1179.6666666666665</ele><time>2026-04-19T15:47:40.999Z</time></trkpt><trkpt lat="46.49400774919868" lon="12.422017360329058"><ele>1181.0</ele><time>2026-04-19T15:47:41.999Z</time></trkpt><trkpt lat="46.493941917892684" lon="12.422019131536725"><ele>1182.3333333333333</ele><time>2026-04-19T15:47:42.999Z</time></trkpt><trkpt lat="46.49386621514747" lon="12.421952831351794"><ele>1183.6666666666667</ele><time>2026-04-19T15:47:43.999Z</time></trkpt><trkpt lat="46.49378802038061" lon="12.421896716278566"><ele>1185.0</ele><time>2026-04-19T15:47:44.999Z</time></trkpt><trkpt lat="46.493711622031306" lon="12.42183470952473"><ele>1185.0</ele><time>2026-04-19T15:47:45.999Z</time></trkpt><trkpt lat="46.49363533460863" lon="12.421764707036427"><ele>1185.0</ele><time>2026-04-19T15:47:46.999Z</time></trkpt><trkpt lat="46.493552440505496" lon="12.421682215073181"><ele>1185.0</ele><time>2026-04-19T15:47:47.999Z</time></trkpt><trkpt lat="46.49346630780177" lon="12.4215899621444"><ele>1185.0</ele><time>2026-04-19T15:47:48.999Z</time></trkpt><trkpt lat="46.493367851241835" lon="12.421503793322511"><ele>1185.0</ele><time>2026-04-19T15:47:49.999Z</time></trkpt><trkpt lat="46.493280732217514" lon="12.421394285169699"><ele>1191.4</ele><time>2026-04-19T15:47:50.999Z</time></trkpt><trkpt lat="46.493206089114935" lon="12.421300355699005"><ele>1197.8</ele><time>2026-04-19T15:47:51.999Z</time></trkpt><trkpt lat="46.49315308170634" lon="12.421191771409298"><ele>1204.2</ele><time>2026-04-19T15:47:52.999Z</time></trkpt><trkpt lat="46.49309518568525" lon="12.421081764439064"><ele>1210.6</ele><time>2026-04-19T15:47:53.999Z</time></trkpt><trkpt lat="46.49304917933207" lon="12.420966303098258"><ele>1217.0</ele><time>2026-04-19T15:47:54.999Z</time></trkpt><trkpt lat="46.49301474607874" lon="12.420852991861503"><ele>1217.0</ele><time>2026-04-19T15:47:55.999Z</time></trkpt><trkpt lat="46.492993129894884" lon="12.420743553291693"><ele>1217.0</ele><time>2026-04-19T15:47:56.999Z</time></trkpt><trkpt lat="46.49298246945675" lon="12.420633809015321"><ele>1217.0</ele><time>2026-04-19T15:47:57.999Z</time></trkpt><trkpt lat="46.49298467475808" lon="12.420519548862368"><ele>1217.0</ele><time>2026-04-19T15:47:58.999Z</time></trkpt><trkpt lat="46.49299851970094" lon="12.42039630777115"><ele>1217.0</ele><time>2026-04-19T15:47:59.999Z</time></trkpt><trkpt lat="46.49301908969139" lon="12.420260427035371"><ele>1217.0</ele><time>2026-04-19T15:48:00.999Z</time></trkpt><trkpt lat="46.493045844126236" lon="12.420119636754578"><ele>1220.75</ele><time>2026-04-19T15:48:01.999Z</time></trkpt><trkpt lat="46.493074635027746" lon="12.41994328786921"><ele>1224.5</ele><time>2026-04-19T15:48:02.999Z</time></trkpt><trkpt lat="46.49308311957294" lon="12.419729998090434"><ele>1228.25</ele><time>2026-04-19T15:48:03.999Z</time></trkpt><trkpt lat="46.4930788893862" lon="12.419544707758755"><ele>1232.0</ele><time>2026-04-19T15:48:04.999Z</time></trkpt><trkpt lat="46.49309137631117" lon="12.419369786456972"><ele>1233.6</ele><time>2026-04-19T15:48:05.999Z</time></trkpt><trkpt lat="46.49309426981716" lon="12.419193884896325"><ele>1235.2</ele><time>2026-04-19T15:48:06.999Z</time></trkpt><trkpt lat="46.4930908712445" lon="12.419025798078712"><ele>1236.8</ele><time>2026-04-19T15:48:07.999Z</time></trkpt><trkpt lat="46.493085281057716" lon="12.41887316445453"><ele>1238.4</ele><time>2026-04-19T15:48:08.999Z</time></trkpt><trkpt lat="46.49308294153071" lon="12.418773165662078"><ele>1240.0</ele><time>2026-04-19T15:48:09.999Z</time></trkpt><trkpt lat="46.49308793848087" lon="12.41867120967458"><ele>1240.0</ele><time>2026-04-19T15:48:11.999Z</time></trkpt><trkpt lat="46.4931813211222" lon="12.418771887012682"><ele>1240.0</ele><time>2026-04-19T15:48:15.999Z</time></trkpt><trkpt lat="46.49314743965658" lon="12.418898844628696"><ele>1240.0</ele><time>2026-04-19T15:48:16.999Z</time></trkpt><trkpt lat="46.493155955085676" lon="12.41901302214868"><ele>1240.0</ele><time>2026-04-19T15:48:17.999Z</time></trkpt><trkpt lat="46.49317076429517" lon="12.419153142385852"><ele>1240.0</ele><time>2026-04-19T15:48:19.001Z</time></trkpt><trkpt lat="46.493208027213825" lon="12.41933501847244"><ele>1240.0</ele><time>2026-04-19T15:48:20.001Z</time></trkpt><trkpt lat="46.493243349037456" lon="12.419510725236286"><ele>1240.0</ele><time>2026-04-19T15:48:21.001Z</time></trkpt><trkpt lat="46.49326779013424" lon="12.41967791628545"><ele>1240.0</ele><time>2026-04-19T15:48:22.001Z</time></trkpt><trkpt lat="46.49328747494837" lon="12.419834833717342"><ele>1240.0</ele><time>2026-04-19T15:48:23.001Z</time></trkpt><trkpt lat="46.493303775883305" lon="12.41998334890934"><ele>1238.4</ele><time>2026-04-19T15:48:24.001Z</time></trkpt><trkpt lat="46.49331481736713" lon="12.420135406084803"><ele>1236.8</ele><time>2026-04-19T15:48:25.001Z</time></trkpt><trkpt lat="46.4933305789696" lon="12.420289161473633"><ele>1235.2</ele><time>2026-04-19T15:48:26.001Z</time></trkpt><trkpt lat="46.493361742559856" lon="12.420422699633809"><ele>1233.6</ele><time>2026-04-19T15:48:27.001Z</time></trkpt><trkpt lat="46.49339028166166" lon="12.420564839024156"><ele>1232.0</ele><time>2026-04-19T15:48:29.001Z</time></trkpt><trkpt lat="46.49345346742448" lon="12.420672809456182"><ele>1232.0</ele><time>2026-04-19T15:48:32.001Z</time></trkpt><trkpt lat="46.49349285014347" lon="12.420557420192704"><ele>1232.0</ele><time>2026-04-19T15:48:34.001Z</time></trkpt><trkpt lat="46.493455787086866" lon="12.420373867181759"><ele>1232.0</ele><time>2026-04-19T15:48:36Z</time></trkpt><trkpt lat="46.493442926503256" lon="12.42026040120073"><ele>1232.0</ele><time>2026-04-19T15:48:37Z</time></trkpt><trkpt lat="46.493429668048066" lon="12.420114249044776"><ele>1232.0</ele><time>2026-04-19T15:48:38Z</time></trkpt><trkpt lat="46.49344525728559" lon="12.41994730452806"><ele>1232.0</ele><time>2026-04-19T15:48:39Z</time></trkpt><trkpt lat="46.49346718484567" lon="12.419768794284579"><ele>1232.0</ele><time>2026-04-19T15:48:40Z</time></trkpt><trkpt lat="46.4934794483102" lon="12.41957831019023"><ele>1232.0</ele><time>2026-04-19T15:48:41Z</time></trkpt><trkpt lat="46.49347555907888" lon="12.419376550967069"><ele>1232.0</ele><time>2026-04-19T15:48:42Z</time></trkpt><trkpt lat="46.493474184144304" lon="12.419173416235674"><ele>1234.0</ele><time>2026-04-19T15:48:43Z</time></trkpt><trkpt lat="46.49347880504144" lon="12.418971901324435"><ele>1236.0</ele><time>2026-04-19T15:48:44Z</time></trkpt><trkpt lat="46.49349453461546" lon="12.41874080993037"><ele>1238.0</ele><time>2026-04-19T15:48:45Z</time></trkpt><trkpt lat="46.49352774200495" lon="12.418563636041165"><ele>1240.0</ele><time>2026-04-19T15:48:46Z</time></trkpt><trkpt lat="46.49353923927667" lon="12.418393198745688"><ele>1242.75</ele><time>2026-04-19T15:48:47Z</time></trkpt><trkpt lat="46.49351956461572" lon="12.418220552874043"><ele>1245.5</ele><time>2026-04-19T15:48:48Z</time></trkpt><trkpt lat="46.49347220256422" lon="12.418054772408379"><ele>1248.25</ele><time>2026-04-19T15:48:49Z</time></trkpt><trkpt lat="46.49342501713243" lon="12.417867861925389"><ele>1251.0</ele><time>2026-04-19T15:48:50Z</time></trkpt><trkpt lat="46.49339835619073" lon="12.41764924337129"><ele>1254.0</ele><time>2026-04-19T15:48:51Z</time></trkpt><trkpt lat="46.49338155322032" lon="12.41747613875669"><ele>1257.0</ele><time>2026-04-19T15:48:52Z</time></trkpt><trkpt lat="46.49337355699392" lon="12.417330282487997"><ele>1260.0</ele><time>2026-04-19T15:48:53Z</time></trkpt><trkpt lat="46.49336975209412" lon="12.417187594107457"><ele>1263.0</ele><time>2026-04-19T15:48:54Z</time></trkpt><trkpt lat="46.49337023924535" lon="12.417081830516901"><ele>1266.0</ele><time>2026-04-19T15:48:55Z</time></trkpt><trkpt lat="46.49338430491546" lon="12.416938765988592"><ele>1267.0</ele><time>2026-04-19T15:48:57Z</time></trkpt><trkpt lat="46.493402812410274" lon="12.416728122965873"><ele>1268.0</ele><time>2026-04-19T15:48:59Z</time></trkpt><trkpt lat="46.49341106892708" lon="12.41657808105939"><ele>1269.0</ele><time>2026-04-19T15:49:00Z</time></trkpt><trkpt lat="46.49341418419058" lon="12.416415733835946"><ele>1270.0</ele><time>2026-04-19T15:49:01Z</time></trkpt><trkpt lat="46.493441533606024" lon="12.416233641220899"><ele>1270.0</ele><time>2026-04-19T15:49:02Z</time></trkpt><trkpt lat="46.49343820817907" lon="12.41606448815827"><ele>1270.0</ele><time>2026-04-19T15:49:03Z</time></trkpt><trkpt lat="46.493425599517224" lon="12.415932125477323"><ele>1270.0</ele><time>2026-04-19T15:49:04Z</time></trkpt><trkpt lat="46.493436282914644" lon="12.415791280800265"><ele>1270.0</ele><time>2026-04-19T15:49:05Z</time></trkpt><trkpt lat="46.49341305551236" lon="12.415646594819309"><ele>1270.0</ele><time>2026-04-19T15:49:06Z</time></trkpt><trkpt lat="46.49338915712566" lon="12.415437397145634"><ele>1272.0</ele><time>2026-04-19T15:49:07Z</time></trkpt><trkpt lat="46.49339654435066" lon="12.415236288195551"><ele>1274.0</ele><time>2026-04-19T15:49:08Z</time></trkpt><trkpt lat="46.49337571612957" lon="12.415051559620874"><ele>1276.0</ele><time>2026-04-19T15:49:09Z</time></trkpt><trkpt lat="46.49338059509686" lon="12.414879380232934"><ele>1278.0</ele><time>2026-04-19T15:49:10Z</time></trkpt><trkpt lat="46.493372781583545" lon="12.414711623270035"><ele>1278.4</ele><time>2026-04-19T15:49:11Z</time></trkpt><trkpt lat="46.49336258455232" lon="12.414545603085632"><ele>1278.8</ele><time>2026-04-19T15:49:12Z</time></trkpt><trkpt lat="46.49335291726215" lon="12.414381875382961"><ele>1279.2</ele><time>2026-04-19T15:49:13Z</time></trkpt><trkpt lat="46.49334872039775" lon="12.41424290575764"><ele>1279.6</ele><time>2026-04-19T15:49:14Z</time></trkpt><trkpt lat="46.49335099538775" lon="12.414124333739153"><ele>1280.0</ele><time>2026-04-19T15:49:15Z</time></trkpt><trkpt lat="46.49336126765906" lon="12.414031773045458"><ele>1280.0</ele><time>2026-04-19T15:49:16Z</time></trkpt><trkpt lat="46.49338880990838" lon="12.413942321083447"><ele>1280.0</ele><time>2026-04-19T15:49:17Z</time></trkpt><trkpt lat="46.493456370854304" lon="12.413833629263772"><ele>1280.0</ele><time>2026-04-19T15:49:18Z</time></trkpt><trkpt lat="46.49353126121781" lon="12.413682832198495"><ele>1280.0</ele><time>2026-04-19T15:49:19Z</time></trkpt><trkpt lat="46.49361255770655" lon="12.413528790451"><ele>1280.0</ele><time>2026-04-19T15:49:20Z</time></trkpt><trkpt lat="46.49368886313654" lon="12.413401116580232"><ele>1283.25</ele><time>2026-04-19T15:49:21Z</time></trkpt><trkpt lat="46.493773639575586" lon="12.413278078225673"><ele>1286.5</ele><time>2026-04-19T15:49:22Z</time></trkpt><trkpt lat="46.49385126129665" lon="12.413171705556314"><ele>1289.75</ele><time>2026-04-19T15:49:23Z</time></trkpt><trkpt lat="46.49394989324163" lon="12.413040631337541"><ele>1293.0</ele><time>2026-04-19T15:49:24Z</time></trkpt><trkpt lat="46.4940221956548" lon="12.412946992612927"><ele>1293.0</ele><time>2026-04-19T15:49:25Z</time></trkpt><trkpt lat="46.494094922843956" lon="12.412838273243452"><ele>1293.0</ele><time>2026-04-19T15:49:26Z</time></trkpt><trkpt lat="46.49418221936582" lon="12.412759189133515"><ele>1293.0</ele><time>2026-04-19T15:49:27Z</time></trkpt><trkpt lat="46.494245512251645" lon="12.412640779219371"><ele>1293.0</ele><time>2026-04-19T15:49:28Z</time></trkpt><trkpt lat="46.49428132030582" lon="12.412541352483188"><ele>1293.0</ele><time>2026-04-19T15:49:29Z</time></trkpt><trkpt lat="46.49432401188592" lon="12.412458421016357"><ele>1293.0</ele><time>2026-04-19T15:49:31Z</time></trkpt><trkpt lat="46.494365174410724" lon="12.412532692786833"><ele>1293.0</ele><time>2026-04-19T15:49:48.999Z</time></trkpt><trkpt lat="46.49430011841205" lon="12.412641271482373"><ele>1293.0</ele><time>2026-04-19T15:49:50.999Z</time></trkpt><trkpt lat="46.494224695013344" lon="12.412773582288851"><ele>1293.0</ele><time>2026-04-19T15:49:52.999Z</time></trkpt><trkpt lat="46.494173698417676" lon="12.412857466229383"><ele>1293.0</ele><time>2026-04-19T15:49:53.999Z</time></trkpt><trkpt lat="46.494110860645684" lon="12.412941331749938"><ele>1293.0</ele><time>2026-04-19T15:49:54.999Z</time></trkpt><trkpt lat="46.494040703270265" lon="12.413039723625408"><ele>1287.2</ele><time>2026-04-19T15:49:55.999Z</time></trkpt><trkpt lat="46.493970305650365" lon="12.41314430481137"><ele>1281.4</ele><time>2026-04-19T15:49:56.999Z</time></trkpt><trkpt lat="46.49389890700992" lon="12.413252954366435"><ele>1275.6000000000001</ele><time>2026-04-19T15:49:57.999Z</time></trkpt><trkpt lat="46.49383431975639" lon="12.413364959990945"><ele>1269.8000000000002</ele><time>2026-04-19T15:49:58.999Z</time></trkpt><trkpt lat="46.49378416142663" lon="12.41346230204737"><ele>1264.0</ele><time>2026-04-19T15:49:59.999Z</time></trkpt><trkpt lat="46.493733555521665" lon="12.413575936562506"><ele>1264.0</ele><time>2026-04-19T15:50:00.999Z</time></trkpt><trkpt lat="46.49368795084096" lon="12.413701808059688"><ele>1264.0</ele><time>2026-04-19T15:50:01.999Z</time></trkpt><trkpt lat="46.49364589267162" lon="12.413852691461987"><ele>1264.0</ele><time>2026-04-19T15:50:02.999Z</time></trkpt><trkpt lat="46.493612667249295" lon="12.41400241648962"><ele>1264.0</ele><time>2026-04-19T15:50:03.999Z</time></trkpt><trkpt lat="46.49359552627783" lon="12.414134942747685"><ele>1264.0</ele><time>2026-04-19T15:50:04.999Z</time></trkpt><trkpt lat="46.493593660875035" lon="12.414250519579664"><ele>1266.8</ele><time>2026-04-19T15:50:05.999Z</time></trkpt><trkpt lat="46.49360492320072" lon="12.414376050687281"><ele>1269.6000000000001</ele><time>2026-04-19T15:50:06.999Z</time></trkpt><trkpt lat="46.49362641875607" lon="12.414527351469372"><ele>1272.4</ele><time>2026-04-19T15:50:07.999Z</time></trkpt><trkpt lat="46.49365327271331" lon="12.414688675181576"><ele>1275.2</ele><time>2026-04-19T15:50:08.999Z</time></trkpt><trkpt lat="46.49369726611471" lon="12.414859101167085"><ele>1278.0</ele><time>2026-04-19T15:50:09.999Z</time></trkpt><trkpt lat="46.49373759258065" lon="12.415031733275969"><ele>1296.5</ele><time>2026-04-19T15:50:10.999Z</time></trkpt><trkpt lat="46.49379071696978" lon="12.415210754271037"><ele>1315.0</ele><time>2026-04-19T15:50:11.999Z</time></trkpt><trkpt lat="46.49382142994883" lon="12.415390634958516"><ele>1333.5</ele><time>2026-04-19T15:50:12.999Z</time></trkpt><trkpt lat="46.49382945335349" lon="12.41556613996141"><ele>1352.0</ele><time>2026-04-19T15:50:13.999Z</time></trkpt><trkpt lat="46.49383994891813" lon="12.41573634415657"><ele>1352.0</ele><time>2026-04-19T15:50:14.999Z</time></trkpt><trkpt lat="46.49386610356633" lon="12.41587780496362"><ele>1352.0</ele><time>2026-04-19T15:50:15.999Z</time></trkpt><trkpt lat="46.49389251665468" lon="12.416022279189598"><ele>1352.0</ele><time>2026-04-19T15:50:16.999Z</time></trkpt><trkpt lat="46.4939156939275" lon="12.416173411459758"><ele>1352.0</ele><time>2026-04-19T15:50:17.999Z</time></trkpt><trkpt lat="46.49396190750911" lon="12.416303089022819"><ele>1352.0</ele><time>2026-04-19T15:50:18.999Z</time></trkpt><trkpt lat="46.493967692219435" lon="12.416446236032566"><ele>1349.3999999999999</ele><time>2026-04-19T15:50:19.999Z</time></trkpt><trkpt lat="46.494011185245746" lon="12.416563614224186"><ele>1346.8</ele><time>2026-04-19T15:50:20.999Z</time></trkpt><trkpt lat="46.49405370295925" lon="12.416698815648676"><ele>1344.2</ele><time>2026-04-19T15:50:21.999Z</time></trkpt><trkpt lat="46.49411091105683" lon="12.416863865525741"><ele>1341.6</ele><time>2026-04-19T15:50:22.999Z</time></trkpt><trkpt lat="46.49417356285619" lon="12.4170231489986"><ele>1339.0</ele><time>2026-04-19T15:50:23.999Z</time></trkpt><trkpt lat="46.49420247255088" lon="12.417180253899351"><ele>1335.5</ele><time>2026-04-19T15:50:25.001Z</time></trkpt><trkpt lat="46.49423778143856" lon="12.417328163067594"><ele>1332.0</ele><time>2026-04-19T15:50:26.001Z</time></trkpt><trkpt lat="46.49428156700135" lon="12.417499576089297"><ele>1328.5</ele><time>2026-04-19T15:50:27.001Z</time></trkpt><trkpt lat="46.49433244078685" lon="12.417664008663428"><ele>1325.0</ele><time>2026-04-19T15:50:28.001Z</time></trkpt><trkpt lat="46.494390798138525" lon="12.41784798465041"><ele>1321.5</ele><time>2026-04-19T15:50:29.001Z</time></trkpt><trkpt lat="46.49444090113365" lon="12.418035112572166"><ele>1318.0</ele><time>2026-04-19T15:50:30.001Z</time></trkpt><trkpt lat="46.494469624295434" lon="12.418216428939274"><ele>1314.5</ele><time>2026-04-19T15:50:31.001Z</time></trkpt><trkpt lat="46.4944825586344" lon="12.418381782118747"><ele>1311.0</ele><time>2026-04-19T15:50:32.001Z</time></trkpt><trkpt lat="46.49448880560203" lon="12.41853626045414"><ele>1311.0</ele><time>2026-04-19T15:50:33.001Z</time></trkpt><trkpt lat="46.494482771118854" lon="12.418661017682762"><ele>1311.0</ele><time>2026-04-19T15:50:34.001Z</time></trkpt><trkpt lat="46.49450751102147" lon="12.418763056501204"><ele>1311.0</ele><time>2026-04-19T15:50:35.001Z</time></trkpt><trkpt lat="46.49452322129944" lon="12.418856634616125"><ele>1311.0</ele><time>2026-04-19T15:50:36.001Z</time></trkpt><trkpt lat="46.49455801822839" lon="12.418944201239597"><ele>1311.0</ele><time>2026-04-19T15:50:37.001Z</time></trkpt><trkpt lat="46.49460799514758" lon="12.419035688283632"><ele>1311.0</ele><time>2026-04-19T15:50:38.001Z</time></trkpt><trkpt lat="46.49468612210895" lon="12.419131456247058"><ele>1317.6</ele><time>2026-04-19T15:50:39.001Z</time></trkpt><trkpt lat="46.49475479928917" lon="12.419249152576764"><ele>1324.1999999999998</ele><time>2026-04-19T15:50:40.001Z</time></trkpt><trkpt lat="46.494843192099076" lon="12.419319368689669"><ele>1330.8000000000002</ele><time>2026-04-19T15:50:41.001Z</time></trkpt><trkpt lat="46.4949602974328" lon="12.419311672349313"><ele>1337.4</ele><time>2026-04-19T15:50:42.001Z</time></trkpt><trkpt lat="46.495054542901954" lon="12.41926292109182"><ele>1344.0</ele><time>2026-04-19T15:50:43.001Z</time></trkpt><trkpt lat="46.49515990819454" lon="12.419224122571848"><ele>1344.0</ele><time>2026-04-19T15:50:44Z</time></trkpt><trkpt lat="46.495269695576354" lon="12.419191066423089"><ele>1344.0</ele><time>2026-04-19T15:50:45Z</time></trkpt><trkpt lat="46.49537930318367" lon="12.419183421680568"><ele>1344.0</ele><time>2026-04-19T15:50:46Z</time></trkpt><trkpt lat="46.49549381520964" lon="12.419195632686225"><ele>1344.0</ele><time>2026-04-19T15:50:47Z</time></trkpt><trkpt lat="46.495607444343506" lon="12.419203475118252"><ele>1346.6</ele><time>2026-04-19T15:50:48Z</time></trkpt><trkpt lat="46.49569307003666" lon="12.419209148370387"><ele>1349.2</ele><time>2026-04-19T15:50:49Z</time></trkpt><trkpt lat="46.49579978320009" lon="12.41923682360045"><ele>1351.8</ele><time>2026-04-19T15:50:51Z</time></trkpt><trkpt lat="46.49588823222281" lon="12.419220177782337"><ele>1354.3999999999999</ele><time>2026-04-19T15:50:53Z</time></trkpt><trkpt lat="46.495898420210665" lon="12.419053010515633"><ele>1357.0</ele><time>2026-04-19T15:50:55Z</time></trkpt><trkpt lat="46.49583178635862" lon="12.41903409955363"><ele>1357.0</ele><time>2026-04-19T15:50:56Z</time></trkpt><trkpt lat="46.49568059018783" lon="12.41902859142246"><ele>1357.0</ele><time>2026-04-19T15:50:58Z</time></trkpt><trkpt lat="46.49559827713745" lon="12.419028659641356"><ele>1357.0</ele><time>2026-04-19T15:50:59Z</time></trkpt><trkpt lat="46.49548854701596" lon="12.419006070248768"><ele>1357.0</ele><time>2026-04-19T15:51:00Z</time></trkpt><trkpt lat="46.4953813036538" lon="12.41898913099296"><ele>1354.3999999999999</ele><time>2026-04-19T15:51:01Z</time></trkpt><trkpt lat="46.49527844199721" lon="12.418989106175928"><ele>1351.8</ele><time>2026-04-19T15:51:02Z</time></trkpt><trkpt lat="46.495184315100346" lon="12.4189977354891"><ele>1349.2</ele><time>2026-04-19T15:51:03Z</time></trkpt><trkpt lat="46.49508935847988" lon="12.419008474853456"><ele>1346.6</ele><time>2026-04-19T15:51:04Z</time></trkpt><trkpt lat="46.49500051251622" lon="12.419002666241653"><ele>1344.0</ele><time>2026-04-19T15:51:05Z</time></trkpt><trkpt lat="46.49492809776356" lon="12.418974182513557"><ele>1344.0</ele><time>2026-04-19T15:51:06Z</time></trkpt><trkpt lat="46.49487844338215" lon="12.418916912294623"><ele>1344.0</ele><time>2026-04-19T15:51:07Z</time></trkpt><trkpt lat="46.4948282220727" lon="12.418846540309808"><ele>1344.0</ele><time>2026-04-19T15:51:08Z</time></trkpt><trkpt lat="46.49479141410771" lon="12.418755626802795"><ele>1344.0</ele><time>2026-04-19T15:51:09Z</time></trkpt><trkpt lat="46.494751673553985" lon="12.418677896156021"><ele>1344.0</ele><time>2026-04-19T15:51:10Z</time></trkpt><trkpt lat="46.49477425116779" lon="12.418572768117903"><ele>1344.0</ele><time>2026-04-19T15:51:11Z</time></trkpt><trkpt lat="46.49479241099717" lon="12.4184578899678"><ele>1344.0</ele><time>2026-04-19T15:51:12Z</time></trkpt><trkpt lat="46.494799057267215" lon="12.418331215980267"><ele>1349.6</ele><time>2026-04-19T15:51:13Z</time></trkpt><trkpt lat="46.49481263487142" lon="12.418198419365316"><ele>1355.2</ele><time>2026-04-19T15:51:14Z</time></trkpt><trkpt lat="46.49481463569864" lon="12.418055840322594"><ele>1360.8</ele><time>2026-04-19T15:51:15Z</time></trkpt><trkpt lat="46.494811764548" lon="12.417903811245045"><ele>1366.3999999999999</ele><time>2026-04-19T15:51:16Z</time></trkpt><trkpt lat="46.49480559242267" lon="12.41774069571401"><ele>1372.0</ele><time>2026-04-19T15:51:17Z</time></trkpt><trkpt lat="46.49479687301169" lon="12.41758775892539"><ele>1375.6</ele><time>2026-04-19T15:51:18Z</time></trkpt><trkpt lat="46.494787430293954" lon="12.41745704966257"><ele>1379.1999999999998</ele><time>2026-04-19T15:51:19Z</time></trkpt><trkpt lat="46.49477446967612" lon="12.417319754386908"><ele>1382.8</ele><time>2026-04-19T15:51:20Z</time></trkpt><trkpt lat="46.49475001968938" lon="12.417173631479077"><ele>1386.4</ele><time>2026-04-19T15:51:21Z</time></trkpt><trkpt lat="46.4947152488708" lon="12.417032741601819"><ele>1390.0</ele><time>2026-04-19T15:51:22Z</time></trkpt><trkpt lat="46.49465156825971" lon="12.41688824071025"><ele>1393.6</ele><time>2026-04-19T15:51:23Z</time></trkpt><trkpt lat="46.49460825048478" lon="12.416728281411817"><ele>1397.2</ele><time>2026-04-19T15:51:24Z</time></trkpt><trkpt lat="46.49458833953743" lon="12.416539391238508"><ele>1400.8000000000002</ele><time>2026-04-19T15:51:25Z</time></trkpt><trkpt lat="46.494570400028046" lon="12.416405120047068"><ele>1404.4</ele><time>2026-04-19T15:51:26Z</time></trkpt><trkpt lat="46.49455539436343" lon="12.41627473442044"><ele>1408.0</ele><time>2026-04-19T15:51:27Z</time></trkpt><trkpt lat="46.49454527283707" lon="12.416158914582768"><ele>1396.8000000000002</ele><time>2026-04-19T15:51:28Z</time></trkpt><trkpt lat="46.49452556243456" lon="12.416021760275132"><ele>1385.6</ele><time>2026-04-19T15:51:29Z</time></trkpt><trkpt lat="46.49451616130597" lon="12.415874318782427"><ele>1374.4</ele><time>2026-04-19T15:51:30Z</time></trkpt><trkpt lat="46.49450803269551" lon="12.415735281658336"><ele>1363.1999999999998</ele><time>2026-04-19T15:51:31Z</time></trkpt><trkpt lat="46.4945017490687" lon="12.415590319528215"><ele>1352.0</ele><time>2026-04-19T15:51:32Z</time></trkpt><trkpt lat="46.49450832877623" lon="12.415319935231976"><ele>1352.0</ele><time>2026-04-19T15:51:34Z</time></trkpt><trkpt lat="46.49451760731957" lon="12.41512466293979"><ele>1352.0</ele><time>2026-04-19T15:51:35Z</time></trkpt><trkpt lat="46.49451773105838" lon="12.414934489471102"><ele>1352.0</ele><time>2026-04-19T15:51:36Z</time></trkpt><trkpt lat="46.49451019908725" lon="12.414789741600211"><ele>1352.0</ele><time>2026-04-19T15:51:37Z</time></trkpt><trkpt lat="46.494512266392235" lon="12.41465428887874"><ele>1350.3999999999999</ele><time>2026-04-19T15:51:38Z</time></trkpt><trkpt lat="46.494563604334786" lon="12.414530857900449"><ele>1348.8</ele><time>2026-04-19T15:51:39Z</time></trkpt><trkpt lat="46.494620997798606" lon="12.414446521796325"><ele>1347.2</ele><time>2026-04-19T15:51:40Z</time></trkpt><trkpt lat="46.49467374771874" lon="12.414364380311694"><ele>1345.6</ele><time>2026-04-19T15:51:41Z</time></trkpt><trkpt lat="46.49474205201505" lon="12.4142647218481"><ele>1344.0</ele><time>2026-04-19T15:51:42Z</time></trkpt><trkpt lat="46.49481617724828" lon="12.414146049537143"><ele>1352.75</ele><time>2026-04-19T15:51:43Z</time></trkpt><trkpt lat="46.49491200766077" lon="12.414020195785286"><ele>1361.5</ele><time>2026-04-19T15:51:44Z</time></trkpt><trkpt lat="46.4949962585159" lon="12.413891148188442"><ele>1370.25</ele><time>2026-04-19T15:51:45Z</time></trkpt><trkpt lat="46.4950739357829" lon="12.413742581452054"><ele>1379.0</ele><time>2026-04-19T15:51:46Z</time></trkpt><trkpt lat="46.49514496380336" lon="12.413595577093504"><ele>1379.0</ele><time>2026-04-19T15:51:47Z</time></trkpt><trkpt lat="46.495216802024004" lon="12.413505907317983"><ele>1379.0</ele><time>2026-04-19T15:51:47.999Z</time></trkpt><trkpt lat="46.49529570569842" lon="12.413395074660219"><ele>1379.0</ele><time>2026-04-19T15:51:48.999Z</time></trkpt><trkpt lat="46.49537907767803" lon="12.413281539477437"><ele>1379.0</ele><time>2026-04-19T15:51:49.999Z</time></trkpt><trkpt lat="46.49546969698924" lon="12.413156513568197"><ele>1379.0</ele><time>2026-04-19T15:51:50.999Z</time></trkpt><trkpt lat="46.495553679521336" lon="12.41300380823205"><ele>1386.4</ele><time>2026-04-19T15:51:51.999Z</time></trkpt><trkpt lat="46.49564848246834" lon="12.412888563012192"><ele>1393.8000000000002</ele><time>2026-04-19T15:51:52.999Z</time></trkpt><trkpt lat="46.49570552442782" lon="12.41278740974661"><ele>1401.1999999999998</ele><time>2026-04-19T15:51:53.999Z</time></trkpt><trkpt lat="46.495742297223394" lon="12.412665718820588"><ele>1408.6</ele><time>2026-04-19T15:51:54.999Z</time></trkpt><trkpt lat="46.4957627634542" lon="12.412521749107002"><ele>1416.0</ele><time>2026-04-19T15:51:55.999Z</time></trkpt><trkpt lat="46.49579107645598" lon="12.412355504523413"><ele>1416.0</ele><time>2026-04-19T15:51:56.999Z</time></trkpt><trkpt lat="46.4958458756544" lon="12.41219097211538"><ele>1416.0</ele><time>2026-04-19T15:51:57.999Z</time></trkpt><trkpt lat="46.495909237961186" lon="12.412030261312573"><ele>1416.0</ele><time>2026-04-19T15:51:58.999Z</time></trkpt><trkpt lat="46.49595967189059" lon="12.411853540195919"><ele>1416.0</ele><time>2026-04-19T15:51:59.999Z</time></trkpt><trkpt lat="46.49600402979455" lon="12.411678078574965"><ele>1412.25</ele><time>2026-04-19T15:52:00.999Z</time></trkpt><trkpt lat="46.496065439404084" lon="12.411485428238167"><ele>1408.5</ele><time>2026-04-19T15:52:01.999Z</time></trkpt><trkpt lat="46.49610555656307" lon="12.411284068995641"><ele>1404.75</ele><time>2026-04-19T15:52:02.999Z</time></trkpt><trkpt lat="46.49615423678811" lon="12.411105873673867"><ele>1401.0</ele><time>2026-04-19T15:52:03.999Z</time></trkpt><trkpt lat="46.49618113892877" lon="12.410948389738016"><ele>1397.25</ele><time>2026-04-19T15:52:04.999Z</time></trkpt><trkpt lat="46.49622031790931" lon="12.41079811441077"><ele>1393.5</ele><time>2026-04-19T15:52:05.999Z</time></trkpt><trkpt lat="46.49626944071005" lon="12.410646682886354"><ele>1389.75</ele><time>2026-04-19T15:52:06.999Z</time></trkpt><trkpt lat="46.49634230035328" lon="12.410493751245323"><ele>1386.0</ele><time>2026-04-19T15:52:07.999Z</time></trkpt><trkpt lat="46.496414237018904" lon="12.410336032488809"><ele>1398.25</ele><time>2026-04-19T15:52:08.999Z</time></trkpt><trkpt lat="46.49647050097242" lon="12.410176613391648"><ele>1410.5</ele><time>2026-04-19T15:52:09.999Z</time></trkpt><trkpt lat="46.49653021207991" lon="12.410030298626852"><ele>1422.75</ele><time>2026-04-19T15:52:10.999Z</time></trkpt><trkpt lat="46.49659557576859" lon="12.409890649108526"><ele>1435.0</ele><time>2026-04-19T15:52:11.999Z</time></trkpt><trkpt lat="46.49666387819487" lon="12.40979311321265"><ele>1435.0</ele><time>2026-04-19T15:52:12.999Z</time></trkpt><trkpt lat="46.496708171649146" lon="12.409691499480507"><ele>1435.0</ele><time>2026-04-19T15:52:13.999Z</time></trkpt><trkpt lat="46.49675834173833" lon="12.409619321565264"><ele>1435.0</ele><time>2026-04-19T15:52:14.999Z</time></trkpt><trkpt lat="46.496829277796266" lon="12.409536120766406"><ele>1435.0</ele><time>2026-04-19T15:52:16.999Z</time></trkpt><trkpt lat="46.496877221302675" lon="12.409602859630734"><ele>1435.0</ele><time>2026-04-19T15:52:18.999Z</time></trkpt><trkpt lat="46.496798004404674" lon="12.409752265921405"><ele>1435.0</ele><time>2026-04-19T15:52:20.999Z</time></trkpt><trkpt lat="46.49674257143686" lon="12.409875477053012"><ele>1435.0</ele><time>2026-04-19T15:52:21.999Z</time></trkpt><trkpt lat="46.4966853082688" lon="12.410019174264196"><ele>1435.0</ele><time>2026-04-19T15:52:22.999Z</time></trkpt><trkpt lat="46.49663835804024" lon="12.410182122585478"><ele>1435.0</ele><time>2026-04-19T15:52:23.999Z</time></trkpt><trkpt lat="46.49658700740819" lon="12.41036056938445"><ele>1435.0</ele><time>2026-04-19T15:52:24.999Z</time></trkpt><trkpt lat="46.4965205943364" lon="12.410541564238947"><ele>1439.25</ele><time>2026-04-19T15:52:25.999Z</time></trkpt><trkpt lat="46.49647886084485" lon="12.410721132055826"><ele>1443.5</ele><time>2026-04-19T15:52:26.999Z</time></trkpt><trkpt lat="46.49644553953645" lon="12.410895082559579"><ele>1447.75</ele><time>2026-04-19T15:52:27.999Z</time></trkpt><trkpt lat="46.496436470041466" lon="12.411070914558701"><ele>1452.0</ele><time>2026-04-19T15:52:28.999Z</time></trkpt><trkpt lat="46.49640123116538" lon="12.41123921757195"><ele>1456.0</ele><time>2026-04-19T15:52:30.001Z</time></trkpt><trkpt lat="46.496383807665225" lon="12.411413357950053"><ele>1460.0</ele><time>2026-04-19T15:52:31.001Z</time></trkpt><trkpt lat="46.496368705268104" lon="12.411581883657044"><ele>1464.0</ele><time>2026-04-19T15:52:32.001Z</time></trkpt><trkpt lat="46.496354443542394" lon="12.411781688267068"><ele>1468.0</ele><time>2026-04-19T15:52:33.001Z</time></trkpt><trkpt lat="46.49633437443427" lon="12.411969300787707"><ele>1468.0</ele><time>2026-04-19T15:52:34.001Z</time></trkpt><trkpt lat="46.49630168327736" lon="12.412147891722906"><ele>1468.0</ele><time>2026-04-19T15:52:35.001Z</time></trkpt><trkpt lat="46.49627029420224" lon="12.412316224493688"><ele>1468.0</ele><time>2026-04-19T15:52:36.001Z</time></trkpt><trkpt lat="46.49625679039605" lon="12.412457788830347"><ele>1468.0</ele><time>2026-04-19T15:52:37.001Z</time></trkpt><trkpt lat="46.49625977110599" lon="12.412568207287823"><ele>1468.0</ele><time>2026-04-19T15:52:38.001Z</time></trkpt><trkpt lat="46.49627209664019" lon="12.41269229315709"><ele>1471.4</ele><time>2026-04-19T15:52:39.001Z</time></trkpt><trkpt lat="46.496283743912976" lon="12.412849944669292"><ele>1474.8000000000002</ele><time>2026-04-19T15:52:40.001Z</time></trkpt><trkpt lat="46.49626104426435" lon="12.412992229532472"><ele>1478.2</ele><time>2026-04-19T15:52:41.001Z</time></trkpt><trkpt lat="46.496211079534454" lon="12.41312446877351"><ele>1481.6</ele><time>2026-04-19T15:52:42.001Z</time></trkpt><trkpt lat="46.49615197619764" lon="12.41326060996822"><ele>1485.0</ele><time>2026-04-19T15:52:43.001Z</time></trkpt><trkpt lat="46.496088239576586" lon="12.413408559868788"><ele>1480.5</ele><time>2026-04-19T15:52:44.001Z</time></trkpt><trkpt lat="46.49601808804549" lon="12.413560421319412"><ele>1476.0</ele><time>2026-04-19T15:52:45.001Z</time></trkpt><trkpt lat="46.495952702754614" lon="12.413700368117597"><ele>1471.5</ele><time>2026-04-19T15:52:46Z</time></trkpt><trkpt lat="46.49587671455901" lon="12.413862017732912"><ele>1467.0</ele><time>2026-04-19T15:52:47Z</time></trkpt><trkpt lat="46.49580361093235" lon="12.414015542264554"><ele>1467.0</ele><time>2026-04-19T15:52:48Z</time></trkpt><trkpt lat="46.4957344663446" lon="12.414164147812595"><ele>1467.0</ele><time>2026-04-19T15:52:49Z</time></trkpt><trkpt lat="46.49567940138096" lon="12.414315504115141"><ele>1467.0</ele><time>2026-04-19T15:52:50Z</time></trkpt><trkpt lat="46.49562876800833" lon="12.4144875418367"><ele>1467.0</ele><time>2026-04-19T15:52:51Z</time></trkpt><trkpt lat="46.495578191551445" lon="12.414666386004981"><ele>1472.6</ele><time>2026-04-19T15:52:52Z</time></trkpt><trkpt lat="46.495519133315206" lon="12.414844000290746"><ele>1478.1999999999998</ele><time>2026-04-19T15:52:53Z</time></trkpt><trkpt lat="46.495457498602306" lon="12.414986243262014"><ele>1483.8</ele><time>2026-04-19T15:52:54Z</time></trkpt><trkpt lat="46.49540319272861" lon="12.415098261026026"><ele>1489.4</ele><time>2026-04-19T15:52:55Z</time></trkpt><trkpt lat="46.49536138287032" lon="12.415197325836722"><ele>1495.0</ele><time>2026-04-19T15:52:56Z</time></trkpt><trkpt lat="46.49533271602238" lon="12.415306187674265"><ele>1495.0</ele><time>2026-04-19T15:52:57Z</time></trkpt><trkpt lat="46.495318835522234" lon="12.415411031434925"><ele>1495.0</ele><time>2026-04-19T15:52:58Z</time></trkpt><trkpt lat="46.49532730616216" lon="12.415505462146532"><ele>1495.0</ele><time>2026-04-19T15:52:59Z</time></trkpt><trkpt lat="46.49536340127878" lon="12.415594130719619"><ele>1495.0</ele><time>2026-04-19T15:53:00Z</time></trkpt><trkpt lat="46.49539476900985" lon="12.415731970817069"><ele>1495.0</ele><time>2026-04-19T15:53:01Z</time></trkpt><trkpt lat="46.49541168785792" lon="12.415874331300266"><ele>1495.0</ele><time>2026-04-19T15:53:02Z</time></trkpt><trkpt lat="46.49543334567258" lon="12.415992827903159"><ele>1495.0</ele><time>2026-04-19T15:53:03Z</time></trkpt><trkpt lat="46.49547047222594" lon="12.416069952694215"><ele>1495.0</ele><time>2026-04-19T15:53:04Z</time></trkpt><trkpt lat="46.495493890341926" lon="12.416160127407299"><ele>1495.0</ele><time>2026-04-19T15:53:05Z</time></trkpt><trkpt lat="46.49555405040925" lon="12.416274785475972"><ele>1495.0</ele><time>2026-04-19T15:53:06Z</time></trkpt><trkpt lat="46.49562428527666" lon="12.416387801035322"><ele>1495.0</ele><time>2026-04-19T15:53:07Z</time></trkpt><trkpt lat="46.49571197939658" lon="12.416474214609655"><ele>1495.0</ele><time>2026-04-19T15:53:08Z</time></trkpt><trkpt lat="46.49582080907743" lon="12.41651719388331"><ele>1495.75</ele><time>2026-04-19T15:53:09Z</time></trkpt><trkpt lat="46.49593235630315" lon="12.416546383820888"><ele>1496.5</ele><time>2026-04-19T15:53:10Z</time></trkpt><trkpt lat="46.496045623380105" lon="12.416582325273435"><ele>1497.25</ele><time>2026-04-19T15:53:11Z</time></trkpt><trkpt lat="46.49616387890922" lon="12.416610545142367"><ele>1498.0</ele><time>2026-04-19T15:53:12Z</time></trkpt><trkpt lat="46.49627408007695" lon="12.416619470187692"><ele>1498.0</ele><time>2026-04-19T15:53:13Z</time></trkpt><trkpt lat="46.49637528860706" lon="12.416625882459412"><ele>1498.0</ele><time>2026-04-19T15:53:14Z</time></trkpt><trkpt lat="46.49647393611091" lon="12.416630487135759"><ele>1498.0</ele><time>2026-04-19T15:53:15Z</time></trkpt><trkpt lat="46.49656765336151" lon="12.416632432075795"><ele>1498.0</ele><time>2026-04-19T15:53:16Z</time></trkpt><trkpt lat="46.49666345740319" lon="12.4166456105161"><ele>1498.0</ele><time>2026-04-19T15:53:17Z</time></trkpt><trkpt lat="46.49676391311507" lon="12.41666954892846"><ele>1498.0</ele><time>2026-04-19T15:53:18Z</time></trkpt><trkpt lat="46.496856789632986" lon="12.416747189443383"><ele>1498.0</ele><time>2026-04-19T15:53:19Z</time></trkpt><trkpt lat="46.496959076806" lon="12.41684739692342"><ele>1498.0</ele><time>2026-04-19T15:53:20Z</time></trkpt><trkpt lat="46.497074522893925" lon="12.416959161610409"><ele>1498.0</ele><time>2026-04-19T15:53:21Z</time></trkpt><trkpt lat="46.49717384882813" lon="12.41704532959904"><ele>1495.0</ele><time>2026-04-19T15:53:22Z</time></trkpt><trkpt lat="46.497237849006275" lon="12.417114801661535"><ele>1492.0</ele><time>2026-04-19T15:53:23Z</time></trkpt><trkpt lat="46.497307404627065" lon="12.417214078762953"><ele>1489.0</ele><time>2026-04-19T15:53:25Z</time></trkpt><trkpt lat="46.49740519529466" lon="12.417249132242496"><ele>1486.0</ele><time>2026-04-19T15:53:28Z</time></trkpt><trkpt lat="46.49743681937553" lon="12.417113826537198"><ele>1483.0</ele><time>2026-04-19T15:53:30Z</time></trkpt><trkpt lat="46.49734906932202" lon="12.417057905081457"><ele>1486.0</ele><time>2026-04-19T15:53:31Z</time></trkpt><trkpt lat="46.49727123937946" lon="12.41699850271923"><ele>1489.0</ele><time>2026-04-19T15:53:32Z</time></trkpt><trkpt lat="46.49719534122554" lon="12.416906673930944"><ele>1492.0</ele><time>2026-04-19T15:53:33Z</time></trkpt><trkpt lat="46.49711176219329" lon="12.416788253120464"><ele>1495.0</ele><time>2026-04-19T15:53:34Z</time></trkpt><trkpt lat="46.497020249183315" lon="12.416657728008111"><ele>1498.0</ele><time>2026-04-19T15:53:35Z</time></trkpt><trkpt lat="46.49692523387843" lon="12.41653294214277"><ele>1498.0</ele><time>2026-04-19T15:53:36Z</time></trkpt><trkpt lat="46.4968383766235" lon="12.41643015950013"><ele>1498.0</ele><time>2026-04-19T15:53:37Z</time></trkpt><trkpt lat="46.49674500400387" lon="12.416346382695547"><ele>1498.0</ele><time>2026-04-19T15:53:38Z</time></trkpt><trkpt lat="46.49664679793781" lon="12.416278126917467"><ele>1498.0</ele><time>2026-04-19T15:53:39Z</time></trkpt><trkpt lat="46.496540932344196" lon="12.416230377021742"><ele>1498.0</ele><time>2026-04-19T15:53:40Z</time></trkpt><trkpt lat="46.49643076112082" lon="12.416197669274545"><ele>1497.25</ele><time>2026-04-19T15:53:41Z</time></trkpt><trkpt lat="46.496310481354406" lon="12.416175132268961"><ele>1496.5</ele><time>2026-04-19T15:53:42Z</time></trkpt><trkpt lat="46.4961933296305" lon="12.416133328029382"><ele>1495.75</ele><time>2026-04-19T15:53:43Z</time></trkpt><trkpt lat="46.496089779985624" lon="12.416076498425227"><ele>1495.0</ele><time>2026-04-19T15:53:44Z</time></trkpt><trkpt lat="46.496006893818254" lon="12.416002664750495"><ele>1495.0</ele><time>2026-04-19T15:53:45Z</time></trkpt><trkpt lat="46.49594485671153" lon="12.41592580968064"><ele>1495.0</ele><time>2026-04-19T15:53:46Z</time></trkpt><trkpt lat="46.49589248968718" lon="12.415839349250316"><ele>1495.0</ele><time>2026-04-19T15:53:47Z</time></trkpt><trkpt lat="46.495842044666325" lon="12.415768016430034"><ele>1495.0</ele><time>2026-04-19T15:53:48Z</time></trkpt><trkpt lat="46.495826807238224" lon="12.415607869744147"><ele>1495.0</ele><time>2026-04-19T15:53:49.999Z</time></trkpt><trkpt lat="46.495878201773365" lon="12.415528855715912"><ele>1495.0</ele><time>2026-04-19T15:53:50.999Z</time></trkpt><trkpt lat="46.49591510693266" lon="12.415415280471032"><ele>1495.0</ele><time>2026-04-19T15:53:51.999Z</time></trkpt><trkpt lat="46.49596776752175" lon="12.415290335170246"><ele>1495.0</ele><time>2026-04-19T15:53:52.999Z</time></trkpt><trkpt lat="46.49601454730926" lon="12.415135442132026"><ele>1495.0</ele><time>2026-04-19T15:53:53.999Z</time></trkpt><trkpt lat="46.49606088552396" lon="12.414987765599367"><ele>1495.0</ele><time>2026-04-19T15:53:54.999Z</time></trkpt><trkpt lat="46.49613099373011" lon="12.414862794485963"><ele>1495.0</ele><time>2026-04-19T15:53:55.999Z</time></trkpt><trkpt lat="46.49621102291446" lon="12.414730639039478"><ele>1503.75</ele><time>2026-04-19T15:53:56.999Z</time></trkpt><trkpt lat="46.49631695770001" lon="12.41461050839166"><ele>1512.5</ele><time>2026-04-19T15:53:57.999Z</time></trkpt><trkpt lat="46.49641487479127" lon="12.414477269674757"><ele>1521.25</ele><time>2026-04-19T15:53:58.999Z</time></trkpt><trkpt lat="46.49651047383363" lon="12.414325189414045"><ele>1530.0</ele><time>2026-04-19T15:53:59.999Z</time></trkpt><trkpt lat="46.49659477828779" lon="12.414161217235092"><ele>1530.0</ele><time>2026-04-19T15:54:00.999Z</time></trkpt><trkpt lat="46.49669517419239" lon="12.414006014473866"><ele>1530.0</ele><time>2026-04-19T15:54:01.999Z</time></trkpt><trkpt lat="46.49678268791703" lon="12.413827614292883"><ele>1530.0</ele><time>2026-04-19T15:54:02.999Z</time></trkpt><trkpt lat="46.4968716193807" lon="12.41367911972759"><ele>1530.0</ele><time>2026-04-19T15:54:03.999Z</time></trkpt><trkpt lat="46.4969588226286" lon="12.413543588543211"><ele>1525.0</ele><time>2026-04-19T15:54:04.999Z</time></trkpt><trkpt lat="46.49703723427401" lon="12.413453957502162"><ele>1520.0</ele><time>2026-04-19T15:54:05.999Z</time></trkpt><trkpt lat="46.497097660480115" lon="12.41335440387605"><ele>1515.0</ele><time>2026-04-19T15:54:06.999Z</time></trkpt><trkpt lat="46.49716128354048" lon="12.413273739568641"><ele>1510.0</ele><time>2026-04-19T15:54:07.999Z</time></trkpt><trkpt lat="46.497202637441184" lon="12.413161412641978"><ele>1505.0</ele><time>2026-04-19T15:54:08.999Z</time></trkpt><trkpt lat="46.49718798648909" lon="12.413007193322724"><ele>1514.0</ele><time>2026-04-19T15:54:09.999Z</time></trkpt><trkpt lat="46.49720642110869" lon="12.412859071159298"><ele>1523.0</ele><time>2026-04-19T15:54:10.999Z</time></trkpt><trkpt lat="46.49719041089019" lon="12.412697051178768"><ele>1532.0</ele><time>2026-04-19T15:54:11.999Z</time></trkpt><trkpt lat="46.497163356395944" lon="12.41256012636055"><ele>1541.0</ele><time>2026-04-19T15:54:12.999Z</time></trkpt><trkpt lat="46.49715263201135" lon="12.41245084729198"><ele>1550.0</ele><time>2026-04-19T15:54:13.999Z</time></trkpt><trkpt lat="46.4971558407654" lon="12.412345564299018"><ele>1550.0</ele><time>2026-04-19T15:54:14.999Z</time></trkpt><trkpt lat="46.49720600635804" lon="12.4122595884982"><ele>1550.0</ele><time>2026-04-19T15:54:15.999Z</time></trkpt><trkpt lat="46.49725560870532" lon="12.412143030471407"><ele>1550.0</ele><time>2026-04-19T15:54:16.999Z</time></trkpt><trkpt lat="46.497347073813295" lon="12.412050734413716"><ele>1550.0</ele><time>2026-04-19T15:54:17.999Z</time></trkpt><trkpt lat="46.49743439645667" lon="12.411944655206911"><ele>1550.0</ele><time>2026-04-19T15:54:18.999Z</time></trkpt><trkpt lat="46.49752206090812" lon="12.411855822254687"><ele>1553.2</ele><time>2026-04-19T15:54:19.999Z</time></trkpt><trkpt lat="46.497610090429916" lon="12.411792730990314"><ele>1556.4</ele><time>2026-04-19T15:54:20.999Z</time></trkpt><trkpt lat="46.49770627307235" lon="12.411740550534203"><ele>1559.6</ele><time>2026-04-19T15:54:21.999Z</time></trkpt><trkpt lat="46.49781372619879" lon="12.41170371484649"><ele>1562.8</ele><time>2026-04-19T15:54:22.999Z</time></trkpt><trkpt lat="46.49792690382528" lon="12.411647247783295"><ele>1566.0</ele><time>2026-04-19T15:54:23.999Z</time></trkpt><trkpt lat="46.49803302527408" lon="12.41155524609473"><ele>1566.0</ele><time>2026-04-19T15:54:24.999Z</time></trkpt><trkpt lat="46.4981523143734" lon="12.411486417164104"><ele>1566.0</ele><time>2026-04-19T15:54:25.999Z</time></trkpt><trkpt lat="46.4982743243408" lon="12.411438747851172"><ele>1566.0</ele><time>2026-04-19T15:54:26.999Z</time></trkpt><trkpt lat="46.49839879709242" lon="12.411404190171591"><ele>1566.0</ele><time>2026-04-19T15:54:27.999Z</time></trkpt><trkpt lat="46.49852931501746" lon="12.411384193180433"><ele>1566.0</ele><time>2026-04-19T15:54:28.999Z</time></trkpt><trkpt lat="46.49866800643176" lon="12.411375954967717"><ele>1566.0</ele><time>2026-04-19T15:54:29.999Z</time></trkpt><trkpt lat="46.49880250985696" lon="12.411365245366335"><ele>1566.0</ele><time>2026-04-19T15:54:30.999Z</time></trkpt><trkpt lat="46.49894108232386" lon="12.41135207913293"><ele>1566.0</ele><time>2026-04-19T15:54:31.999Z</time></trkpt><trkpt lat="46.49908037343142" lon="12.411338763695886"><ele>1561.0</ele><time>2026-04-19T15:54:32.999Z</time></trkpt><trkpt lat="46.49921663323197" lon="12.411324493097622"><ele>1556.0</ele><time>2026-04-19T15:54:33.999Z</time></trkpt><trkpt lat="46.49934103720929" lon="12.411289387885382"><ele>1551.0</ele><time>2026-04-19T15:54:34.999Z</time></trkpt><trkpt lat="46.49945284944183" lon="12.411297317536315"><ele>1546.0</ele><time>2026-04-19T15:54:36Z</time></trkpt><trkpt lat="46.49954921827794" lon="12.411271350244856"><ele>1553.1999999999998</ele><time>2026-04-19T15:54:37Z</time></trkpt><trkpt lat="46.499652661084454" lon="12.41122282834174"><ele>1560.3999999999999</ele><time>2026-04-19T15:54:38Z</time></trkpt><trkpt lat="46.49975880668866" lon="12.411155773319358"><ele>1567.6</ele><time>2026-04-19T15:54:39Z</time></trkpt><trkpt lat="46.49985740100387" lon="12.411086862153471"><ele>1574.8</ele><time>2026-04-19T15:54:40Z</time></trkpt><trkpt lat="46.49992771245361" lon="12.411032018915044"><ele>1582.0</ele><time>2026-04-19T15:54:41Z</time></trkpt><trkpt lat="46.49998682846364" lon="12.410951723689042"><ele>1582.0</ele><time>2026-04-19T15:54:43Z</time></trkpt><trkpt lat="46.50002633936614" lon="12.410817970033527"><ele>1582.0</ele><time>2026-04-19T15:54:45Z</time></trkpt><trkpt lat="46.500046215664455" lon="12.410698754621563"><ele>1582.0</ele><time>2026-04-19T15:54:46Z</time></trkpt><trkpt lat="46.500068351473764" lon="12.410541015455065"><ele>1582.0</ele><time>2026-04-19T15:54:47Z</time></trkpt><trkpt lat="46.5001286768934" lon="12.410407227885964"><ele>1582.0</ele><time>2026-04-19T15:54:48Z</time></trkpt><trkpt lat="46.50018005503178" lon="12.4102824803381"><ele>1577.0</ele><time>2026-04-19T15:54:49Z</time></trkpt><trkpt lat="46.50023131758638" lon="12.410164468411033"><ele>1572.0</ele><time>2026-04-19T15:54:50Z</time></trkpt><trkpt lat="46.500295772651505" lon="12.410019980421266"><ele>1567.0</ele><time>2026-04-19T15:54:51Z</time></trkpt><trkpt lat="46.500380125601644" lon="12.409861145622681"><ele>1562.0</ele><time>2026-04-19T15:54:52Z</time></trkpt><trkpt lat="46.5004618289513" lon="12.409748291526062"><ele>1566.6666666666665</ele><time>2026-04-19T15:54:53Z</time></trkpt><trkpt lat="46.50052055021257" lon="12.409657567824377"><ele>1571.3333333333333</ele><time>2026-04-19T15:54:54Z</time></trkpt><trkpt lat="46.50054756496831" lon="12.409573114570131"><ele>1576.0</ele><time>2026-04-19T15:54:55Z</time></trkpt><trkpt lat="46.50061371544448" lon="12.40950116248617"><ele>1580.6666666666665</ele><time>2026-04-19T15:54:57Z</time></trkpt><trkpt lat="46.500582719102795" lon="12.409617434955813"><ele>1585.3333333333333</ele><time>2026-04-19T15:55:02Z</time></trkpt><trkpt lat="46.50054548623861" lon="12.409726285039286"><ele>1590.0</ele><time>2026-04-19T15:55:03Z</time></trkpt><trkpt lat="46.500477264010655" lon="12.409826221627084"><ele>1583.0</ele><time>2026-04-19T15:55:04Z</time></trkpt><trkpt lat="46.500412731464145" lon="12.409976340389722"><ele>1576.0</ele><time>2026-04-19T15:55:05Z</time></trkpt><trkpt lat="46.50037790951044" lon="12.410146785837544"><ele>1569.0</ele><time>2026-04-19T15:55:06Z</time></trkpt><trkpt lat="46.500339094123504" lon="12.410305515069112"><ele>1562.0</ele><time>2026-04-19T15:55:07Z</time></trkpt><trkpt lat="46.500296126945166" lon="12.410481106785724"><ele>1565.3333333333333</ele><time>2026-04-19T15:55:08Z</time></trkpt><trkpt lat="46.50028744154559" lon="12.410625106661069"><ele>1568.6666666666665</ele><time>2026-04-19T15:55:09Z</time></trkpt><trkpt lat="46.5002691278347" lon="12.41074552583937"><ele>1572.0</ele><time>2026-04-19T15:55:10Z</time></trkpt><trkpt lat="46.50026236565939" lon="12.410869619071265"><ele>1575.3333333333335</ele><time>2026-04-19T15:55:11Z</time></trkpt><trkpt lat="46.50025521999916" lon="12.410970156383101"><ele>1578.6666666666667</ele><time>2026-04-19T15:55:12Z</time></trkpt><trkpt lat="46.50023105794342" lon="12.411064911613709"><ele>1582.0</ele><time>2026-04-19T15:55:13Z</time></trkpt><trkpt lat="46.500175550317486" lon="12.411145019050354"><ele>1582.0000000000002</ele><time>2026-04-19T15:55:14Z</time></trkpt><trkpt lat="46.500116870938406" lon="12.411244613773066"><ele>1582.0</ele><time>2026-04-19T15:55:15Z</time></trkpt><trkpt lat="46.50006065047129" lon="12.41136944537483"><ele>1582.0</ele><time>2026-04-19T15:55:16Z</time></trkpt><trkpt lat="46.50000096684059" lon="12.411486551683609"><ele>1582.0</ele><time>2026-04-19T15:55:17Z</time></trkpt><trkpt lat="46.49995476144683" lon="12.411578618917966"><ele>1582.0000000000002</ele><time>2026-04-19T15:55:18Z</time></trkpt><trkpt lat="46.49990644824255" lon="12.411648328609575"><ele>1582.0</ele><time>2026-04-19T15:55:19Z</time></trkpt><trkpt lat="46.49982277852214" lon="12.411683011121493"><ele>1583.3999999999999</ele><time>2026-04-19T15:55:20Z</time></trkpt><trkpt lat="46.49973863773927" lon="12.411707356677097"><ele>1584.8</ele><time>2026-04-19T15:55:21Z</time></trkpt><trkpt lat="46.49966794708959" lon="12.411760251837567"><ele>1586.2</ele><time>2026-04-19T15:55:22Z</time></trkpt><trkpt lat="46.49958973246332" lon="12.411835849588382"><ele>1587.6</ele><time>2026-04-19T15:55:23Z</time></trkpt><trkpt lat="46.49951077363934" lon="12.411945311799448"><ele>1589.0</ele><time>2026-04-19T15:55:24Z</time></trkpt><trkpt lat="46.49942417646137" lon="12.412061324940426"><ele>1596.75</ele><time>2026-04-19T15:55:25Z</time></trkpt><trkpt lat="46.49931802730944" lon="12.412165079964831"><ele>1604.5</ele><time>2026-04-19T15:55:26Z</time></trkpt><trkpt lat="46.49919628737247" lon="12.412262574847421"><ele>1612.25</ele><time>2026-04-19T15:55:27Z</time></trkpt><trkpt lat="46.49907241503673" lon="12.41237942345078"><ele>1620.0</ele><time>2026-04-19T15:55:28Z</time></trkpt><trkpt lat="46.49896086193416" lon="12.412518980746368"><ele>1620.0</ele><time>2026-04-19T15:55:29Z</time></trkpt><trkpt lat="46.49884639147293" lon="12.412658645727838"><ele>1620.0</ele><time>2026-04-19T15:55:30Z</time></trkpt><trkpt lat="46.49873216915641" lon="12.412793952717607"><ele>1620.0</ele><time>2026-04-19T15:55:31Z</time></trkpt><trkpt lat="46.49862205490278" lon="12.412921098434186"><ele>1620.0</ele><time>2026-04-19T15:55:32Z</time></trkpt><trkpt lat="46.49852417559044" lon="12.413022137945463"><ele>1618.4</ele><time>2026-04-19T15:55:33Z</time></trkpt><trkpt lat="46.49843130532687" lon="12.413120900947575"><ele>1616.8</ele><time>2026-04-19T15:55:34Z</time></trkpt><trkpt lat="46.498349508403436" lon="12.413225420848741"><ele>1615.1999999999998</ele><time>2026-04-19T15:55:35Z</time></trkpt><trkpt lat="46.49829601701188" lon="12.413343380179304"><ele>1613.6</ele><time>2026-04-19T15:55:36Z</time></trkpt><trkpt lat="46.498255577906974" lon="12.413450753018367"><ele>1612.0</ele><time>2026-04-19T15:55:37Z</time></trkpt><trkpt lat="46.4982138747971" lon="12.41358267918209"><ele>1612.0</ele><time>2026-04-19T15:55:38Z</time></trkpt><trkpt lat="46.498177046441924" lon="12.41374902791917"><ele>1612.0</ele><time>2026-04-19T15:55:39Z</time></trkpt><trkpt lat="46.49814587829789" lon="12.413925108146321"><ele>1612.0</ele><time>2026-04-19T15:55:40Z</time></trkpt><trkpt lat="46.49810767743423" lon="12.414100386664908"><ele>1612.0</ele><time>2026-04-19T15:55:41Z</time></trkpt><trkpt lat="46.49806944315391" lon="12.414268842164482"><ele>1614.1999999999998</ele><time>2026-04-19T15:55:42Z</time></trkpt><trkpt lat="46.498036142702965" lon="12.414392949299465"><ele>1616.4</ele><time>2026-04-19T15:55:43Z</time></trkpt><trkpt lat="46.497988703875215" lon="12.414473712574813"><ele>1618.6</ele><time>2026-04-19T15:55:44Z</time></trkpt><trkpt lat="46.497943669961096" lon="12.41461912980331"><ele>1620.8000000000002</ele><time>2026-04-19T15:55:46Z</time></trkpt><trkpt lat="46.49794101374981" lon="12.414746574590682"><ele>1623.0</ele><time>2026-04-19T15:55:48Z</time></trkpt><trkpt lat="46.49802443132221" lon="12.41478906235091"><ele>1623.0</ele><time>2026-04-19T15:55:50Z</time></trkpt><trkpt lat="46.498053353064016" lon="12.414682426393634"><ele>1623.0</ele><time>2026-04-19T15:55:50.999Z</time></trkpt><trkpt lat="46.49806499737102" lon="12.414588275403775"><ele>1623.0</ele><time>2026-04-19T15:55:51.999Z</time></trkpt><trkpt lat="46.49810218978453" lon="12.41448344238158"><ele>1623.0</ele><time>2026-04-19T15:55:52.999Z</time></trkpt><trkpt lat="46.498134185550846" lon="12.414368475496838"><ele>1623.0</ele><time>2026-04-19T15:55:53.999Z</time></trkpt><trkpt lat="46.49818855076409" lon="12.414248080894126"><ele>1623.0</ele><time>2026-04-19T15:55:54.999Z</time></trkpt><trkpt lat="46.49824801108519" lon="12.414128206991768"><ele>1624.2</ele><time>2026-04-19T15:55:55.999Z</time></trkpt><trkpt lat="46.49832582553747" lon="12.414023297431296"><ele>1625.4</ele><time>2026-04-19T15:55:56.999Z</time></trkpt><trkpt lat="46.49838120393242" lon="12.413891686160666"><ele>1626.6000000000001</ele><time>2026-04-19T15:55:57.999Z</time></trkpt><trkpt lat="46.498449159706254" lon="12.413779155452508"><ele>1627.8000000000002</ele><time>2026-04-19T15:55:58.999Z</time></trkpt><trkpt lat="46.49851163849838" lon="12.413662648771885"><ele>1629.0</ele><time>2026-04-19T15:55:59.999Z</time></trkpt><trkpt lat="46.498574411261814" lon="12.413550430007529"><ele>1631.8000000000002</ele><time>2026-04-19T15:56:00.999Z</time></trkpt><trkpt lat="46.49863326156394" lon="12.413434379825963"><ele>1634.6000000000001</ele><time>2026-04-19T15:56:01.999Z</time></trkpt><trkpt lat="46.498708055289306" lon="12.413344799452265"><ele>1637.4</ele><time>2026-04-19T15:56:02.999Z</time></trkpt><trkpt lat="46.49877862680172" lon="12.41326676329734"><ele>1640.2</ele><time>2026-04-19T15:56:03.999Z</time></trkpt><trkpt lat="46.49885677647729" lon="12.413196639050247"><ele>1643.0</ele><time>2026-04-19T15:56:04.999Z</time></trkpt><trkpt lat="46.49894426917299" lon="12.41311230276083"><ele>1643.0</ele><time>2026-04-19T15:56:05.999Z</time></trkpt><trkpt lat="46.49903489834563" lon="12.41302142663332"><ele>1643.0</ele><time>2026-04-19T15:56:06.999Z</time></trkpt><trkpt lat="46.49912107399915" lon="12.412949921557601"><ele>1643.0</ele><time>2026-04-19T15:56:07.999Z</time></trkpt><trkpt lat="46.499219401048315" lon="12.412903638377788"><ele>1643.0</ele><time>2026-04-19T15:56:08.999Z</time></trkpt><trkpt lat="46.49933865737525" lon="12.412866962792274"><ele>1643.0</ele><time>2026-04-19T15:56:09.999Z</time></trkpt><trkpt lat="46.49945671703924" lon="12.412827768461106"><ele>1641.6000000000001</ele><time>2026-04-19T15:56:10.999Z</time></trkpt><trkpt lat="46.499581916824454" lon="12.412787630408783"><ele>1640.2</ele><time>2026-04-19T15:56:11.999Z</time></trkpt><trkpt lat="46.499682947683475" lon="12.41278353145948"><ele>1638.8</ele><time>2026-04-19T15:56:12.999Z</time></trkpt><trkpt lat="46.49977928372928" lon="12.412776427162088"><ele>1637.4</ele><time>2026-04-19T15:56:13.999Z</time></trkpt><trkpt lat="46.49986925141612" lon="12.412788539211036"><ele>1636.0</ele><time>2026-04-19T15:56:14.999Z</time></trkpt><trkpt lat="46.499955829338994" lon="12.412794364050846"><ele>1636.0</ele><time>2026-04-19T15:56:15.999Z</time></trkpt><trkpt lat="46.50005091635226" lon="12.412787469951333"><ele>1636.0</ele><time>2026-04-19T15:56:16.999Z</time></trkpt><trkpt lat="46.500161734061045" lon="12.412720749850166"><ele>1636.0</ele><time>2026-04-19T15:56:17.999Z</time></trkpt><trkpt lat="46.5002664550057" lon="12.41261892002312"><ele>1636.0</ele><time>2026-04-19T15:56:18.999Z</time></trkpt><trkpt lat="46.50036652906614" lon="12.412527314666262"><ele>1638.0</ele><time>2026-04-19T15:56:19.999Z</time></trkpt><trkpt lat="46.50045126730268" lon="12.41243508587664"><ele>1640.0</ele><time>2026-04-19T15:56:20.999Z</time></trkpt><trkpt lat="46.50052170881742" lon="12.412312428281979"><ele>1642.0</ele><time>2026-04-19T15:56:21.999Z</time></trkpt><trkpt lat="46.5005896663008" lon="12.412192764858288"><ele>1644.0</ele><time>2026-04-19T15:56:22.999Z</time></trkpt><trkpt lat="46.50065981369415" lon="12.412082735845319"><ele>1646.0</ele><time>2026-04-19T15:56:23.999Z</time></trkpt><trkpt lat="46.50072997972351" lon="12.412004566764624"><ele>1645.9999999999998</ele><time>2026-04-19T15:56:24.999Z</time></trkpt><trkpt lat="46.500811154926474" lon="12.411953788951504"><ele>1646.0</ele><time>2026-04-19T15:56:25.999Z</time></trkpt><trkpt lat="46.500898048129066" lon="12.4119120743716"><ele>1646.0</ele><time>2026-04-19T15:56:26.999Z</time></trkpt><trkpt lat="46.5009728816268" lon="12.411868933372299"><ele>1646.0</ele><time>2026-04-19T15:56:27.999Z</time></trkpt><trkpt lat="46.50102281575192" lon="12.411787143647276"><ele>1645.9999999999998</ele><time>2026-04-19T15:56:28.999Z</time></trkpt><trkpt lat="46.501044267654834" lon="12.411691904149382"><ele>1646.0</ele><time>2026-04-19T15:56:29.999Z</time></trkpt><trkpt lat="46.501058506482586" lon="12.411565635610062"><ele>1646.0</ele><time>2026-04-19T15:56:30.999Z</time></trkpt><trkpt lat="46.501085231072516" lon="12.41143253925233"><ele>1646.0</ele><time>2026-04-19T15:56:31.999Z</time></trkpt><trkpt lat="46.50112922988941" lon="12.411306866141182"><ele>1646.0</ele><time>2026-04-19T15:56:32.999Z</time></trkpt><trkpt lat="46.50115468189967" lon="12.411137409207424"><ele>1646.0</ele><time>2026-04-19T15:56:33.999Z</time></trkpt><trkpt lat="46.501165585094505" lon="12.4110149392019"><ele>1646.0</ele><time>2026-04-19T15:56:34.999Z</time></trkpt><trkpt lat="46.50118268263248" lon="12.410903519412793"><ele>1642.8</ele><time>2026-04-19T15:56:35.999Z</time></trkpt><trkpt lat="46.501244571636036" lon="12.410763241312445"><ele>1639.6</ele><time>2026-04-19T15:56:37.999Z</time></trkpt><trkpt lat="46.50128666511451" lon="12.410658723193249"><ele>1636.4</ele><time>2026-04-19T15:56:38.999Z</time></trkpt><trkpt lat="46.50135070711399" lon="12.410567044254517"><ele>1633.2</ele><time>2026-04-19T15:56:39.999Z</time></trkpt><trkpt lat="46.50142407653703" lon="12.410488042446053"><ele>1630.0</ele><time>2026-04-19T15:56:41Z</time></trkpt><trkpt lat="46.50149714635018" lon="12.41040321601303"><ele>1638.75</ele><time>2026-04-19T15:56:42Z</time></trkpt><trkpt lat="46.501586844314566" lon="12.4103045656056"><ele>1647.5</ele><time>2026-04-19T15:56:43Z</time></trkpt><trkpt lat="46.5016688973291" lon="12.410182118763693"><ele>1656.25</ele><time>2026-04-19T15:56:44Z</time></trkpt><trkpt lat="46.501747473792534" lon="12.410049241581401"><ele>1665.0</ele><time>2026-04-19T15:56:45Z</time></trkpt><trkpt lat="46.50182700857811" lon="12.409916399863388"><ele>1665.0</ele><time>2026-04-19T15:56:46Z</time></trkpt><trkpt lat="46.501903929239546" lon="12.409782665308684"><ele>1665.0</ele><time>2026-04-19T15:56:47Z</time></trkpt><trkpt lat="46.50196602834644" lon="12.409657470967359"><ele>1665.0</ele><time>2026-04-19T15:56:48Z</time></trkpt><trkpt lat="46.50201080232621" lon="12.409515542629002"><ele>1665.0</ele><time>2026-04-19T15:56:49Z</time></trkpt><trkpt lat="46.50202540043044" lon="12.409360973018053"><ele>1665.0</ele><time>2026-04-19T15:56:50Z</time></trkpt><trkpt lat="46.50206668086073" lon="12.409234227032874"><ele>1667.4</ele><time>2026-04-19T15:56:51Z</time></trkpt><trkpt lat="46.502102824762574" lon="12.409110154181862"><ele>1669.8</ele><time>2026-04-19T15:56:52Z</time></trkpt><trkpt lat="46.50213605955087" lon="12.408999007835716"><ele>1672.1999999999998</ele><time>2026-04-19T15:56:53Z</time></trkpt><trkpt lat="46.50216832645695" lon="12.40890591490217"><ele>1674.6</ele><time>2026-04-19T15:56:54Z</time></trkpt><trkpt lat="46.50220911078769" lon="12.408809595729018"><ele>1677.0</ele><time>2026-04-19T15:56:55Z</time></trkpt><trkpt lat="46.502323668573226" lon="12.408676172799648"><ele>1677.0</ele><time>2026-04-19T15:56:57Z</time></trkpt><trkpt lat="46.502418616661714" lon="12.408654240950677"><ele>1677.0</ele><time>2026-04-19T15:56:58Z</time></trkpt><trkpt lat="46.50250099686604" lon="12.40860582546616"><ele>1677.0</ele><time>2026-04-19T15:56:59Z</time></trkpt><trkpt lat="46.502589730305864" lon="12.408572095982175"><ele>1677.0</ele><time>2026-04-19T15:57:00Z</time></trkpt><trkpt lat="46.50267772406855" lon="12.408567626300968"><ele>1677.0</ele><time>2026-04-19T15:57:01Z</time></trkpt><trkpt lat="46.502770049458675" lon="12.408592783455212"><ele>1677.0</ele><time>2026-04-19T15:57:02Z</time></trkpt><trkpt lat="46.50286511389623" lon="12.408587763005462"><ele>1677.0</ele><time>2026-04-19T15:57:03Z</time></trkpt><trkpt lat="46.50295767760509" lon="12.408551816470366"><ele>1677.0</ele><time>2026-04-19T15:57:04Z</time></trkpt><trkpt lat="46.503040912168515" lon="12.408440364427141"><ele>1677.0</ele><time>2026-04-19T15:57:05Z</time></trkpt><trkpt lat="46.50313295171643" lon="12.408370000155985"><ele>1677.0</ele><time>2026-04-19T15:57:06Z</time></trkpt><trkpt lat="46.50322501432387" lon="12.408339446641348"><ele>1681.6</ele><time>2026-04-19T15:57:07Z</time></trkpt><trkpt lat="46.50331756553198" lon="12.408316517846439"><ele>1686.1999999999998</ele><time>2026-04-19T15:57:08Z</time></trkpt><trkpt lat="46.503405279241264" lon="12.408299352454856"><ele>1690.8</ele><time>2026-04-19T15:57:09Z</time></trkpt><trkpt lat="46.50349590073795" lon="12.408296569092956"><ele>1695.4</ele><time>2026-04-19T15:57:10Z</time></trkpt><trkpt lat="46.50359276239002" lon="12.408311336873194"><ele>1700.0</ele><time>2026-04-19T15:57:11Z</time></trkpt><trkpt lat="46.50370253103831" lon="12.408328041283724"><ele>1701.0</ele><time>2026-04-19T15:57:12Z</time></trkpt><trkpt lat="46.50382790872618" lon="12.408345521350212"><ele>1702.0</ele><time>2026-04-19T15:57:13Z</time></trkpt><trkpt lat="46.503959281072135" lon="12.408363379199809"><ele>1703.0</ele><time>2026-04-19T15:57:14Z</time></trkpt><trkpt lat="46.50409099350143" lon="12.408380888601199"><ele>1704.0</ele><time>2026-04-19T15:57:15Z</time></trkpt><trkpt lat="46.50421163346318" lon="12.408402246188865"><ele>1704.0</ele><time>2026-04-19T15:57:16Z</time></trkpt><trkpt lat="46.50431002553978" lon="12.408427692286926"><ele>1704.0</ele><time>2026-04-19T15:57:17Z</time></trkpt><trkpt lat="46.50440493664165" lon="12.408472533153645"><ele>1704.0</ele><time>2026-04-19T15:57:18Z</time></trkpt><trkpt lat="46.50448550224537" lon="12.40852588203582"><ele>1704.0</ele><time>2026-04-19T15:57:19Z</time></trkpt><trkpt lat="46.50456474622638" lon="12.408581545153877"><ele>1704.0</ele><time>2026-04-19T15:57:20Z</time></trkpt><trkpt lat="46.504647808556896" lon="12.408626468027695"><ele>1704.8000000000002</ele><time>2026-04-19T15:57:21Z</time></trkpt><trkpt lat="46.50475503552007" lon="12.408665671105684"><ele>1705.6000000000001</ele><time>2026-04-19T15:57:22Z</time></trkpt><trkpt lat="46.504863290516894" lon="12.408683152374834"><ele>1706.4</ele><time>2026-04-19T15:57:23Z</time></trkpt><trkpt lat="46.50496013618416" lon="12.40867831847982"><ele>1707.2</ele><time>2026-04-19T15:57:24Z</time></trkpt><trkpt lat="46.505034322222976" lon="12.408658472012736"><ele>1708.0</ele><time>2026-04-19T15:57:25Z</time></trkpt><trkpt lat="46.5051118478156" lon="12.40859627146513"><ele>1708.0000000000002</ele><time>2026-04-19T15:57:26Z</time></trkpt><trkpt lat="46.50518651605231" lon="12.408560097700763"><ele>1708.0</ele><time>2026-04-19T15:57:27Z</time></trkpt><trkpt lat="46.50526163805935" lon="12.408523703913081"><ele>1708.0</ele><time>2026-04-19T15:57:28Z</time></trkpt><trkpt lat="46.50534493222319" lon="12.408498353968405"><ele>1708.0</ele><time>2026-04-19T15:57:29Z</time></trkpt><trkpt lat="46.505436576175676" lon="12.408485065710872"><ele>1708.0000000000002</ele><time>2026-04-19T15:57:30Z</time></trkpt><trkpt lat="46.5055085472101" lon="12.408515690777795"><ele>1708.0</ele><time>2026-04-19T15:57:31Z</time></trkpt><trkpt lat="46.50557299253186" lon="12.408552407767548"><ele>1710.3333333333335</ele><time>2026-04-19T15:57:32Z</time></trkpt><trkpt lat="46.50563139074735" lon="12.408593208375855"><ele>1712.6666666666667</ele><time>2026-04-19T15:57:33Z</time></trkpt><trkpt lat="46.50569985921468" lon="12.408622236630402"><ele>1715.0</ele><time>2026-04-19T15:57:34Z</time></trkpt><trkpt lat="46.50577589574073" lon="12.408572666991734"><ele>1717.3333333333335</ele><time>2026-04-19T15:57:35Z</time></trkpt><trkpt lat="46.50584561258034" lon="12.408528662588084"><ele>1719.6666666666667</ele><time>2026-04-19T15:57:36Z</time></trkpt><trkpt lat="46.5059190639403" lon="12.408477051987624"><ele>1722.0</ele><time>2026-04-19T15:57:37Z</time></trkpt><trkpt lat="46.50599619453534" lon="12.408422418581642"><ele>1722.0</ele><time>2026-04-19T15:57:38Z</time></trkpt><trkpt lat="46.50607303273405" lon="12.40836799326077"><ele>1722.0</ele><time>2026-04-19T15:57:39Z</time></trkpt><trkpt lat="46.506143618387995" lon="12.408317996686339"><ele>1722.0</ele><time>2026-04-19T15:57:40Z</time></trkpt><trkpt lat="46.50621905011608" lon="12.408264567588365"><ele>1722.0</ele><time>2026-04-19T15:57:42Z</time></trkpt><trkpt lat="46.50621846200096" lon="12.408358395332469"><ele>1722.0</ele><time>2026-04-19T15:57:45Z</time></trkpt><trkpt lat="46.50611349926961" lon="12.408427732764435"><ele>1722.0</ele><time>2026-04-19T15:57:47Z</time></trkpt><trkpt lat="46.50605639403016" lon="12.408488659842812"><ele>1722.0</ele><time>2026-04-19T15:57:48Z</time></trkpt><trkpt lat="46.50600250087247" lon="12.408583069698507"><ele>1721.9999999999998</ele><time>2026-04-19T15:57:49Z</time></trkpt><trkpt lat="46.505990642428" lon="12.408718017987319"><ele>1721.9999999999998</ele><time>2026-04-19T15:57:50Z</time></trkpt><trkpt lat="46.50597403481516" lon="12.408853407041914"><ele>1722.0</ele><time>2026-04-19T15:57:51Z</time></trkpt><trkpt lat="46.50596945486295" lon="12.409007978318494"><ele>1722.0</ele><time>2026-04-19T15:57:52Z</time></trkpt><trkpt lat="46.50595343348308" lon="12.409128601576377"><ele>1724.2857142857142</ele><time>2026-04-19T15:57:53Z</time></trkpt><trkpt lat="46.50592084235011" lon="12.409216365846886"><ele>1726.5714285714284</ele><time>2026-04-19T15:57:54Z</time></trkpt><trkpt lat="46.50587008082914" lon="12.409274039602515"><ele>1728.857142857143</ele><time>2026-04-19T15:57:54.999Z</time></trkpt><trkpt lat="46.505772259269904" lon="12.40929205626597"><ele>1731.142857142857</ele><time>2026-04-19T15:57:56.999Z</time></trkpt><trkpt lat="46.50570519050128" lon="12.40926816079257"><ele>1733.4285714285713</ele><time>2026-04-19T15:58:00.999Z</time></trkpt><trkpt lat="46.505633380115654" lon="12.409266264726515"><ele>1735.7142857142858</ele><time>2026-04-19T15:58:03.999Z</time></trkpt><trkpt lat="46.50557265393429" lon="12.409227811064751"><ele>1738.0</ele><time>2026-04-19T15:58:06.999Z</time></trkpt><trkpt lat="46.505508223450455" lon="12.409169241988137"><ele>1738.0</ele><time>2026-04-19T15:58:09.999Z</time></trkpt><trkpt lat="46.50544967963127" lon="12.409119437100934"><ele>1738.0</ele><time>2026-04-19T15:58:14.999Z</time></trkpt><trkpt lat="46.50536514299507" lon="12.409083182497008"><ele>1738.0</ele><time>2026-04-19T15:58:17.999Z</time></trkpt><trkpt lat="46.505297342257855" lon="12.409035316672613"><ele>1738.0</ele><time>2026-04-19T15:58:19.999Z</time></trkpt><trkpt lat="46.50523410404864" lon="12.408971334613327"><ele>1738.0</ele><time>2026-04-19T15:58:21.999Z</time></trkpt><trkpt lat="46.50527885660932" lon="12.409041528846062"><ele>1738.0</ele><time>2026-04-19T16:00:10.999Z</time></trkpt><trkpt lat="46.50534531040496" lon="12.409087362497132"><ele>1738.0</ele><time>2026-04-19T16:00:15.999Z</time></trkpt><trkpt lat="46.5053669927942" lon="12.409229428588514"><ele>1738.0000000000002</ele><time>2026-04-19T16:01:01Z</time></trkpt><trkpt lat="46.50543301628757" lon="12.409307837829784"><ele>1738.0</ele><time>2026-04-19T16:02:03Z</time></trkpt><trkpt lat="46.50548501185941" lon="12.409381168883838"><ele>1738.0</ele><time>2026-04-19T16:02:05.999Z</time></trkpt><trkpt lat="46.505546435627004" lon="12.40948134492923"><ele>1738.0</ele><time>2026-04-19T16:02:08.999Z</time></trkpt><trkpt lat="46.5056014097722" lon="12.409546819987629"><ele>1738.0000000000002</ele><time>2026-04-19T16:02:10.999Z</time></trkpt><trkpt lat="46.50566400627667" lon="12.409610774452622"><ele>1738.0</ele><time>2026-04-19T16:02:12.999Z</time></trkpt><trkpt lat="46.50571531612912" lon="12.409670776046664"><ele>1740.7142857142858</ele><time>2026-04-19T16:02:14.999Z</time></trkpt><trkpt lat="46.50573767695971" lon="12.409761825037638"><ele>1743.4285714285713</ele><time>2026-04-19T16:02:16.999Z</time></trkpt><trkpt lat="46.50578008092998" lon="12.409835758946056"><ele>1746.142857142857</ele><time>2026-04-19T16:07:42Z</time></trkpt><trkpt lat="46.5058266798042" lon="12.409914138234946"><ele>1748.857142857143</ele><time>2026-04-19T16:07:59Z</time></trkpt><trkpt lat="46.505880923857646" lon="12.409972878169643"><ele>1751.5714285714284</ele><time>2026-04-19T16:08:26.999Z</time></trkpt><trkpt lat="46.50594915790529" lon="12.410025696507704"><ele>1754.2857142857142</ele><time>2026-04-19T16:08:30.999Z</time></trkpt><trkpt lat="46.5060101497729" lon="12.410071455749728"><ele>1757.0</ele><time>2026-04-19T16:08:33.999Z</time></trkpt><trkpt lat="46.506069017505325" lon="12.410118065713363"><ele>1756.9999999999998</ele><time>2026-04-19T16:08:52.999Z</time></trkpt><trkpt lat="46.506140658759804" lon="12.410147641223757"><ele>1757.0</ele><time>2026-04-19T16:09:08.999Z</time></trkpt><trkpt lat="46.50620866612405" lon="12.41013565276922"><ele>1757.0</ele><time>2026-04-19T16:09:19Z</time></trkpt><trkpt lat="46.506278693103006" lon="12.410090835972927"><ele>1757.0</ele><time>2026-04-19T16:09:44Z</time></trkpt><trkpt lat="46.50630623038755" lon="12.410007956799506"><ele>1756.9999999999998</ele><time>2026-04-19T16:09:45Z</time></trkpt><trkpt lat="46.50633264701188" lon="12.409867304754222"><ele>1757.0</ele><time>2026-04-19T16:09:47Z</time></trkpt><trkpt lat="46.50634204765307" lon="12.409761250521823"><ele>1759.6666666666665</ele><time>2026-04-19T16:09:49Z</time></trkpt><trkpt lat="46.506361511864455" lon="12.409665246371274"><ele>1762.3333333333333</ele><time>2026-04-19T16:09:52Z</time></trkpt><trkpt lat="46.50635918685696" lon="12.409545903588283"><ele>1765.0</ele><time>2026-04-19T16:09:58Z</time></trkpt><trkpt lat="46.50638444541647" lon="12.40942363803103"><ele>1767.6666666666665</ele><time>2026-04-19T16:10:00Z</time></trkpt><trkpt lat="46.506391492018054" lon="12.409328154829375"><ele>1770.3333333333333</ele><time>2026-04-19T16:10:02Z</time></trkpt><trkpt lat="46.50641447862358" lon="12.40919358862986"><ele>1773.0</ele><time>2026-04-19T16:10:04Z</time></trkpt><trkpt lat="46.5064600279889" lon="12.409052120598743"><ele>1773.0</ele><time>2026-04-19T16:10:06Z</time></trkpt><trkpt lat="46.506501783243905" lon="12.408924646028524"><ele>1773.0000000000002</ele><time>2026-04-19T16:10:08Z</time></trkpt><trkpt lat="46.50655420997735" lon="12.40880095423224"><ele>1773.0000000000002</ele><time>2026-04-19T16:10:10Z</time></trkpt><trkpt lat="46.50661096095982" lon="12.408664319137353"><ele>1773.0</ele><time>2026-04-19T16:10:12Z</time></trkpt><trkpt lat="46.50667172120392" lon="12.408526941204144"><ele>1773.0</ele><time>2026-04-19T16:10:14Z</time></trkpt><trkpt lat="46.50673281241747" lon="12.408395278988708"><ele>1771.8000000000002</ele><time>2026-04-19T16:10:16Z</time></trkpt><trkpt lat="46.50678385784614" lon="12.40825694537586"><ele>1770.6000000000001</ele><time>2026-04-19T16:10:18Z</time></trkpt><trkpt lat="46.50680937192929" lon="12.408105134396754"><ele>1769.3999999999999</ele><time>2026-04-19T16:10:20Z</time></trkpt><trkpt lat="46.506828205267155" lon="12.407938688538831"><ele>1768.1999999999998</ele><time>2026-04-19T16:10:22Z</time></trkpt><trkpt lat="46.50685715594351" lon="12.407784228817407"><ele>1767.0</ele><time>2026-04-19T16:10:24Z</time></trkpt><trkpt lat="46.506841089939066" lon="12.407618014766728"><ele>1767.0</ele><time>2026-04-19T16:10:26Z</time></trkpt><trkpt lat="46.50678590813168" lon="12.407447790581486"><ele>1767.0</ele><time>2026-04-19T16:10:28Z</time></trkpt><trkpt lat="46.50675175762845" lon="12.407361848483708"><ele>1767.0</ele><time>2026-04-19T16:10:29Z</time></trkpt><trkpt lat="46.506712565976805" lon="12.407279633659078"><ele>1767.0</ele><time>2026-04-19T16:10:30Z</time></trkpt><trkpt lat="46.5066652226988" lon="12.407158127770805"><ele>1767.0</ele><time>2026-04-19T16:10:32Z</time></trkpt><trkpt lat="46.506618528387676" lon="12.407087914487393"><ele>1767.0</ele><time>2026-04-19T16:10:41.999Z</time></trkpt><trkpt lat="46.506579539733515" lon="12.406973953056967"><ele>1769.0</ele><time>2026-04-19T16:10:43.999Z</time></trkpt><trkpt lat="46.50657036996874" lon="12.40682540925373"><ele>1770.9999999999998</ele><time>2026-04-19T16:10:45.999Z</time></trkpt><trkpt lat="46.50656461866832" lon="12.406656696537844"><ele>1772.9999999999998</ele><time>2026-04-19T16:10:47.999Z</time></trkpt><trkpt lat="46.50655476733113" lon="12.406477388297763"><ele>1775.0</ele><time>2026-04-19T16:10:49.999Z</time></trkpt><trkpt lat="46.50653744084736" lon="12.406382191978844"><ele>1777.0</ele><time>2026-04-19T16:10:50.999Z</time></trkpt><trkpt lat="46.50652337092606" lon="12.406292635706022"><ele>1777.0</ele><time>2026-04-19T16:10:51.999Z</time></trkpt><trkpt lat="46.506539540082535" lon="12.406114291326867"><ele>1777.0</ele><time>2026-04-19T16:10:53.999Z</time></trkpt><trkpt lat="46.50658984391672" lon="12.405943092154347"><ele>1777.0</ele><time>2026-04-19T16:10:55.999Z</time></trkpt><trkpt lat="46.50662261606745" lon="12.405770315657627"><ele>1777.0</ele><time>2026-04-19T16:10:57.999Z</time></trkpt><trkpt lat="46.50670179908871" lon="12.405654122776356"><ele>1777.0</ele><time>2026-04-19T16:10:59.999Z</time></trkpt><trkpt lat="46.50680304327499" lon="12.405625627898278"><ele>1776.9999999999998</ele><time>2026-04-19T16:11:01.999Z</time></trkpt><trkpt lat="46.50690494280736" lon="12.405598924735763"><ele>1776.9999999999998</ele><time>2026-04-19T16:11:03.999Z</time></trkpt><trkpt lat="46.507003926506265" lon="12.405541465994764"><ele>1777.0</ele><time>2026-04-19T16:11:05.999Z</time></trkpt><trkpt lat="46.507104315793946" lon="12.405479410380517"><ele>1777.0</ele><time>2026-04-19T16:11:07.999Z</time></trkpt><trkpt lat="46.50719149313772" lon="12.405405099765108"><ele>1777.1666666666667</ele><time>2026-04-19T16:11:09.999Z</time></trkpt><trkpt lat="46.50728754677364" lon="12.405348109330257"><ele>1777.3333333333335</ele><time>2026-04-19T16:11:11.999Z</time></trkpt><trkpt lat="46.50739119484402" lon="12.405300354701433"><ele>1777.5</ele><time>2026-04-19T16:11:13.999Z</time></trkpt><trkpt lat="46.50746610409401" lon="12.405270723117043"><ele>1777.6666666666665</ele><time>2026-04-19T16:11:15.999Z</time></trkpt><trkpt lat="46.50752975833173" lon="12.405266851470158"><ele>1777.8333333333333</ele><time>2026-04-19T16:11:17.999Z</time></trkpt><trkpt lat="46.50749727282604" lon="12.405351444638367"><ele>1778.0</ele><time>2026-04-19T16:11:34Z</time></trkpt><trkpt lat="46.507454506540704" lon="12.40542106001837"><ele>1777.9999999999998</ele><time>2026-04-19T16:11:36Z</time></trkpt><trkpt lat="46.50738480440999" lon="12.405479737739633"><ele>1778.0</ele><time>2026-04-19T16:11:39Z</time></trkpt><trkpt lat="46.50734994888765" lon="12.405367867453599"><ele>1778.0</ele><time>2026-04-19T16:11:42Z</time></trkpt><trkpt lat="46.50741166695811" lon="12.405288034797385"><ele>1778.0</ele><time>2026-04-19T16:14:34Z</time></trkpt><trkpt lat="46.507499356010385" lon="12.405273704127726"><ele>1777.9999999999998</ele><time>2026-04-19T16:14:36Z</time></trkpt><trkpt lat="46.50759382841464" lon="12.405274385535227"><ele>1778.0</ele><time>2026-04-19T16:14:38Z</time></trkpt><trkpt lat="46.5076507117959" lon="12.405330954835675"><ele>1777.9999999999998</ele><time>2026-04-19T16:14:39.999Z</time></trkpt><trkpt lat="46.507637040839526" lon="12.405439799277671"><ele>1778.0</ele><time>2026-04-19T16:14:41.999Z</time></trkpt><trkpt lat="46.5076089416328" lon="12.40558096627853"><ele>1778.0</ele><time>2026-04-19T16:14:43.999Z</time></trkpt><trkpt lat="46.507572277695346" lon="12.405719819712006"><ele>1778.0</ele><time>2026-04-19T16:14:45.999Z</time></trkpt><trkpt lat="46.50750259762396" lon="12.40575233154491"><ele>1777.9999999999998</ele><time>2026-04-19T16:14:47.999Z</time></trkpt><trkpt lat="46.50743467722048" lon="12.405815523017486"><ele>1778.0</ele><time>2026-04-19T16:14:49.999Z</time></trkpt><trkpt lat="46.50735644494187" lon="12.405913937935859"><ele>1777.8000000000002</ele><time>2026-04-19T16:14:51.999Z</time></trkpt><trkpt lat="46.50726864087342" lon="12.405996679769046"><ele>1777.6000000000001</ele><time>2026-04-19T16:14:53.999Z</time></trkpt><trkpt lat="46.50718459363964" lon="12.40609363898691"><ele>1777.3999999999999</ele><time>2026-04-19T16:14:55.999Z</time></trkpt><trkpt lat="46.50709309002101" lon="12.406199200134887"><ele>1777.1999999999998</ele><time>2026-04-19T16:14:57.999Z</time></trkpt><trkpt lat="46.50700308040305" lon="12.406306503109272"><ele>1777.0</ele><time>2026-04-19T16:14:59.999Z</time></trkpt><trkpt lat="46.50690727277296" lon="12.406419060980268"><ele>1777.0</ele><time>2026-04-19T16:15:01.999Z</time></trkpt><trkpt lat="46.50683877682369" lon="12.40656063112026"><ele>1776.9999999999998</ele><time>2026-04-19T16:15:03.999Z</time></trkpt><trkpt lat="46.506815693789235" lon="12.40668979296129"><ele>1776.9999999999998</ele><time>2026-04-19T16:15:05.999Z</time></trkpt><trkpt lat="46.506863244742235" lon="12.406854978247258"><ele>1777.0</ele><time>2026-04-19T16:15:07.999Z</time></trkpt><trkpt lat="46.50692975414186" lon="12.406902966858608"><ele>1777.0</ele><time>2026-04-19T16:15:08.999Z</time></trkpt><trkpt lat="46.50698288207068" lon="12.40696463804495"><ele>1777.0</ele><time>2026-04-19T16:15:18.999Z</time></trkpt><trkpt lat="46.50692375491496" lon="12.40689591914517"><ele>1776.9999999999998</ele><time>2026-04-19T16:15:57Z</time></trkpt><trkpt lat="46.50686670222734" lon="12.40683022367426"><ele>1776.9999999999998</ele><time>2026-04-19T16:15:59Z</time></trkpt><trkpt lat="46.50681368287078" lon="12.406755587890736"><ele>1777.0</ele><time>2026-04-19T16:16:01Z</time></trkpt><trkpt lat="46.50691271787531" lon="12.406477004181898"><ele>1777.0</ele><time>2026-04-19T16:16:04Z</time></trkpt><trkpt lat="46.506979852462344" lon="12.406348814772471"><ele>1777.0</ele><time>2026-04-19T16:16:06Z</time></trkpt><trkpt lat="46.50707602450226" lon="12.406239992545244"><ele>1776.9999999999998</ele><time>2026-04-19T16:16:08Z</time></trkpt><trkpt lat="46.50713003293281" lon="12.406190703751122"><ele>1776.9999999999998</ele><time>2026-04-19T16:16:09Z</time></trkpt><trkpt lat="46.50722625861861" lon="12.40608741309652"><ele>1777.0</ele><time>2026-04-19T16:16:11Z</time></trkpt><trkpt lat="46.50731898951224" lon="12.405971097503718"><ele>1777.0</ele><time>2026-04-19T16:16:13Z</time></trkpt><trkpt lat="46.50741671921362" lon="12.405871484712653"><ele>1777.1999999999998</ele><time>2026-04-19T16:16:15Z</time></trkpt><trkpt lat="46.50752025893355" lon="12.405774755978769"><ele>1777.3999999999999</ele><time>2026-04-19T16:16:17Z</time></trkpt><trkpt lat="46.507595257400354" lon="12.405661100732017"><ele>1777.6000000000001</ele><time>2026-04-19T16:16:19Z</time></trkpt><trkpt lat="46.507641661451146" lon="12.405495924982443"><ele>1777.8000000000002</ele><time>2026-04-19T16:16:21Z</time></trkpt><trkpt lat="46.50767203763513" lon="12.405368839457127"><ele>1778.0</ele><time>2026-04-19T16:16:23Z</time></trkpt><trkpt lat="46.50773050379991" lon="12.405307312148125"><ele>1777.9999999999998</ele><time>2026-04-19T16:16:25Z</time></trkpt><trkpt lat="46.50782636091363" lon="12.405335152274981"><ele>1778.0</ele><time>2026-04-19T16:16:27Z</time></trkpt><trkpt lat="46.50789583605144" lon="12.405378735603037"><ele>1778.0</ele><time>2026-04-19T16:16:28Z</time></trkpt><trkpt lat="46.50797103255207" lon="12.405418648133598"><ele>1778.0</ele><time>2026-04-19T16:16:29Z</time></trkpt><trkpt lat="46.50803710570586" lon="12.405451980937825"><ele>1777.9999999999998</ele><time>2026-04-19T16:16:30Z</time></trkpt><trkpt lat="46.50811165294597" lon="12.405490340768257"><ele>1778.0</ele><time>2026-04-19T16:16:31Z</time></trkpt><trkpt lat="46.50819081235892" lon="12.405528762028993"><ele>1782.6000000000001</ele><time>2026-04-19T16:16:32Z</time></trkpt><trkpt lat="46.50825710965527" lon="12.405560603002108"><ele>1787.2000000000003</ele><time>2026-04-19T16:16:33Z</time></trkpt><trkpt lat="46.50837126867766" lon="12.405627667375887"><ele>1791.8</ele><time>2026-04-19T16:16:35Z</time></trkpt><trkpt lat="46.508473030569526" lon="12.405689773899889"><ele>1796.4</ele><time>2026-04-19T16:16:37Z</time></trkpt><trkpt lat="46.5085654229342" lon="12.405732532602965"><ele>1801.0</ele><time>2026-04-19T16:16:39Z</time></trkpt><trkpt lat="46.50864708164115" lon="12.4057759431791"><ele>1801.0000000000002</ele><time>2026-04-19T16:16:41Z</time></trkpt><trkpt lat="46.50873577093832" lon="12.405823754625011"><ele>1801.0</ele><time>2026-04-19T16:16:44Z</time></trkpt><trkpt lat="46.508813280031234" lon="12.405845639139855"><ele>1801.0</ele><time>2026-04-19T16:16:46Z</time></trkpt><trkpt lat="46.50889147429018" lon="12.405889720964055"><ele>1801.0</ele><time>2026-04-19T16:16:47.999Z</time></trkpt><trkpt lat="46.50895433565478" lon="12.405932455521176"><ele>1801.0000000000002</ele><time>2026-04-19T16:16:49.999Z</time></trkpt><trkpt lat="46.50902618301345" lon="12.405971113554148"><ele>1801.0</ele><time>2026-04-19T16:16:51.999Z</time></trkpt><trkpt lat="46.50909159375809" lon="12.406032689640485"><ele>1800.1666666666667</ele><time>2026-04-19T16:16:53.999Z</time></trkpt><trkpt lat="46.50915282909277" lon="12.406076356453017"><ele>1799.3333333333335</ele><time>2026-04-19T16:16:55.999Z</time></trkpt><trkpt lat="46.50922310849816" lon="12.406125005063846"><ele>1798.5</ele><time>2026-04-19T16:16:57.999Z</time></trkpt><trkpt lat="46.50930308184616" lon="12.406178905727517"><ele>1797.6666666666665</ele><time>2026-04-19T16:16:59.999Z</time></trkpt><trkpt lat="46.509374144239985" lon="12.406226800488396"><ele>1796.8333333333333</ele><time>2026-04-19T16:17:01.999Z</time></trkpt><trkpt lat="46.50943817057144" lon="12.406269953109122"><ele>1796.0</ele><time>2026-04-19T16:17:03.999Z</time></trkpt><trkpt lat="46.509507811454604" lon="12.406319008469517"><ele>1796.6666666666665</ele><time>2026-04-19T16:17:06.999Z</time></trkpt><trkpt lat="46.509566053492314" lon="12.406364572016576"><ele>1797.3333333333333</ele><time>2026-04-19T16:17:12.999Z</time></trkpt><trkpt lat="46.509621410105666" lon="12.40640912491778"><ele>1798.0</ele><time>2026-04-19T16:17:17.999Z</time></trkpt><trkpt lat="46.509699019768775" lon="12.406463955729444"><ele>1798.6666666666665</ele><time>2026-04-19T16:17:21.999Z</time></trkpt><trkpt lat="46.50978809417008" lon="12.406509085329844"><ele>1799.3333333333333</ele><time>2026-04-19T16:17:25.999Z</time></trkpt><trkpt lat="46.509874271620966" lon="12.406517425065276"><ele>1800.0</ele><time>2026-04-19T16:17:27.999Z</time></trkpt><trkpt lat="46.50999214205924" lon="12.406560302321571"><ele>1800.0</ele><time>2026-04-19T16:17:29.999Z</time></trkpt><trkpt lat="46.51010471308869" lon="12.406616512015633"><ele>1800.0</ele><time>2026-04-19T16:17:31.999Z</time></trkpt><trkpt lat="46.510214761839435" lon="12.406673995884342"><ele>1800.0</ele><time>2026-04-19T16:17:33.999Z</time></trkpt><trkpt lat="46.51028570954262" lon="12.406727290810094"><ele>1800.0</ele><time>2026-04-19T16:17:35.999Z</time></trkpt><trkpt lat="46.51035007770813" lon="12.406767926843196"><ele>1800.0</ele><time>2026-04-19T16:21:47.999Z</time></trkpt><trkpt lat="46.51042702575995" lon="12.406694632905667"><ele>1801.0</ele><time>2026-04-19T16:21:53Z</time></trkpt><trkpt lat="46.51053151584232" lon="12.406616502786406"><ele>1802.0</ele><time>2026-04-19T16:21:55Z</time></trkpt><trkpt lat="46.510660185285346" lon="12.406593272588252"><ele>1803.0</ele><time>2026-04-19T16:21:57Z</time></trkpt><trkpt lat="46.51073635468442" lon="12.406562631548477"><ele>1804.0</ele><time>2026-04-19T16:21:58Z</time></trkpt><trkpt lat="46.51079965227673" lon="12.406525887935421"><ele>1805.0</ele><time>2026-04-19T16:21:59Z</time></trkpt><trkpt lat="46.51090911119358" lon="12.40645677892162"><ele>1804.9999999999998</ele><time>2026-04-19T16:22:01Z</time></trkpt><trkpt lat="46.51099605115601" lon="12.406403849357819"><ele>1805.0</ele><time>2026-04-19T16:22:03Z</time></trkpt><trkpt lat="46.51111482738294" lon="12.40636265628086"><ele>1805.0</ele><time>2026-04-19T16:22:05Z</time></trkpt><trkpt lat="46.51117788283195" lon="12.406336327224713"><ele>1805.0</ele><time>2026-04-19T16:22:06Z</time></trkpt><trkpt lat="46.51124318814582" lon="12.406313332742972"><ele>1804.9999999999998</ele><time>2026-04-19T16:22:07Z</time></trkpt><trkpt lat="46.511307568109366" lon="12.40629398932898"><ele>1805.0</ele><time>2026-04-19T16:22:08Z</time></trkpt><trkpt lat="46.511374424975926" lon="12.406288624042888"><ele>1806.3333333333333</ele><time>2026-04-19T16:22:09Z</time></trkpt><trkpt lat="46.51143988504738" lon="12.406291830032517"><ele>1807.6666666666665</ele><time>2026-04-19T16:22:10Z</time></trkpt><trkpt lat="46.51155200520127" lon="12.406298227154178"><ele>1809.0</ele><time>2026-04-19T16:22:12Z</time></trkpt><trkpt lat="46.51162521005417" lon="12.406315773017173"><ele>1810.3333333333335</ele><time>2026-04-19T16:22:33Z</time></trkpt><trkpt lat="46.51168882116671" lon="12.406333597392937"><ele>1811.6666666666667</ele><time>2026-04-19T16:22:36Z</time></trkpt><trkpt lat="46.51175753887557" lon="12.406347868684504"><ele>1813.0</ele><time>2026-04-19T16:22:39Z</time></trkpt><trkpt lat="46.51182209930714" lon="12.406354015257339"><ele>1813.0</ele><time>2026-04-19T16:22:42Z</time></trkpt><trkpt lat="46.51188888231713" lon="12.406354816287996"><ele>1813.0</ele><time>2026-04-19T16:22:45Z</time></trkpt><trkpt lat="46.51196000378013" lon="12.406349135815466"><ele>1813.0</ele><time>2026-04-19T16:22:48Z</time></trkpt><trkpt lat="46.512033341027255" lon="12.40633183771934"><ele>1813.0</ele><time>2026-04-19T16:22:51Z</time></trkpt><trkpt lat="46.512101415896225" lon="12.406301664300694"><ele>1813.0</ele><time>2026-04-19T16:22:54Z</time></trkpt><trkpt lat="46.51216039452206" lon="12.40625563943655"><ele>1813.0</ele><time>2026-04-19T16:23:38.999Z</time></trkpt><trkpt lat="46.512208784270975" lon="12.406185750048078"><ele>1813.0</ele><time>2026-04-19T16:23:44.999Z</time></trkpt><trkpt lat="46.51226361035526" lon="12.40611863502907"><ele>1811.2857142857142</ele><time>2026-04-19T16:23:48.999Z</time></trkpt><trkpt lat="46.51231530112197" lon="12.40606019553025"><ele>1809.5714285714284</ele><time>2026-04-19T16:23:52.999Z</time></trkpt><trkpt lat="46.512356811129266" lon="12.405982365992601"><ele>1807.857142857143</ele><time>2026-04-19T16:23:58Z</time></trkpt><trkpt lat="46.512374120480885" lon="12.405892666837397"><ele>1806.142857142857</ele><time>2026-04-19T16:24:05Z</time></trkpt><trkpt lat="46.51239520358382" lon="12.405790634649971"><ele>1804.4285714285713</ele><time>2026-04-19T16:24:08Z</time></trkpt><trkpt lat="46.51240820843952" lon="12.405700883400918"><ele>1802.7142857142858</ele><time>2026-04-19T16:24:11Z</time></trkpt><trkpt lat="46.51243087607946" lon="12.405597180743365"><ele>1801.0</ele><time>2026-04-19T16:24:43Z</time></trkpt><trkpt lat="46.512456071876784" lon="12.405506385704916"><ele>1802.6</ele><time>2026-04-19T16:24:45.999Z</time></trkpt><trkpt lat="46.512507684151416" lon="12.40537957615136"><ele>1804.1999999999998</ele><time>2026-04-19T16:24:48.999Z</time></trkpt><trkpt lat="46.512550901655814" lon="12.405233849931326"><ele>1805.8000000000002</ele><time>2026-04-19T16:24:50.999Z</time></trkpt><trkpt lat="46.51254443798441" lon="12.405087139116215"><ele>1807.4</ele><time>2026-04-19T16:24:52.999Z</time></trkpt><trkpt lat="46.51252528373292" lon="12.4049413295959"><ele>1809.0</ele><time>2026-04-19T16:24:54.999Z</time></trkpt><trkpt lat="46.51249913174031" lon="12.404837458800355"><ele>1809.0</ele><time>2026-04-19T16:24:56.999Z</time></trkpt><trkpt lat="46.512469463344324" lon="12.40472632752537"><ele>1809.0</ele><time>2026-04-19T16:26:19Z</time></trkpt><trkpt lat="46.51249924325946" lon="12.404579510845645"><ele>1809.0</ele><time>2026-04-19T16:26:21Z</time></trkpt><trkpt lat="46.51250611985173" lon="12.404395542933889"><ele>1809.0</ele><time>2026-04-19T16:26:23Z</time></trkpt><trkpt lat="46.51251373598837" lon="12.404296461123124"><ele>1809.0</ele><time>2026-04-19T16:26:24Z</time></trkpt><trkpt lat="46.51252344054572" lon="12.404203228829275"><ele>1809.0</ele><time>2026-04-19T16:26:25Z</time></trkpt><trkpt lat="46.51253932336971" lon="12.404028565341312"><ele>1810.0</ele><time>2026-04-19T16:26:27Z</time></trkpt><trkpt lat="46.5125489976175" lon="12.403873274179313"><ele>1811.0</ele><time>2026-04-19T16:26:29Z</time></trkpt><trkpt lat="46.51261401089419" lon="12.403809508168944"><ele>1812.0</ele><time>2026-04-19T16:26:31Z</time></trkpt><trkpt lat="46.512701778317926" lon="12.403769214017906"><ele>1813.0</ele><time>2026-04-19T16:26:33Z</time></trkpt><trkpt lat="46.51277437794875" lon="12.403703033616118"><ele>1814.0</ele><time>2026-04-19T16:26:35Z</time></trkpt><trkpt lat="46.512706547707886" lon="12.403763178136165"><ele>1815.0</ele><time>2026-04-19T16:26:55Z</time></trkpt><trkpt lat="46.51262301131396" lon="12.403801848525369"><ele>1815.0</ele><time>2026-04-19T16:26:58Z</time></trkpt><trkpt lat="46.51257369083555" lon="12.403869276019464"><ele>1815.0</ele><time>2026-04-19T16:27:00Z</time></trkpt><trkpt lat="46.51251856184537" lon="12.403948693340073"><ele>1815.0</ele><time>2026-04-19T16:27:02Z</time></trkpt><trkpt lat="46.51245320860509" lon="12.403962311052402"><ele>1815.0</ele><time>2026-04-19T16:27:04Z</time></trkpt><trkpt lat="46.51251982325787" lon="12.404387359204414"><ele>1815.0</ele><time>2026-04-19T16:27:05Z</time></trkpt><trkpt lat="46.51250953835526" lon="12.404493542291512"><ele>1815.0</ele><time>2026-04-19T16:27:06Z</time></trkpt><trkpt lat="46.512503900487964" lon="12.404595219263095"><ele>1815.0</ele><time>2026-04-19T16:27:07Z</time></trkpt><trkpt lat="46.51250156985257" lon="12.404694725455101"><ele>1815.0</ele><time>2026-04-19T16:27:08Z</time></trkpt><trkpt lat="46.512504467374335" lon="12.404845799157494"><ele>1815.0</ele><time>2026-04-19T16:27:09.999Z</time></trkpt><trkpt lat="46.51252105392224" lon="12.404935037820474"><ele>1815.0</ele><time>2026-04-19T16:27:18.999Z</time></trkpt><trkpt lat="46.512495912948836" lon="12.405019216403847"><ele>1815.0</ele><time>2026-04-19T16:27:20.999Z</time></trkpt><trkpt lat="46.51250928683992" lon="12.405117703237977"><ele>1813.0</ele><time>2026-04-19T16:27:22.999Z</time></trkpt><trkpt lat="46.51251351925892" lon="12.405212120272397"><ele>1811.0</ele><time>2026-04-19T16:27:27.999Z</time></trkpt><trkpt lat="46.5125257652913" lon="12.40530611793004"><ele>1809.0</ele><time>2026-04-19T16:27:32.999Z</time></trkpt><trkpt lat="46.51270313353255" lon="12.405737490981359"><ele>1809.0</ele><time>2026-04-19T16:27:37.999Z</time></trkpt><trkpt lat="46.51278938243876" lon="12.405756707055488"><ele>1809.0</ele><time>2026-04-19T16:27:39.999Z</time></trkpt><trkpt lat="46.51283898852253" lon="12.405469258968047"><ele>1809.0</ele><time>2026-04-19T16:27:41.999Z</time></trkpt><trkpt lat="46.512898653340294" lon="12.40551741198313"><ele>1809.0</ele><time>2026-04-19T16:27:44.999Z</time></trkpt><trkpt lat="46.51295334386163" lon="12.405593965560364"><ele>1809.0</ele><time>2026-04-19T16:27:48.999Z</time></trkpt><trkpt lat="46.51295296778917" lon="12.405701843583767"><ele>1807.0</ele><time>2026-04-19T16:27:52.999Z</time></trkpt><trkpt lat="46.51300863123117" lon="12.40575530443586"><ele>1805.0</ele><time>2026-04-19T16:27:58.999Z</time></trkpt><trkpt lat="46.51308212519981" lon="12.405733645663972"><ele>1803.0</ele><time>2026-04-19T16:28:06.999Z</time></trkpt><trkpt lat="46.513150552437" lon="12.405725819486065"><ele>1801.0</ele><time>2026-04-19T16:28:11Z</time></trkpt><trkpt lat="46.51323012550341" lon="12.405718123005878"><ele>1799.0</ele><time>2026-04-19T16:28:14Z</time></trkpt><trkpt lat="46.513311153824446" lon="12.405727978493399"><ele>1797.0</ele><time>2026-04-19T16:28:16Z</time></trkpt><trkpt lat="46.51337737004493" lon="12.405813615025162"><ele>1797.0</ele><time>2026-04-19T16:28:18Z</time></trkpt><trkpt lat="46.51343005301514" lon="12.40588969100582"><ele>1797.0</ele><time>2026-04-19T16:28:21Z</time></trkpt><trkpt lat="46.51349242909683" lon="12.405905493056569"><ele>1797.0</ele><time>2026-04-19T16:28:28Z</time></trkpt><trkpt lat="46.51357429964017" lon="12.405883365985352"><ele>1797.0</ele><time>2026-04-19T16:28:32Z</time></trkpt><trkpt lat="46.513640476648064" lon="12.405847360442037"><ele>1797.0</ele><time>2026-04-19T16:28:35Z</time></trkpt><trkpt lat="46.513712310513185" lon="12.405807296427996"><ele>1797.0</ele><time>2026-04-19T16:28:50Z</time></trkpt><trkpt lat="46.51378400710767" lon="12.405784779894397"><ele>1797.0</ele><time>2026-04-19T16:28:53Z</time></trkpt><trkpt lat="46.513848265851024" lon="12.405803031809324"><ele>1796.0</ele><time>2026-04-19T16:28:57Z</time></trkpt><trkpt lat="46.513912235230414" lon="12.405817993091366"><ele>1795.0</ele><time>2026-04-19T16:29:00Z</time></trkpt><trkpt lat="46.5139770184157" lon="12.405841297209223"><ele>1794.0</ele><time>2026-04-19T16:29:02Z</time></trkpt><trkpt lat="46.514059478145455" lon="12.405837413159134"><ele>1793.0</ele><time>2026-04-19T16:29:04Z</time></trkpt><trkpt lat="46.514126451586705" lon="12.405871952231948"><ele>1792.0</ele><time>2026-04-19T16:29:08Z</time></trkpt><trkpt lat="46.51418800285659" lon="12.405943375066858"><ele>1791.0</ele><time>2026-04-19T16:29:12Z</time></trkpt><trkpt lat="46.51425034233098" lon="12.406015737755864"><ele>1790.0</ele><time>2026-04-19T16:29:17.999Z</time></trkpt><trkpt lat="46.51431631856764" lon="12.406058892348586"><ele>1790.0</ele><time>2026-04-19T16:29:20.999Z</time></trkpt><trkpt lat="46.51437705916379" lon="12.40609646738813"><ele>1790.0</ele><time>2026-04-19T16:29:23.999Z</time></trkpt><trkpt lat="46.51444534687011" lon="12.406130000978218"><ele>1790.0</ele><time>2026-04-19T16:29:26.999Z</time></trkpt><trkpt lat="46.51451839414463" lon="12.406170983751258"><ele>1790.0</ele><time>2026-04-19T16:29:29.999Z</time></trkpt><trkpt lat="46.51459033897362" lon="12.406203364576884"><ele>1790.0</ele><time>2026-04-19T16:29:32.999Z</time></trkpt><trkpt lat="46.51465684911884" lon="12.406215465731123"><ele>1790.0</ele><time>2026-04-19T16:29:37.999Z</time></trkpt><trkpt lat="46.514723974783784" lon="12.40622331282716"><ele>1790.0</ele><time>2026-04-19T16:29:45.999Z</time></trkpt><trkpt lat="46.514793177539985" lon="12.406201175435923"><ele>1788.3333333333333</ele><time>2026-04-19T16:29:53.999Z</time></trkpt><trkpt lat="46.514862650278076" lon="12.406174022673188"><ele>1786.6666666666665</ele><time>2026-04-19T16:29:59.999Z</time></trkpt><trkpt lat="46.5149356575484" lon="12.406146384001536"><ele>1785.0</ele><time>2026-04-19T16:30:12.999Z</time></trkpt><trkpt lat="46.515002050104876" lon="12.40612410220103"><ele>1783.3333333333335</ele><time>2026-04-19T16:30:17Z</time></trkpt><trkpt lat="46.515079080172114" lon="12.406118791911746"><ele>1781.6666666666667</ele><time>2026-04-19T16:30:21Z</time></trkpt><trkpt lat="46.51515275935451" lon="12.406127495383952"><ele>1780.0</ele><time>2026-04-19T16:30:23Z</time></trkpt><trkpt lat="46.51522888809683" lon="12.406196413364755"><ele>1780.0</ele><time>2026-04-19T16:30:25Z</time></trkpt><trkpt lat="46.51528240995578" lon="12.40632122048601"><ele>1780.0</ele><time>2026-04-19T16:30:27Z</time></trkpt><trkpt lat="46.51532248304221" lon="12.40646177625231"><ele>1780.0</ele><time>2026-04-19T16:30:29Z</time></trkpt><trkpt lat="46.515374093174145" lon="12.406571170531437"><ele>1780.0</ele><time>2026-04-19T16:30:31Z</time></trkpt><trkpt lat="46.51543908937373" lon="12.406672403668026"><ele>1780.0</ele><time>2026-04-19T16:30:33Z</time></trkpt><trkpt lat="46.51552045927937" lon="12.406769974285174"><ele>1778.3333333333335</ele><time>2026-04-19T16:30:35Z</time></trkpt><trkpt lat="46.51559867680041" lon="12.406892650908068"><ele>1776.6666666666667</ele><time>2026-04-19T16:30:37Z</time></trkpt><trkpt lat="46.515668052599814" lon="12.4069673071162"><ele>1775.0</ele><time>2026-04-19T16:30:39Z</time></trkpt><trkpt lat="46.5157268905123" lon="12.40701501813145"><ele>1773.3333333333335</ele><time>2026-04-19T16:30:41Z</time></trkpt><trkpt lat="46.5157775857305" lon="12.407087393919277"><ele>1771.6666666666667</ele><time>2026-04-19T16:30:43Z</time></trkpt><trkpt lat="46.51585950124118" lon="12.407189186194039"><ele>1770.0</ele><time>2026-04-19T16:30:45Z</time></trkpt><trkpt lat="46.515949829879695" lon="12.407310838856013"><ele>1769.4285714285713</ele><time>2026-04-19T16:30:47Z</time></trkpt><trkpt lat="46.51599424862399" lon="12.407378580229215"><ele>1768.8571428571427</ele><time>2026-04-19T16:30:48Z</time></trkpt><trkpt lat="46.516037757245165" lon="12.407449892622761"><ele>1768.2857142857142</ele><time>2026-04-19T16:30:49Z</time></trkpt><trkpt lat="46.51607960019338" lon="12.407522911286403"><ele>1767.7142857142858</ele><time>2026-04-19T16:30:50Z</time></trkpt><trkpt lat="46.51611517961885" lon="12.40760540634599"><ele>1767.142857142857</ele><time>2026-04-19T16:30:51Z</time></trkpt><trkpt lat="46.51613350923986" lon="12.407700167712045"><ele>1766.5714285714287</ele><time>2026-04-19T16:30:52Z</time></trkpt><trkpt lat="46.516158266917934" lon="12.407794088475805"><ele>1766.0</ele><time>2026-04-19T16:30:53Z</time></trkpt><trkpt lat="46.516205475410466" lon="12.407864159298166"><ele>1767.0</ele><time>2026-04-19T16:30:54Z</time></trkpt><trkpt lat="46.51629068892021" lon="12.407999820766298"><ele>1768.0</ele><time>2026-04-19T16:30:56Z</time></trkpt><trkpt lat="46.51634523084788" lon="12.408083163605626"><ele>1769.0</ele><time>2026-04-19T16:30:57Z</time></trkpt><trkpt lat="46.51642333721587" lon="12.408197035613595"><ele>1770.0</ele><time>2026-04-19T16:30:58Z</time></trkpt><trkpt lat="46.51648991220191" lon="12.408304849500137"><ele>1771.0</ele><time>2026-04-19T16:30:59Z</time></trkpt><trkpt lat="46.51652874320498" lon="12.408387126825941"><ele>1771.0</ele><time>2026-04-19T16:31:00Z</time></trkpt><trkpt lat="46.51660787481514" lon="12.40849100291392"><ele>1771.0</ele><time>2026-04-19T16:31:02Z</time></trkpt><trkpt lat="46.51662988269348" lon="12.408604576800439"><ele>1771.0</ele><time>2026-04-19T16:31:03Z</time></trkpt><trkpt lat="46.516675456413964" lon="12.40874253559393"><ele>1771.0</ele><time>2026-04-19T16:31:05Z</time></trkpt><trkpt lat="46.516671403254676" lon="12.408888569316543"><ele>1771.0</ele><time>2026-04-19T16:31:07Z</time></trkpt><trkpt lat="46.51664833462431" lon="12.40903266029087"><ele>1770.6666666666667</ele><time>2026-04-19T16:31:09Z</time></trkpt><trkpt lat="46.51667031973558" lon="12.40915457259248"><ele>1770.3333333333335</ele><time>2026-04-19T16:31:11Z</time></trkpt><trkpt lat="46.51668609168145" lon="12.409244473436805"><ele>1770.0</ele><time>2026-04-19T16:31:45.999Z</time></trkpt><trkpt lat="46.51666879788346" lon="12.409145896960549"><ele>1769.6666666666665</ele><time>2026-04-19T16:31:57.999Z</time></trkpt><trkpt lat="46.516645815794604" lon="12.408996142634534"><ele>1769.3333333333333</ele><time>2026-04-19T16:31:59.999Z</time></trkpt><trkpt lat="46.51664311047248" lon="12.408879916935506"><ele>1769.0</ele><time>2026-04-19T16:32:01.999Z</time></trkpt><trkpt lat="46.51675760260107" lon="12.408856135562676"><ele>1768.9999999999998</ele><time>2026-04-19T16:32:03.999Z</time></trkpt><trkpt lat="46.516840452692364" lon="12.408917235197785"><ele>1769.0</ele><time>2026-04-19T16:32:05.999Z</time></trkpt><trkpt lat="46.516886477139515" lon="12.4089799587863"><ele>1769.0</ele><time>2026-04-19T16:32:06.999Z</time></trkpt><trkpt lat="46.51692323766028" lon="12.40907693312577"><ele>1769.0</ele><time>2026-04-19T16:32:07.999Z</time></trkpt><trkpt lat="46.51698500677393" lon="12.40913425520933"><ele>1768.9999999999998</ele><time>2026-04-19T16:32:08.999Z</time></trkpt><trkpt lat="46.51705497884194" lon="12.409209065518924"><ele>1769.0</ele><time>2026-04-19T16:32:09.999Z</time></trkpt><trkpt lat="46.51711859925375" lon="12.409292924189426"><ele>1769.1666666666665</ele><time>2026-04-19T16:32:10.999Z</time></trkpt><trkpt lat="46.517178257589435" lon="12.409379387368025"><ele>1769.3333333333333</ele><time>2026-04-19T16:32:11.999Z</time></trkpt><trkpt lat="46.51723694152373" lon="12.409471969217995"><ele>1769.5</ele><time>2026-04-19T16:32:12.999Z</time></trkpt><trkpt lat="46.517293045188275" lon="12.409562097820098"><ele>1769.6666666666665</ele><time>2026-04-19T16:32:13.999Z</time></trkpt><trkpt lat="46.517357212713414" lon="12.409628688019417"><ele>1769.8333333333333</ele><time>2026-04-19T16:32:14.999Z</time></trkpt><trkpt lat="46.51740136946293" lon="12.409699258719726"><ele>1770.0</ele><time>2026-04-19T16:32:15.999Z</time></trkpt><trkpt lat="46.51745061440825" lon="12.409768884818444"><ele>1770.8333333333333</ele><time>2026-04-19T16:32:16.999Z</time></trkpt><trkpt lat="46.51749421324036" lon="12.409858520382524"><ele>1771.6666666666665</ele><time>2026-04-19T16:32:17.999Z</time></trkpt><trkpt lat="46.517562915428655" lon="12.409912649561738"><ele>1772.5</ele><time>2026-04-19T16:32:19Z</time></trkpt><trkpt lat="46.51762457317771" lon="12.409987983777356"><ele>1773.3333333333333</ele><time>2026-04-19T16:32:20Z</time></trkpt><trkpt lat="46.5176839581895" lon="12.410079759325788"><ele>1774.1666666666665</ele><time>2026-04-19T16:32:21Z</time></trkpt><trkpt lat="46.51773361588833" lon="12.410153573103035"><ele>1775.0</ele><time>2026-04-19T16:32:22Z</time></trkpt><trkpt lat="46.517783980937" lon="12.410240683437085"><ele>1774.9999999999998</ele><time>2026-04-19T16:32:23Z</time></trkpt><trkpt lat="46.51784059210595" lon="12.410310600987481"><ele>1775.0</ele><time>2026-04-19T16:32:24Z</time></trkpt><trkpt lat="46.517904058321925" lon="12.410377674711057"><ele>1775.0</ele><time>2026-04-19T16:32:25Z</time></trkpt><trkpt lat="46.51797033367091" lon="12.410440590205479"><ele>1775.0</ele><time>2026-04-19T16:32:26Z</time></trkpt><trkpt lat="46.51803567273521" lon="12.410502239885842"><ele>1774.9999999999998</ele><time>2026-04-19T16:32:27Z</time></trkpt><trkpt lat="46.51809935479083" lon="12.41055582716307"><ele>1775.0</ele><time>2026-04-19T16:32:28Z</time></trkpt><trkpt lat="46.51816833243316" lon="12.410584040865313"><ele>1777.0000000000002</ele><time>2026-04-19T16:32:29Z</time></trkpt><trkpt lat="46.518239501530935" lon="12.41055478354022"><ele>1779.0</ele><time>2026-04-19T16:32:30Z</time></trkpt><trkpt lat="46.51830758695899" lon="12.410535779540771"><ele>1781.0</ele><time>2026-04-19T16:32:31Z</time></trkpt><trkpt lat="46.518374210641944" lon="12.410523556099065"><ele>1783.0</ele><time>2026-04-19T16:32:32Z</time></trkpt><trkpt lat="46.518439608458344" lon="12.410530808318294"><ele>1785.0</ele><time>2026-04-19T16:32:33Z</time></trkpt><trkpt lat="46.51849011632343" lon="12.410588904064957"><ele>1787.0000000000002</ele><time>2026-04-19T16:32:34Z</time></trkpt><trkpt lat="46.518583632765946" lon="12.410659703931598"><ele>1789.0</ele><time>2026-04-19T16:32:36Z</time></trkpt><trkpt lat="46.51864181186266" lon="12.410695623553742"><ele>1789.0000000000002</ele><time>2026-04-19T16:32:37Z</time></trkpt><trkpt lat="46.518705917858256" lon="12.410715747245279"><ele>1789.0</ele><time>2026-04-19T16:32:38Z</time></trkpt><trkpt lat="46.51879927052655" lon="12.41068850878816"><ele>1789.0</ele><time>2026-04-19T16:32:40Z</time></trkpt><trkpt lat="46.51886901286562" lon="12.410686557232372"><ele>1789.0</ele><time>2026-04-19T16:32:43Z</time></trkpt><trkpt lat="46.51894972550797" lon="12.410693605098826"><ele>1789.0000000000002</ele><time>2026-04-19T16:33:50.999Z</time></trkpt><trkpt lat="46.51901001592925" lon="12.410643170118144"><ele>1789.0</ele><time>2026-04-19T16:33:58.999Z</time></trkpt><trkpt lat="46.5190518238729" lon="12.410548668687628"><ele>1787.857142857143</ele><time>2026-04-19T16:34:06.999Z</time></trkpt><trkpt lat="46.519080793095384" lon="12.410459122143289"><ele>1786.7142857142858</ele><time>2026-04-19T16:34:09.999Z</time></trkpt><trkpt lat="46.51911849205904" lon="12.410378303942242"><ele>1785.5714285714284</ele><time>2026-04-19T16:34:14.999Z</time></trkpt><trkpt lat="46.5191690095563" lon="12.410318258941937"><ele>1784.4285714285716</ele><time>2026-04-19T16:34:33Z</time></trkpt><trkpt lat="46.519218173477284" lon="12.41024954324341"><ele>1783.2857142857142</ele><time>2026-04-19T16:34:45Z</time></trkpt><trkpt lat="46.519261656734066" lon="12.410172582774532"><ele>1782.142857142857</ele><time>2026-04-19T16:34:51Z</time></trkpt><trkpt lat="46.51932863025259" lon="12.410149537537945"><ele>1781.0</ele><time>2026-04-19T16:34:56Z</time></trkpt><trkpt lat="46.51939535831431" lon="12.41011245215217"><ele>1780.9999999999998</ele><time>2026-04-19T16:35:02Z</time></trkpt><trkpt lat="46.51946732642673" lon="12.410104557947014"><ele>1781.0</ele><time>2026-04-19T16:35:18Z</time></trkpt><trkpt lat="46.519536840321756" lon="12.410144889449409"><ele>1781.0</ele><time>2026-04-19T16:35:27Z</time></trkpt><trkpt lat="46.51959408816688" lon="12.410183428202632"><ele>1781.0</ele><time>2026-04-19T16:35:32Z</time></trkpt><trkpt lat="46.519657271768196" lon="12.410233127460685"><ele>1781.0</ele><time>2026-04-19T16:35:46.999Z</time></trkpt><trkpt lat="46.51971856272516" lon="12.410259322792925"><ele>1780.9999999999998</ele><time>2026-04-19T16:35:50.999Z</time></trkpt><trkpt lat="46.51978072914994" lon="12.410307966841373"><ele>1781.0</ele><time>2026-04-19T16:36:04.999Z</time></trkpt><trkpt lat="46.51982807256902" lon="12.410374788584367"><ele>1778.1666666666665</ele><time>2026-04-19T16:36:18.999Z</time></trkpt><trkpt lat="46.51989619453021" lon="12.41041012116029"><ele>1775.3333333333333</ele><time>2026-04-19T16:36:40Z</time></trkpt><trkpt lat="46.51996791158236" lon="12.410405149865827"><ele>1772.5</ele><time>2026-04-19T16:37:02Z</time></trkpt><trkpt lat="46.52004283062849" lon="12.410371929197868"><ele>1769.6666666666665</ele><time>2026-04-19T16:37:05Z</time></trkpt><trkpt lat="46.52013703212217" lon="12.410364551768343"><ele>1766.8333333333333</ele><time>2026-04-19T16:37:08Z</time></trkpt><trkpt lat="46.520221907940154" lon="12.410391693645813"><ele>1764.0</ele><time>2026-04-19T16:37:11Z</time></trkpt><trkpt lat="46.520290797687494" lon="12.410422788165636"><ele>1764.0</ele><time>2026-04-19T16:37:14Z</time></trkpt><trkpt lat="46.52035311185759" lon="12.410444987182505"><ele>1764.0</ele><time>2026-04-19T16:37:17Z</time></trkpt><trkpt lat="46.52041665706051" lon="12.410434992895338"><ele>1764.0</ele><time>2026-04-19T16:37:29Z</time></trkpt><trkpt lat="46.52048053800963" lon="12.41041956366071"><ele>1764.0</ele><time>2026-04-19T16:37:39.999Z</time></trkpt><trkpt lat="46.52055612182523" lon="12.410378640618715"><ele>1764.0</ele><time>2026-04-19T16:37:56.999Z</time></trkpt><trkpt lat="46.520619266896595" lon="12.410339702326725"><ele>1764.0</ele><time>2026-04-19T16:37:59.999Z</time></trkpt><trkpt lat="46.520690685299776" lon="12.410294976626057"><ele>1764.0</ele><time>2026-04-19T16:38:32.999Z</time></trkpt><trkpt lat="46.52078219429842" lon="12.4103115665547"><ele>1759.75</ele><time>2026-04-19T16:39:21Z</time></trkpt><trkpt lat="46.52079570321927" lon="12.410533613139435"><ele>1755.5</ele><time>2026-04-19T16:39:38Z</time></trkpt><trkpt lat="46.52086007691659" lon="12.410553107412749"><ele>1751.25</ele><time>2026-04-19T16:40:07.999Z</time></trkpt><trkpt lat="46.52097147434722" lon="12.410262420549213"><ele>1747.0</ele><time>2026-04-19T16:41:29Z</time></trkpt><trkpt lat="46.520997913051794" lon="12.410175820814759"><ele>1747.0000000000002</ele><time>2026-04-19T16:41:44Z</time></trkpt><trkpt lat="46.521041852873196" lon="12.410084875869583"><ele>1747.0</ele><time>2026-04-19T16:42:15.999Z</time></trkpt><trkpt lat="46.521091725923924" lon="12.409999567427503"><ele>1747.0</ele><time>2026-04-19T16:42:24.999Z</time></trkpt><trkpt lat="46.52114535811645" lon="12.409939523911605"><ele>1747.0</ele><time>2026-04-19T16:43:00Z</time></trkpt><trkpt lat="46.52121240903025" lon="12.409892486109223"><ele>1747.0</ele><time>2026-04-19T16:43:11Z</time></trkpt><trkpt lat="46.521279766429274" lon="12.409860842543033"><ele>1747.0000000000002</ele><time>2026-04-19T16:43:21Z</time></trkpt><trkpt lat="46.521350313644234" lon="12.409839908575988"><ele>1747.0</ele><time>2026-04-19T16:43:34Z</time></trkpt><trkpt lat="46.52142139059071" lon="12.409832244606994"><ele>1743.6666666666667</ele><time>2026-04-19T16:43:43Z</time></trkpt><trkpt lat="46.521487870898156" lon="12.409829628298457"><ele>1740.3333333333335</ele><time>2026-04-19T16:43:53Z</time></trkpt><trkpt lat="46.52155354334204" lon="12.40982197656882"><ele>1737.0</ele><time>2026-04-19T16:44:02.999Z</time></trkpt><trkpt lat="46.52162840827731" lon="12.409804761465637"><ele>1733.6666666666665</ele><time>2026-04-19T16:44:09.999Z</time></trkpt><trkpt lat="46.521715362916304" lon="12.409793996391778"><ele>1730.3333333333333</ele><time>2026-04-19T16:44:13.999Z</time></trkpt><trkpt lat="46.521795127524825" lon="12.409771438345697"><ele>1727.0</ele><time>2026-04-19T16:44:16.999Z</time></trkpt><trkpt lat="46.52187469889094" lon="12.409786129930275"><ele>1727.0</ele><time>2026-04-19T16:44:19.999Z</time></trkpt><trkpt lat="46.5219464662062" lon="12.40982436874794"><ele>1727.0</ele><time>2026-04-19T16:44:22.999Z</time></trkpt><trkpt lat="46.52201386613525" lon="12.409849161495124"><ele>1727.0</ele><time>2026-04-19T16:44:26.999Z</time></trkpt><trkpt lat="46.52206555086557" lon="12.409907940754191"><ele>1727.0</ele><time>2026-04-19T16:44:31.999Z</time></trkpt><trkpt lat="46.52212928270396" lon="12.409895268376431"><ele>1727.0</ele><time>2026-04-19T16:44:38.999Z</time></trkpt><trkpt lat="46.52219730138907" lon="12.409867531976062"><ele>1727.0</ele><time>2026-04-19T16:44:43.999Z</time></trkpt><trkpt lat="46.522257119256174" lon="12.409837252218821"><ele>1727.0</ele><time>2026-04-19T16:44:46.999Z</time></trkpt><trkpt lat="46.522323301764196" lon="12.409818311540846"><ele>1724.1666666666665</ele><time>2026-04-19T16:44:56Z</time></trkpt><trkpt lat="46.52239160998174" lon="12.409814347425375"><ele>1721.3333333333333</ele><time>2026-04-19T16:45:02Z</time></trkpt><trkpt lat="46.52245655186385" lon="12.40979226422058"><ele>1718.5</ele><time>2026-04-19T16:45:04Z</time></trkpt><trkpt lat="46.522539032136116" lon="12.409762958788036"><ele>1715.6666666666665</ele><time>2026-04-19T16:45:06Z</time></trkpt><trkpt lat="46.522612288855704" lon="12.409736202919648"><ele>1712.8333333333333</ele><time>2026-04-19T16:45:08Z</time></trkpt><trkpt lat="46.522687190891155" lon="12.409707395608217"><ele>1710.0</ele><time>2026-04-19T16:45:10Z</time></trkpt><trkpt lat="46.52275795405578" lon="12.409657281873672"><ele>1709.0</ele><time>2026-04-19T16:45:12Z</time></trkpt><trkpt lat="46.522826264169666" lon="12.409628239515879"><ele>1708.0</ele><time>2026-04-19T16:45:14Z</time></trkpt><trkpt lat="46.522933159674544" lon="12.409594574293424"><ele>1707.0</ele><time>2026-04-19T16:45:16Z</time></trkpt><trkpt lat="46.52306288700432" lon="12.409540975672869"><ele>1706.0</ele><time>2026-04-19T16:45:18Z</time></trkpt><trkpt lat="46.523135741658635" lon="12.409531797530837"><ele>1705.0</ele><time>2026-04-19T16:45:19Z</time></trkpt><trkpt lat="46.52320078963008" lon="12.40950508585766"><ele>1705.0</ele><time>2026-04-19T16:45:20Z</time></trkpt><trkpt lat="46.52331990637971" lon="12.409484415611601"><ele>1705.0</ele><time>2026-04-19T16:45:22Z</time></trkpt><trkpt lat="46.52338317085568" lon="12.409481371170587"><ele>1705.0</ele><time>2026-04-19T16:45:23Z</time></trkpt><trkpt lat="46.523495793144654" lon="12.409503939018222"><ele>1705.0</ele><time>2026-04-19T16:45:25Z</time></trkpt><trkpt lat="46.52357627942515" lon="12.40951720875566"><ele>1705.0</ele><time>2026-04-19T16:45:27Z</time></trkpt><trkpt lat="46.52365104509302" lon="12.4094919137757"><ele>1705.0000000000002</ele><time>2026-04-19T16:45:29Z</time></trkpt><trkpt lat="46.523726654590774" lon="12.409466928965687"><ele>1705.0</ele><time>2026-04-19T16:45:32Z</time></trkpt><trkpt lat="46.523788882811445" lon="12.409450145651778"><ele>1705.0</ele><time>2026-04-19T16:45:42Z</time></trkpt><trkpt lat="46.52385652675747" lon="12.40942422600716"><ele>1705.0</ele><time>2026-04-19T16:46:08Z</time></trkpt><trkpt lat="46.52391892136712" lon="12.409394812200585"><ele>1705.0</ele><time>2026-04-19T16:46:18.999Z</time></trkpt><trkpt lat="46.52398257776844" lon="12.409374534451512"><ele>1705.0000000000002</ele><time>2026-04-19T16:46:37.999Z</time></trkpt><trkpt lat="46.52405056329228" lon="12.409356306870567"><ele>1705.0</ele><time>2026-04-19T16:46:44.999Z</time></trkpt><trkpt lat="46.524123092617145" lon="12.409327557698411"><ele>1704.7142857142858</ele><time>2026-04-19T16:46:53.999Z</time></trkpt><trkpt lat="46.52419789602453" lon="12.409305345105714"><ele>1704.4285714285716</ele><time>2026-04-19T16:46:56.999Z</time></trkpt><trkpt lat="46.52425114330317" lon="12.409248363985496"><ele>1704.1428571428573</ele><time>2026-04-19T16:47:00Z</time></trkpt><trkpt lat="46.524305879767304" lon="12.409188040249507"><ele>1703.857142857143</ele><time>2026-04-19T16:47:03Z</time></trkpt><trkpt lat="46.52434621053371" lon="12.409076998621224"><ele>1703.5714285714284</ele><time>2026-04-19T16:47:06Z</time></trkpt><trkpt lat="46.524338025217205" lon="12.408973373391472"><ele>1703.2857142857144</ele><time>2026-04-19T16:47:08Z</time></trkpt><trkpt lat="46.524335133750775" lon="12.40887430031093"><ele>1703.0</ele><time>2026-04-19T16:47:10Z</time></trkpt><trkpt lat="46.52430335554119" lon="12.408790105615612"><ele>1700.1666666666665</ele><time>2026-04-19T16:47:12Z</time></trkpt><trkpt lat="46.52426395150033" lon="12.408690253038968"><ele>1697.3333333333333</ele><time>2026-04-19T16:47:15Z</time></trkpt><trkpt lat="46.52432762378827" lon="12.408614815430887"><ele>1694.5</ele><time>2026-04-19T16:47:18Z</time></trkpt><trkpt lat="46.524401759843194" lon="12.408606078511456"><ele>1691.6666666666665</ele><time>2026-04-19T16:47:20Z</time></trkpt><trkpt lat="46.524481597911404" lon="12.40861606043991"><ele>1688.8333333333333</ele><time>2026-04-19T16:47:22Z</time></trkpt><trkpt lat="46.52456260987067" lon="12.40862417704303"><ele>1686.0</ele><time>2026-04-19T16:47:24Z</time></trkpt><trkpt lat="46.524645806471284" lon="12.408634099530895"><ele>1683.8333333333333</ele><time>2026-04-19T16:47:26Z</time></trkpt><trkpt lat="46.52472069729255" lon="12.408663054944101"><ele>1681.6666666666665</ele><time>2026-04-19T16:47:28Z</time></trkpt><trkpt lat="46.52478355153567" lon="12.408673527204375"><ele>1679.5</ele><time>2026-04-19T16:47:30Z</time></trkpt><trkpt lat="46.52487265841476" lon="12.408688373493035"><ele>1677.3333333333333</ele><time>2026-04-19T16:47:33Z</time></trkpt><trkpt lat="46.52496520531305" lon="12.408702203577763"><ele>1675.1666666666665</ele><time>2026-04-19T16:47:36Z</time></trkpt><trkpt lat="46.52503889460025" lon="12.408695915629922"><ele>1673.0</ele><time>2026-04-19T16:47:39Z</time></trkpt><trkpt lat="46.52510547410746" lon="12.40870606272102"><ele>1672.9999999999998</ele><time>2026-04-19T16:47:42Z</time></trkpt><trkpt lat="46.52516820342375" lon="12.408715121167997"><ele>1673.0</ele><time>2026-04-19T16:47:48Z</time></trkpt><trkpt lat="46.52524094696417" lon="12.40870287787956"><ele>1673.0</ele><time>2026-04-19T16:48:06Z</time></trkpt><trkpt lat="46.52531000822743" lon="12.408673369556366"><ele>1673.0</ele><time>2026-04-19T16:48:15Z</time></trkpt><trkpt lat="46.525383112828216" lon="12.408583623025626"><ele>1672.9999999999998</ele><time>2026-04-19T16:48:18Z</time></trkpt><trkpt lat="46.525426117640926" lon="12.40848317615716"><ele>1673.0</ele><time>2026-04-19T16:48:20Z</time></trkpt><trkpt lat="46.52545190191727" lon="12.408377327626416"><ele>1668.8333333333333</ele><time>2026-04-19T16:48:22Z</time></trkpt><trkpt lat="46.52546062209403" lon="12.408260268205298"><ele>1664.6666666666665</ele><time>2026-04-19T16:48:23.999Z</time></trkpt><trkpt lat="46.52547310327165" lon="12.408134928438141"><ele>1660.5</ele><time>2026-04-19T16:48:25.999Z</time></trkpt><trkpt lat="46.5255286804129" lon="12.408029861983808"><ele>1656.3333333333335</ele><time>2026-04-19T16:48:27.999Z</time></trkpt><trkpt lat="46.52560923206699" lon="12.408038804375414"><ele>1652.1666666666667</ele><time>2026-04-19T16:48:29.999Z</time></trkpt><trkpt lat="46.52567028824199" lon="12.40808296016029"><ele>1648.0</ele><time>2026-04-19T16:48:31.999Z</time></trkpt><trkpt lat="46.525751634407435" lon="12.408131487719867"><ele>1648.0000000000002</ele><time>2026-04-19T16:48:34.999Z</time></trkpt><trkpt lat="46.52584713307729" lon="12.408146590755516"><ele>1648.0</ele><time>2026-04-19T16:48:37.999Z</time></trkpt><trkpt lat="46.525910699881635" lon="12.408119024006869"><ele>1648.0</ele><time>2026-04-19T16:48:39.999Z</time></trkpt><trkpt lat="46.52598066383523" lon="12.40810188886282"><ele>1648.0</ele><time>2026-04-19T16:48:50.999Z</time></trkpt><trkpt lat="46.526042976269416" lon="12.408087375105948"><ele>1648.0000000000002</ele><time>2026-04-19T16:48:59.999Z</time></trkpt><trkpt lat="46.52611129357322" lon="12.408028718354625"><ele>1648.0</ele><time>2026-04-19T16:49:05Z</time></trkpt><trkpt lat="46.5261698266767" lon="12.407934873582612"><ele>1647.6000000000001</ele><time>2026-04-19T16:49:09Z</time></trkpt><trkpt lat="46.5261916626651" lon="12.407816653444163"><ele>1647.2</ele><time>2026-04-19T16:49:13Z</time></trkpt><trkpt lat="46.5260735061793" lon="12.407705647390204"><ele>1646.8</ele><time>2026-04-19T16:49:14Z</time></trkpt><trkpt lat="46.52603303457556" lon="12.407599172391908"><ele>1646.4</ele><time>2026-04-19T16:49:17Z</time></trkpt><trkpt lat="46.525975650686775" lon="12.407500074335926"><ele>1646.0</ele><time>2026-04-19T16:49:20Z</time></trkpt><trkpt lat="46.525924264678" lon="12.407437415884727"><ele>1646.0</ele><time>2026-04-19T16:49:22Z</time></trkpt><trkpt lat="46.52585642050837" lon="12.407374523618278"><ele>1646.0</ele><time>2026-04-19T16:49:24Z</time></trkpt><trkpt lat="46.52575118886803" lon="12.407335320594548"><ele>1646.0</ele><time>2026-04-19T16:49:26Z</time></trkpt><trkpt lat="46.525638118826635" lon="12.407308907677047"><ele>1646.0</ele><time>2026-04-19T16:49:28Z</time></trkpt><trkpt lat="46.525528606817645" lon="12.407286055271861"><ele>1646.0</ele><time>2026-04-19T16:49:30Z</time></trkpt><trkpt lat="46.5254241907601" lon="12.407261911759699"><ele>1647.0</ele><time>2026-04-19T16:49:32Z</time></trkpt><trkpt lat="46.52532408782063" lon="12.407247530214278"><ele>1648.0</ele><time>2026-04-19T16:49:34Z</time></trkpt><trkpt lat="46.525214917511214" lon="12.407217714141712"><ele>1649.0</ele><time>2026-04-19T16:49:36Z</time></trkpt><trkpt lat="46.525103276635726" lon="12.40716760787535"><ele>1650.0</ele><time>2026-04-19T16:49:38Z</time></trkpt><trkpt lat="46.52502331414217" lon="12.407129429473128"><ele>1651.0</ele><time>2026-04-19T16:49:40Z</time></trkpt><trkpt lat="46.52496089982377" lon="12.407097166059748"><ele>1647.6</ele><time>2026-04-19T16:49:43Z</time></trkpt><trkpt lat="46.524879977577996" lon="12.407047057636364"><ele>1644.1999999999998</ele><time>2026-04-19T16:49:48Z</time></trkpt><trkpt lat="46.524775799711" lon="12.40699951477391"><ele>1640.8000000000002</ele><time>2026-04-19T16:49:50Z</time></trkpt><trkpt lat="46.52465872920691" lon="12.406963627899625"><ele>1637.4</ele><time>2026-04-19T16:49:52Z</time></trkpt><trkpt lat="46.52455936963211" lon="12.406927989599197"><ele>1634.0</ele><time>2026-04-19T16:49:54Z</time></trkpt><trkpt lat="46.52444607416079" lon="12.406875637493634"><ele>1634.0</ele><time>2026-04-19T16:49:56Z</time></trkpt><trkpt lat="46.52435354920983" lon="12.406824379843782"><ele>1634.0</ele><time>2026-04-19T16:49:58Z</time></trkpt><trkpt lat="46.524252425566694" lon="12.406779487761817"><ele>1634.0</ele><time>2026-04-19T16:50:00Z</time></trkpt><trkpt lat="46.524140461556954" lon="12.406698948702914"><ele>1634.0</ele><time>2026-04-19T16:50:02Z</time></trkpt><trkpt lat="46.52406120726863" lon="12.406634168926711"><ele>1634.0</ele><time>2026-04-19T16:50:04Z</time></trkpt><trkpt lat="46.52395550756066" lon="12.406610516165093"><ele>1634.0</ele><time>2026-04-19T16:50:06Z</time></trkpt><trkpt lat="46.52388832488396" lon="12.4066233849156"><ele>1634.0</ele><time>2026-04-19T16:50:07Z</time></trkpt><trkpt lat="46.52382134921351" lon="12.406617205901508"><ele>1634.0</ele><time>2026-04-19T16:50:08Z</time></trkpt><trkpt lat="46.52371611345128" lon="12.40654899783773"><ele>1634.0</ele><time>2026-04-19T16:50:10Z</time></trkpt><trkpt lat="46.52366624291043" lon="12.40639558216092"><ele>1634.0</ele><time>2026-04-19T16:50:12Z</time></trkpt><trkpt lat="46.52367070756552" lon="12.40626829952155"><ele>1631.2857142857142</ele><time>2026-04-19T16:50:14Z</time></trkpt><trkpt lat="46.52362256677618" lon="12.406172165047133"><ele>1628.5714285714284</ele><time>2026-04-19T16:50:16Z</time></trkpt><trkpt lat="46.52354253976015" lon="12.406144814977017"><ele>1625.8571428571427</ele><time>2026-04-19T16:50:18Z</time></trkpt><trkpt lat="46.52345765871685" lon="12.406148241707902"><ele>1623.142857142857</ele><time>2026-04-19T16:50:20Z</time></trkpt><trkpt lat="46.52339256979559" lon="12.406155118709489"><ele>1620.4285714285716</ele><time>2026-04-19T16:50:22Z</time></trkpt><trkpt lat="46.52333050721" lon="12.40613762748931"><ele>1617.7142857142856</ele><time>2026-04-19T16:50:24Z</time></trkpt><trkpt lat="46.52329238454232" lon="12.406055384895476"><ele>1615.0</ele><time>2026-04-19T16:50:27Z</time></trkpt><trkpt lat="46.523344437891865" lon="12.405993920777256"><ele>1615.0</ele><time>2026-04-19T16:50:29Z</time></trkpt><trkpt lat="46.52343035630678" lon="12.405987763708717"><ele>1615.0</ele><time>2026-04-19T16:50:30.999Z</time></trkpt><trkpt lat="46.52352832512833" lon="12.40597513097242"><ele>1615.0</ele><time>2026-04-19T16:50:32.999Z</time></trkpt><trkpt lat="46.52362771229762" lon="12.405951536228216"><ele>1615.0</ele><time>2026-04-19T16:50:34.999Z</time></trkpt><trkpt lat="46.52373901151408" lon="12.405928885019957"><ele>1615.0</ele><time>2026-04-19T16:50:36.999Z</time></trkpt><trkpt lat="46.52385781600547" lon="12.405938511043118"><ele>1614.2</ele><time>2026-04-19T16:50:38.999Z</time></trkpt><trkpt lat="46.52396560064679" lon="12.405949248213371"><ele>1613.4</ele><time>2026-04-19T16:50:40.999Z</time></trkpt><trkpt lat="46.5240713324535" lon="12.405920701066595"><ele>1612.6</ele><time>2026-04-19T16:50:42.999Z</time></trkpt><trkpt lat="46.524178192924175" lon="12.40585805249928"><ele>1611.8</ele><time>2026-04-19T16:50:44.999Z</time></trkpt><trkpt lat="46.52427472742287" lon="12.405864923591658"><ele>1611.0</ele><time>2026-04-19T16:50:46.999Z</time></trkpt><trkpt lat="46.524355713350005" lon="12.405902156746782"><ele>1611.0</ele><time>2026-04-19T16:50:48.999Z</time></trkpt><trkpt lat="46.5244440317" lon="12.4059522892812"><ele>1611.0</ele><time>2026-04-19T16:50:50.999Z</time></trkpt><trkpt lat="46.524551127310524" lon="12.405982393495737"><ele>1611.0</ele><time>2026-04-19T16:50:52.999Z</time></trkpt><trkpt lat="46.5246603110033" lon="12.405997476342904"><ele>1611.0</ele><time>2026-04-19T16:50:54.999Z</time></trkpt><trkpt lat="46.52475650944842" lon="12.406009919487024"><ele>1611.0</ele><time>2026-04-19T16:50:56.999Z</time></trkpt><trkpt lat="46.52483940032221" lon="12.406030242132708"><ele>1609.0</ele><time>2026-04-19T16:50:58.999Z</time></trkpt><trkpt lat="46.52490427834936" lon="12.406003909841985"><ele>1607.0</ele><time>2026-04-19T16:51:01.999Z</time></trkpt><trkpt lat="46.52486363928671" lon="12.405905048728414"><ele>1605.0</ele><time>2026-04-19T16:52:04Z</time></trkpt><trkpt lat="46.52478796061595" lon="12.405852643005666"><ele>1603.0</ele><time>2026-04-19T16:52:07Z</time></trkpt><trkpt lat="46.52472864342772" lon="12.405801296407848"><ele>1601.0</ele><time>2026-04-19T16:52:09Z</time></trkpt><trkpt lat="46.524660808942706" lon="12.40574236943585"><ele>1599.0</ele><time>2026-04-19T16:52:11Z</time></trkpt><trkpt lat="46.52460888773798" lon="12.405681912627873"><ele>1597.0</ele><time>2026-04-19T16:52:13Z</time></trkpt><trkpt lat="46.524565027449725" lon="12.405608700819345"><ele>1597.0000000000002</ele><time>2026-04-19T16:52:16Z</time></trkpt><trkpt lat="46.524527438254275" lon="12.405530729625482"><ele>1597.0</ele><time>2026-04-19T16:52:20Z</time></trkpt><trkpt lat="46.52453663960927" lon="12.405439524179213"><ele>1597.0</ele><time>2026-04-19T16:52:24Z</time></trkpt><trkpt lat="46.52463209329581" lon="12.405409614621494"><ele>1597.0</ele><time>2026-04-19T16:52:27Z</time></trkpt><trkpt lat="46.524700275678214" lon="12.405463129680033"><ele>1597.0000000000002</ele><time>2026-04-19T16:52:29Z</time></trkpt><trkpt lat="46.524764545021185" lon="12.40554282704625"><ele>1597.0</ele><time>2026-04-19T16:52:31Z</time></trkpt><trkpt lat="46.52482440186508" lon="12.405590641872491"><ele>1597.0000000000002</ele><time>2026-04-19T16:52:33Z</time></trkpt><trkpt lat="46.52490108354446" lon="12.405605184381175"><ele>1597.0</ele><time>2026-04-19T16:52:36Z</time></trkpt><trkpt lat="46.5249669796629" lon="12.405623393445193"><ele>1597.0</ele><time>2026-04-19T16:52:39Z</time></trkpt><trkpt lat="46.52504562961241" lon="12.405581878554166"><ele>1597.0</ele><time>2026-04-19T16:52:42.999Z</time></trkpt><trkpt lat="46.52511406127537" lon="12.405553783459448"><ele>1597.0000000000002</ele><time>2026-04-19T16:52:45.999Z</time></trkpt><trkpt lat="46.525196402810046" lon="12.405506614187706"><ele>1597.0</ele><time>2026-04-19T16:52:49.999Z</time></trkpt><trkpt lat="46.52526162868512" lon="12.405460622925428"><ele>1593.4285714285716</ele><time>2026-04-19T16:52:52.999Z</time></trkpt><trkpt lat="46.525329254733485" lon="12.405429962848018"><ele>1589.857142857143</ele><time>2026-04-19T16:52:54.999Z</time></trkpt><trkpt lat="46.525397968098424" lon="12.405428614539483"><ele>1586.2857142857142</ele><time>2026-04-19T16:52:57.999Z</time></trkpt><trkpt lat="46.52546201166659" lon="12.405433211931456"><ele>1582.7142857142858</ele><time>2026-04-19T16:53:02.999Z</time></trkpt><trkpt lat="46.52553428068197" lon="12.405436688698506"><ele>1579.142857142857</ele><time>2026-04-19T16:53:09.999Z</time></trkpt><trkpt lat="46.52561742749005" lon="12.4054455285487"><ele>1575.5714285714287</ele><time>2026-04-19T16:53:13.999Z</time></trkpt><trkpt lat="46.525686411774664" lon="12.405432017521525"><ele>1572.0</ele><time>2026-04-19T16:53:15.999Z</time></trkpt><trkpt lat="46.525749570507955" lon="12.405358213493061"><ele>1571.5</ele><time>2026-04-19T16:53:19.001Z</time></trkpt><trkpt lat="46.525801787634784" lon="12.40527693495753"><ele>1571.0</ele><time>2026-04-19T16:53:22.001Z</time></trkpt><trkpt lat="46.52585269720649" lon="12.40516367719418"><ele>1570.5</ele><time>2026-04-19T16:53:25.001Z</time></trkpt><trkpt lat="46.52587837532236" lon="12.405058151348195"><ele>1570.0</ele><time>2026-04-19T16:53:27.001Z</time></trkpt><trkpt lat="46.52587962540435" lon="12.404944524200657"><ele>1569.5</ele><time>2026-04-19T16:53:29.001Z</time></trkpt><trkpt lat="46.525836241820066" lon="12.40482443453778"><ele>1569.0</ele><time>2026-04-19T16:53:31.001Z</time></trkpt><trkpt lat="46.525790226331125" lon="12.404717812547219"><ele>1566.4285714285716</ele><time>2026-04-19T16:53:33Z</time></trkpt><trkpt lat="46.525757472206266" lon="12.404625162217714"><ele>1563.857142857143</ele><time>2026-04-19T16:53:35Z</time></trkpt><trkpt lat="46.5257273655625" lon="12.40454389599414"><ele>1561.2857142857142</ele><time>2026-04-19T16:53:37Z</time></trkpt><trkpt lat="46.52569560160273" lon="12.404454034119983"><ele>1558.7142857142858</ele><time>2026-04-19T16:53:39Z</time></trkpt><trkpt lat="46.5256670518646" lon="12.404367261786096"><ele>1556.142857142857</ele><time>2026-04-19T16:53:41Z</time></trkpt><trkpt lat="46.52563151139289" lon="12.404265288852447"><ele>1553.5714285714287</ele><time>2026-04-19T16:53:45Z</time></trkpt><trkpt lat="46.52558250581511" lon="12.40418123819578"><ele>1551.0</ele><time>2026-04-19T16:53:57Z</time></trkpt><trkpt lat="46.52554210668804" lon="12.404105085509427"><ele>1551.0000000000002</ele><time>2026-04-19T16:54:04Z</time></trkpt><trkpt lat="46.525514215524" lon="12.404021072819104"><ele>1551.0</ele><time>2026-04-19T16:54:19Z</time></trkpt><trkpt lat="46.52551247456842" lon="12.403923703786235"><ele>1551.0</ele><time>2026-04-19T16:54:35Z</time></trkpt><trkpt lat="46.52557992110824" lon="12.403867175512268"><ele>1551.0</ele><time>2026-04-19T16:54:39Z</time></trkpt><trkpt lat="46.52565772806824" lon="12.403880237476695"><ele>1551.0</ele><time>2026-04-19T16:54:41.999Z</time></trkpt><trkpt lat="46.52572485366376" lon="12.403898212180854"><ele>1551.0000000000002</ele><time>2026-04-19T16:54:47.999Z</time></trkpt><trkpt lat="46.52579803615313" lon="12.403920601163781"><ele>1551.0</ele><time>2026-04-19T16:54:54.999Z</time></trkpt><trkpt lat="46.52587320784375" lon="12.403940716426517"><ele>1551.0000000000002</ele><time>2026-04-19T16:55:00.999Z</time></trkpt><trkpt lat="46.52594337284188" lon="12.403975101058577"><ele>1551.0</ele><time>2026-04-19T16:55:04.999Z</time></trkpt><trkpt lat="46.526003559281975" lon="12.404015973889246"><ele>1551.0</ele><time>2026-04-19T16:55:09.999Z</time></trkpt><trkpt lat="46.526065384573386" lon="12.40404960867337"><ele>1551.0</ele><time>2026-04-19T16:55:15.999Z</time></trkpt><trkpt lat="46.52614091822002" lon="12.404078312851171"><ele>1551.0</ele><time>2026-04-19T16:55:18.999Z</time></trkpt><trkpt lat="46.52613601564666" lon="12.40396634230818"><ele>1551.0000000000002</ele><time>2026-04-19T16:55:24Z</time></trkpt><trkpt lat="46.526079696846544" lon="12.403892663927195"><ele>1551.0</ele><time>2026-04-19T16:55:27Z</time></trkpt><trkpt lat="46.52602377553362" lon="12.403824280108756"><ele>1547.1666666666667</ele><time>2026-04-19T16:55:31Z</time></trkpt><trkpt lat="46.52597417955626" lon="12.403736819350645"><ele>1543.3333333333333</ele><time>2026-04-19T16:55:35Z</time></trkpt><trkpt lat="46.52592950674947" lon="12.403655697069464"><ele>1539.5</ele><time>2026-04-19T16:55:39Z</time></trkpt><trkpt lat="46.52597027460193" lon="12.403571783032104"><ele>1535.6666666666665</ele><time>2026-04-19T16:55:43Z</time></trkpt><trkpt lat="46.526047124575314" lon="12.40360534800155"><ele>1531.8333333333333</ele><time>2026-04-19T16:55:45Z</time></trkpt><trkpt lat="46.52613459065242" lon="12.403682847314423"><ele>1528.0</ele><time>2026-04-19T16:55:47Z</time></trkpt><trkpt lat="46.52619643608501" lon="12.403708558846875"><ele>1525.3333333333333</ele><time>2026-04-19T16:55:48Z</time></trkpt><trkpt lat="46.52626669454983" lon="12.403725163911492"><ele>1522.6666666666665</ele><time>2026-04-19T16:55:49Z</time></trkpt><trkpt lat="46.526332813429676" lon="12.403732847434759"><ele>1520.0</ele><time>2026-04-19T16:55:50Z</time></trkpt><trkpt lat="46.52643281475181" lon="12.403739362278866"><ele>1517.3333333333333</ele><time>2026-04-19T16:55:52Z</time></trkpt><trkpt lat="46.52652824001451" lon="12.403724672539512"><ele>1514.6666666666667</ele><time>2026-04-19T16:55:54Z</time></trkpt><trkpt lat="46.5266166682226" lon="12.403694470370537"><ele>1512.0</ele><time>2026-04-19T16:55:56Z</time></trkpt><trkpt lat="46.52669855589331" lon="12.403643700873818"><ele>1512.0</ele><time>2026-04-19T16:55:58Z</time></trkpt><trkpt lat="46.52675851489017" lon="12.403548564413331"><ele>1512.0</ele><time>2026-04-19T16:56:00Z</time></trkpt><trkpt lat="46.526799357939666" lon="12.403414494575834"><ele>1512.0</ele><time>2026-04-19T16:56:02Z</time></trkpt><trkpt lat="46.52683907036914" lon="12.403297605449682"><ele>1512.0</ele><time>2026-04-19T16:56:04Z</time></trkpt><trkpt lat="46.52688089932824" lon="12.403201787086301"><ele>1512.0</ele><time>2026-04-19T16:56:06Z</time></trkpt><trkpt lat="46.52692041629487" lon="12.403117574229329"><ele>1512.0</ele><time>2026-04-19T16:56:08Z</time></trkpt><trkpt lat="46.52699654415686" lon="12.403036836046176"><ele>1509.0</ele><time>2026-04-19T16:56:10Z</time></trkpt><trkpt lat="46.52705476713923" lon="12.402994917873974"><ele>1506.0</ele><time>2026-04-19T16:56:11Z</time></trkpt><trkpt lat="46.5271206211434" lon="12.402961076798608"><ele>1503.0</ele><time>2026-04-19T16:56:12Z</time></trkpt><trkpt lat="46.52718923170496" lon="12.402954490381735"><ele>1500.0</ele><time>2026-04-19T16:56:13Z</time></trkpt><trkpt lat="46.52724704125671" lon="12.4029163205023"><ele>1497.0</ele><time>2026-04-19T16:56:14Z</time></trkpt><trkpt lat="46.52734466887667" lon="12.402830158091621"><ele>1494.0</ele><time>2026-04-19T16:56:16Z</time></trkpt><trkpt lat="46.52740205497393" lon="12.402715678529477"><ele>1492.8333333333333</ele><time>2026-04-19T16:56:18Z</time></trkpt><trkpt lat="46.52745365247874" lon="12.402624926381414"><ele>1491.6666666666667</ele><time>2026-04-19T16:56:20Z</time></trkpt><trkpt lat="46.527520947591434" lon="12.402551318164678"><ele>1490.5</ele><time>2026-04-19T16:56:22Z</time></trkpt><trkpt lat="46.52761135562634" lon="12.402509391445722"><ele>1489.3333333333335</ele><time>2026-04-19T16:56:24Z</time></trkpt><trkpt lat="46.52773135092043" lon="12.402485085558302"><ele>1488.1666666666667</ele><time>2026-04-19T16:56:26Z</time></trkpt><trkpt lat="46.527797840511894" lon="12.402467384836035"><ele>1487.0</ele><time>2026-04-19T16:56:27Z</time></trkpt><trkpt lat="46.527866038478756" lon="12.402439599836933"><ele>1486.0</ele><time>2026-04-19T16:56:28Z</time></trkpt><trkpt lat="46.52793455279436" lon="12.40240843529324"><ele>1485.0</ele><time>2026-04-19T16:56:29Z</time></trkpt><trkpt lat="46.528003997753395" lon="12.402369152565345"><ele>1484.0</ele><time>2026-04-19T16:56:30Z</time></trkpt><trkpt lat="46.528070100915386" lon="12.402326458097711"><ele>1483.0</ele><time>2026-04-19T16:56:31Z</time></trkpt><trkpt lat="46.528165375421864" lon="12.402252523128661"><ele>1482.0</ele><time>2026-04-19T16:56:33Z</time></trkpt><trkpt lat="46.52823180402559" lon="12.402269750395844"><ele>1481.0</ele><time>2026-04-19T16:56:35Z</time></trkpt><trkpt lat="46.52828170189246" lon="12.402385991461122"><ele>1481.0</ele><time>2026-04-19T16:56:37Z</time></trkpt><trkpt lat="46.52833626843527" lon="12.402502383444356"><ele>1481.0</ele><time>2026-04-19T16:56:39Z</time></trkpt><trkpt lat="46.52840427729345" lon="12.402559520920725"><ele>1481.0</ele><time>2026-04-19T16:56:40.999Z</time></trkpt><trkpt lat="46.52851323367765" lon="12.402560932785208"><ele>1481.0</ele><time>2026-04-19T16:56:42.999Z</time></trkpt><trkpt lat="46.52864661800713" lon="12.402554650213593"><ele>1481.0</ele><time>2026-04-19T16:56:44.999Z</time></trkpt><trkpt lat="46.52871645897093" lon="12.402551843535102"><ele>1480.0</ele><time>2026-04-19T16:56:45.999Z</time></trkpt><trkpt lat="46.528783619498725" lon="12.402552979553448"><ele>1479.0</ele><time>2026-04-19T16:56:46.999Z</time></trkpt><trkpt lat="46.5288766673537" lon="12.402496581645824"><ele>1478.0</ele><time>2026-04-19T16:56:48.999Z</time></trkpt><trkpt lat="46.52896204979038" lon="12.402409494633769"><ele>1477.0</ele><time>2026-04-19T16:56:50.999Z</time></trkpt><trkpt lat="46.52901914451066" lon="12.402368375434655"><ele>1476.0</ele><time>2026-04-19T16:56:51.999Z</time></trkpt><trkpt lat="46.52908364695419" lon="12.402318823326093"><ele>1475.0</ele><time>2026-04-19T16:56:52.999Z</time></trkpt><trkpt lat="46.52915060934506" lon="12.402272741385698"><ele>1475.0</ele><time>2026-04-19T16:56:53.999Z</time></trkpt><trkpt lat="46.529212693051996" lon="12.402239050694366"><ele>1475.0</ele><time>2026-04-19T16:56:54.999Z</time></trkpt><trkpt lat="46.52932315241096" lon="12.40219997035038"><ele>1475.0</ele><time>2026-04-19T16:56:56.999Z</time></trkpt><trkpt lat="46.52941866685057" lon="12.402166685395509"><ele>1475.0</ele><time>2026-04-19T16:56:58.999Z</time></trkpt><trkpt lat="46.52952449119625" lon="12.402125916113436"><ele>1475.0</ele><time>2026-04-19T16:57:00.999Z</time></trkpt><trkpt lat="46.52961645777278" lon="12.402067382941844"><ele>1470.0</ele><time>2026-04-19T16:57:02.999Z</time></trkpt><trkpt lat="46.529702015499154" lon="12.401984250353204"><ele>1465.0</ele><time>2026-04-19T16:57:04.999Z</time></trkpt><trkpt lat="46.52978871959761" lon="12.401890147639282"><ele>1460.0</ele><time>2026-04-19T16:57:06.999Z</time></trkpt><trkpt lat="46.52989117039881" lon="12.4018653381622"><ele>1455.0</ele><time>2026-04-19T16:57:08.999Z</time></trkpt><trkpt lat="46.52999436546887" lon="12.401908009779163"><ele>1450.0</ele><time>2026-04-19T16:57:10.999Z</time></trkpt><trkpt lat="46.53007293399321" lon="12.401970862367454"><ele>1450.0</ele><time>2026-04-19T16:57:12.999Z</time></trkpt><trkpt lat="46.53012926094472" lon="12.402019909463238"><ele>1450.0</ele><time>2026-04-19T16:57:15.999Z</time></trkpt><trkpt lat="46.53019466746182" lon="12.402015599146205"><ele>1450.0</ele><time>2026-04-19T16:57:20.999Z</time></trkpt><trkpt lat="46.53026223048572" lon="12.401990827818839"><ele>1450.0</ele><time>2026-04-19T16:57:23.999Z</time></trkpt><trkpt lat="46.530357959778186" lon="12.40192467285986"><ele>1450.0</ele><time>2026-04-19T16:57:26.999Z</time></trkpt><trkpt lat="46.530441752977595" lon="12.401843797270613"><ele>1450.0</ele><time>2026-04-19T16:57:29Z</time></trkpt><trkpt lat="46.53052822027394" lon="12.40177957985119"><ele>1450.0</ele><time>2026-04-19T16:57:31Z</time></trkpt><trkpt lat="46.53061458454284" lon="12.401694771111142"><ele>1450.0</ele><time>2026-04-19T16:57:33Z</time></trkpt><trkpt lat="46.53070034809437" lon="12.401609604435126"><ele>1450.0</ele><time>2026-04-19T16:57:35Z</time></trkpt><trkpt lat="46.530788658822914" lon="12.4015304475832"><ele>1450.0</ele><time>2026-04-19T16:57:37Z</time></trkpt><trkpt lat="46.53086855209541" lon="12.401442943451562"><ele>1450.0</ele><time>2026-04-19T16:57:39Z</time></trkpt><trkpt lat="46.53095369159605" lon="12.401365719746703"><ele>1447.3333333333333</ele><time>2026-04-19T16:57:41Z</time></trkpt><trkpt lat="46.53103059755817" lon="12.401259075103045"><ele>1444.6666666666665</ele><time>2026-04-19T16:57:43Z</time></trkpt><trkpt lat="46.53108039103382" lon="12.401151481595841"><ele>1442.0</ele><time>2026-04-19T16:57:45Z</time></trkpt><trkpt lat="46.53111094261773" lon="12.401053560116758"><ele>1439.3333333333333</ele><time>2026-04-19T16:57:47Z</time></trkpt><trkpt lat="46.53114149938086" lon="12.40096025044251"><ele>1436.6666666666667</ele><time>2026-04-19T16:57:49Z</time></trkpt><trkpt lat="46.531180304260964" lon="12.400859889149329"><ele>1434.0</ele><time>2026-04-19T16:57:51Z</time></trkpt><trkpt lat="46.53121867114807" lon="12.40074938768711"><ele>1434.6666666666667</ele><time>2026-04-19T16:57:53Z</time></trkpt><trkpt lat="46.53125171487807" lon="12.400640509999599"><ele>1435.3333333333333</ele><time>2026-04-19T16:57:55Z</time></trkpt><trkpt lat="46.531308462677245" lon="12.400550791374886"><ele>1436.0</ele><time>2026-04-19T16:57:57Z</time></trkpt><trkpt lat="46.53140815628775" lon="12.400502611132351"><ele>1436.6666666666665</ele><time>2026-04-19T16:57:59Z</time></trkpt><trkpt lat="46.531469825345795" lon="12.40047873175525"><ele>1437.3333333333333</ele><time>2026-04-19T16:58:00Z</time></trkpt><trkpt lat="46.53153202944174" lon="12.400451169333438"><ele>1438.0</ele><time>2026-04-19T16:58:01Z</time></trkpt><trkpt lat="46.531631966022076" lon="12.400395719197904"><ele>1436.0</ele><time>2026-04-19T16:58:03Z</time></trkpt><trkpt lat="46.53173683192585" lon="12.400385641926608"><ele>1434.0</ele><time>2026-04-19T16:58:05Z</time></trkpt><trkpt lat="46.53183387595923" lon="12.400397855947613"><ele>1432.0</ele><time>2026-04-19T16:58:07Z</time></trkpt><trkpt lat="46.53192952821676" lon="12.400362422486818"><ele>1430.0</ele><time>2026-04-19T16:58:09Z</time></trkpt><trkpt lat="46.532005272966785" lon="12.400245881360286"><ele>1428.0</ele><time>2026-04-19T16:58:11Z</time></trkpt><trkpt lat="46.53205149764186" lon="12.400095527844906"><ele>1427.0</ele><time>2026-04-19T16:58:13Z</time></trkpt><trkpt lat="46.53210441205018" lon="12.399940657562219"><ele>1426.0</ele><time>2026-04-19T16:58:15Z</time></trkpt><trkpt lat="46.53214416416185" lon="12.399786373810041"><ele>1425.0</ele><time>2026-04-19T16:58:17Z</time></trkpt><trkpt lat="46.53216722219923" lon="12.399631794145623"><ele>1424.0</ele><time>2026-04-19T16:58:19Z</time></trkpt><trkpt lat="46.532221953496695" lon="12.399491213080523"><ele>1422.0</ele><time>2026-04-19T16:58:21Z</time></trkpt><trkpt lat="46.53226194589325" lon="12.399332500580813"><ele>1420.0</ele><time>2026-04-19T16:58:23Z</time></trkpt><trkpt lat="46.532295280426254" lon="12.399164893003045"><ele>1418.0</ele><time>2026-04-19T16:58:25Z</time></trkpt><trkpt lat="46.532313939923476" lon="12.39900850495252"><ele>1416.0</ele><time>2026-04-19T16:58:27Z</time></trkpt><trkpt lat="46.532341605991746" lon="12.398876961354787"><ele>1414.0</ele><time>2026-04-19T16:58:29Z</time></trkpt><trkpt lat="46.53239677866609" lon="12.398757079552372"><ele>1412.5</ele><time>2026-04-19T16:58:31Z</time></trkpt><trkpt lat="46.53245660552813" lon="12.398621756764724"><ele>1411.0</ele><time>2026-04-19T16:58:33Z</time></trkpt><trkpt lat="46.53251948899414" lon="12.398481810107045"><ele>1409.5</ele><time>2026-04-19T16:58:35Z</time></trkpt><trkpt lat="46.53253349578538" lon="12.398392027752633"><ele>1408.0</ele><time>2026-04-19T16:58:36Z</time></trkpt><trkpt lat="46.53253465806735" lon="12.39829221075811"><ele>1406.5</ele><time>2026-04-19T16:58:37Z</time></trkpt><trkpt lat="46.532535576409046" lon="12.398196948880589"><ele>1405.0</ele><time>2026-04-19T16:58:38Z</time></trkpt><trkpt lat="46.53254478356789" lon="12.398093694634992"><ele>1403.3333333333333</ele><time>2026-04-19T16:58:39Z</time></trkpt><trkpt lat="46.532562740953715" lon="12.397988644226137"><ele>1401.6666666666665</ele><time>2026-04-19T16:58:40Z</time></trkpt><trkpt lat="46.53258609349829" lon="12.397891069002158"><ele>1400.0</ele><time>2026-04-19T16:58:41Z</time></trkpt><trkpt lat="46.53260423512561" lon="12.397798035577575"><ele>1398.3333333333333</ele><time>2026-04-19T16:58:42Z</time></trkpt><trkpt lat="46.532616425681624" lon="12.397707114085977"><ele>1396.6666666666667</ele><time>2026-04-19T16:58:43Z</time></trkpt><trkpt lat="46.53262388319348" lon="12.397536655076433"><ele>1395.0</ele><time>2026-04-19T16:58:45Z</time></trkpt><trkpt lat="46.53266674152106" lon="12.397369597641672"><ele>1395.0</ele><time>2026-04-19T16:58:46.999Z</time></trkpt><trkpt lat="46.53271157428095" lon="12.397203943516686"><ele>1395.0</ele><time>2026-04-19T16:58:48.999Z</time></trkpt><trkpt lat="46.53275822573439" lon="12.397034916918816"><ele>1395.0</ele><time>2026-04-19T16:58:50.999Z</time></trkpt><trkpt lat="46.53279650083325" lon="12.396872545345493"><ele>1395.0</ele><time>2026-04-19T16:58:52.999Z</time></trkpt><trkpt lat="46.532826668841565" lon="12.396723394287111"><ele>1390.6</ele><time>2026-04-19T16:58:54.999Z</time></trkpt><trkpt lat="46.53283852044429" lon="12.396581448310657"><ele>1386.2</ele><time>2026-04-19T16:58:56.999Z</time></trkpt><trkpt lat="46.53285958800015" lon="12.396482602854421"><ele>1381.8000000000002</ele><time>2026-04-19T16:58:58.999Z</time></trkpt><trkpt lat="46.532951560137185" lon="12.396514990685889"><ele>1377.4</ele><time>2026-04-19T16:59:01.999Z</time></trkpt><trkpt lat="46.53297344214989" lon="12.396665254222912"><ele>1373.0</ele><time>2026-04-19T16:59:03.999Z</time></trkpt><trkpt lat="46.532991210549355" lon="12.39681723078807"><ele>1372.6000000000001</ele><time>2026-04-19T16:59:05.999Z</time></trkpt><trkpt lat="46.53302473243464" lon="12.396986886308031"><ele>1372.2</ele><time>2026-04-19T16:59:07.999Z</time></trkpt><trkpt lat="46.533052189851595" lon="12.397076913610707"><ele>1371.8</ele><time>2026-04-19T16:59:08.999Z</time></trkpt><trkpt lat="46.53310062843518" lon="12.397216885061242"><ele>1371.4</ele><time>2026-04-19T16:59:10.999Z</time></trkpt><trkpt lat="46.53313979574719" lon="12.39731318325426"><ele>1371.0</ele><time>2026-04-19T16:59:12.999Z</time></trkpt><trkpt lat="46.53321786254517" lon="12.397291273077306"><ele>1371.0</ele><time>2026-04-19T16:59:15.999Z</time></trkpt><trkpt lat="46.53321416089918" lon="12.3971017666973"><ele>1371.0</ele><time>2026-04-19T16:59:17.999Z</time></trkpt><trkpt lat="46.53321621904576" lon="12.39698906061784"><ele>1371.0</ele><time>2026-04-19T16:59:18.999Z</time></trkpt><trkpt lat="46.533232031014535" lon="12.39686538395801"><ele>1371.0</ele><time>2026-04-19T16:59:19.999Z</time></trkpt><trkpt lat="46.53325102248897" lon="12.396739527495017"><ele>1371.0</ele><time>2026-04-19T16:59:20.999Z</time></trkpt><trkpt lat="46.533273172201476" lon="12.396616720152814"><ele>1371.0</ele><time>2026-04-19T16:59:21.999Z</time></trkpt><trkpt lat="46.53329777795487" lon="12.39650423794111"><ele>1371.0</ele><time>2026-04-19T16:59:22.999Z</time></trkpt><trkpt lat="46.53332196694843" lon="12.396407160497784"><ele>1371.0</ele><time>2026-04-19T16:59:23.999Z</time></trkpt><trkpt lat="46.533340149567785" lon="12.396308807031389"><ele>1371.0</ele><time>2026-04-19T16:59:24.999Z</time></trkpt><trkpt lat="46.53335474183756" lon="12.396138516860557"><ele>1371.0</ele><time>2026-04-19T16:59:26.999Z</time></trkpt><trkpt lat="46.53334121107883" lon="12.395960206545869"><ele>1369.0</ele><time>2026-04-19T16:59:28.999Z</time></trkpt><trkpt lat="46.53333085845035" lon="12.395784669360568"><ele>1367.0</ele><time>2026-04-19T16:59:30.999Z</time></trkpt><trkpt lat="46.533328047025286" lon="12.39567208167305"><ele>1365.0</ele><time>2026-04-19T16:59:32.999Z</time></trkpt><trkpt lat="46.53332846749216" lon="12.395565485720635"><ele>1363.0</ele><time>2026-04-19T16:59:35Z</time></trkpt><trkpt lat="46.53332245505561" lon="12.395434342088423"><ele>1361.0</ele><time>2026-04-19T16:59:37Z</time></trkpt><trkpt lat="46.53333145177209" lon="12.395309958593797"><ele>1359.0</ele><time>2026-04-19T16:59:39Z</time></trkpt><trkpt lat="46.533377731561835" lon="12.395193379843482"><ele>1357.4</ele><time>2026-04-19T16:59:41Z</time></trkpt><trkpt lat="46.5334739199861" lon="12.395152334018274"><ele>1355.8000000000002</ele><time>2026-04-19T16:59:43Z</time></trkpt><trkpt lat="46.53359064462007" lon="12.395070601055211"><ele>1354.1999999999998</ele><time>2026-04-19T16:59:45Z</time></trkpt><trkpt lat="46.5336426949391" lon="12.395004972371288"><ele>1352.6</ele><time>2026-04-19T16:59:46Z</time></trkpt><trkpt lat="46.53368958512425" lon="12.394930329982946"><ele>1351.0</ele><time>2026-04-19T16:59:47Z</time></trkpt><trkpt lat="46.53375350563675" lon="12.394812509981282"><ele>1351.0</ele><time>2026-04-19T16:59:49Z</time></trkpt><trkpt lat="46.53384122577033" lon="12.394735205584958"><ele>1351.0</ele><time>2026-04-19T16:59:51Z</time></trkpt><trkpt lat="46.533917072892415" lon="12.394648571224208"><ele>1351.0</ele><time>2026-04-19T16:59:53Z</time></trkpt><trkpt lat="46.533920892258635" lon="12.394515519558004"><ele>1351.0</ele><time>2026-04-19T16:59:55Z</time></trkpt><trkpt lat="46.53391099455556" lon="12.394337132572177"><ele>1351.0</ele><time>2026-04-19T16:59:57Z</time></trkpt><trkpt lat="46.53390957669278" lon="12.394238767536756"><ele>1350.1666666666665</ele><time>2026-04-19T16:59:58Z</time></trkpt><trkpt lat="46.53390608501198" lon="12.39413972073668"><ele>1349.3333333333333</ele><time>2026-04-19T16:59:59Z</time></trkpt><trkpt lat="46.53390473191385" lon="12.39403042294567"><ele>1348.5</ele><time>2026-04-19T17:00:00Z</time></trkpt><trkpt lat="46.53391491794239" lon="12.393937719457263"><ele>1347.6666666666667</ele><time>2026-04-19T17:00:01Z</time></trkpt><trkpt lat="46.533930679481855" lon="12.393848921029052"><ele>1346.8333333333335</ele><time>2026-04-19T17:00:02Z</time></trkpt><trkpt lat="46.53395603601528" lon="12.393679007803257"><ele>1346.0</ele><time>2026-04-19T17:00:04Z</time></trkpt><trkpt lat="46.533988366934324" lon="12.393509055463594"><ele>1344.5714285714287</ele><time>2026-04-19T17:00:06Z</time></trkpt><trkpt lat="46.53400523796625" lon="12.393416251327311"><ele>1343.142857142857</ele><time>2026-04-19T17:00:07Z</time></trkpt><trkpt lat="46.534017715277436" lon="12.393307697967813"><ele>1341.7142857142858</ele><time>2026-04-19T17:00:08Z</time></trkpt><trkpt lat="46.534024850195635" lon="12.393196402736478"><ele>1340.2857142857142</ele><time>2026-04-19T17:00:09Z</time></trkpt><trkpt lat="46.534019232653286" lon="12.393093899389957"><ele>1338.857142857143</ele><time>2026-04-19T17:00:10Z</time></trkpt><trkpt lat="46.534004553343486" lon="12.39299569085122"><ele>1337.4285714285713</ele><time>2026-04-19T17:00:11Z</time></trkpt><trkpt lat="46.53399494072959" lon="12.392896313196006"><ele>1336.0</ele><time>2026-04-19T17:00:12Z</time></trkpt><trkpt lat="46.53400293775151" lon="12.39278521716656"><ele>1334.0</ele><time>2026-04-19T17:00:13Z</time></trkpt><trkpt lat="46.534012151366895" lon="12.39268668355679"><ele>1332.0</ele><time>2026-04-19T17:00:14Z</time></trkpt><trkpt lat="46.53401255217604" lon="12.392564535140622"><ele>1330.0</ele><time>2026-04-19T17:00:15Z</time></trkpt><trkpt lat="46.5340175282138" lon="12.39244976597114"><ele>1328.0</ele><time>2026-04-19T17:00:16Z</time></trkpt><trkpt lat="46.534019315057655" lon="12.392331420932232"><ele>1326.0</ele><time>2026-04-19T17:00:17Z</time></trkpt><trkpt lat="46.53402923571035" lon="12.39222703773365"><ele>1324.0</ele><time>2026-04-19T17:00:18Z</time></trkpt><trkpt lat="46.5340410777953" lon="12.392130011644648"><ele>1321.2</ele><time>2026-04-19T17:00:19Z</time></trkpt><trkpt lat="46.53405286094027" lon="12.39202139769566"><ele>1318.4</ele><time>2026-04-19T17:00:20Z</time></trkpt><trkpt lat="46.534096523929264" lon="12.391930926659503"><ele>1315.6</ele><time>2026-04-19T17:00:21Z</time></trkpt><trkpt lat="46.53412310913052" lon="12.391823107762473"><ele>1312.8</ele><time>2026-04-19T17:00:22Z</time></trkpt><trkpt lat="46.53413285606674" lon="12.391636661920213"><ele>1310.0</ele><time>2026-04-19T17:00:24Z</time></trkpt><trkpt lat="46.53414502678098" lon="12.39146861296906"><ele>1310.0</ele><time>2026-04-19T17:00:26Z</time></trkpt><trkpt lat="46.534168958482965" lon="12.391362553954897"><ele>1310.0</ele><time>2026-04-19T17:00:27Z</time></trkpt><trkpt lat="46.53418862382756" lon="12.391249439942692"><ele>1310.0</ele><time>2026-04-19T17:00:28Z</time></trkpt><trkpt lat="46.53421101150391" lon="12.391141884985451"><ele>1310.0</ele><time>2026-04-19T17:00:29Z</time></trkpt><trkpt lat="46.53423253130985" lon="12.391026280313364"><ele>1310.0</ele><time>2026-04-19T17:00:30Z</time></trkpt><trkpt lat="46.53425258646028" lon="12.390912958450553"><ele>1310.0</ele><time>2026-04-19T17:00:31Z</time></trkpt><trkpt lat="46.53427433496843" lon="12.390813477140272"><ele>1307.8333333333335</ele><time>2026-04-19T17:00:32Z</time></trkpt><trkpt lat="46.53429934497192" lon="12.390720430215984"><ele>1305.6666666666667</ele><time>2026-04-19T17:00:33Z</time></trkpt><trkpt lat="46.53433075066253" lon="12.3906341354758"><ele>1303.5</ele><time>2026-04-19T17:00:34Z</time></trkpt><trkpt lat="46.534366428405185" lon="12.390534128234108"><ele>1301.3333333333333</ele><time>2026-04-19T17:00:35Z</time></trkpt><trkpt lat="46.53440747856015" lon="12.390425197374219"><ele>1299.1666666666665</ele><time>2026-04-19T17:00:36Z</time></trkpt><trkpt lat="46.53444598280686" lon="12.390323537889984"><ele>1297.0</ele><time>2026-04-19T17:00:37Z</time></trkpt><trkpt lat="46.53451389633525" lon="12.390174609719258"><ele>1296.0</ele><time>2026-04-19T17:00:39Z</time></trkpt><trkpt lat="46.53456700292759" lon="12.39011321506858"><ele>1295.0</ele><time>2026-04-19T17:00:40Z</time></trkpt><trkpt lat="46.53461920033384" lon="12.390060397359264"><ele>1294.0</ele><time>2026-04-19T17:00:41Z</time></trkpt><trkpt lat="46.53472087844332" lon="12.389998708684702"><ele>1293.0</ele><time>2026-04-19T17:00:43Z</time></trkpt><trkpt lat="46.53483290751799" lon="12.38998890478524"><ele>1292.0</ele><time>2026-04-19T17:00:45Z</time></trkpt><trkpt lat="46.53496617303176" lon="12.389978577769988"><ele>1292.0000000000002</ele><time>2026-04-19T17:00:47Z</time></trkpt><trkpt lat="46.535041202929875" lon="12.38995490322322"><ele>1292.0</ele><time>2026-04-19T17:00:48Z</time></trkpt><trkpt lat="46.535117711138376" lon="12.389916254931565"><ele>1292.0</ele><time>2026-04-19T17:00:49Z</time></trkpt><trkpt lat="46.53518644948772" lon="12.389867001282571"><ele>1292.0</ele><time>2026-04-19T17:00:49.999Z</time></trkpt><trkpt lat="46.53525417732017" lon="12.389817013381913"><ele>1292.0</ele><time>2026-04-19T17:00:50.999Z</time></trkpt><trkpt lat="46.535316494054975" lon="12.389774167269833"><ele>1292.0000000000002</ele><time>2026-04-19T17:00:51.999Z</time></trkpt><trkpt lat="46.53538106491688" lon="12.389744886515253"><ele>1292.0</ele><time>2026-04-19T17:00:52.999Z</time></trkpt><trkpt lat="46.535444059463686" lon="12.38973052473647"><ele>1292.857142857143</ele><time>2026-04-19T17:00:53.999Z</time></trkpt><trkpt lat="46.535512212076924" lon="12.389721321263595"><ele>1293.7142857142858</ele><time>2026-04-19T17:00:54.999Z</time></trkpt><trkpt lat="46.535575641844" lon="12.389708415512041"><ele>1294.5714285714284</ele><time>2026-04-19T17:00:55.999Z</time></trkpt><trkpt lat="46.53563962160661" lon="12.389677388102495"><ele>1295.4285714285716</ele><time>2026-04-19T17:00:56.999Z</time></trkpt><trkpt lat="46.53570331745715" lon="12.389627414274901"><ele>1296.2857142857142</ele><time>2026-04-19T17:00:57.999Z</time></trkpt><trkpt lat="46.53575685725947" lon="12.389563439321241"><ele>1297.142857142857</ele><time>2026-04-19T17:00:58.999Z</time></trkpt><trkpt lat="46.53579832487547" lon="12.389490383808102"><ele>1298.0</ele><time>2026-04-19T17:00:59.999Z</time></trkpt><trkpt lat="46.53583975738238" lon="12.389401320709824"><ele>1294.5</ele><time>2026-04-19T17:01:00.999Z</time></trkpt><trkpt lat="46.53586976280798" lon="12.389312541756821"><ele>1291.0</ele><time>2026-04-19T17:01:01.999Z</time></trkpt><trkpt lat="46.53593101421211" lon="12.389161531417257"><ele>1287.5</ele><time>2026-04-19T17:01:03.999Z</time></trkpt><trkpt lat="46.535978284856846" lon="12.389044884132892"><ele>1284.0</ele><time>2026-04-19T17:01:05.999Z</time></trkpt><trkpt lat="46.53601465178071" lon="12.388955101334501"><ele>1280.5</ele><time>2026-04-19T17:01:07.999Z</time></trkpt><trkpt lat="46.5361078117488" lon="12.388926768571151"><ele>1277.0</ele><time>2026-04-19T17:01:10.999Z</time></trkpt><trkpt lat="46.53618246632283" lon="12.388944830876376"><ele>1275.142857142857</ele><time>2026-04-19T17:01:12.999Z</time></trkpt><trkpt lat="46.53623702828672" lon="12.38884893506247"><ele>1273.2857142857142</ele><time>2026-04-19T17:01:15.999Z</time></trkpt><trkpt lat="46.53621337892242" lon="12.388744165103745"><ele>1271.4285714285716</ele><time>2026-04-19T17:01:17.999Z</time></trkpt><trkpt lat="46.53616072995607" lon="12.38867330421239"><ele>1269.5714285714284</ele><time>2026-04-19T17:01:19.999Z</time></trkpt><trkpt lat="46.53611184535818" lon="12.388599267860844"><ele>1267.7142857142858</ele><time>2026-04-19T17:01:22.999Z</time></trkpt><trkpt lat="46.536103132575555" lon="12.388506331931989"><ele>1265.857142857143</ele><time>2026-04-19T17:01:25.999Z</time></trkpt><trkpt lat="46.53616164613518" lon="12.388457016469813"><ele>1264.0</ele><time>2026-04-19T17:01:28.999Z</time></trkpt><trkpt lat="46.53626544193608" lon="12.388492189942252"><ele>1263.7142857142858</ele><time>2026-04-19T17:01:30.999Z</time></trkpt><trkpt lat="46.53632758036917" lon="12.388472025264067"><ele>1263.4285714285716</ele><time>2026-04-19T17:01:31.999Z</time></trkpt><trkpt lat="46.53638488370339" lon="12.388421415109601"><ele>1263.1428571428573</ele><time>2026-04-19T17:01:32.999Z</time></trkpt><trkpt lat="46.536435303470725" lon="12.388348525666654"><ele>1262.857142857143</ele><time>2026-04-19T17:01:33.999Z</time></trkpt><trkpt lat="46.536470315577176" lon="12.388258355871967"><ele>1262.5714285714284</ele><time>2026-04-19T17:01:34.999Z</time></trkpt><trkpt lat="46.53649348117646" lon="12.388157814557891"><ele>1262.2857142857144</ele><time>2026-04-19T17:01:35.999Z</time></trkpt><trkpt lat="46.53651563594177" lon="12.388055499016737"><ele>1262.0</ele><time>2026-04-19T17:01:36.999Z</time></trkpt><trkpt lat="46.536528456649094" lon="12.387957529703968"><ele>1257.3333333333335</ele><time>2026-04-19T17:01:37.999Z</time></trkpt><trkpt lat="46.53654150328531" lon="12.387865598780433"><ele>1252.6666666666667</ele><time>2026-04-19T17:01:38.999Z</time></trkpt><trkpt lat="46.536564596412404" lon="12.387777981597386"><ele>1248.0</ele><time>2026-04-19T17:01:40Z</time></trkpt><trkpt lat="46.53661079981305" lon="12.387647700084779"><ele>1243.3333333333333</ele><time>2026-04-19T17:01:42Z</time></trkpt><trkpt lat="46.53665212406202" lon="12.387514172690597"><ele>1238.6666666666665</ele><time>2026-04-19T17:01:44Z</time></trkpt><trkpt lat="46.53668723419711" lon="12.3874356678431"><ele>1234.0</ele><time>2026-04-19T17:01:45Z</time></trkpt><trkpt lat="46.53672775014409" lon="12.387359949745013"><ele>1234.0</ele><time>2026-04-19T17:01:46Z</time></trkpt><trkpt lat="46.53677356859463" lon="12.387288856154587"><ele>1234.0</ele><time>2026-04-19T17:01:47Z</time></trkpt><trkpt lat="46.53682067048682" lon="12.387220505886836"><ele>1234.0</ele><time>2026-04-19T17:01:48Z</time></trkpt><trkpt lat="46.53685819599273" lon="12.38713368098399"><ele>1234.0</ele><time>2026-04-19T17:01:49Z</time></trkpt><trkpt lat="46.53688650021168" lon="12.387047813315107"><ele>1234.0</ele><time>2026-04-19T17:01:50Z</time></trkpt><trkpt lat="46.53691312167139" lon="12.386955014977104"><ele>1234.0</ele><time>2026-04-19T17:01:51Z</time></trkpt><trkpt lat="46.536931702915595" lon="12.386861837308096"><ele>1234.0</ele><time>2026-04-19T17:01:52Z</time></trkpt><trkpt lat="46.536953536524365" lon="12.386716920389365"><ele>1231.4</ele><time>2026-04-19T17:01:54Z</time></trkpt><trkpt lat="46.53697382396046" lon="12.38657992426056"><ele>1228.8000000000002</ele><time>2026-04-19T17:01:56Z</time></trkpt><trkpt lat="46.537034401191804" lon="12.386419934990514"><ele>1226.1999999999998</ele><time>2026-04-19T17:01:58Z</time></trkpt><trkpt lat="46.53707001622847" lon="12.386343513967285"><ele>1223.6</ele><time>2026-04-19T17:01:59Z</time></trkpt><trkpt lat="46.537149955469076" lon="12.386207499406046"><ele>1221.0</ele><time>2026-04-19T17:02:01Z</time></trkpt><trkpt lat="46.537218989386396" lon="12.386071565536566"><ele>1219.3999999999999</ele><time>2026-04-19T17:02:03Z</time></trkpt><trkpt lat="46.537264135363316" lon="12.38592161029514"><ele>1217.8</ele><time>2026-04-19T17:02:05Z</time></trkpt><trkpt lat="46.53730445491988" lon="12.385785682578188"><ele>1216.1999999999998</ele><time>2026-04-19T17:02:07Z</time></trkpt><trkpt lat="46.53735056457117" lon="12.385655731854323"><ele>1214.6</ele><time>2026-04-19T17:02:09Z</time></trkpt><trkpt lat="46.537398165548076" lon="12.385541815493673"><ele>1213.0</ele><time>2026-04-19T17:02:11Z</time></trkpt><trkpt lat="46.53744716596333" lon="12.385441469767702"><ele>1209.6666666666665</ele><time>2026-04-19T17:02:13Z</time></trkpt><trkpt lat="46.53749686172826" lon="12.385343377510047"><ele>1206.3333333333333</ele><time>2026-04-19T17:02:15Z</time></trkpt><trkpt lat="46.53753897968055" lon="12.385273296477653"><ele>1203.0</ele><time>2026-04-19T17:02:17Z</time></trkpt><trkpt lat="46.53757006103411" lon="12.385176576113917"><ele>1199.6666666666667</ele><time>2026-04-19T17:02:20Z</time></trkpt><trkpt lat="46.537523907808755" lon="12.385102464997374"><ele>1196.3333333333335</ele><time>2026-04-19T17:02:22Z</time></trkpt><trkpt lat="46.53748385863598" lon="12.385013217641808"><ele>1193.0</ele><time>2026-04-19T17:02:25Z</time></trkpt><trkpt lat="46.53754130869035" lon="12.384911115005433"><ele>1193.0</ele><time>2026-04-19T17:02:27Z</time></trkpt><trkpt lat="46.53763648523153" lon="12.384802193930721"><ele>1193.0</ele><time>2026-04-19T17:02:29Z</time></trkpt><trkpt lat="46.5377194177737" lon="12.384689663224524"><ele>1193.0</ele><time>2026-04-19T17:02:31Z</time></trkpt><trkpt lat="46.53779875196439" lon="12.384594850936445"><ele>1193.0</ele><time>2026-04-19T17:02:33Z</time></trkpt><trkpt lat="46.537900408793014" lon="12.384527769083283"><ele>1193.0</ele><time>2026-04-19T17:02:35Z</time></trkpt><trkpt lat="46.537960305666275" lon="12.384495734458763"><ele>1192.0</ele><time>2026-04-19T17:02:36Z</time></trkpt><trkpt lat="46.53806149707653" lon="12.384393543642133"><ele>1191.0</ele><time>2026-04-19T17:02:38Z</time></trkpt><trkpt lat="46.53810991707268" lon="12.38428944373089"><ele>1190.0</ele><time>2026-04-19T17:02:40Z</time></trkpt><trkpt lat="46.53811830183192" lon="12.384194787094575"><ele>1189.0</ele><time>2026-04-19T17:02:41Z</time></trkpt><trkpt lat="46.538124252844895" lon="12.384054480087542"><ele>1188.0</ele><time>2026-04-19T17:02:43Z</time></trkpt><trkpt lat="46.538151970695615" lon="12.383887606609187"><ele>1185.3333333333333</ele><time>2026-04-19T17:02:45Z</time></trkpt><trkpt lat="46.53816965720379" lon="12.383778774521113"><ele>1182.6666666666667</ele><time>2026-04-19T17:02:46Z</time></trkpt><trkpt lat="46.53819001153769" lon="12.383667090707306"><ele>1180.0</ele><time>2026-04-19T17:02:47Z</time></trkpt><trkpt lat="46.53823539911422" lon="12.383550227793956"><ele>1177.3333333333335</ele><time>2026-04-19T17:02:48Z</time></trkpt><trkpt lat="46.538296512928646" lon="12.383451295545864"><ele>1174.6666666666667</ele><time>2026-04-19T17:02:49Z</time></trkpt><trkpt lat="46.53835305976461" lon="12.383358616350465"><ele>1172.0</ele><time>2026-04-19T17:02:50Z</time></trkpt><trkpt lat="46.53840049203473" lon="12.383266095909578"><ele>1171.9999999999998</ele><time>2026-04-19T17:02:51Z</time></trkpt><trkpt lat="46.538450823170116" lon="12.383177016077004"><ele>1172.0</ele><time>2026-04-19T17:02:52Z</time></trkpt><trkpt lat="46.538505954327235" lon="12.38310782380563"><ele>1172.0</ele><time>2026-04-19T17:02:53Z</time></trkpt><trkpt lat="46.538569544170294" lon="12.383056509604186"><ele>1172.0</ele><time>2026-04-19T17:02:54Z</time></trkpt><trkpt lat="46.53863088831529" lon="12.38301065685588"><ele>1172.0</ele><time>2026-04-19T17:02:55Z</time></trkpt><trkpt lat="46.53870127868694" lon="12.38296731486488"><ele>1171.9999999999998</ele><time>2026-04-19T17:02:56Z</time></trkpt><trkpt lat="46.53877552604203" lon="12.382932134788714"><ele>1172.0</ele><time>2026-04-19T17:02:56.999Z</time></trkpt><trkpt lat="46.53884497352757" lon="12.382880736841779"><ele>1169.8333333333335</ele><time>2026-04-19T17:02:57.999Z</time></trkpt><trkpt lat="46.53891319826447" lon="12.382816962925244"><ele>1167.6666666666667</ele><time>2026-04-19T17:02:58.999Z</time></trkpt><trkpt lat="46.53898314641487" lon="12.382758414855754"><ele>1165.5</ele><time>2026-04-19T17:02:59.999Z</time></trkpt><trkpt lat="46.539058695575804" lon="12.382696534070632"><ele>1163.3333333333333</ele><time>2026-04-19T17:03:00.999Z</time></trkpt><trkpt lat="46.53912889225022" lon="12.382635822418194"><ele>1161.1666666666665</ele><time>2026-04-19T17:03:01.999Z</time></trkpt><trkpt lat="46.53919387812806" lon="12.382580071883943"><ele>1159.0</ele><time>2026-04-19T17:03:02.999Z</time></trkpt><trkpt lat="46.53925697320035" lon="12.382438919206338"><ele>1159.0</ele><time>2026-04-19T17:03:04.999Z</time></trkpt><trkpt lat="46.53925760517068" lon="12.382292619349908"><ele>1159.0</ele><time>2026-04-19T17:03:06.999Z</time></trkpt><trkpt lat="46.539293121381974" lon="12.382191515452625"><ele>1159.0</ele><time>2026-04-19T17:03:09.999Z</time></trkpt><trkpt lat="46.539350561809385" lon="12.382095523780222"><ele>1159.0</ele><time>2026-04-19T17:03:11.999Z</time></trkpt><trkpt lat="46.5394131685975" lon="12.382002285833545"><ele>1159.0</ele><time>2026-04-19T17:03:13.999Z</time></trkpt><trkpt lat="46.53950651879802" lon="12.381959722765773"><ele>1159.0</ele><time>2026-04-19T17:03:16.999Z</time></trkpt><trkpt lat="46.539589143585815" lon="12.381943352340874"><ele>1159.0</ele><time>2026-04-19T17:03:18.999Z</time></trkpt><trkpt lat="46.53967029474027" lon="12.381863517532432"><ele>1159.0</ele><time>2026-04-19T17:03:20.999Z</time></trkpt><trkpt lat="46.53971458277044" lon="12.381728850365311"><ele>1159.0</ele><time>2026-04-19T17:03:22.999Z</time></trkpt><trkpt lat="46.53974575814782" lon="12.381566349020185"><ele>1159.0</ele><time>2026-04-19T17:03:24.999Z</time></trkpt><trkpt lat="46.539790531171136" lon="12.381408899205038"><ele>1156.0</ele><time>2026-04-19T17:03:26.999Z</time></trkpt><trkpt lat="46.53982199374439" lon="12.381281752549771"><ele>1153.0</ele><time>2026-04-19T17:03:28.999Z</time></trkpt><trkpt lat="46.539868553486876" lon="12.381165374260368"><ele>1150.0</ele><time>2026-04-19T17:03:30.999Z</time></trkpt><trkpt lat="46.539884930864496" lon="12.381023916522961"><ele>1147.0</ele><time>2026-04-19T17:03:32.999Z</time></trkpt><trkpt lat="46.53994757282697" lon="12.380934270688241"><ele>1144.0</ele><time>2026-04-19T17:03:34.999Z</time></trkpt><trkpt lat="46.539996309061195" lon="12.380804123278061"><ele>1144.0</ele><time>2026-04-19T17:03:36.999Z</time></trkpt><trkpt lat="46.54002647938862" lon="12.380712309913653"><ele>1144.0</ele><time>2026-04-19T17:03:37.999Z</time></trkpt><trkpt lat="46.540042669700526" lon="12.380599509437536"><ele>1144.0</ele><time>2026-04-19T17:03:38.999Z</time></trkpt><trkpt lat="46.54004433478591" lon="12.380458791472051"><ele>1144.0</ele><time>2026-04-19T17:03:39.999Z</time></trkpt><trkpt lat="46.54006225420393" lon="12.38035269542842"><ele>1144.0</ele><time>2026-04-19T17:03:40.999Z</time></trkpt><trkpt lat="46.54007579995192" lon="12.380219685857513"><ele>1144.0</ele><time>2026-04-19T17:03:41.999Z</time></trkpt><trkpt lat="46.54008058194804" lon="12.380089641957296"><ele>1142.1666666666665</ele><time>2026-04-19T17:03:42.999Z</time></trkpt><trkpt lat="46.54009103543549" lon="12.379972575738172"><ele>1140.3333333333333</ele><time>2026-04-19T17:03:43.999Z</time></trkpt><trkpt lat="46.54009818689201" lon="12.37986573154991"><ele>1138.5</ele><time>2026-04-19T17:03:45Z</time></trkpt><trkpt lat="46.54011484796357" lon="12.379743697529232"><ele>1136.6666666666667</ele><time>2026-04-19T17:03:46Z</time></trkpt><trkpt lat="46.54012108953385" lon="12.379609321694751"><ele>1134.8333333333335</ele><time>2026-04-19T17:03:47Z</time></trkpt><trkpt lat="46.54014370940853" lon="12.379504950339168"><ele>1133.0</ele><time>2026-04-19T17:03:48Z</time></trkpt><trkpt lat="46.5401581889527" lon="12.379403559471116"><ele>1132.4285714285713</ele><time>2026-04-19T17:03:49Z</time></trkpt><trkpt lat="46.54016426692918" lon="12.379302589437835"><ele>1131.857142857143</ele><time>2026-04-19T17:03:50Z</time></trkpt><trkpt lat="46.54017511330172" lon="12.37919985621592"><ele>1131.2857142857142</ele><time>2026-04-19T17:03:51Z</time></trkpt><trkpt lat="46.5401616672815" lon="12.379099680964272"><ele>1130.7142857142858</ele><time>2026-04-19T17:03:52Z</time></trkpt><trkpt lat="46.54013132091441" lon="12.378997634315757"><ele>1130.142857142857</ele><time>2026-04-19T17:03:53Z</time></trkpt><trkpt lat="46.54008413548235" lon="12.378920021442989"><ele>1129.5714285714284</ele><time>2026-04-19T17:03:54Z</time></trkpt><trkpt lat="46.540046079897124" lon="12.37883630281601"><ele>1129.0</ele><time>2026-04-19T17:03:55Z</time></trkpt><trkpt lat="46.54001622858507" lon="12.378746908444443"><ele>1128.4</ele><time>2026-04-19T17:03:56Z</time></trkpt><trkpt lat="46.53998018718495" lon="12.378594826791662"><ele>1127.8000000000002</ele><time>2026-04-19T17:03:58Z</time></trkpt><trkpt lat="46.53997712380496" lon="12.378414667232782"><ele>1127.1999999999998</ele><time>2026-04-19T17:04:00Z</time></trkpt><trkpt lat="46.53996104304125" lon="12.378321216982481"><ele>1126.6</ele><time>2026-04-19T17:04:01Z</time></trkpt><trkpt lat="46.53992235846714" lon="12.37814749459944"><ele>1126.0</ele><time>2026-04-19T17:04:03Z</time></trkpt><trkpt lat="46.53989259333491" lon="12.378016527949825"><ele>1124.6666666666665</ele><time>2026-04-19T17:04:05Z</time></trkpt><trkpt lat="46.53987528283627" lon="12.377909087352258"><ele>1123.3333333333333</ele><time>2026-04-19T17:04:07Z</time></trkpt><trkpt lat="46.53985364366579" lon="12.37781303427453"><ele>1122.0</ele><time>2026-04-19T17:04:09Z</time></trkpt><trkpt lat="46.53983435173277" lon="12.377725271700358"><ele>1120.6666666666667</ele><time>2026-04-19T17:04:11Z</time></trkpt><trkpt lat="46.53989896623237" lon="12.37756767144126"><ele>1119.3333333333335</ele><time>2026-04-19T17:04:13Z</time></trkpt><trkpt lat="46.53992927037841" lon="12.377471815491285"><ele>1118.0</ele><time>2026-04-19T17:04:14Z</time></trkpt><trkpt lat="46.53995959709817" lon="12.37737614181089"><ele>1118.0</ele><time>2026-04-19T17:04:15Z</time></trkpt><trkpt lat="46.539990792081504" lon="12.377288024006642"><ele>1118.0</ele><time>2026-04-19T17:04:16Z</time></trkpt><trkpt lat="46.54004888757797" lon="12.377113740696128"><ele>1118.0</ele><time>2026-04-19T17:04:18Z</time></trkpt><trkpt lat="46.54010209411687" lon="12.376953715480111"><ele>1118.0</ele><time>2026-04-19T17:04:20Z</time></trkpt><trkpt lat="46.540129254493735" lon="12.376869153784904"><ele>1118.0</ele><time>2026-04-19T17:04:21Z</time></trkpt><trkpt lat="46.5401608238125" lon="12.376785868815835"><ele>1118.5</ele><time>2026-04-19T17:04:22Z</time></trkpt><trkpt lat="46.54018887590987" lon="12.376700571659764"><ele>1119.0</ele><time>2026-04-19T17:04:23Z</time></trkpt><trkpt lat="46.54021703211227" lon="12.3766048481227"><ele>1119.5</ele><time>2026-04-19T17:04:24Z</time></trkpt><trkpt lat="46.54024742159722" lon="12.376510564363945"><ele>1120.0</ele><time>2026-04-19T17:04:25Z</time></trkpt><trkpt lat="46.54029167678381" lon="12.376434262213373"><ele>1120.5</ele><time>2026-04-19T17:04:26Z</time></trkpt><trkpt lat="46.540347017204574" lon="12.37626228255963"><ele>1121.0</ele><time>2026-04-19T17:04:28Z</time></trkpt><trkpt lat="46.5403885386781" lon="12.37617028476985"><ele>1121.0</ele><time>2026-04-19T17:04:29Z</time></trkpt><trkpt lat="46.54043397831469" lon="12.3761065268344"><ele>1121.0</ele><time>2026-04-19T17:04:30Z</time></trkpt><trkpt lat="46.54048191757311" lon="12.376043857720175"><ele>1121.0</ele><time>2026-04-19T17:04:31Z</time></trkpt><trkpt lat="46.54053379977634" lon="12.375963573375437"><ele>1121.0</ele><time>2026-04-19T17:04:32Z</time></trkpt><trkpt lat="46.54057525382155" lon="12.375889004607252"><ele>1121.0</ele><time>2026-04-19T17:04:33Z</time></trkpt><trkpt lat="46.540680336529036" lon="12.375775998944173"><ele>1121.0</ele><time>2026-04-19T17:04:35Z</time></trkpt><trkpt lat="46.54072323702128" lon="12.37570463577142"><ele>1121.0</ele><time>2026-04-19T17:04:36Z</time></trkpt><trkpt lat="46.540777440829935" lon="12.375648683668343"><ele>1121.0</ele><time>2026-04-19T17:04:37Z</time></trkpt><trkpt lat="46.54088389308037" lon="12.375562869387847"><ele>1121.0</ele><time>2026-04-19T17:04:39Z</time></trkpt><trkpt lat="46.54094929821106" lon="12.375493132024701"><ele>1121.0</ele><time>2026-04-19T17:04:40Z</time></trkpt><trkpt lat="46.5410203619612" lon="12.375438926152833"><ele>1121.0</ele><time>2026-04-19T17:04:41Z</time></trkpt><trkpt lat="46.54107744985277" lon="12.375391738713079"><ele>1121.0</ele><time>2026-04-19T17:04:42Z</time></trkpt><trkpt lat="46.5411492852516" lon="12.375358646496121"><ele>1120.5</ele><time>2026-04-19T17:04:43Z</time></trkpt><trkpt lat="46.54122392014449" lon="12.375332026757954"><ele>1120.0</ele><time>2026-04-19T17:04:44Z</time></trkpt><trkpt lat="46.54130020398386" lon="12.37531526469606"><ele>1119.5</ele><time>2026-04-19T17:04:45Z</time></trkpt><trkpt lat="46.54138352588697" lon="12.37529518985561"><ele>1119.0</ele><time>2026-04-19T17:04:46Z</time></trkpt><trkpt lat="46.5414579328481" lon="12.375264886287669"><ele>1118.5</ele><time>2026-04-19T17:04:47Z</time></trkpt><trkpt lat="46.541524886125764" lon="12.375251212011957"><ele>1118.0</ele><time>2026-04-19T17:04:48Z</time></trkpt><trkpt lat="46.54159295501986" lon="12.3752277517293"><ele>1118.0</ele><time>2026-04-19T17:04:49Z</time></trkpt><trkpt lat="46.5416951485057" lon="12.375167137382476"><ele>1118.0</ele><time>2026-04-19T17:04:51Z</time></trkpt><trkpt lat="46.541768992647484" lon="12.375150903354404"><ele>1118.0</ele><time>2026-04-19T17:04:52Z</time></trkpt><trkpt lat="46.54185804345892" lon="12.375125484063362"><ele>1118.0</ele><time>2026-04-19T17:04:53Z</time></trkpt><trkpt lat="46.541932237778965" lon="12.375121832507558"><ele>1118.0</ele><time>2026-04-19T17:04:54Z</time></trkpt><trkpt lat="46.54201232858963" lon="12.375113819622095"><ele>1118.0</ele><time>2026-04-19T17:04:55Z</time></trkpt><trkpt lat="46.54213372876692" lon="12.375065836147359"><ele>1116.1666666666667</ele><time>2026-04-19T17:04:57Z</time></trkpt><trkpt lat="46.54221699141911" lon="12.374995750317746"><ele>1114.3333333333335</ele><time>2026-04-19T17:04:59Z</time></trkpt><trkpt lat="46.54226713953002" lon="12.374864200117027"><ele>1112.5</ele><time>2026-04-19T17:05:01Z</time></trkpt><trkpt lat="46.542242494554394" lon="12.374724691676855"><ele>1110.6666666666667</ele><time>2026-04-19T17:05:02.999Z</time></trkpt><trkpt lat="46.542205833557496" lon="12.3746472330677"><ele>1108.8333333333333</ele><time>2026-04-19T17:05:03.999Z</time></trkpt><trkpt lat="46.54216282459334" lon="12.374570939204169"><ele>1107.0</ele><time>2026-04-19T17:05:04.999Z</time></trkpt><trkpt lat="46.542100611841704" lon="12.374505830899773"><ele>1107.1666666666667</ele><time>2026-04-19T17:05:05.999Z</time></trkpt><trkpt lat="46.542027916113895" lon="12.37446021351018"><ele>1107.3333333333333</ele><time>2026-04-19T17:05:06.999Z</time></trkpt><trkpt lat="46.541944367366725" lon="12.374418283436654"><ele>1107.5</ele><time>2026-04-19T17:05:07.999Z</time></trkpt><trkpt lat="46.54187576900698" lon="12.37439843903153"><ele>1107.6666666666665</ele><time>2026-04-19T17:05:08.999Z</time></trkpt><trkpt lat="46.541778433093924" lon="12.374360763334941"><ele>1107.8333333333333</ele><time>2026-04-19T17:05:10.999Z</time></trkpt><trkpt lat="46.54174257711212" lon="12.374268503986038"><ele>1108.0</ele><time>2026-04-19T17:05:12.999Z</time></trkpt><trkpt lat="46.54176935496088" lon="12.37412833951722"><ele>1108.0</ele><time>2026-04-19T17:05:14.999Z</time></trkpt><trkpt lat="46.541825009074344" lon="12.37402282644601"><ele>1108.0</ele><time>2026-04-19T17:05:16.999Z</time></trkpt><trkpt lat="46.54186244376431" lon="12.3739365587163"><ele>1108.0</ele><time>2026-04-19T17:05:18.999Z</time></trkpt><trkpt lat="46.54190065963194" lon="12.373838436979957"><ele>1108.0</ele><time>2026-04-19T17:05:21.999Z</time></trkpt><trkpt lat="46.54193253987796" lon="12.373744547328283"><ele>1108.0</ele><time>2026-04-19T17:05:23.999Z</time></trkpt><trkpt lat="46.541977595919015" lon="12.373655603504918"><ele>1108.0</ele><time>2026-04-19T17:05:25.999Z</time></trkpt><trkpt lat="46.5420436059432" lon="12.373623313186915"><ele>1110.4</ele><time>2026-04-19T17:05:27.999Z</time></trkpt><trkpt lat="46.542132334673816" lon="12.373670928068437"><ele>1112.8</ele><time>2026-04-19T17:05:29.999Z</time></trkpt><trkpt lat="46.542257310947" lon="12.373749808641954"><ele>1115.2</ele><time>2026-04-19T17:05:31.999Z</time></trkpt><trkpt lat="46.54233821995874" lon="12.373812808843537"><ele>1117.6</ele><time>2026-04-19T17:05:32.999Z</time></trkpt><trkpt lat="46.54241686053557" lon="12.373843203014932"><ele>1120.0</ele><time>2026-04-19T17:05:33.999Z</time></trkpt><trkpt lat="46.54249088469206" lon="12.373834726661176"><ele>1117.8333333333333</ele><time>2026-04-19T17:05:34.999Z</time></trkpt><trkpt lat="46.54255848006584" lon="12.373878859755758"><ele>1115.6666666666665</ele><time>2026-04-19T17:05:35.999Z</time></trkpt><trkpt lat="46.54262267479386" lon="12.373872462644178"><ele>1113.5</ele><time>2026-04-19T17:05:36.999Z</time></trkpt><trkpt lat="46.542658839925004" lon="12.374018349127445"><ele>1111.3333333333333</ele><time>2026-04-19T17:05:37.999Z</time></trkpt><trkpt lat="46.54270913295433" lon="12.374081107221105"><ele>1109.1666666666667</ele><time>2026-04-19T17:05:38.999Z</time></trkpt><trkpt lat="46.54275927660623" lon="12.37414772989515"><ele>1107.0</ele><time>2026-04-19T17:05:39.999Z</time></trkpt><trkpt lat="46.542831034132846" lon="12.374238897242385"><ele>1105.5</ele><time>2026-04-19T17:05:40.999Z</time></trkpt><trkpt lat="46.5429173111537" lon="12.374357449113843"><ele>1104.0</ele><time>2026-04-19T17:05:41.999Z</time></trkpt><trkpt lat="46.54300968043082" lon="12.374493431550345"><ele>1102.5</ele><time>2026-04-19T17:05:42.999Z</time></trkpt><trkpt lat="46.54311039114185" lon="12.374638729158475"><ele>1101.0</ele><time>2026-04-19T17:05:43.999Z</time></trkpt><trkpt lat="46.54320433870256" lon="12.374772097721214"><ele>1101.0</ele><time>2026-04-19T17:05:44.999Z</time></trkpt><trkpt lat="46.543294555932086" lon="12.374900170682148"><ele>1101.0</ele><time>2026-04-19T17:05:45.999Z</time></trkpt><trkpt lat="46.543385877897144" lon="12.375026585762216"><ele>1101.0</ele><time>2026-04-19T17:05:46.999Z</time></trkpt><trkpt lat="46.543485349055985" lon="12.375120552613993"><ele>1101.0</ele><time>2026-04-19T17:05:47.999Z</time></trkpt><trkpt lat="46.5435558453145" lon="12.37523565987102"><ele>1101.0</ele><time>2026-04-19T17:05:48.999Z</time></trkpt><trkpt lat="46.54362027524095" lon="12.375351204511652"><ele>1101.0</ele><time>2026-04-19T17:05:49.999Z</time></trkpt><trkpt lat="46.5436712910875" lon="12.375473091066949"><ele>1101.0</ele><time>2026-04-19T17:05:51Z</time></trkpt><trkpt lat="46.54371459386816" lon="12.375594659924472"><ele>1101.0</ele><time>2026-04-19T17:05:52Z</time></trkpt><trkpt lat="46.54375481039437" lon="12.375725953436591"><ele>1101.0</ele><time>2026-04-19T17:05:53Z</time></trkpt><trkpt lat="46.54377657890176" lon="12.3758658329105"><ele>1102.8</ele><time>2026-04-19T17:05:54Z</time></trkpt><trkpt lat="46.543826255226456" lon="12.37599841984991"><ele>1104.6</ele><time>2026-04-19T17:05:55Z</time></trkpt><trkpt lat="46.54389178979663" lon="12.376113435712913"><ele>1106.4</ele><time>2026-04-19T17:05:56Z</time></trkpt><trkpt lat="46.54398031467927" lon="12.376204018500129"><ele>1108.2</ele><time>2026-04-19T17:05:57Z</time></trkpt><trkpt lat="46.54405192528135" lon="12.376324001895604"><ele>1110.0</ele><time>2026-04-19T17:05:58Z</time></trkpt><trkpt lat="46.54410729799279" lon="12.376463541061598"><ele>1106.2</ele><time>2026-04-19T17:05:59Z</time></trkpt><trkpt lat="46.54418518502395" lon="12.376585231370916"><ele>1102.4</ele><time>2026-04-19T17:06:00Z</time></trkpt><trkpt lat="46.54426816013408" lon="12.376702509928073"><ele>1098.6</ele><time>2026-04-19T17:06:01Z</time></trkpt><trkpt lat="46.54435488729604" lon="12.37679708807159"><ele>1094.8</ele><time>2026-04-19T17:06:02Z</time></trkpt><trkpt lat="46.54441077432396" lon="12.376894205403358"><ele>1091.0</ele><time>2026-04-19T17:06:03Z</time></trkpt><trkpt lat="46.54446776824894" lon="12.376982062032733"><ele>1091.0</ele><time>2026-04-19T17:06:04Z</time></trkpt><trkpt lat="46.54452215698991" lon="12.377063909667902"><ele>1091.0</ele><time>2026-04-19T17:06:05Z</time></trkpt><trkpt lat="46.54458441532954" lon="12.377134347306887"><ele>1091.0</ele><time>2026-04-19T17:06:06Z</time></trkpt><trkpt lat="46.54465746525847" lon="12.37720354714144"><ele>1091.0</ele><time>2026-04-19T17:06:07Z</time></trkpt><trkpt lat="46.544716745524155" lon="12.377291704718207"><ele>1091.0</ele><time>2026-04-19T17:06:08Z</time></trkpt><trkpt lat="46.54476694362639" lon="12.377365774363895"><ele>1091.0</ele><time>2026-04-19T17:06:09Z</time></trkpt><trkpt lat="46.54484049175873" lon="12.37749629272753"><ele>1091.3333333333335</ele><time>2026-04-19T17:06:11Z</time></trkpt><trkpt lat="46.54490874110255" lon="12.377642986614397"><ele>1091.6666666666667</ele><time>2026-04-19T17:06:13Z</time></trkpt><trkpt lat="46.54495163027221" lon="12.37773848536015"><ele>1092.0</ele><time>2026-04-19T17:06:16Z</time></trkpt><trkpt lat="46.54489994469589" lon="12.377667607804824"><ele>1092.3333333333333</ele><time>2026-04-19T17:06:28Z</time></trkpt><trkpt lat="46.54486162121512" lon="12.377582275204706"><ele>1092.6666666666665</ele><time>2026-04-19T17:06:31Z</time></trkpt><trkpt lat="46.54480049610556" lon="12.377548598548188"><ele>1093.0</ele><time>2026-04-19T17:06:36Z</time></trkpt><trkpt lat="46.544470952498806" lon="12.377855572496921"><ele>1091.2857142857142</ele><time>2026-04-19T17:06:38Z</time></trkpt><trkpt lat="46.54438415500576" lon="12.377886848420863"><ele>1089.5714285714284</ele><time>2026-04-19T17:06:41Z</time></trkpt><trkpt lat="46.54429313082937" lon="12.377836353536988"><ele>1087.8571428571427</ele><time>2026-04-19T17:06:44Z</time></trkpt><trkpt lat="46.544230706250424" lon="12.377809895073323"><ele>1086.142857142857</ele><time>2026-04-19T17:06:46Z</time></trkpt><trkpt lat="46.544169687754525" lon="12.37778248362433"><ele>1084.4285714285713</ele><time>2026-04-19T17:06:48Z</time></trkpt><trkpt lat="46.544108248875574" lon="12.377751008339667"><ele>1082.7142857142856</ele><time>2026-04-19T17:06:50Z</time></trkpt><trkpt lat="46.5440619583043" lon="12.377677916001876"><ele>1081.0</ele><time>2026-04-19T17:06:53Z</time></trkpt><trkpt lat="46.54401585083743" lon="12.377615589799728"><ele>1080.9999999999998</ele><time>2026-04-19T17:07:02Z</time></trkpt><trkpt lat="46.543990187425464" lon="12.377519326818966"><ele>1081.0</ele><time>2026-04-19T17:07:43.999Z</time></trkpt><trkpt lat="46.543951465926135" lon="12.37742604153195"><ele>1081.0</ele><time>2026-04-19T17:09:18.999Z</time></trkpt><trkpt lat="46.54398085094614" lon="12.377320737431866"><ele>1081.0</ele><time>2026-04-19T17:09:35.999Z</time></trkpt><trkpt lat="46.544014024722344" lon="12.37723550806221"><ele>1081.0</ele><time>2026-04-19T17:09:37.999Z</time></trkpt><trkpt lat="46.54405242131864" lon="12.377144534535988"><ele>1080.9999999999998</ele><time>2026-04-19T17:09:39.999Z</time></trkpt><trkpt lat="46.54408177031973" lon="12.377058071994306"><ele>1081.0</ele><time>2026-04-19T17:09:41.999Z</time></trkpt><trkpt lat="46.544142432444026" lon="12.37692237915484"><ele>1082.6666666666665</ele><time>2026-04-19T17:09:44.999Z</time></trkpt><trkpt lat="46.54419490645845" lon="12.37681293414583"><ele>1084.3333333333333</ele><time>2026-04-19T17:09:46.999Z</time></trkpt><trkpt lat="46.544221218258215" lon="12.376723117495647"><ele>1086.0</ele><time>2026-04-19T17:09:48.999Z</time></trkpt><trkpt lat="46.54422346047794" lon="12.376611343471184"><ele>1087.6666666666667</ele><time>2026-04-19T17:09:51.999Z</time></trkpt><trkpt lat="46.54418944173397" lon="12.376523030250723"><ele>1089.3333333333335</ele><time>2026-04-19T17:09:53.999Z</time></trkpt><trkpt lat="46.54414258836011" lon="12.37644918013648"><ele>1091.0</ele><time>2026-04-19T17:09:56.999Z</time></trkpt><trkpt lat="46.544195015136985" lon="12.376531947929983"><ele>1091.0</ele><time>2026-04-19T17:10:14Z</time></trkpt><trkpt lat="46.54425740786298" lon="12.376620166451287"><ele>1091.0</ele><time>2026-04-19T17:10:16Z</time></trkpt><trkpt lat="46.544314287957675" lon="12.376696560325742"><ele>1091.0</ele><time>2026-04-19T17:10:17Z</time></trkpt><trkpt lat="46.5443950498579" lon="12.376824410871501"><ele>1091.0</ele><time>2026-04-19T17:10:19Z</time></trkpt><trkpt lat="46.54443824273189" lon="12.376898425476298"><ele>1091.0</ele><time>2026-04-19T17:10:20Z</time></trkpt><trkpt lat="46.544484732191385" lon="12.37697361329198"><ele>1091.0</ele><time>2026-04-19T17:10:21Z</time></trkpt><trkpt lat="46.544534185607354" lon="12.377052972257532"><ele>1091.3333333333335</ele><time>2026-04-19T17:10:22Z</time></trkpt><trkpt lat="46.5446006952334" lon="12.37712357555788"><ele>1091.6666666666667</ele><time>2026-04-19T17:10:23Z</time></trkpt><trkpt lat="46.54466696538089" lon="12.377186950518915"><ele>1092.0</ele><time>2026-04-19T17:10:24Z</time></trkpt><trkpt lat="46.54472543440931" lon="12.377257849648181"><ele>1092.3333333333333</ele><time>2026-04-19T17:10:25Z</time></trkpt><trkpt lat="46.5447767996685" lon="12.377340540915172"><ele>1092.6666666666665</ele><time>2026-04-19T17:10:26Z</time></trkpt><trkpt lat="46.54482912016168" lon="12.37744174815219"><ele>1093.0</ele><time>2026-04-19T17:10:27Z</time></trkpt><trkpt lat="46.5448770692355" lon="12.377544283911627"><ele>1093.0</ele><time>2026-04-19T17:10:28Z</time></trkpt><trkpt lat="46.544921762672374" lon="12.377637857256628"><ele>1093.0</ele><time>2026-04-19T17:10:29Z</time></trkpt><trkpt lat="46.54496601439925" lon="12.377725080449405"><ele>1093.0</ele><time>2026-04-19T17:10:30Z</time></trkpt><trkpt lat="46.545009852211486" lon="12.377816283139511"><ele>1093.0</ele><time>2026-04-19T17:10:31Z</time></trkpt><trkpt lat="46.545049583143985" lon="12.377902985324932"><ele>1093.0</ele><time>2026-04-19T17:10:32Z</time></trkpt><trkpt lat="46.54508553958674" lon="12.377979401840706"><ele>1093.0</ele><time>2026-04-19T17:10:33Z</time></trkpt><trkpt lat="46.54512544769179" lon="12.37805146840878"><ele>1093.0</ele><time>2026-04-19T17:10:34Z</time></trkpt><trkpt lat="46.54518284398559" lon="12.378104779342193"><ele>1091.8333333333333</ele><time>2026-04-19T17:10:35Z</time></trkpt><trkpt lat="46.54525662601078" lon="12.378166279439364"><ele>1090.6666666666665</ele><time>2026-04-19T17:10:36Z</time></trkpt><trkpt lat="46.54533231197638" lon="12.378232696793663"><ele>1089.5</ele><time>2026-04-19T17:10:37Z</time></trkpt><trkpt lat="46.545390361163015" lon="12.378333156735811"><ele>1088.3333333333333</ele><time>2026-04-19T17:10:38Z</time></trkpt><trkpt lat="46.545454902559584" lon="12.378413055491544"><ele>1087.1666666666667</ele><time>2026-04-19T17:10:39Z</time></trkpt><trkpt lat="46.545511882578694" lon="12.378491958480355"><ele>1086.0</ele><time>2026-04-19T17:10:40Z</time></trkpt><trkpt lat="46.54556052078419" lon="12.378574075813708"><ele>1086.0</ele><time>2026-04-19T17:10:41Z</time></trkpt><trkpt lat="46.545606861169865" lon="12.378661184383601"><ele>1086.0</ele><time>2026-04-19T17:10:42Z</time></trkpt><trkpt lat="46.54565564685425" lon="12.378741395440496"><ele>1086.0</ele><time>2026-04-19T17:10:43Z</time></trkpt><trkpt lat="46.545701966984346" lon="12.378810425304355"><ele>1086.0</ele><time>2026-04-19T17:10:44Z</time></trkpt><trkpt lat="46.54574788068313" lon="12.378874322102"><ele>1086.0</ele><time>2026-04-19T17:10:45Z</time></trkpt><trkpt lat="46.545862985713796" lon="12.37896550707597"><ele>1086.0</ele><time>2026-04-19T17:10:47Z</time></trkpt><trkpt lat="46.54592659599533" lon="12.37899101615763"><ele>1083.8333333333333</ele><time>2026-04-19T17:10:48Z</time></trkpt><trkpt lat="46.54600034795458" lon="12.379001930514038"><ele>1081.6666666666667</ele><time>2026-04-19T17:10:49Z</time></trkpt><trkpt lat="46.54607335816016" lon="12.37900581616944"><ele>1079.5</ele><time>2026-04-19T17:10:50Z</time></trkpt><trkpt lat="46.54615173199082" lon="12.378996392856823"><ele>1077.3333333333335</ele><time>2026-04-19T17:10:51Z</time></trkpt><trkpt lat="46.546230054114545" lon="12.378987807092383"><ele>1075.1666666666667</ele><time>2026-04-19T17:10:52Z</time></trkpt><trkpt lat="46.54630682819358" lon="12.378988213708936"><ele>1073.0</ele><time>2026-04-19T17:10:53Z</time></trkpt><trkpt lat="46.54638172459188" lon="12.378989569176845"><ele>1073.0</ele><time>2026-04-19T17:10:54Z</time></trkpt><trkpt lat="46.546448892856844" lon="12.379042958566263"><ele>1073.0</ele><time>2026-04-19T17:10:55Z</time></trkpt><trkpt lat="46.546515404949986" lon="12.379092227161454"><ele>1073.0</ele><time>2026-04-19T17:10:56Z</time></trkpt><trkpt lat="46.54657300457529" lon="12.37915086275898"><ele>1073.0</ele><time>2026-04-19T17:10:57Z</time></trkpt><trkpt lat="46.546653064989" lon="12.379296461615917"><ele>1073.0</ele><time>2026-04-19T17:10:59Z</time></trkpt><trkpt lat="46.54668756325374" lon="12.379472371167399"><ele>1073.0</ele><time>2026-04-19T17:11:01Z</time></trkpt><trkpt lat="46.54667809448069" lon="12.37958395067299"><ele>1073.0</ele><time>2026-04-19T17:11:02Z</time></trkpt><trkpt lat="46.54669245661469" lon="12.379695155288534"><ele>1073.0</ele><time>2026-04-19T17:11:03Z</time></trkpt><trkpt lat="46.546718270061945" lon="12.379804426220907"><ele>1073.0</ele><time>2026-04-19T17:11:04Z</time></trkpt><trkpt lat="46.54674572692197" lon="12.379894852389985"><ele>1073.0</ele><time>2026-04-19T17:11:05Z</time></trkpt><trkpt lat="46.546791383649726" lon="12.379976776071073"><ele>1073.0</ele><time>2026-04-19T17:11:06Z</time></trkpt><trkpt lat="46.54690186344216" lon="12.380054121065303"><ele>1071.6666666666667</ele><time>2026-04-19T17:11:08Z</time></trkpt><trkpt lat="46.546966087131295" lon="12.38003217791577"><ele>1070.3333333333335</ele><time>2026-04-19T17:11:09Z</time></trkpt><trkpt lat="46.54707250736935" lon="12.380005161974154"><ele>1069.0</ele><time>2026-04-19T17:11:11Z</time></trkpt><trkpt lat="46.54714093946574" lon="12.380095167521004"><ele>1067.6666666666667</ele><time>2026-04-19T17:11:13Z</time></trkpt><trkpt lat="46.547194134096976" lon="12.38023710678584"><ele>1066.3333333333333</ele><time>2026-04-19T17:11:15Z</time></trkpt><trkpt lat="46.54722630368343" lon="12.380330017321976"><ele>1065.0</ele><time>2026-04-19T17:11:16Z</time></trkpt><trkpt lat="46.5472608634821" lon="12.380427794730574"><ele>1060.8333333333333</ele><time>2026-04-19T17:11:17Z</time></trkpt><trkpt lat="46.54729724048013" lon="12.380519081805549"><ele>1056.6666666666667</ele><time>2026-04-19T17:11:18Z</time></trkpt><trkpt lat="46.54733666657195" lon="12.380608785835724"><ele>1052.5</ele><time>2026-04-19T17:11:19Z</time></trkpt><trkpt lat="46.54739267251563" lon="12.380702659054846"><ele>1048.3333333333335</ele><time>2026-04-19T17:11:20Z</time></trkpt><trkpt lat="46.54746778009516" lon="12.380777577485327"><ele>1044.1666666666667</ele><time>2026-04-19T17:11:20.999Z</time></trkpt><trkpt lat="46.54754063238317" lon="12.380837781216725"><ele>1040.0</ele><time>2026-04-19T17:11:21.999Z</time></trkpt><trkpt lat="46.54761193922525" lon="12.38091127642338"><ele>1040.0</ele><time>2026-04-19T17:11:22.999Z</time></trkpt><trkpt lat="46.5476865184844" lon="12.380992939595192"><ele>1040.0</ele><time>2026-04-19T17:11:23.999Z</time></trkpt><trkpt lat="46.54775318668851" lon="12.381074446311258"><ele>1040.0</ele><time>2026-04-19T17:11:24.999Z</time></trkpt><trkpt lat="46.54781139961822" lon="12.38116912607997"><ele>1040.0</ele><time>2026-04-19T17:11:25.999Z</time></trkpt><trkpt lat="46.54787244176062" lon="12.38127042303972"><ele>1040.0</ele><time>2026-04-19T17:11:26.999Z</time></trkpt><trkpt lat="46.54794374717431" lon="12.381361265971536"><ele>1038.4</ele><time>2026-04-19T17:11:27.999Z</time></trkpt><trkpt lat="46.5480150483589" lon="12.381440353849092"><ele>1036.8</ele><time>2026-04-19T17:11:28.999Z</time></trkpt><trkpt lat="46.54807695317032" lon="12.381542841494241"><ele>1035.2</ele><time>2026-04-19T17:11:29.999Z</time></trkpt><trkpt lat="46.54815354723368" lon="12.381635960449719"><ele>1033.6</ele><time>2026-04-19T17:11:30.999Z</time></trkpt><trkpt lat="46.548235792474365" lon="12.381736888627563"><ele>1032.0</ele><time>2026-04-19T17:11:31.999Z</time></trkpt><trkpt lat="46.5483372237712" lon="12.38188232477919"><ele>1032.0</ele><time>2026-04-19T17:11:32.999Z</time></trkpt><trkpt lat="46.54843112138178" lon="12.382056531639023"><ele>1032.0</ele><time>2026-04-19T17:11:33.999Z</time></trkpt><trkpt lat="46.54849514051195" lon="12.3822134188231"><ele>1032.0</ele><time>2026-04-19T17:11:34.999Z</time></trkpt><trkpt lat="46.548547547299414" lon="12.38235294339893"><ele>1032.0</ele><time>2026-04-19T17:11:35.999Z</time></trkpt><trkpt lat="46.54868688103832" lon="12.382487371096824"><ele>1034.25</ele><time>2026-04-19T17:11:36.999Z</time></trkpt><trkpt lat="46.548768259037516" lon="12.382629391949406"><ele>1036.5</ele><time>2026-04-19T17:11:37.999Z</time></trkpt><trkpt lat="46.54884879024813" lon="12.382768465578541"><ele>1038.75</ele><time>2026-04-19T17:11:38.999Z</time></trkpt><trkpt lat="46.54893297991788" lon="12.382909005144244"><ele>1041.0</ele><time>2026-04-19T17:11:39.999Z</time></trkpt><trkpt lat="46.54901347955248" lon="12.383035821580155"><ele>1036.8</ele><time>2026-04-19T17:11:40.999Z</time></trkpt><trkpt lat="46.54909344281524" lon="12.383154260066814"><ele>1032.6</ele><time>2026-04-19T17:11:41.999Z</time></trkpt><trkpt lat="46.54917402018425" lon="12.383254802182316"><ele>1028.4</ele><time>2026-04-19T17:11:42.999Z</time></trkpt><trkpt lat="46.549243652601646" lon="12.383364191850086"><ele>1024.2</ele><time>2026-04-19T17:11:43.999Z</time></trkpt><trkpt lat="46.54929211378405" lon="12.383479819391717"><ele>1020.0</ele><time>2026-04-19T17:11:44.999Z</time></trkpt><trkpt lat="46.549341464430285" lon="12.383577164920249"><ele>1020.0</ele><time>2026-04-19T17:11:45.999Z</time></trkpt><trkpt lat="46.54939233768943" lon="12.383645956903361"><ele>1020.0</ele><time>2026-04-19T17:11:46.999Z</time></trkpt><trkpt lat="46.549448559112605" lon="12.383704520209218"><ele>1020.0</ele><time>2026-04-19T17:11:47.999Z</time></trkpt><trkpt lat="46.549525515766405" lon="12.383712471421886"><ele>1020.0</ele><time>2026-04-19T17:11:48.999Z</time></trkpt><trkpt lat="46.54959851804765" lon="12.383736297213659"><ele>1020.0</ele><time>2026-04-19T17:11:49.999Z</time></trkpt><trkpt lat="46.5496847831487" lon="12.3837624461241"><ele>1020.0</ele><time>2026-04-19T17:11:50.999Z</time></trkpt><trkpt lat="46.549786567807146" lon="12.383784792646681"><ele>1024.5</ele><time>2026-04-19T17:11:51.999Z</time></trkpt><trkpt lat="46.549898912278785" lon="12.38380882577431"><ele>1029.0</ele><time>2026-04-19T17:11:52.999Z</time></trkpt><trkpt lat="46.55002309007524" lon="12.38382215641412"><ele>1033.5</ele><time>2026-04-19T17:11:53.999Z</time></trkpt><trkpt lat="46.55015257448656" lon="12.383827974372048"><ele>1038.0</ele><time>2026-04-19T17:11:54.999Z</time></trkpt><trkpt lat="46.55028425083215" lon="12.383835656077308"><ele>1030.5</ele><time>2026-04-19T17:11:55.999Z</time></trkpt><trkpt lat="46.550418696425595" lon="12.383856278339769"><ele>1023.0</ele><time>2026-04-19T17:11:56.999Z</time></trkpt><trkpt lat="46.550558756450954" lon="12.383898120100202"><ele>1015.5</ele><time>2026-04-19T17:11:57.999Z</time></trkpt><trkpt lat="46.550699121325984" lon="12.383948581224098"><ele>1008.0</ele><time>2026-04-19T17:11:58.999Z</time></trkpt><trkpt lat="46.55084678447419" lon="12.384017268825653"><ele>1008.0</ele><time>2026-04-19T17:11:59.999Z</time></trkpt><trkpt lat="46.55100130092399" lon="12.384096123995569"><ele>1008.0</ele><time>2026-04-19T17:12:00.999Z</time></trkpt><trkpt lat="46.55115392159578" lon="12.384167081044989"><ele>1008.0</ele><time>2026-04-19T17:12:01.999Z</time></trkpt><trkpt lat="46.55130902577907" lon="12.384239358132136"><ele>1011.25</ele><time>2026-04-19T17:12:02.999Z</time></trkpt><trkpt lat="46.55145444342395" lon="12.384298223453884"><ele>1014.5</ele><time>2026-04-19T17:12:03.999Z</time></trkpt><trkpt lat="46.551593239667945" lon="12.384350859082145"><ele>1017.75</ele><time>2026-04-19T17:12:04.999Z</time></trkpt><trkpt lat="46.55172470968262" lon="12.384416470861527"><ele>1021.0</ele><time>2026-04-19T17:12:05.999Z</time></trkpt><trkpt lat="46.55186105515989" lon="12.38448861270897"><ele>1021.0</ele><time>2026-04-19T17:12:06.999Z</time></trkpt><trkpt lat="46.551996472939756" lon="12.384567269061934"><ele>1021.0</ele><time>2026-04-19T17:12:08.001Z</time></trkpt><trkpt lat="46.55212738053059" lon="12.384636773538057"><ele>1021.0</ele><time>2026-04-19T17:12:09.001Z</time></trkpt><trkpt lat="46.552244618037165" lon="12.384715475116405"><ele>1021.0</ele><time>2026-04-19T17:12:10Z</time></trkpt><trkpt lat="46.55235470226397" lon="12.3847928187989"><ele>1016.25</ele><time>2026-04-19T17:12:11.001Z</time></trkpt><trkpt lat="46.552461245063164" lon="12.384867823071184"><ele>1011.5</ele><time>2026-04-19T17:12:12.001Z</time></trkpt><trkpt lat="46.55257563986698" lon="12.38494558149056"><ele>1006.75</ele><time>2026-04-19T17:12:13Z</time></trkpt><trkpt lat="46.55269833800795" lon="12.385022417684377"><ele>1002.0</ele><time>2026-04-19T17:12:14Z</time></trkpt><trkpt lat="46.552827552396046" lon="12.385079411065789"><ele>1007.5</ele><time>2026-04-19T17:12:15Z</time></trkpt><trkpt lat="46.55295851759911" lon="12.38512631077847"><ele>1013.0</ele><time>2026-04-19T17:12:16Z</time></trkpt><trkpt lat="46.5530798949848" lon="12.385178033162202"><ele>1018.5</ele><time>2026-04-19T17:12:17Z</time></trkpt><trkpt lat="46.55319272736375" lon="12.385234630832711"><ele>1024.0</ele><time>2026-04-19T17:12:18Z</time></trkpt><trkpt lat="46.55329537796885" lon="12.385308233789658"><ele>1024.0</ele><time>2026-04-19T17:12:19Z</time></trkpt><trkpt lat="46.55339269092547" lon="12.385400165261126"><ele>1024.0</ele><time>2026-04-19T17:12:20Z</time></trkpt><trkpt lat="46.55349859867108" lon="12.385504712706012"><ele>1024.0</ele><time>2026-04-19T17:12:21Z</time></trkpt><trkpt lat="46.55361342644529" lon="12.385600916731853"><ele>1024.0</ele><time>2026-04-19T17:12:22Z</time></trkpt><trkpt lat="46.55372941496839" lon="12.385698020303039"><ele>1019.75</ele><time>2026-04-19T17:12:23Z</time></trkpt><trkpt lat="46.55383060631505" lon="12.385792733193549"><ele>1015.5</ele><time>2026-04-19T17:12:24Z</time></trkpt><trkpt lat="46.553922657892926" lon="12.38588217328703"><ele>1011.25</ele><time>2026-04-19T17:12:25Z</time></trkpt><trkpt lat="46.5540177258944" lon="12.385966504936238"><ele>1007.0</ele><time>2026-04-19T17:12:26Z</time></trkpt><trkpt lat="46.554129720325506" lon="12.386052526129875"><ele>1007.0</ele><time>2026-04-19T17:12:27Z</time></trkpt><trkpt lat="46.55423596356349" lon="12.386130146452686"><ele>1007.0</ele><time>2026-04-19T17:12:28Z</time></trkpt><trkpt lat="46.55432478358958" lon="12.386183521591859"><ele>1007.0</ele><time>2026-04-19T17:12:29Z</time></trkpt><trkpt lat="46.55439105312038" lon="12.386229228659555"><ele>1007.0</ele><time>2026-04-19T17:12:30Z</time></trkpt><trkpt lat="46.554472666952435" lon="12.386314056632115"><ele>1007.0</ele><time>2026-04-19T17:12:32Z</time></trkpt><trkpt lat="46.554548476025275" lon="12.38636171557343"><ele>1004.6666666666667</ele><time>2026-04-19T17:12:58Z</time></trkpt><trkpt lat="46.55465099482848" lon="12.386386946011244"><ele>1002.3333333333334</ele><time>2026-04-19T17:13:00Z</time></trkpt><trkpt lat="46.55472713778562" lon="12.386405540895574"><ele>1000.0</ele><time>2026-04-19T17:13:00.999Z</time></trkpt><trkpt lat="46.55480343328119" lon="12.386424744303564"><ele>997.6666666666667</ele><time>2026-04-19T17:13:01.999Z</time></trkpt><trkpt lat="46.554884211578006" lon="12.38644413515683"><ele>995.3333333333334</ele><time>2026-04-19T17:13:02.999Z</time></trkpt><trkpt lat="46.5549682904773" lon="12.386485949757466"><ele>993.0</ele><time>2026-04-19T17:13:03.999Z</time></trkpt><trkpt lat="46.555039934606484" lon="12.38654880666243"><ele>993.0</ele><time>2026-04-19T17:13:04.999Z</time></trkpt><trkpt lat="46.55511386522095" lon="12.386630850383575"><ele>993.0</ele><time>2026-04-19T17:13:05.999Z</time></trkpt><trkpt lat="46.5551863403389" lon="12.386738763054492"><ele>993.0</ele><time>2026-04-19T17:13:06.999Z</time></trkpt><trkpt lat="46.55526135957542" lon="12.386858560147148"><ele>993.0</ele><time>2026-04-19T17:13:07.999Z</time></trkpt><trkpt lat="46.555331715342604" lon="12.386978426308035"><ele>993.0</ele><time>2026-04-19T17:13:08.999Z</time></trkpt><trkpt lat="46.55540647793834" lon="12.3870896594349"><ele>991.8</ele><time>2026-04-19T17:13:09.999Z</time></trkpt><trkpt lat="46.55548170978957" lon="12.387200205305469"><ele>990.5999999999999</ele><time>2026-04-19T17:13:10.999Z</time></trkpt><trkpt lat="46.555559328505815" lon="12.387301175722115"><ele>989.4000000000001</ele><time>2026-04-19T17:13:11.999Z</time></trkpt><trkpt lat="46.55563712822272" lon="12.38739596583202"><ele>988.2</ele><time>2026-04-19T17:13:12.999Z</time></trkpt><trkpt lat="46.55571789833264" lon="12.387482893966911"><ele>987.0</ele><time>2026-04-19T17:13:13.999Z</time></trkpt><trkpt lat="46.55581045916759" lon="12.387579994945206"><ele>987.0</ele><time>2026-04-19T17:13:14.999Z</time></trkpt><trkpt lat="46.55590572138816" lon="12.38768069800554"><ele>987.0</ele><time>2026-04-19T17:13:15.999Z</time></trkpt><trkpt lat="46.55600044430973" lon="12.3877949051707"><ele>987.0</ele><time>2026-04-19T17:13:16.999Z</time></trkpt><trkpt lat="46.5560934459094" lon="12.387918646319369"><ele>987.0</ele><time>2026-04-19T17:13:17.999Z</time></trkpt><trkpt lat="46.55618314181881" lon="12.388037264238703"><ele>987.75</ele><time>2026-04-19T17:13:18.999Z</time></trkpt><trkpt lat="46.55627296975308" lon="12.38815520963073"><ele>988.5</ele><time>2026-04-19T17:13:19.999Z</time></trkpt><trkpt lat="46.556368132942595" lon="12.388264953372166"><ele>989.25</ele><time>2026-04-19T17:13:20.999Z</time></trkpt><trkpt lat="46.55646561550547" lon="12.388371560345899"><ele>990.0</ele><time>2026-04-19T17:13:21.999Z</time></trkpt><trkpt lat="46.55656295271097" lon="12.388486064442825"><ele>990.0</ele><time>2026-04-19T17:13:22.999Z</time></trkpt><trkpt lat="46.5566596191093" lon="12.388601637535684"><ele>990.0</ele><time>2026-04-19T17:13:23.999Z</time></trkpt><trkpt lat="46.556767149248884" lon="12.388703234663874"><ele>990.0</ele><time>2026-04-19T17:13:24.999Z</time></trkpt><trkpt lat="46.55686997493633" lon="12.388811781673912"><ele>990.0</ele><time>2026-04-19T17:13:25.999Z</time></trkpt><trkpt lat="46.55697398532974" lon="12.388925956083465"><ele>991.0</ele><time>2026-04-19T17:13:26.999Z</time></trkpt><trkpt lat="46.55707571093714" lon="12.389038804106017"><ele>992.0</ele><time>2026-04-19T17:13:27.999Z</time></trkpt><trkpt lat="46.55718325829316" lon="12.389137513556967"><ele>993.0</ele><time>2026-04-19T17:13:28.999Z</time></trkpt><trkpt lat="46.55729102029096" lon="12.389233579619292"><ele>994.0</ele><time>2026-04-19T17:13:29.999Z</time></trkpt><trkpt lat="46.55739018986526" lon="12.389347020129762"><ele>994.0</ele><time>2026-04-19T17:13:30.999Z</time></trkpt><trkpt lat="46.557483689459104" lon="12.38948834547658"><ele>994.0</ele><time>2026-04-19T17:13:31.999Z</time></trkpt><trkpt lat="46.55757596585469" lon="12.389637136263945"><ele>994.0</ele><time>2026-04-19T17:13:32.999Z</time></trkpt><trkpt lat="46.55766572046625" lon="12.389783095432316"><ele>994.0</ele><time>2026-04-19T17:13:33.999Z</time></trkpt><trkpt lat="46.55774475947309" lon="12.389908688528429"><ele>994.6</ele><time>2026-04-19T17:13:34.999Z</time></trkpt><trkpt lat="46.55781827455862" lon="12.39003031354446"><ele>995.2</ele><time>2026-04-19T17:13:35.999Z</time></trkpt><trkpt lat="46.557885076149645" lon="12.39014751163047"><ele>995.8000000000001</ele><time>2026-04-19T17:13:36.999Z</time></trkpt><trkpt lat="46.557953418007095" lon="12.390269222518537"><ele>996.4000000000001</ele><time>2026-04-19T17:13:37.999Z</time></trkpt><trkpt lat="46.5580141368316" lon="12.390389758666597"><ele>997.0</ele><time>2026-04-19T17:13:38.999Z</time></trkpt><trkpt lat="46.55805885224937" lon="12.390524537714649"><ele>995.0</ele><time>2026-04-19T17:13:39.999Z</time></trkpt><trkpt lat="46.558084627271434" lon="12.390670238280798"><ele>993.0</ele><time>2026-04-19T17:13:40.999Z</time></trkpt><trkpt lat="46.55810064389957" lon="12.39081553525129"><ele>991.0</ele><time>2026-04-19T17:13:41.999Z</time></trkpt><trkpt lat="46.558114541561665" lon="12.390960687934774"><ele>989.0</ele><time>2026-04-19T17:13:42.999Z</time></trkpt><trkpt lat="46.558137769275" lon="12.391084483291035"><ele>987.0</ele><time>2026-04-19T17:13:43.999Z</time></trkpt><trkpt lat="46.558168303918436" lon="12.39120529287985"><ele>987.0</ele><time>2026-04-19T17:13:44.999Z</time></trkpt><trkpt lat="46.55819209286663" lon="12.39132652889999"><ele>987.0</ele><time>2026-04-19T17:13:45.999Z</time></trkpt><trkpt lat="46.5581957047589" lon="12.391444816680096"><ele>987.0</ele><time>2026-04-19T17:13:46.999Z</time></trkpt><trkpt lat="46.55819323281924" lon="12.391543740422971"><ele>987.0</ele><time>2026-04-19T17:13:47.999Z</time></trkpt><trkpt lat="46.558230604971946" lon="12.391689291773345"><ele>987.0</ele><time>2026-04-19T17:13:49.999Z</time></trkpt><trkpt lat="46.558358384134294" lon="12.391731597132337"><ele>985.6666666666666</ele><time>2026-04-19T17:13:51.999Z</time></trkpt><trkpt lat="46.558449154712314" lon="12.391731987184263"><ele>984.3333333333333</ele><time>2026-04-19T17:13:52.999Z</time></trkpt><trkpt lat="46.55854249400781" lon="12.391740879779112"><ele>983.0</ele><time>2026-04-19T17:13:53.999Z</time></trkpt><trkpt lat="46.55862772879407" lon="12.391748216365919"><ele>981.6666666666666</ele><time>2026-04-19T17:13:54.999Z</time></trkpt><trkpt lat="46.55869888935303" lon="12.39176826594295"><ele>980.3333333333333</ele><time>2026-04-19T17:13:55.999Z</time></trkpt><trkpt lat="46.558765435762425" lon="12.391812254982252"><ele>979.0</ele><time>2026-04-19T17:13:56.999Z</time></trkpt><trkpt lat="46.558819980405424" lon="12.391885970781688"><ele>978.9999999999999</ele><time>2026-04-19T17:13:57.999Z</time></trkpt><trkpt lat="46.558867425898136" lon="12.391965495053467"><ele>979.0</ele><time>2026-04-19T17:13:58.999Z</time></trkpt><trkpt lat="46.55892135059297" lon="12.392028852690885"><ele>979.0</ele><time>2026-04-19T17:13:59.999Z</time></trkpt><trkpt lat="46.558989526991084" lon="12.39207907610635"><ele>979.0</ele><time>2026-04-19T17:14:00.999Z</time></trkpt><trkpt lat="46.55907322979468" lon="12.392125462326145"><ele>978.9999999999999</ele><time>2026-04-19T17:14:01.999Z</time></trkpt><trkpt lat="46.55916588459806" lon="12.392164831058764"><ele>979.0</ele><time>2026-04-19T17:14:02.999Z</time></trkpt><trkpt lat="46.559261591233785" lon="12.392224490224514"><ele>977.0</ele><time>2026-04-19T17:14:03.999Z</time></trkpt><trkpt lat="46.5593579628607" lon="12.39228114306538"><ele>975.0000000000001</ele><time>2026-04-19T17:14:04.999Z</time></trkpt><trkpt lat="46.55945180483891" lon="12.392336732774883"><ele>973.0000000000001</ele><time>2026-04-19T17:14:05.999Z</time></trkpt><trkpt lat="46.55954760986828" lon="12.392380894377522"><ele>971.0</ele><time>2026-04-19T17:14:06.998Z</time></trkpt><trkpt lat="46.559639317048926" lon="12.392417888847275"><ele>969.0</ele><time>2026-04-19T17:14:07.998Z</time></trkpt><trkpt lat="46.55973622305314" lon="12.392440377368438"><ele>967.0</ele><time>2026-04-19T17:14:08.998Z</time></trkpt><trkpt lat="46.559830654363964" lon="12.392441013460136"><ele>965.0000000000001</ele><time>2026-04-19T17:14:09.998Z</time></trkpt><trkpt lat="46.55992983230831" lon="12.392426987601793"><ele>963.0000000000001</ele><time>2026-04-19T17:14:10.998Z</time></trkpt><trkpt lat="46.56002155638562" lon="12.39240403941707"><ele>961.0</ele><time>2026-04-19T17:14:11.998Z</time></trkpt><trkpt lat="46.56011870840457" lon="12.392365262852792"><ele>959.0</ele><time>2026-04-19T17:14:12.998Z</time></trkpt><trkpt lat="46.560238262388644" lon="12.392346513245457"><ele>959.0</ele><time>2026-04-19T17:14:14Z</time></trkpt><trkpt lat="46.56035415797043" lon="12.392347515291917"><ele>959.0</ele><time>2026-04-19T17:14:15Z</time></trkpt><trkpt lat="46.5604687210167" lon="12.392358178834177"><ele>959.0</ele><time>2026-04-19T17:14:16Z</time></trkpt><trkpt lat="46.56058457516705" lon="12.392353334846367"><ele>959.0</ele><time>2026-04-19T17:14:17Z</time></trkpt><trkpt lat="46.5606974760112" lon="12.39233310687875"><ele>957.8000000000001</ele><time>2026-04-19T17:14:18Z</time></trkpt><trkpt lat="46.560808627605006" lon="12.392307686257306"><ele>956.6000000000001</ele><time>2026-04-19T17:14:19Z</time></trkpt><trkpt lat="46.56091230374138" lon="12.392291489172587"><ele>955.4</ele><time>2026-04-19T17:14:20Z</time></trkpt><trkpt lat="46.56100762190291" lon="12.392281477527158"><ele>954.2</ele><time>2026-04-19T17:14:21Z</time></trkpt><trkpt lat="46.56109457249338" lon="12.392277966369038"><ele>953.0</ele><time>2026-04-19T17:14:22Z</time></trkpt><trkpt lat="46.56116984376597" lon="12.392299689343263"><ele>955.6666666666667</ele><time>2026-04-19T17:14:23Z</time></trkpt><trkpt lat="46.56124090522736" lon="12.392347048756726"><ele>958.3333333333334</ele><time>2026-04-19T17:14:24Z</time></trkpt><trkpt lat="46.561315367202226" lon="12.392413917906024"><ele>961.0</ele><time>2026-04-19T17:14:25Z</time></trkpt><trkpt lat="46.561370431765056" lon="12.39251120189986"><ele>963.6666666666667</ele><time>2026-04-19T17:14:26Z</time></trkpt><trkpt lat="46.56141849574335" lon="12.392625673568045"><ele>966.3333333333334</ele><time>2026-04-19T17:14:27Z</time></trkpt><trkpt lat="46.56146822195172" lon="12.392750809391321"><ele>969.0</ele><time>2026-04-19T17:14:28Z</time></trkpt><trkpt lat="46.56151705108534" lon="12.392890870691243"><ele>964.8000000000001</ele><time>2026-04-19T17:14:29Z</time></trkpt><trkpt lat="46.56156423848784" lon="12.39302806524272"><ele>960.6000000000001</ele><time>2026-04-19T17:14:30Z</time></trkpt><trkpt lat="46.56161323757833" lon="12.393152498869213"><ele>956.4</ele><time>2026-04-19T17:14:31Z</time></trkpt><trkpt lat="46.56167152956784" lon="12.393264063510665"><ele>952.2</ele><time>2026-04-19T17:14:32Z</time></trkpt><trkpt lat="46.561695830740774" lon="12.393403443998029"><ele>948.0</ele><time>2026-04-19T17:14:33Z</time></trkpt><trkpt lat="46.56174973116041" lon="12.393518632676109"><ele>948.0</ele><time>2026-04-19T17:14:34Z</time></trkpt><trkpt lat="46.56180965032243" lon="12.393632045889952"><ele>948.0</ele><time>2026-04-19T17:14:35Z</time></trkpt><trkpt lat="46.5618739554959" lon="12.393737921099289"><ele>948.0</ele><time>2026-04-19T17:14:36Z</time></trkpt><trkpt lat="46.5619375230454" lon="12.393824345489474"><ele>948.0</ele><time>2026-04-19T17:14:37Z</time></trkpt><trkpt lat="46.5620061575137" lon="12.393879273227697"><ele>948.0</ele><time>2026-04-19T17:14:38Z</time></trkpt><trkpt lat="46.562093446474584" lon="12.393926089735949"><ele>945.75</ele><time>2026-04-19T17:14:39Z</time></trkpt><trkpt lat="46.562203956772215" lon="12.393976021453735"><ele>943.5</ele><time>2026-04-19T17:14:40Z</time></trkpt><trkpt lat="46.562314289794344" lon="12.394047884186932"><ele>941.25</ele><time>2026-04-19T17:14:41Z</time></trkpt><trkpt lat="46.562419242232615" lon="12.394135751628099"><ele>939.0</ele><time>2026-04-19T17:14:42Z</time></trkpt><trkpt lat="46.56251206887864" lon="12.39422134940213"><ele>939.0</ele><time>2026-04-19T17:14:43Z</time></trkpt><trkpt lat="46.56260685106478" lon="12.394304375234066"><ele>939.0000000000001</ele><time>2026-04-19T17:14:44Z</time></trkpt><trkpt lat="46.562703590299655" lon="12.394370423216133"><ele>939.0000000000001</ele><time>2026-04-19T17:14:45Z</time></trkpt><trkpt lat="46.562788973640515" lon="12.39442600999568"><ele>939.0</ele><time>2026-04-19T17:14:46Z</time></trkpt><trkpt lat="46.562890025320705" lon="12.394459150824046"><ele>939.0</ele><time>2026-04-19T17:14:47Z</time></trkpt><trkpt lat="46.56299500842951" lon="12.394466418504951"><ele>940.75</ele><time>2026-04-19T17:14:48Z</time></trkpt><trkpt lat="46.563111199355426" lon="12.394451058058223"><ele>942.5</ele><time>2026-04-19T17:14:49Z</time></trkpt><trkpt lat="46.563239210089385" lon="12.394432934609707"><ele>944.25</ele><time>2026-04-19T17:14:50Z</time></trkpt><trkpt lat="46.56338535373386" lon="12.3944174085064"><ele>946.0</ele><time>2026-04-19T17:14:51Z</time></trkpt><trkpt lat="46.56352384901459" lon="12.394413640745286"><ele>946.0</ele><time>2026-04-19T17:14:52Z</time></trkpt><trkpt lat="46.5636504736049" lon="12.394412991772151"><ele>946.0</ele><time>2026-04-19T17:14:53Z</time></trkpt><trkpt lat="46.563768750078815" lon="12.394419227321729"><ele>946.0</ele><time>2026-04-19T17:14:54Z</time></trkpt><trkpt lat="46.5638781967919" lon="12.394440348881401"><ele>946.0</ele><time>2026-04-19T17:14:55Z</time></trkpt><trkpt lat="46.563982075389475" lon="12.394488142326708"><ele>948.0</ele><time>2026-04-19T17:14:56Z</time></trkpt><trkpt lat="46.5640835935982" lon="12.394595295404141"><ele>950.0</ele><time>2026-04-19T17:14:57Z</time></trkpt><trkpt lat="46.56419658271391" lon="12.39473107530725"><ele>952.0</ele><time>2026-04-19T17:14:58Z</time></trkpt><trkpt lat="46.564311685539835" lon="12.394868580589646"><ele>954.0</ele><time>2026-04-19T17:14:59Z</time></trkpt><trkpt lat="46.5644301625841" lon="12.394995974280542"><ele>948.5</ele><time>2026-04-19T17:15:00Z</time></trkpt><trkpt lat="46.56455314335915" lon="12.395119203126725"><ele>943.0</ele><time>2026-04-19T17:15:01Z</time></trkpt><trkpt lat="46.56467760854789" lon="12.395233326840323"><ele>937.5</ele><time>2026-04-19T17:15:02Z</time></trkpt><trkpt lat="46.56480745532946" lon="12.395337606024516"><ele>932.0</ele><time>2026-04-19T17:15:03Z</time></trkpt><trkpt lat="46.56493390722351" lon="12.395437598436299"><ele>932.5</ele><time>2026-04-19T17:15:04Z</time></trkpt><trkpt lat="46.565050847627504" lon="12.395537943797008"><ele>933.0</ele><time>2026-04-19T17:15:05Z</time></trkpt><trkpt lat="46.56516465006045" lon="12.395635711096382"><ele>933.5</ele><time>2026-04-19T17:15:06Z</time></trkpt><trkpt lat="46.565272052175764" lon="12.395755303093273"><ele>934.0</ele><time>2026-04-19T17:15:07Z</time></trkpt><trkpt lat="46.565382850515775" lon="12.395879501505792"><ele>934.0</ele><time>2026-04-19T17:15:08Z</time></trkpt><trkpt lat="46.565482326860554" lon="12.396027793917503"><ele>934.0</ele><time>2026-04-19T17:15:09Z</time></trkpt><trkpt lat="46.56557478462448" lon="12.396174811410345"><ele>934.0</ele><time>2026-04-19T17:15:10Z</time></trkpt><trkpt lat="46.565660465858045" lon="12.39631895747396"><ele>934.0</ele><time>2026-04-19T17:15:11Z</time></trkpt><trkpt lat="46.56574473616944" lon="12.396459842503688"><ele>928.0</ele><time>2026-04-19T17:15:12Z</time></trkpt><trkpt lat="46.56582176004162" lon="12.396610737481017"><ele>922.0</ele><time>2026-04-19T17:15:13Z</time></trkpt><trkpt lat="46.5658862766531" lon="12.396771208600704"><ele>916.0</ele><time>2026-04-19T17:15:14Z</time></trkpt><trkpt lat="46.56595068374813" lon="12.396930032289987"><ele>910.0</ele><time>2026-04-19T17:15:15Z</time></trkpt><trkpt lat="46.56601411799663" lon="12.397090143060248"><ele>909.75</ele><time>2026-04-19T17:15:16Z</time></trkpt><trkpt lat="46.5660784183302" lon="12.397260975425814"><ele>909.5</ele><time>2026-04-19T17:15:17Z</time></trkpt><trkpt lat="46.56614997694142" lon="12.397434061460329"><ele>909.25</ele><time>2026-04-19T17:15:18Z</time></trkpt><trkpt lat="46.56622556275301" lon="12.397610063150683"><ele>909.0</ele><time>2026-04-19T17:15:19Z</time></trkpt><trkpt lat="46.56629999766647" lon="12.397788472999462"><ele>908.75</ele><time>2026-04-19T17:15:20Z</time></trkpt><trkpt lat="46.56637376092476" lon="12.397976758425154"><ele>908.5</ele><time>2026-04-19T17:15:21Z</time></trkpt><trkpt lat="46.5664518386228" lon="12.39815670732405"><ele>908.25</ele><time>2026-04-19T17:15:22Z</time></trkpt><trkpt lat="46.566529420084734" lon="12.398340212013702"><ele>908.0</ele><time>2026-04-19T17:15:23Z</time></trkpt><trkpt lat="46.566600472815814" lon="12.398521258149886"><ele>908.0</ele><time>2026-04-19T17:15:24Z</time></trkpt><trkpt lat="46.566667531990056" lon="12.398691487352497"><ele>908.0</ele><time>2026-04-19T17:15:25Z</time></trkpt><trkpt lat="46.56673527968835" lon="12.398856623045031"><ele>908.0</ele><time>2026-04-19T17:15:26Z</time></trkpt><trkpt lat="46.56680848138409" lon="12.39902213607581"><ele>908.0</ele><time>2026-04-19T17:15:27Z</time></trkpt><trkpt lat="46.56688912722059" lon="12.399183862186895"><ele>904.25</ele><time>2026-04-19T17:15:27.999Z</time></trkpt><trkpt lat="46.56698167110892" lon="12.399331600391392"><ele>900.5</ele><time>2026-04-19T17:15:28.999Z</time></trkpt><trkpt lat="46.5670889221014" lon="12.399474003389065"><ele>896.75</ele><time>2026-04-19T17:15:29.999Z</time></trkpt><trkpt lat="46.56721447079699" lon="12.399618176453782"><ele>893.0</ele><time>2026-04-19T17:15:30.999Z</time></trkpt><trkpt lat="46.567340303552974" lon="12.399764514188202"><ele>891.0</ele><time>2026-04-19T17:15:31.999Z</time></trkpt><trkpt lat="46.567459208931005" lon="12.399946249415878"><ele>889.0</ele><time>2026-04-19T17:15:32.999Z</time></trkpt><trkpt lat="46.567589412962576" lon="12.400101687425607"><ele>887.0</ele><time>2026-04-19T17:15:33.999Z</time></trkpt><trkpt lat="46.567721980760716" lon="12.400259947308383"><ele>887.6666666666667</ele><time>2026-04-19T17:15:34.999Z</time></trkpt><trkpt lat="46.56786557903331" lon="12.400400545374156"><ele>888.3333333333333</ele><time>2026-04-19T17:15:35.999Z</time></trkpt><trkpt lat="46.567997370259306" lon="12.40055760892833"><ele>889.0</ele><time>2026-04-19T17:15:36.999Z</time></trkpt><trkpt lat="46.568106784201916" lon="12.40071863885857"><ele>890.0</ele><time>2026-04-19T17:15:37.999Z</time></trkpt><trkpt lat="46.56821069037491" lon="12.400842659722047"><ele>891.0000000000001</ele><time>2026-04-19T17:15:38.999Z</time></trkpt><trkpt lat="46.56829705973064" lon="12.400947730878816"><ele>892.0000000000001</ele><time>2026-04-19T17:15:39.999Z</time></trkpt><trkpt lat="46.5683762589935" lon="12.401025177803868"><ele>893.0</ele><time>2026-04-19T17:15:40.999Z</time></trkpt><trkpt lat="46.56842493411478" lon="12.401127104916526"><ele>894.0</ele><time>2026-04-19T17:15:41.999Z</time></trkpt><trkpt lat="46.56845974716485" lon="12.40123797019751"><ele>894.0</ele><time>2026-04-19T17:15:42.999Z</time></trkpt><trkpt lat="46.5684340118213" lon="12.40136760815141"><ele>898.0</ele><time>2026-04-19T17:15:43.999Z</time></trkpt><trkpt lat="46.56840077125326" lon="12.401478238797404"><ele>898.0</ele><time>2026-04-19T17:15:44.999Z</time></trkpt></trkseg></trk></gpx>